<?xml version="1.0" encoding="UTF-8" standalone="no" ?>
<gpx xmlns="http://www.topografix.com/GPX/1/1" xmlns:xsi="http://www.w3.org/2001/XMLSchema-instance" xsi:schemaLocation="http://www.topografix.com/GPX/1/1 http://www.topografix.com/GPX/1/1/gpx.xsd" version="1.1" creator="VisuGPX - https://www.visugpx.com">
  <metadata>
    <name>Crolles - Granier</name>
    <desc><![CDATA[traversee chartreuse  ski?]]></desc>
  </metadata>
  <trk>
    <name><![CDATA[01-F]]></name>
    <trkseg>
      <trkpt lat="45.29865" lon="5.84328">
        <ele>1125.36</ele>
        <time>2015-03-07T06:06:32Z</time>
      </trkpt>
      <trkpt lat="45.29876" lon="5.84311">
        <ele>1128.73</ele>
        <time>2015-03-07T06:06:47Z</time>
      </trkpt>
      <trkpt lat="45.29893" lon="5.84292">
        <ele>1131.61</ele>
        <time>2015-03-07T06:07:07Z</time>
      </trkpt>
      <trkpt lat="45.29907" lon="5.84282">
        <ele>1134.49</ele>
        <time>2015-03-07T06:07:21Z</time>
      </trkpt>
      <trkpt lat="45.2992" lon="5.84278">
        <ele>1137.38</ele>
        <time>2015-03-07T06:07:35Z</time>
      </trkpt>
      <trkpt lat="45.29921" lon="5.84277">
        <ele>1137.86</ele>
        <time>2015-03-07T06:07:36Z</time>
      </trkpt>
      <trkpt lat="45.29928" lon="5.84269">
        <ele>1141.22</ele>
        <time>2015-03-07T06:07:48Z</time>
      </trkpt>
      <trkpt lat="45.29933" lon="5.84263">
        <ele>1143.14</ele>
        <time>2015-03-07T06:07:57Z</time>
      </trkpt>
      <trkpt lat="45.29938" lon="5.84242">
        <ele>1145.55</ele>
        <time>2015-03-07T06:08:08Z</time>
      </trkpt>
      <trkpt lat="45.29938" lon="5.84242">
        <ele>1146.03</ele>
        <time>2015-03-07T06:08:09Z</time>
      </trkpt>
      <trkpt lat="45.29949" lon="5.84234">
        <ele>1149.39</ele>
        <time>2015-03-07T06:08:23Z</time>
      </trkpt>
      <trkpt lat="45.29958" lon="5.84231">
        <ele>1152.28</ele>
        <time>2015-03-07T06:08:34Z</time>
      </trkpt>
      <trkpt lat="45.29971" lon="5.84234">
        <ele>1155.64</ele>
        <time>2015-03-07T06:08:46Z</time>
      </trkpt>
      <trkpt lat="45.29982" lon="5.84225">
        <ele>1158.53</ele>
        <time>2015-03-07T06:08:59Z</time>
      </trkpt>
      <trkpt lat="45.29988" lon="5.84221">
        <ele>1160.45</ele>
        <time>2015-03-07T06:09:06Z</time>
      </trkpt>
      <trkpt lat="45.29998" lon="5.84206">
        <ele>1162.37</ele>
        <time>2015-03-07T06:09:16Z</time>
      </trkpt>
      <trkpt lat="45.30006" lon="5.84202">
        <ele>1165.26</ele>
        <time>2015-03-07T06:09:27Z</time>
      </trkpt>
      <trkpt lat="45.30018" lon="5.84199">
        <ele>1168.62</ele>
        <time>2015-03-07T06:09:41Z</time>
      </trkpt>
      <trkpt lat="45.30031" lon="5.84189">
        <ele>1171.5</ele>
        <time>2015-03-07T06:09:54Z</time>
      </trkpt>
      <trkpt lat="45.30044" lon="5.84172">
        <ele>1174.87</ele>
        <time>2015-03-07T06:10:09Z</time>
      </trkpt>
      <trkpt lat="45.30062" lon="5.84171">
        <ele>1177.75</ele>
        <time>2015-03-07T06:10:23Z</time>
      </trkpt>
      <trkpt lat="45.30076" lon="5.84165">
        <ele>1181.12</ele>
        <time>2015-03-07T06:10:37Z</time>
      </trkpt>
      <trkpt lat="45.30088" lon="5.84154">
        <ele>1184</ele>
        <time>2015-03-07T06:10:51Z</time>
      </trkpt>
      <trkpt lat="45.30099" lon="5.84144">
        <ele>1187.37</ele>
        <time>2015-03-07T06:11:05Z</time>
      </trkpt>
      <trkpt lat="45.30099" lon="5.84142">
        <ele>1187.85</ele>
        <time>2015-03-07T06:11:06Z</time>
      </trkpt>
      <trkpt lat="45.30116" lon="5.84124">
        <ele>1191.21</ele>
        <time>2015-03-07T06:11:24Z</time>
      </trkpt>
      <trkpt lat="45.30126" lon="5.8411">
        <ele>1193.13</ele>
        <time>2015-03-07T06:11:39Z</time>
      </trkpt>
      <trkpt lat="45.30141" lon="5.84097">
        <ele>1196.5</ele>
        <time>2015-03-07T06:11:56Z</time>
      </trkpt>
      <trkpt lat="45.30153" lon="5.84084">
        <ele>1199.38</ele>
        <time>2015-03-07T06:12:09Z</time>
      </trkpt>
      <trkpt lat="45.30166" lon="5.84068">
        <ele>1202.75</ele>
        <time>2015-03-07T06:12:21Z</time>
      </trkpt>
      <trkpt lat="45.30169" lon="5.84072">
        <ele>1205.63</ele>
        <time>2015-03-07T06:12:35Z</time>
      </trkpt>
      <trkpt lat="45.30177" lon="5.84077">
        <ele>1209</ele>
        <time>2015-03-07T06:12:48Z</time>
      </trkpt>
      <trkpt lat="45.30182" lon="5.84094">
        <ele>1212.36</ele>
        <time>2015-03-07T06:13:00Z</time>
      </trkpt>
      <trkpt lat="45.30188" lon="5.84105">
        <ele>1215.72</ele>
        <time>2015-03-07T06:13:11Z</time>
      </trkpt>
      <trkpt lat="45.30192" lon="5.84105">
        <ele>1218.61</ele>
        <time>2015-03-07T06:13:20Z</time>
      </trkpt>
      <trkpt lat="45.30197" lon="5.84106">
        <ele>1221.97</ele>
        <time>2015-03-07T06:13:28Z</time>
      </trkpt>
      <trkpt lat="45.30203" lon="5.84103">
        <ele>1222.93</ele>
        <time>2015-03-07T06:13:34Z</time>
      </trkpt>
      <trkpt lat="45.30217" lon="5.84093">
        <ele>1223.42</ele>
        <time>2015-03-07T06:13:46Z</time>
      </trkpt>
      <trkpt lat="45.3022" lon="5.84093">
        <ele>1223.9</ele>
        <time>2015-03-07T06:13:48Z</time>
      </trkpt>
      <trkpt lat="45.30231" lon="5.84087">
        <ele>1225.82</ele>
        <time>2015-03-07T06:14:00Z</time>
      </trkpt>
      <trkpt lat="45.30237" lon="5.84084">
        <ele>1227.74</ele>
        <time>2015-03-07T06:14:10Z</time>
      </trkpt>
      <trkpt lat="45.30244" lon="5.84085">
        <ele>1231.11</ele>
        <time>2015-03-07T06:14:20Z</time>
      </trkpt>
      <trkpt lat="45.30244" lon="5.84086">
        <ele>1231.11</ele>
        <time>2015-03-07T06:14:21Z</time>
      </trkpt>
      <trkpt lat="45.30253" lon="5.84084">
        <ele>1234.47</ele>
        <time>2015-03-07T06:14:31Z</time>
      </trkpt>
      <trkpt lat="45.30254" lon="5.84076">
        <ele>1237.35</ele>
        <time>2015-03-07T06:14:43Z</time>
      </trkpt>
      <trkpt lat="45.30244" lon="5.84069">
        <ele>1240.72</ele>
        <time>2015-03-07T06:14:56Z</time>
      </trkpt>
      <trkpt lat="45.30242" lon="5.84056">
        <ele>1243.6</ele>
        <time>2015-03-07T06:15:07Z</time>
      </trkpt>
      <trkpt lat="45.30248" lon="5.8405">
        <ele>1246.49</ele>
        <time>2015-03-07T06:15:17Z</time>
      </trkpt>
      <trkpt lat="45.30253" lon="5.8405">
        <ele>1248.41</ele>
        <time>2015-03-07T06:15:22Z</time>
      </trkpt>
      <trkpt lat="45.30269" lon="5.84056">
        <ele>1251.77</ele>
        <time>2015-03-07T06:15:38Z</time>
      </trkpt>
      <trkpt lat="45.30276" lon="5.84055">
        <ele>1255.14</ele>
        <time>2015-03-07T06:15:47Z</time>
      </trkpt>
      <trkpt lat="45.30283" lon="5.84053">
        <ele>1258.02</ele>
        <time>2015-03-07T06:15:57Z</time>
      </trkpt>
      <trkpt lat="45.30292" lon="5.84051">
        <ele>1260.91</ele>
        <time>2015-03-07T06:16:08Z</time>
      </trkpt>
      <trkpt lat="45.30302" lon="5.8405">
        <ele>1264.27</ele>
        <time>2015-03-07T06:16:21Z</time>
      </trkpt>
      <trkpt lat="45.30312" lon="5.84046">
        <ele>1267.64</ele>
        <time>2015-03-07T06:16:33Z</time>
      </trkpt>
      <trkpt lat="45.30318" lon="5.84043">
        <ele>1270.52</ele>
        <time>2015-03-07T06:16:44Z</time>
      </trkpt>
      <trkpt lat="45.30328" lon="5.84046">
        <ele>1272.92</ele>
        <time>2015-03-07T06:16:53Z</time>
      </trkpt>
      <trkpt lat="45.30343" lon="5.84042">
        <ele>1276.29</ele>
        <time>2015-03-07T06:17:08Z</time>
      </trkpt>
      <trkpt lat="45.30347" lon="5.8404">
        <ele>1276.29</ele>
        <time>2015-03-07T06:17:12Z</time>
      </trkpt>
      <trkpt lat="45.30359" lon="5.84039">
        <ele>1277.73</ele>
        <time>2015-03-07T06:17:22Z</time>
      </trkpt>
      <trkpt lat="45.30367" lon="5.84049">
        <ele>1280.13</ele>
        <time>2015-03-07T06:17:35Z</time>
      </trkpt>
      <trkpt lat="45.30375" lon="5.84047">
        <ele>1283.5</ele>
        <time>2015-03-07T06:17:47Z</time>
      </trkpt>
      <trkpt lat="45.30381" lon="5.84048">
        <ele>1285.42</ele>
        <time>2015-03-07T06:17:55Z</time>
      </trkpt>
      <trkpt lat="45.30392" lon="5.84051">
        <ele>1288.78</ele>
        <time>2015-03-07T06:18:08Z</time>
      </trkpt>
      <trkpt lat="45.30402" lon="5.84052">
        <ele>1292.15</ele>
        <time>2015-03-07T06:18:21Z</time>
      </trkpt>
      <trkpt lat="45.3041" lon="5.84048">
        <ele>1295.03</ele>
        <time>2015-03-07T06:18:32Z</time>
      </trkpt>
      <trkpt lat="45.30418" lon="5.84047">
        <ele>1298.4</ele>
        <time>2015-03-07T06:18:44Z</time>
      </trkpt>
      <trkpt lat="45.30428" lon="5.84046">
        <ele>1301.76</ele>
        <time>2015-03-07T06:18:54Z</time>
      </trkpt>
      <trkpt lat="45.30437" lon="5.84033">
        <ele>1305.13</ele>
        <time>2015-03-07T06:19:10Z</time>
      </trkpt>
      <trkpt lat="45.30446" lon="5.84025">
        <ele>1308.01</ele>
        <time>2015-03-07T06:19:22Z</time>
      </trkpt>
      <trkpt lat="45.30457" lon="5.8402">
        <ele>1309.93</ele>
        <time>2015-03-07T06:19:33Z</time>
      </trkpt>
      <trkpt lat="45.30466" lon="5.84017">
        <ele>1311.38</ele>
        <time>2015-03-07T06:19:42Z</time>
      </trkpt>
      <trkpt lat="45.30474" lon="5.84013">
        <ele>1312.34</ele>
        <time>2015-03-07T06:19:50Z</time>
      </trkpt>
      <trkpt lat="45.3048" lon="5.84009">
        <ele>1314.26</ele>
        <time>2015-03-07T06:20:00Z</time>
      </trkpt>
      <trkpt lat="45.30485" lon="5.84004">
        <ele>1317.14</ele>
        <time>2015-03-07T06:20:10Z</time>
      </trkpt>
      <trkpt lat="45.30497" lon="5.84001">
        <ele>1319.07</ele>
        <time>2015-03-07T06:20:23Z</time>
      </trkpt>
      <trkpt lat="45.30506" lon="5.83995">
        <ele>1321.47</ele>
        <time>2015-03-07T06:20:37Z</time>
      </trkpt>
      <trkpt lat="45.30507" lon="5.83991">
        <ele>1322.91</ele>
        <time>2015-03-07T06:20:41Z</time>
      </trkpt>
      <trkpt lat="45.30516" lon="5.83984">
        <ele>1324.83</ele>
        <time>2015-03-07T06:20:51Z</time>
      </trkpt>
      <trkpt lat="45.30524" lon="5.83978">
        <ele>1327.72</ele>
        <time>2015-03-07T06:21:01Z</time>
      </trkpt>
      <trkpt lat="45.3054" lon="5.83987">
        <ele>1329.16</ele>
        <time>2015-03-07T06:21:16Z</time>
      </trkpt>
      <trkpt lat="45.30545" lon="5.84002">
        <ele>1332.04</ele>
        <time>2015-03-07T06:21:32Z</time>
      </trkpt>
      <trkpt lat="45.30555" lon="5.84023">
        <ele>1333.97</ele>
        <time>2015-03-07T06:21:45Z</time>
      </trkpt>
      <trkpt lat="45.30571" lon="5.8403">
        <ele>1336.85</ele>
        <time>2015-03-07T06:22:01Z</time>
      </trkpt>
      <trkpt lat="45.30586" lon="5.84032">
        <ele>1339.73</ele>
        <time>2015-03-07T06:22:17Z</time>
      </trkpt>
      <trkpt lat="45.306" lon="5.84046">
        <ele>1343.1</ele>
        <time>2015-03-07T06:22:39Z</time>
      </trkpt>
      <trkpt lat="45.3061" lon="5.84063">
        <ele>1345.98</ele>
        <time>2015-03-07T06:22:54Z</time>
      </trkpt>
      <trkpt lat="45.30619" lon="5.84078">
        <ele>1348.87</ele>
        <time>2015-03-07T06:23:08Z</time>
      </trkpt>
      <trkpt lat="45.30626" lon="5.84089">
        <ele>1352.23</ele>
        <time>2015-03-07T06:23:24Z</time>
      </trkpt>
      <trkpt lat="45.30631" lon="5.84104">
        <ele>1355.6</ele>
        <time>2015-03-07T06:23:37Z</time>
      </trkpt>
      <trkpt lat="45.30639" lon="5.84111">
        <ele>1358.48</ele>
        <time>2015-03-07T06:23:48Z</time>
      </trkpt>
      <trkpt lat="45.30647" lon="5.84119">
        <ele>1361.84</ele>
        <time>2015-03-07T06:24:03Z</time>
      </trkpt>
      <trkpt lat="45.30649" lon="5.84127">
        <ele>1364.73</ele>
        <time>2015-03-07T06:24:15Z</time>
      </trkpt>
      <trkpt lat="45.30649" lon="5.84136">
        <ele>1367.61</ele>
        <time>2015-03-07T06:24:27Z</time>
      </trkpt>
      <trkpt lat="45.3065" lon="5.84138">
        <ele>1367.13</ele>
        <time>2015-03-07T06:24:44Z</time>
      </trkpt>
      <trkpt lat="45.3065" lon="5.84142">
        <ele>1370.02</ele>
        <time>2015-03-07T06:25:17Z</time>
      </trkpt>
      <trkpt lat="45.30651" lon="5.84156">
        <ele>1373.38</ele>
        <time>2015-03-07T06:25:28Z</time>
      </trkpt>
      <trkpt lat="45.30652" lon="5.84157">
        <ele>1373.38</ele>
        <time>2015-03-07T06:25:29Z</time>
      </trkpt>
      <trkpt lat="45.30661" lon="5.84164">
        <ele>1376.75</ele>
        <time>2015-03-07T06:25:40Z</time>
      </trkpt>
      <trkpt lat="45.30666" lon="5.84174">
        <ele>1379.63</ele>
        <time>2015-03-07T06:25:54Z</time>
      </trkpt>
      <trkpt lat="45.30663" lon="5.8418">
        <ele>1381.55</ele>
        <time>2015-03-07T06:26:02Z</time>
      </trkpt>
      <trkpt lat="45.30661" lon="5.84192">
        <ele>1383.47</ele>
        <time>2015-03-07T06:26:13Z</time>
      </trkpt>
      <trkpt lat="45.30659" lon="5.842">
        <ele>1384.92</ele>
        <time>2015-03-07T06:26:22Z</time>
      </trkpt>
      <trkpt lat="45.30657" lon="5.84206">
        <ele>1386.84</ele>
        <time>2015-03-07T06:26:29Z</time>
      </trkpt>
      <trkpt lat="45.30653" lon="5.84223">
        <ele>1389.72</ele>
        <time>2015-03-07T06:26:44Z</time>
      </trkpt>
      <trkpt lat="45.3065" lon="5.84232">
        <ele>1391.65</ele>
        <time>2015-03-07T06:26:56Z</time>
      </trkpt>
      <trkpt lat="45.30646" lon="5.84243">
        <ele>1394.53</ele>
        <time>2015-03-07T06:27:11Z</time>
      </trkpt>
      <trkpt lat="45.30639" lon="5.84252">
        <ele>1397.41</ele>
        <time>2015-03-07T06:27:24Z</time>
      </trkpt>
      <trkpt lat="45.30633" lon="5.84261">
        <ele>1399.82</ele>
        <time>2015-03-07T06:27:36Z</time>
      </trkpt>
      <trkpt lat="45.30634" lon="5.84268">
        <ele>1403.18</ele>
        <time>2015-03-07T06:27:45Z</time>
      </trkpt>
      <trkpt lat="45.30636" lon="5.84268">
        <ele>1404.62</ele>
        <time>2015-03-07T06:27:48Z</time>
      </trkpt>
      <trkpt lat="45.30646" lon="5.84276">
        <ele>1407.51</ele>
        <time>2015-03-07T06:28:03Z</time>
      </trkpt>
      <trkpt lat="45.30658" lon="5.84283">
        <ele>1410.87</ele>
        <time>2015-03-07T06:28:19Z</time>
      </trkpt>
      <trkpt lat="45.30666" lon="5.84285">
        <ele>1414.24</ele>
        <time>2015-03-07T06:28:33Z</time>
      </trkpt>
      <trkpt lat="45.30665" lon="5.84296">
        <ele>1416.16</ele>
        <time>2015-03-07T06:28:49Z</time>
      </trkpt>
      <trkpt lat="45.30661" lon="5.84303">
        <ele>1418.56</ele>
        <time>2015-03-07T06:29:01Z</time>
      </trkpt>
      <trkpt lat="45.30655" lon="5.8431">
        <ele>1420.49</ele>
        <time>2015-03-07T06:29:12Z</time>
      </trkpt>
      <trkpt lat="45.30651" lon="5.84322">
        <ele>1422.89</ele>
        <time>2015-03-07T06:29:24Z</time>
      </trkpt>
      <trkpt lat="45.30645" lon="5.84336">
        <ele>1425.29</ele>
        <time>2015-03-07T06:29:40Z</time>
      </trkpt>
      <trkpt lat="45.30638" lon="5.84346">
        <ele>1428.18</ele>
        <time>2015-03-07T06:29:53Z</time>
      </trkpt>
      <trkpt lat="45.30635" lon="5.84354">
        <ele>1430.1</ele>
        <time>2015-03-07T06:30:03Z</time>
      </trkpt>
      <trkpt lat="45.3063" lon="5.84365">
        <ele>1432.5</ele>
        <time>2015-03-07T06:30:16Z</time>
      </trkpt>
      <trkpt lat="45.30623" lon="5.84376">
        <ele>1435.39</ele>
        <time>2015-03-07T06:30:30Z</time>
      </trkpt>
      <trkpt lat="45.30619" lon="5.84386">
        <ele>1437.31</ele>
        <time>2015-03-07T06:30:43Z</time>
      </trkpt>
      <trkpt lat="45.30623" lon="5.8439">
        <ele>1440.67</ele>
        <time>2015-03-07T06:30:49Z</time>
      </trkpt>
      <trkpt lat="45.30636" lon="5.84398">
        <ele>1444.04</ele>
        <time>2015-03-07T06:31:09Z</time>
      </trkpt>
      <trkpt lat="45.30645" lon="5.84401">
        <ele>1446.92</ele>
        <time>2015-03-07T06:31:24Z</time>
      </trkpt>
      <trkpt lat="45.30645" lon="5.84406">
        <ele>1449.32</ele>
        <time>2015-03-07T06:31:41Z</time>
      </trkpt>
      <trkpt lat="45.30647" lon="5.8441">
        <ele>1452.69</ele>
        <time>2015-03-07T06:31:52Z</time>
      </trkpt>
      <trkpt lat="45.30654" lon="5.84414">
        <ele>1456.05</ele>
        <time>2015-03-07T06:32:05Z</time>
      </trkpt>
      <trkpt lat="45.30663" lon="5.84419">
        <ele>1458.94</ele>
        <time>2015-03-07T06:32:20Z</time>
      </trkpt>
      <trkpt lat="45.30671" lon="5.84425">
        <ele>1461.82</ele>
        <time>2015-03-07T06:32:35Z</time>
      </trkpt>
      <trkpt lat="45.30678" lon="5.8443">
        <ele>1465.19</ele>
        <time>2015-03-07T06:32:49Z</time>
      </trkpt>
      <trkpt lat="45.30684" lon="5.84434">
        <ele>1468.07</ele>
        <time>2015-03-07T06:33:03Z</time>
      </trkpt>
      <trkpt lat="45.30693" lon="5.84438">
        <ele>1471.44</ele>
        <time>2015-03-07T06:33:19Z</time>
      </trkpt>
      <trkpt lat="45.30702" lon="5.84442">
        <ele>1474.8</ele>
        <time>2015-03-07T06:33:35Z</time>
      </trkpt>
      <trkpt lat="45.30712" lon="5.84444">
        <ele>1477.68</ele>
        <time>2015-03-07T06:33:51Z</time>
      </trkpt>
      <trkpt lat="45.30709" lon="5.84455">
        <ele>1480.57</ele>
        <time>2015-03-07T06:34:11Z</time>
      </trkpt>
      <trkpt lat="45.30704" lon="5.84464">
        <ele>1483.45</ele>
        <time>2015-03-07T06:34:26Z</time>
      </trkpt>
      <trkpt lat="45.30697" lon="5.84475">
        <ele>1486.82</ele>
        <time>2015-03-07T06:34:41Z</time>
      </trkpt>
      <trkpt lat="45.30692" lon="5.84484">
        <ele>1489.7</ele>
        <time>2015-03-07T06:34:55Z</time>
      </trkpt>
      <trkpt lat="45.30687" lon="5.84493">
        <ele>1493.06</ele>
        <time>2015-03-07T06:35:08Z</time>
      </trkpt>
      <trkpt lat="45.30683" lon="5.84504">
        <ele>1495.95</ele>
        <time>2015-03-07T06:35:22Z</time>
      </trkpt>
      <trkpt lat="45.30678" lon="5.84514">
        <ele>1499.31</ele>
        <time>2015-03-07T06:35:33Z</time>
      </trkpt>
      <trkpt lat="45.30674" lon="5.84523">
        <ele>1501.24</ele>
        <time>2015-03-07T06:35:46Z</time>
      </trkpt>
      <trkpt lat="45.30668" lon="5.84534">
        <ele>1504.12</ele>
        <time>2015-03-07T06:35:59Z</time>
      </trkpt>
      <trkpt lat="45.30666" lon="5.84545">
        <ele>1506.52</ele>
        <time>2015-03-07T06:36:10Z</time>
      </trkpt>
      <trkpt lat="45.30663" lon="5.84554">
        <ele>1509.89</ele>
        <time>2015-03-07T06:36:24Z</time>
      </trkpt>
      <trkpt lat="45.30666" lon="5.84554">
        <ele>1511.81</ele>
        <time>2015-03-07T06:36:29Z</time>
      </trkpt>
      <trkpt lat="45.30673" lon="5.84558">
        <ele>1514.69</ele>
        <time>2015-03-07T06:36:45Z</time>
      </trkpt>
      <trkpt lat="45.30679" lon="5.84562">
        <ele>1517.58</ele>
        <time>2015-03-07T06:37:00Z</time>
      </trkpt>
      <trkpt lat="45.30689" lon="5.84563">
        <ele>1520.46</ele>
        <time>2015-03-07T06:37:15Z</time>
      </trkpt>
      <trkpt lat="45.307" lon="5.84569">
        <ele>1523.35</ele>
        <time>2015-03-07T06:37:34Z</time>
      </trkpt>
      <trkpt lat="45.30707" lon="5.84571">
        <ele>1526.71</ele>
        <time>2015-03-07T06:37:48Z</time>
      </trkpt>
      <trkpt lat="45.30712" lon="5.84572">
        <ele>1529.11</ele>
        <time>2015-03-07T06:37:58Z</time>
      </trkpt>
      <trkpt lat="45.30714" lon="5.84573">
        <ele>1529.59</ele>
        <time>2015-03-07T06:38:01Z</time>
      </trkpt>
      <trkpt lat="45.3072" lon="5.84573">
        <ele>1531.52</ele>
        <time>2015-03-07T06:38:11Z</time>
      </trkpt>
      <trkpt lat="45.30723" lon="5.84574">
        <ele>1532</ele>
        <time>2015-03-07T06:38:16Z</time>
      </trkpt>
      <trkpt lat="45.30728" lon="5.84578">
        <ele>1534.4</ele>
        <time>2015-03-07T06:38:28Z</time>
      </trkpt>
      <trkpt lat="45.30726" lon="5.84585">
        <ele>1536.32</ele>
        <time>2015-03-07T06:38:38Z</time>
      </trkpt>
      <trkpt lat="45.30722" lon="5.84593">
        <ele>1538.73</ele>
        <time>2015-03-07T06:38:50Z</time>
      </trkpt>
      <trkpt lat="45.3072" lon="5.84597">
        <ele>1539.69</ele>
        <time>2015-03-07T06:38:55Z</time>
      </trkpt>
      <trkpt lat="45.30719" lon="5.84604">
        <ele>1541.61</ele>
        <time>2015-03-07T06:39:06Z</time>
      </trkpt>
      <trkpt lat="45.30715" lon="5.84611">
        <ele>1544.01</ele>
        <time>2015-03-07T06:39:17Z</time>
      </trkpt>
      <trkpt lat="45.3071" lon="5.84619">
        <ele>1546.42</ele>
        <time>2015-03-07T06:39:28Z</time>
      </trkpt>
      <trkpt lat="45.30706" lon="5.84629">
        <ele>1548.82</ele>
        <time>2015-03-07T06:39:39Z</time>
      </trkpt>
      <trkpt lat="45.307" lon="5.84639">
        <ele>1551.22</ele>
        <time>2015-03-07T06:39:51Z</time>
      </trkpt>
      <trkpt lat="45.30697" lon="5.84643">
        <ele>1552.19</ele>
        <time>2015-03-07T06:39:56Z</time>
      </trkpt>
      <trkpt lat="45.30691" lon="5.84655">
        <ele>1554.59</ele>
        <time>2015-03-07T06:40:12Z</time>
      </trkpt>
      <trkpt lat="45.30684" lon="5.84665">
        <ele>1557.47</ele>
        <time>2015-03-07T06:40:26Z</time>
      </trkpt>
      <trkpt lat="45.30676" lon="5.84676">
        <ele>1560.36</ele>
        <time>2015-03-07T06:40:40Z</time>
      </trkpt>
      <trkpt lat="45.30671" lon="5.84687">
        <ele>1563.24</ele>
        <time>2015-03-07T06:40:53Z</time>
      </trkpt>
      <trkpt lat="45.30668" lon="5.84693">
        <ele>1565.16</ele>
        <time>2015-03-07T06:41:01Z</time>
      </trkpt>
      <trkpt lat="45.30662" lon="5.847">
        <ele>1568.05</ele>
        <time>2015-03-07T06:41:13Z</time>
      </trkpt>
      <trkpt lat="45.30657" lon="5.84708">
        <ele>1569.97</ele>
        <time>2015-03-07T06:41:24Z</time>
      </trkpt>
      <trkpt lat="45.30652" lon="5.84717">
        <ele>1573.33</ele>
        <time>2015-03-07T06:41:37Z</time>
      </trkpt>
      <trkpt lat="45.30649" lon="5.84726">
        <ele>1575.74</ele>
        <time>2015-03-07T06:41:47Z</time>
      </trkpt>
      <trkpt lat="45.30643" lon="5.84737">
        <ele>1578.14</ele>
        <time>2015-03-07T06:42:01Z</time>
      </trkpt>
      <trkpt lat="45.30641" lon="5.84741">
        <ele>1579.58</ele>
        <time>2015-03-07T06:42:06Z</time>
      </trkpt>
      <trkpt lat="45.30636" lon="5.84756">
        <ele>1582.47</ele>
        <time>2015-03-07T06:42:22Z</time>
      </trkpt>
      <trkpt lat="45.30631" lon="5.84767">
        <ele>1585.35</ele>
        <time>2015-03-07T06:42:35Z</time>
      </trkpt>
      <trkpt lat="45.3063" lon="5.8477">
        <ele>1586.31</ele>
        <time>2015-03-07T06:42:39Z</time>
      </trkpt>
      <trkpt lat="45.30629" lon="5.84773">
        <ele>1587.27</ele>
        <time>2015-03-07T06:42:43Z</time>
      </trkpt>
      <trkpt lat="45.30627" lon="5.84782">
        <ele>1589.68</ele>
        <time>2015-03-07T06:42:52Z</time>
      </trkpt>
      <trkpt lat="45.30629" lon="5.84786">
        <ele>1591.6</ele>
        <time>2015-03-07T06:43:04Z</time>
      </trkpt>
      <trkpt lat="45.30631" lon="5.84784">
        <ele>1592.08</ele>
        <time>2015-03-07T06:43:16Z</time>
      </trkpt>
      <trkpt lat="45.30631" lon="5.84785">
        <ele>1593.04</ele>
        <time>2015-03-07T06:44:01Z</time>
      </trkpt>
      <trkpt lat="45.30637" lon="5.84782">
        <ele>1594</ele>
        <time>2015-03-07T06:44:38Z</time>
      </trkpt>
      <trkpt lat="45.30646" lon="5.84781">
        <ele>1595.93</ele>
        <time>2015-03-07T06:44:48Z</time>
      </trkpt>
      <trkpt lat="45.30654" lon="5.84781">
        <ele>1598.33</ele>
        <time>2015-03-07T06:45:00Z</time>
      </trkpt>
      <trkpt lat="45.30662" lon="5.8478">
        <ele>1600.25</ele>
        <time>2015-03-07T06:45:11Z</time>
      </trkpt>
      <trkpt lat="45.3067" lon="5.8478">
        <ele>1602.66</ele>
        <time>2015-03-07T06:45:22Z</time>
      </trkpt>
      <trkpt lat="45.30678" lon="5.84777">
        <ele>1604.1</ele>
        <time>2015-03-07T06:45:33Z</time>
      </trkpt>
      <trkpt lat="45.30685" lon="5.84777">
        <ele>1606.02</ele>
        <time>2015-03-07T06:45:44Z</time>
      </trkpt>
      <trkpt lat="45.30693" lon="5.84775">
        <ele>1607.94</ele>
        <time>2015-03-07T06:45:55Z</time>
      </trkpt>
      <trkpt lat="45.307" lon="5.84774">
        <ele>1608.9</ele>
        <time>2015-03-07T06:46:06Z</time>
      </trkpt>
      <trkpt lat="45.30708" lon="5.84772">
        <ele>1611.31</ele>
        <time>2015-03-07T06:46:18Z</time>
      </trkpt>
      <trkpt lat="45.30708" lon="5.84772">
        <ele>1611.79</ele>
        <time>2015-03-07T06:46:19Z</time>
      </trkpt>
      <trkpt lat="45.30716" lon="5.84771">
        <ele>1613.71</ele>
        <time>2015-03-07T06:46:31Z</time>
      </trkpt>
      <trkpt lat="45.30724" lon="5.84772">
        <ele>1616.11</ele>
        <time>2015-03-07T06:46:42Z</time>
      </trkpt>
      <trkpt lat="45.30728" lon="5.84772">
        <ele>1617.56</ele>
        <time>2015-03-07T06:46:47Z</time>
      </trkpt>
      <trkpt lat="45.30731" lon="5.84771">
        <ele>1618.52</ele>
        <time>2015-03-07T06:46:52Z</time>
      </trkpt>
      <trkpt lat="45.30737" lon="5.8477">
        <ele>1620.44</ele>
        <time>2015-03-07T06:47:03Z</time>
      </trkpt>
      <trkpt lat="45.30744" lon="5.8477">
        <ele>1622.36</ele>
        <time>2015-03-07T06:47:14Z</time>
      </trkpt>
      <trkpt lat="45.30753" lon="5.84771">
        <ele>1625.25</ele>
        <time>2015-03-07T06:47:27Z</time>
      </trkpt>
      <trkpt lat="45.3076" lon="5.84769">
        <ele>1626.21</ele>
        <time>2015-03-07T06:47:37Z</time>
      </trkpt>
      <trkpt lat="45.30765" lon="5.84766">
        <ele>1627.17</ele>
        <time>2015-03-07T06:47:48Z</time>
      </trkpt>
      <trkpt lat="45.30771" lon="5.84766">
        <ele>1628.61</ele>
        <time>2015-03-07T06:47:57Z</time>
      </trkpt>
      <trkpt lat="45.30773" lon="5.84766">
        <ele>1629.09</ele>
        <time>2015-03-07T06:48:08Z</time>
      </trkpt>
      <trkpt lat="45.30771" lon="5.84765">
        <ele>1630.53</ele>
        <time>2015-03-07T06:48:56Z</time>
      </trkpt>
      <trkpt lat="45.30781" lon="5.84764">
        <ele>1632.94</ele>
        <time>2015-03-07T06:49:36Z</time>
      </trkpt>
      <trkpt lat="45.30789" lon="5.84764">
        <ele>1635.34</ele>
        <time>2015-03-07T06:49:50Z</time>
      </trkpt>
      <trkpt lat="45.30788" lon="5.84764">
        <ele>1635.82</ele>
        <time>2015-03-07T06:50:05Z</time>
      </trkpt>
      <trkpt lat="45.30788" lon="5.84764">
        <ele>1635.82</ele>
        <time>2015-03-07T06:50:15Z</time>
      </trkpt>
      <trkpt lat="45.30788" lon="5.84765">
        <ele>1636.3</ele>
        <time>2015-03-07T06:50:34Z</time>
      </trkpt>
      <trkpt lat="45.30784" lon="5.84775">
        <ele>1639.67</ele>
        <time>2015-03-07T06:50:47Z</time>
      </trkpt>
      <trkpt lat="45.3078" lon="5.84786">
        <ele>1642.55</ele>
        <time>2015-03-07T06:51:01Z</time>
      </trkpt>
      <trkpt lat="45.3078" lon="5.84788">
        <ele>1643.51</ele>
        <time>2015-03-07T06:51:03Z</time>
      </trkpt>
      <trkpt lat="45.30776" lon="5.84799">
        <ele>1646.88</ele>
        <time>2015-03-07T06:51:19Z</time>
      </trkpt>
      <trkpt lat="45.30776" lon="5.84798">
        <ele>1647.36</ele>
        <time>2015-03-07T06:51:21Z</time>
      </trkpt>
      <trkpt lat="45.30783" lon="5.848">
        <ele>1649.76</ele>
        <time>2015-03-07T06:51:31Z</time>
      </trkpt>
      <trkpt lat="45.3079" lon="5.84801">
        <ele>1651.2</ele>
        <time>2015-03-07T06:51:40Z</time>
      </trkpt>
      <trkpt lat="45.30796" lon="5.84799">
        <ele>1653.12</ele>
        <time>2015-03-07T06:51:49Z</time>
      </trkpt>
      <trkpt lat="45.30802" lon="5.84799">
        <ele>1654.09</ele>
        <time>2015-03-07T06:51:59Z</time>
      </trkpt>
      <trkpt lat="45.30803" lon="5.84799">
        <ele>1654.09</ele>
        <time>2015-03-07T06:52:00Z</time>
      </trkpt>
      <trkpt lat="45.3081" lon="5.84798">
        <ele>1655.53</ele>
        <time>2015-03-07T06:52:11Z</time>
      </trkpt>
      <trkpt lat="45.30816" lon="5.84798">
        <ele>1656.97</ele>
        <time>2015-03-07T06:52:20Z</time>
      </trkpt>
      <trkpt lat="45.30823" lon="5.84796">
        <ele>1658.89</ele>
        <time>2015-03-07T06:52:31Z</time>
      </trkpt>
      <trkpt lat="45.30829" lon="5.84794">
        <ele>1660.81</ele>
        <time>2015-03-07T06:52:41Z</time>
      </trkpt>
      <trkpt lat="45.30835" lon="5.84792">
        <ele>1662.26</ele>
        <time>2015-03-07T06:52:50Z</time>
      </trkpt>
      <trkpt lat="45.30841" lon="5.84791">
        <ele>1664.18</ele>
        <time>2015-03-07T06:52:59Z</time>
      </trkpt>
      <trkpt lat="45.30848" lon="5.8479">
        <ele>1666.1</ele>
        <time>2015-03-07T06:53:10Z</time>
      </trkpt>
      <trkpt lat="45.30854" lon="5.84789">
        <ele>1668.02</ele>
        <time>2015-03-07T06:53:20Z</time>
      </trkpt>
      <trkpt lat="45.30861" lon="5.84788">
        <ele>1669.95</ele>
        <time>2015-03-07T06:53:30Z</time>
      </trkpt>
      <trkpt lat="45.30868" lon="5.84788">
        <ele>1672.35</ele>
        <time>2015-03-07T06:53:40Z</time>
      </trkpt>
      <trkpt lat="45.30872" lon="5.84787">
        <ele>1673.31</ele>
        <time>2015-03-07T06:53:47Z</time>
      </trkpt>
      <trkpt lat="45.30878" lon="5.84787">
        <ele>1675.23</ele>
        <time>2015-03-07T06:53:59Z</time>
      </trkpt>
      <trkpt lat="45.30885" lon="5.84786">
        <ele>1677.64</ele>
        <time>2015-03-07T06:54:09Z</time>
      </trkpt>
      <trkpt lat="45.30887" lon="5.84786">
        <ele>1678.6</ele>
        <time>2015-03-07T06:54:13Z</time>
      </trkpt>
      <trkpt lat="45.30894" lon="5.84783">
        <ele>1681</ele>
        <time>2015-03-07T06:54:25Z</time>
      </trkpt>
      <trkpt lat="45.30901" lon="5.84781">
        <ele>1681.96</ele>
        <time>2015-03-07T06:54:35Z</time>
      </trkpt>
      <trkpt lat="45.30906" lon="5.8478">
        <ele>1683.89</ele>
        <time>2015-03-07T06:54:44Z</time>
      </trkpt>
      <trkpt lat="45.30912" lon="5.8478">
        <ele>1685.33</ele>
        <time>2015-03-07T06:54:54Z</time>
      </trkpt>
      <trkpt lat="45.30918" lon="5.84779">
        <ele>1687.73</ele>
        <time>2015-03-07T06:55:04Z</time>
      </trkpt>
      <trkpt lat="45.3092" lon="5.84778">
        <ele>1688.21</ele>
        <time>2015-03-07T06:55:08Z</time>
      </trkpt>
      <trkpt lat="45.30926" lon="5.84777">
        <ele>1690.62</ele>
        <time>2015-03-07T06:55:18Z</time>
      </trkpt>
      <trkpt lat="45.30927" lon="5.84776">
        <ele>1691.1</ele>
        <time>2015-03-07T06:55:22Z</time>
      </trkpt>
      <trkpt lat="45.30928" lon="5.84776">
        <ele>1691.58</ele>
        <time>2015-03-07T06:55:34Z</time>
      </trkpt>
      <trkpt lat="45.30927" lon="5.84779">
        <ele>1691.58</ele>
        <time>2015-03-07T06:55:37Z</time>
      </trkpt>
      <trkpt lat="45.30924" lon="5.84787">
        <ele>1693.98</ele>
        <time>2015-03-07T06:55:49Z</time>
      </trkpt>
      <trkpt lat="45.30923" lon="5.8479">
        <ele>1694.94</ele>
        <time>2015-03-07T06:55:53Z</time>
      </trkpt>
      <trkpt lat="45.30919" lon="5.84798">
        <ele>1697.83</ele>
        <time>2015-03-07T06:56:05Z</time>
      </trkpt>
      <trkpt lat="45.30916" lon="5.84807">
        <ele>1699.75</ele>
        <time>2015-03-07T06:56:15Z</time>
      </trkpt>
      <trkpt lat="45.30912" lon="5.84817">
        <ele>1702.15</ele>
        <time>2015-03-07T06:56:28Z</time>
      </trkpt>
      <trkpt lat="45.30909" lon="5.84823">
        <ele>1703.11</ele>
        <time>2015-03-07T06:56:38Z</time>
      </trkpt>
      <trkpt lat="45.30905" lon="5.84833">
        <ele>1706.48</ele>
        <time>2015-03-07T06:56:51Z</time>
      </trkpt>
      <trkpt lat="45.30902" lon="5.84842">
        <ele>1708.4</ele>
        <time>2015-03-07T06:57:03Z</time>
      </trkpt>
      <trkpt lat="45.30898" lon="5.84851">
        <ele>1711.76</ele>
        <time>2015-03-07T06:57:18Z</time>
      </trkpt>
      <trkpt lat="45.30901" lon="5.84851">
        <ele>1714.17</ele>
        <time>2015-03-07T06:57:33Z</time>
      </trkpt>
      <trkpt lat="45.30907" lon="5.84854">
        <ele>1716.09</ele>
        <time>2015-03-07T06:57:44Z</time>
      </trkpt>
      <trkpt lat="45.30912" lon="5.84854">
        <ele>1718.01</ele>
        <time>2015-03-07T06:57:53Z</time>
      </trkpt>
      <trkpt lat="45.30917" lon="5.84853">
        <ele>1719.94</ele>
        <time>2015-03-07T06:58:02Z</time>
      </trkpt>
      <trkpt lat="45.30924" lon="5.84854">
        <ele>1722.34</ele>
        <time>2015-03-07T06:58:12Z</time>
      </trkpt>
      <trkpt lat="45.30928" lon="5.84853">
        <ele>1723.3</ele>
        <time>2015-03-07T06:58:18Z</time>
      </trkpt>
      <trkpt lat="45.30933" lon="5.84852">
        <ele>1725.22</ele>
        <time>2015-03-07T06:58:28Z</time>
      </trkpt>
      <trkpt lat="45.30935" lon="5.84851">
        <ele>1725.7</ele>
        <time>2015-03-07T06:58:32Z</time>
      </trkpt>
      <trkpt lat="45.30941" lon="5.84847">
        <ele>1727.15</ele>
        <time>2015-03-07T06:58:46Z</time>
      </trkpt>
      <trkpt lat="45.30947" lon="5.84845">
        <ele>1728.59</ele>
        <time>2015-03-07T06:58:55Z</time>
      </trkpt>
      <trkpt lat="45.30952" lon="5.84844">
        <ele>1731.95</ele>
        <time>2015-03-07T06:59:06Z</time>
      </trkpt>
      <trkpt lat="45.30957" lon="5.84844">
        <ele>1732.91</ele>
        <time>2015-03-07T06:59:15Z</time>
      </trkpt>
      <trkpt lat="45.30962" lon="5.84843">
        <ele>1733.88</ele>
        <time>2015-03-07T06:59:25Z</time>
      </trkpt>
      <trkpt lat="45.30968" lon="5.84841">
        <ele>1736.76</ele>
        <time>2015-03-07T06:59:36Z</time>
      </trkpt>
      <trkpt lat="45.30974" lon="5.8484">
        <ele>1738.68</ele>
        <time>2015-03-07T06:59:46Z</time>
      </trkpt>
      <trkpt lat="45.30977" lon="5.8484">
        <ele>1739.64</ele>
        <time>2015-03-07T06:59:57Z</time>
      </trkpt>
      <trkpt lat="45.30975" lon="5.84844">
        <ele>1740.6</ele>
        <time>2015-03-07T07:00:09Z</time>
      </trkpt>
      <trkpt lat="45.30968" lon="5.84855">
        <ele>1743.97</ele>
        <time>2015-03-07T07:00:27Z</time>
      </trkpt>
      <trkpt lat="45.30961" lon="5.84866">
        <ele>1746.85</ele>
        <time>2015-03-07T07:00:44Z</time>
      </trkpt>
      <trkpt lat="45.30956" lon="5.84873">
        <ele>1747.81</ele>
        <time>2015-03-07T07:00:55Z</time>
      </trkpt>
      <trkpt lat="45.30952" lon="5.84884">
        <ele>1750.7</ele>
        <time>2015-03-07T07:01:10Z</time>
      </trkpt>
      <trkpt lat="45.30949" lon="5.84898">
        <ele>1753.58</ele>
        <time>2015-03-07T07:01:24Z</time>
      </trkpt>
      <trkpt lat="45.30946" lon="5.84905">
        <ele>1755.02</ele>
        <time>2015-03-07T07:01:36Z</time>
      </trkpt>
      <trkpt lat="45.30942" lon="5.84914">
        <ele>1757.91</ele>
        <time>2015-03-07T07:01:48Z</time>
      </trkpt>
      <trkpt lat="45.30936" lon="5.84925">
        <ele>1760.79</ele>
        <time>2015-03-07T07:02:06Z</time>
      </trkpt>
      <trkpt lat="45.30932" lon="5.84934">
        <ele>1764.16</ele>
        <time>2015-03-07T07:02:20Z</time>
      </trkpt>
      <trkpt lat="45.30931" lon="5.8494">
        <ele>1766.56</ele>
        <time>2015-03-07T07:02:31Z</time>
      </trkpt>
      <trkpt lat="45.30929" lon="5.84943">
        <ele>1767.52</ele>
        <time>2015-03-07T07:02:45Z</time>
      </trkpt>
      <trkpt lat="45.30935" lon="5.8494">
        <ele>1768.48</ele>
        <time>2015-03-07T07:02:57Z</time>
      </trkpt>
      <trkpt lat="45.3094" lon="5.84939">
        <ele>1769.92</ele>
        <time>2015-03-07T07:03:05Z</time>
      </trkpt>
      <trkpt lat="45.30944" lon="5.84939">
        <ele>1771.85</ele>
        <time>2015-03-07T07:03:15Z</time>
      </trkpt>
      <trkpt lat="45.30948" lon="5.84938">
        <ele>1772.81</ele>
        <time>2015-03-07T07:03:25Z</time>
      </trkpt>
      <trkpt lat="45.30951" lon="5.8494">
        <ele>1773.77</ele>
        <time>2015-03-07T07:03:30Z</time>
      </trkpt>
      <trkpt lat="45.30958" lon="5.84939">
        <ele>1776.65</ele>
        <time>2015-03-07T07:03:42Z</time>
      </trkpt>
      <trkpt lat="45.30964" lon="5.84938">
        <ele>1777.61</ele>
        <time>2015-03-07T07:03:51Z</time>
      </trkpt>
      <trkpt lat="45.30969" lon="5.84938">
        <ele>1779.54</ele>
        <time>2015-03-07T07:04:01Z</time>
      </trkpt>
      <trkpt lat="45.30973" lon="5.84939">
        <ele>1781.94</ele>
        <time>2015-03-07T07:04:10Z</time>
      </trkpt>
      <trkpt lat="45.30974" lon="5.8494">
        <ele>1783.38</ele>
        <time>2015-03-07T07:04:24Z</time>
      </trkpt>
      <trkpt lat="45.30972" lon="5.8494">
        <ele>1784.82</ele>
        <time>2015-03-07T07:06:57Z</time>
      </trkpt>
      <trkpt lat="45.30972" lon="5.84939">
        <ele>1785.31</ele>
        <time>2015-03-07T07:07:16Z</time>
      </trkpt>
      <trkpt lat="45.30972" lon="5.84939">
        <ele>1786.27</ele>
        <time>2015-03-07T07:07:51Z</time>
      </trkpt>
      <trkpt lat="45.30964" lon="5.84947">
        <ele>1788.67</ele>
        <time>2015-03-07T07:10:26Z</time>
      </trkpt>
      <trkpt lat="45.30956" lon="5.84958">
        <ele>1791.55</ele>
        <time>2015-03-07T07:10:45Z</time>
      </trkpt>
      <trkpt lat="45.30949" lon="5.84971">
        <ele>1794.44</ele>
        <time>2015-03-07T07:11:05Z</time>
      </trkpt>
      <trkpt lat="45.30942" lon="5.84979">
        <ele>1797.32</ele>
        <time>2015-03-07T07:11:25Z</time>
      </trkpt>
      <trkpt lat="45.30941" lon="5.84989">
        <ele>1800.21</ele>
        <time>2015-03-07T07:11:42Z</time>
      </trkpt>
      <trkpt lat="45.30943" lon="5.84992">
        <ele>1803.57</ele>
        <time>2015-03-07T07:12:00Z</time>
      </trkpt>
      <trkpt lat="45.30947" lon="5.84992">
        <ele>1805.97</ele>
        <time>2015-03-07T07:12:12Z</time>
      </trkpt>
      <trkpt lat="45.30946" lon="5.84998">
        <ele>1808.38</ele>
        <time>2015-03-07T07:12:26Z</time>
      </trkpt>
      <trkpt lat="45.30945" lon="5.85004">
        <ele>1809.82</ele>
        <time>2015-03-07T07:12:40Z</time>
      </trkpt>
      <trkpt lat="45.30947" lon="5.85007">
        <ele>1813.18</ele>
        <time>2015-03-07T07:12:56Z</time>
      </trkpt>
      <trkpt lat="45.30946" lon="5.85008">
        <ele>1815.59</ele>
        <time>2015-03-07T07:13:08Z</time>
      </trkpt>
      <trkpt lat="45.30948" lon="5.85011">
        <ele>1817.99</ele>
        <time>2015-03-07T07:13:21Z</time>
      </trkpt>
      <trkpt lat="45.3095" lon="5.85013">
        <ele>1819.91</ele>
        <time>2015-03-07T07:13:32Z</time>
      </trkpt>
      <trkpt lat="45.30952" lon="5.85017">
        <ele>1821.84</ele>
        <time>2015-03-07T07:13:42Z</time>
      </trkpt>
      <trkpt lat="45.30953" lon="5.85019">
        <ele>1824.24</ele>
        <time>2015-03-07T07:13:55Z</time>
      </trkpt>
      <trkpt lat="45.30955" lon="5.85025">
        <ele>1827.6</ele>
        <time>2015-03-07T07:14:11Z</time>
      </trkpt>
      <trkpt lat="45.30957" lon="5.85029">
        <ele>1831.45</ele>
        <time>2015-03-07T07:14:26Z</time>
      </trkpt>
      <trkpt lat="45.30958" lon="5.85033">
        <ele>1833.85</ele>
        <time>2015-03-07T07:14:41Z</time>
      </trkpt>
      <trkpt lat="45.30959" lon="5.85037">
        <ele>1836.26</ele>
        <time>2015-03-07T07:14:52Z</time>
      </trkpt>
      <trkpt lat="45.30959" lon="5.85039">
        <ele>1838.18</ele>
        <time>2015-03-07T07:15:03Z</time>
      </trkpt>
      <trkpt lat="45.30962" lon="5.85042">
        <ele>1840.1</ele>
        <time>2015-03-07T07:15:16Z</time>
      </trkpt>
      <trkpt lat="45.30965" lon="5.85048">
        <ele>1842.98</ele>
        <time>2015-03-07T07:15:29Z</time>
      </trkpt>
      <trkpt lat="45.30966" lon="5.85053">
        <ele>1846.35</ele>
        <time>2015-03-07T07:15:39Z</time>
      </trkpt>
      <trkpt lat="45.30966" lon="5.8506">
        <ele>1849.23</ele>
        <time>2015-03-07T07:15:52Z</time>
      </trkpt>
      <trkpt lat="45.30962" lon="5.85068">
        <ele>1851.64</ele>
        <time>2015-03-07T07:16:07Z</time>
      </trkpt>
      <trkpt lat="45.30958" lon="5.85074">
        <ele>1854.04</ele>
        <time>2015-03-07T07:16:22Z</time>
      </trkpt>
      <trkpt lat="45.30947" lon="5.85092">
        <ele>1857.4</ele>
        <time>2015-03-07T07:16:48Z</time>
      </trkpt>
      <trkpt lat="45.30933" lon="5.85106">
        <ele>1858.85</ele>
        <time>2015-03-07T07:17:11Z</time>
      </trkpt>
      <trkpt lat="45.30923" lon="5.85124">
        <ele>1861.25</ele>
        <time>2015-03-07T07:17:36Z</time>
      </trkpt>
      <trkpt lat="45.30914" lon="5.8514">
        <ele>1864.13</ele>
        <time>2015-03-07T07:17:57Z</time>
      </trkpt>
      <trkpt lat="45.30904" lon="5.85153">
        <ele>1866.54</ele>
        <time>2015-03-07T07:18:18Z</time>
      </trkpt>
      <trkpt lat="45.30904" lon="5.85153">
        <ele>1866.54</ele>
        <time>2015-03-07T07:18:49Z</time>
      </trkpt>
      <trkpt lat="45.30899" lon="5.85167">
        <ele>1869.42</ele>
        <time>2015-03-07T07:19:36Z</time>
      </trkpt>
      <trkpt lat="45.30892" lon="5.8518">
        <ele>1872.79</ele>
        <time>2015-03-07T07:19:53Z</time>
      </trkpt>
      <trkpt lat="45.30885" lon="5.85192">
        <ele>1875.67</ele>
        <time>2015-03-07T07:20:10Z</time>
      </trkpt>
      <trkpt lat="45.30884" lon="5.85196">
        <ele>1878.07</ele>
        <time>2015-03-07T07:20:28Z</time>
      </trkpt>
      <trkpt lat="45.30883" lon="5.85198">
        <ele>1881.44</ele>
        <time>2015-03-07T07:20:41Z</time>
      </trkpt>
      <trkpt lat="45.30882" lon="5.85202">
        <ele>1882.88</ele>
        <time>2015-03-07T07:20:52Z</time>
      </trkpt>
      <trkpt lat="45.30881" lon="5.85206">
        <ele>1885.76</ele>
        <time>2015-03-07T07:21:13Z</time>
      </trkpt>
      <trkpt lat="45.3088" lon="5.85208">
        <ele>1886.72</ele>
        <time>2015-03-07T07:21:21Z</time>
      </trkpt>
      <trkpt lat="45.30878" lon="5.85211">
        <ele>1890.57</ele>
        <time>2015-03-07T07:21:36Z</time>
      </trkpt>
      <trkpt lat="45.30879" lon="5.85217">
        <ele>1892.97</ele>
        <time>2015-03-07T07:21:51Z</time>
      </trkpt>
      <trkpt lat="45.30879" lon="5.85224">
        <ele>1895.86</ele>
        <time>2015-03-07T07:22:10Z</time>
      </trkpt>
      <trkpt lat="45.30878" lon="5.8523">
        <ele>1898.74</ele>
        <time>2015-03-07T07:22:29Z</time>
      </trkpt>
      <trkpt lat="45.30879" lon="5.85234">
        <ele>1902.11</ele>
        <time>2015-03-07T07:23:26Z</time>
      </trkpt>
      <trkpt lat="45.30881" lon="5.85237">
        <ele>1904.03</ele>
        <time>2015-03-07T07:23:38Z</time>
      </trkpt>
      <trkpt lat="45.30883" lon="5.8524">
        <ele>1906.91</ele>
        <time>2015-03-07T07:23:50Z</time>
      </trkpt>
      <trkpt lat="45.30885" lon="5.85245">
        <ele>1910.28</ele>
        <time>2015-03-07T07:24:02Z</time>
      </trkpt>
      <trkpt lat="45.30886" lon="5.8525">
        <ele>1910.76</ele>
        <time>2015-03-07T07:24:18Z</time>
      </trkpt>
      <trkpt lat="45.30881" lon="5.85259">
        <ele>1909.8</ele>
        <time>2015-03-07T07:24:36Z</time>
      </trkpt>
      <trkpt lat="45.30878" lon="5.85263">
        <ele>1908.83</ele>
        <time>2015-03-07T07:24:54Z</time>
      </trkpt>
      <trkpt lat="45.30874" lon="5.8527">
        <ele>1911.72</ele>
        <time>2015-03-07T07:26:05Z</time>
      </trkpt>
      <trkpt lat="45.30874" lon="5.85278">
        <ele>1914.6</ele>
        <time>2015-03-07T07:26:21Z</time>
      </trkpt>
      <trkpt lat="45.30877" lon="5.85281">
        <ele>1917.97</ele>
        <time>2015-03-07T07:26:37Z</time>
      </trkpt>
      <trkpt lat="45.30876" lon="5.85288">
        <ele>1920.37</ele>
        <time>2015-03-07T07:26:53Z</time>
      </trkpt>
      <trkpt lat="45.30869" lon="5.85296">
        <ele>1923.25</ele>
        <time>2015-03-07T07:27:16Z</time>
      </trkpt>
      <trkpt lat="45.30859" lon="5.85305">
        <ele>1925.66</ele>
        <time>2015-03-07T07:27:38Z</time>
      </trkpt>
      <trkpt lat="45.30852" lon="5.85316">
        <ele>1928.06</ele>
        <time>2015-03-07T07:28:00Z</time>
      </trkpt>
      <trkpt lat="45.30849" lon="5.85322">
        <ele>1931.43</ele>
        <time>2015-03-07T07:28:18Z</time>
      </trkpt>
      <trkpt lat="45.30847" lon="5.85326">
        <ele>1934.31</ele>
        <time>2015-03-07T07:28:33Z</time>
      </trkpt>
      <trkpt lat="45.30847" lon="5.8533">
        <ele>1936.23</ele>
        <time>2015-03-07T07:28:45Z</time>
      </trkpt>
      <trkpt lat="45.3085" lon="5.85331">
        <ele>1938.64</ele>
        <time>2015-03-07T07:29:00Z</time>
      </trkpt>
      <trkpt lat="45.30852" lon="5.8533">
        <ele>1941.04</ele>
        <time>2015-03-07T07:29:13Z</time>
      </trkpt>
      <trkpt lat="45.30854" lon="5.85332">
        <ele>1943.44</ele>
        <time>2015-03-07T07:29:25Z</time>
      </trkpt>
      <trkpt lat="45.30855" lon="5.85335">
        <ele>1945.85</ele>
        <time>2015-03-07T07:29:40Z</time>
      </trkpt>
      <trkpt lat="45.30854" lon="5.85341">
        <ele>1947.77</ele>
        <time>2015-03-07T07:29:51Z</time>
      </trkpt>
      <trkpt lat="45.30858" lon="5.85341">
        <ele>1950.65</ele>
        <time>2015-03-07T07:30:15Z</time>
      </trkpt>
      <trkpt lat="45.30858" lon="5.85341">
        <ele>1951.13</ele>
        <time>2015-03-07T07:30:17Z</time>
      </trkpt>
      <trkpt lat="45.30858" lon="5.85345">
        <ele>1953.06</ele>
        <time>2015-03-07T07:30:27Z</time>
      </trkpt>
      <trkpt lat="45.30858" lon="5.85346">
        <ele>1954.98</ele>
        <time>2015-03-07T07:30:38Z</time>
      </trkpt>
      <trkpt lat="45.3086" lon="5.85348">
        <ele>1956.9</ele>
        <time>2015-03-07T07:31:56Z</time>
      </trkpt>
      <trkpt lat="45.30861" lon="5.85351">
        <ele>1959.78</ele>
        <time>2015-03-07T07:32:07Z</time>
      </trkpt>
      <trkpt lat="45.30863" lon="5.85358">
        <ele>1963.15</ele>
        <time>2015-03-07T07:32:22Z</time>
      </trkpt>
      <trkpt lat="45.30863" lon="5.85367">
        <ele>1966.03</ele>
        <time>2015-03-07T07:32:37Z</time>
      </trkpt>
      <trkpt lat="45.30861" lon="5.85369">
        <ele>1968.44</ele>
        <time>2015-03-07T07:32:49Z</time>
      </trkpt>
      <trkpt lat="45.3086" lon="5.85373">
        <ele>1970.84</ele>
        <time>2015-03-07T07:33:01Z</time>
      </trkpt>
      <trkpt lat="45.3086" lon="5.85375">
        <ele>1973.72</ele>
        <time>2015-03-07T07:33:15Z</time>
      </trkpt>
      <trkpt lat="45.30861" lon="5.8538">
        <ele>1976.61</ele>
        <time>2015-03-07T07:33:30Z</time>
      </trkpt>
      <trkpt lat="45.30861" lon="5.85385">
        <ele>1978.53</ele>
        <time>2015-03-07T07:33:42Z</time>
      </trkpt>
      <trkpt lat="45.30861" lon="5.85389">
        <ele>1980.93</ele>
        <time>2015-03-07T07:33:54Z</time>
      </trkpt>
      <trkpt lat="45.30862" lon="5.85392">
        <ele>1982.38</ele>
        <time>2015-03-07T07:34:05Z</time>
      </trkpt>
      <trkpt lat="45.30864" lon="5.85395">
        <ele>1985.74</ele>
        <time>2015-03-07T07:34:16Z</time>
      </trkpt>
      <trkpt lat="45.30868" lon="5.85398">
        <ele>1987.66</ele>
        <time>2015-03-07T07:34:29Z</time>
      </trkpt>
      <trkpt lat="45.30872" lon="5.85401">
        <ele>1990.07</ele>
        <time>2015-03-07T07:34:40Z</time>
      </trkpt>
      <trkpt lat="45.30875" lon="5.85404">
        <ele>1991.51</ele>
        <time>2015-03-07T07:34:52Z</time>
      </trkpt>
      <trkpt lat="45.30879" lon="5.85406">
        <ele>1994.39</ele>
        <time>2015-03-07T07:35:06Z</time>
      </trkpt>
      <trkpt lat="45.3088" lon="5.85408">
        <ele>1995.83</ele>
        <time>2015-03-07T07:35:36Z</time>
      </trkpt>
      <trkpt lat="45.30883" lon="5.8541">
        <ele>1998.72</ele>
        <time>2015-03-07T07:35:48Z</time>
      </trkpt>
      <trkpt lat="45.30885" lon="5.85412">
        <ele>2000.64</ele>
        <time>2015-03-07T07:35:56Z</time>
      </trkpt>
      <trkpt lat="45.30888" lon="5.85412">
        <ele>2004.01</ele>
        <time>2015-03-07T07:36:07Z</time>
      </trkpt>
      <trkpt lat="45.30892" lon="5.85412">
        <ele>2006.89</ele>
        <time>2015-03-07T07:36:18Z</time>
      </trkpt>
      <trkpt lat="45.30898" lon="5.8541">
        <ele>2009.29</ele>
        <time>2015-03-07T07:36:29Z</time>
      </trkpt>
      <trkpt lat="45.30903" lon="5.85409">
        <ele>2010.25</ele>
        <time>2015-03-07T07:36:39Z</time>
      </trkpt>
      <trkpt lat="45.3091" lon="5.85407">
        <ele>2013.62</ele>
        <time>2015-03-07T07:36:49Z</time>
      </trkpt>
      <trkpt lat="45.30911" lon="5.85407">
        <ele>2014.1</ele>
        <time>2015-03-07T07:36:51Z</time>
      </trkpt>
      <trkpt lat="45.30915" lon="5.85411">
        <ele>2017.46</ele>
        <time>2015-03-07T07:37:02Z</time>
      </trkpt>
      <trkpt lat="45.30917" lon="5.85415">
        <ele>2020.35</ele>
        <time>2015-03-07T07:37:11Z</time>
      </trkpt>
      <trkpt lat="45.30918" lon="5.85415">
        <ele>2020.35</ele>
        <time>2015-03-07T07:37:12Z</time>
      </trkpt>
      <trkpt lat="45.30919" lon="5.85417">
        <ele>2024.19</ele>
        <time>2015-03-07T07:37:15Z</time>
      </trkpt>
      <trkpt lat="45.30918" lon="5.8542">
        <ele>2020.35</ele>
        <time>2015-03-07T07:37:19Z</time>
      </trkpt>
      <trkpt lat="45.3091" lon="5.85433">
        <ele>2023.23</ele>
        <time>2015-03-07T07:37:37Z</time>
      </trkpt>
      <trkpt lat="45.30909" lon="5.85441">
        <ele>2022.75</ele>
        <time>2015-03-07T07:37:53Z</time>
      </trkpt>
      <trkpt lat="45.30909" lon="5.85441">
        <ele>2025.15</ele>
        <time>2015-03-07T07:37:59Z</time>
      </trkpt>
      <trkpt lat="45.3091" lon="5.85441">
        <ele>2024.19</ele>
        <time>2015-03-07T07:38:05Z</time>
      </trkpt>
      <trkpt lat="45.30909" lon="5.85442">
        <ele>2021.31</ele>
        <time>2015-03-07T07:38:20Z</time>
      </trkpt>
      <trkpt lat="45.30909" lon="5.85442">
        <ele>2024.67</ele>
        <time>2015-03-07T07:38:32Z</time>
      </trkpt>
      <trkpt lat="45.30909" lon="5.85441">
        <ele>2029</ele>
        <time>2015-03-07T07:38:43Z</time>
      </trkpt>
      <trkpt lat="45.30909" lon="5.8544">
        <ele>2029</ele>
        <time>2015-03-07T07:38:44Z</time>
      </trkpt>
      <trkpt lat="45.3091" lon="5.85443">
        <ele>2027.08</ele>
        <time>2015-03-07T07:39:10Z</time>
      </trkpt>
      <trkpt lat="45.30909" lon="5.85442">
        <ele>2029.96</ele>
        <time>2015-03-07T07:39:15Z</time>
      </trkpt>
      <trkpt lat="45.30909" lon="5.85441">
        <ele>2027.08</ele>
        <time>2015-03-07T07:39:28Z</time>
      </trkpt>
      <trkpt lat="45.30909" lon="5.85441">
        <ele>2026.6</ele>
        <time>2015-03-07T07:39:29Z</time>
      </trkpt>
      <trkpt lat="45.30909" lon="5.8544">
        <ele>2029.96</ele>
        <time>2015-03-07T07:40:32Z</time>
      </trkpt>
      <trkpt lat="45.30909" lon="5.8544">
        <ele>2031.4</ele>
        <time>2015-03-07T07:40:35Z</time>
      </trkpt>
      <trkpt lat="45.30909" lon="5.8544">
        <ele>2027.56</ele>
        <time>2015-03-07T07:40:55Z</time>
      </trkpt>
      <trkpt lat="45.30909" lon="5.8544">
        <ele>2024.67</ele>
        <time>2015-03-07T07:40:57Z</time>
      </trkpt>
      <trkpt lat="45.30909" lon="5.8544">
        <ele>2024.67</ele>
        <time>2015-03-07T07:40:58Z</time>
      </trkpt>
      <trkpt lat="45.30909" lon="5.85441">
        <ele>2021.31</ele>
        <time>2015-03-07T07:41:34Z</time>
      </trkpt>
      <trkpt lat="45.30909" lon="5.85441">
        <ele>2022.75</ele>
        <time>2015-03-07T07:41:44Z</time>
      </trkpt>
      <trkpt lat="45.30907" lon="5.85445">
        <ele>2023.71</ele>
        <time>2015-03-07T07:41:46Z</time>
      </trkpt>
      <trkpt lat="45.30903" lon="5.85449">
        <ele>2023.71</ele>
        <time>2015-03-07T07:41:48Z</time>
      </trkpt>
      <trkpt lat="45.30898" lon="5.85472">
        <ele>2025.15</ele>
        <time>2015-03-07T07:42:06Z</time>
      </trkpt>
      <trkpt lat="45.30898" lon="5.85475">
        <ele>2025.64</ele>
        <time>2015-03-07T07:42:08Z</time>
      </trkpt>
      <trkpt lat="45.30898" lon="5.8548">
        <ele>2027.08</ele>
        <time>2015-03-07T07:42:11Z</time>
      </trkpt>
      <trkpt lat="45.30897" lon="5.85484">
        <ele>2029</ele>
        <time>2015-03-07T07:42:14Z</time>
      </trkpt>
      <trkpt lat="45.30894" lon="5.85489">
        <ele>2027.56</ele>
        <time>2015-03-07T07:42:22Z</time>
      </trkpt>
      <trkpt lat="45.30888" lon="5.85495">
        <ele>2029</ele>
        <time>2015-03-07T07:42:29Z</time>
      </trkpt>
      <trkpt lat="45.30884" lon="5.85499">
        <ele>2030.92</ele>
        <time>2015-03-07T07:42:33Z</time>
      </trkpt>
      <trkpt lat="45.30883" lon="5.855">
        <ele>2031.4</ele>
        <time>2015-03-07T07:42:35Z</time>
      </trkpt>
      <trkpt lat="45.3088" lon="5.85502">
        <ele>2032.36</ele>
        <time>2015-03-07T07:42:39Z</time>
      </trkpt>
      <trkpt lat="45.30877" lon="5.85506">
        <ele>2036.21</ele>
        <time>2015-03-07T07:42:43Z</time>
      </trkpt>
      <trkpt lat="45.30875" lon="5.85507">
        <ele>2038.61</ele>
        <time>2015-03-07T07:42:46Z</time>
      </trkpt>
      <trkpt lat="45.30868" lon="5.85512">
        <ele>2038.61</ele>
        <time>2015-03-07T07:42:58Z</time>
      </trkpt>
      <trkpt lat="45.3086" lon="5.85521">
        <ele>2041.5</ele>
        <time>2015-03-07T07:43:12Z</time>
      </trkpt>
      <trkpt lat="45.30858" lon="5.85522">
        <ele>2042.94</ele>
        <time>2015-03-07T07:43:15Z</time>
      </trkpt>
      <trkpt lat="45.30853" lon="5.85528">
        <ele>2044.38</ele>
        <time>2015-03-07T07:43:26Z</time>
      </trkpt>
      <trkpt lat="45.3085" lon="5.85532">
        <ele>2046.78</ele>
        <time>2015-03-07T07:43:30Z</time>
      </trkpt>
      <trkpt lat="45.30845" lon="5.85544">
        <ele>2046.78</ele>
        <time>2015-03-07T07:43:44Z</time>
      </trkpt>
      <trkpt lat="45.30839" lon="5.85549">
        <ele>2049.67</ele>
        <time>2015-03-07T07:43:53Z</time>
      </trkpt>
      <trkpt lat="45.30831" lon="5.85555">
        <ele>2052.07</ele>
        <time>2015-03-07T07:44:05Z</time>
      </trkpt>
      <trkpt lat="45.30829" lon="5.85555">
        <ele>2053.51</ele>
        <time>2015-03-07T07:44:10Z</time>
      </trkpt>
      <trkpt lat="45.30828" lon="5.85554">
        <ele>2056.88</ele>
        <time>2015-03-07T07:44:23Z</time>
      </trkpt>
      <trkpt lat="45.30828" lon="5.85554">
        <ele>2057.36</ele>
        <time>2015-03-07T07:44:24Z</time>
      </trkpt>
      <trkpt lat="45.30827" lon="5.85554">
        <ele>2053.99</ele>
        <time>2015-03-07T07:44:39Z</time>
      </trkpt>
      <trkpt lat="45.30827" lon="5.85553">
        <ele>2055.44</ele>
        <time>2015-03-07T07:45:00Z</time>
      </trkpt>
      <trkpt lat="45.30827" lon="5.85553">
        <ele>2055.92</ele>
        <time>2015-03-07T07:45:18Z</time>
      </trkpt>
      <trkpt lat="45.30827" lon="5.85554">
        <ele>2056.4</ele>
        <time>2015-03-07T07:45:42Z</time>
      </trkpt>
      <trkpt lat="45.30823" lon="5.85553">
        <ele>2056.4</ele>
        <time>2015-03-07T07:46:02Z</time>
      </trkpt>
      <trkpt lat="45.30825" lon="5.85554">
        <ele>2053.51</ele>
        <time>2015-03-07T07:46:07Z</time>
      </trkpt>
      <trkpt lat="45.30826" lon="5.85553">
        <ele>2056.88</ele>
        <time>2015-03-07T07:46:13Z</time>
      </trkpt>
      <trkpt lat="45.30826" lon="5.85555">
        <ele>2057.36</ele>
        <time>2015-03-07T07:46:48Z</time>
      </trkpt>
      <trkpt lat="45.30826" lon="5.85555">
        <ele>2055.92</ele>
        <time>2015-03-07T07:47:08Z</time>
      </trkpt>
      <trkpt lat="45.30826" lon="5.85554">
        <ele>2055.44</ele>
        <time>2015-03-07T07:47:41Z</time>
      </trkpt>
      <trkpt lat="45.3085" lon="5.85564">
        <ele>2054.96</ele>
        <time>2015-03-07T07:47:47Z</time>
      </trkpt>
      <trkpt lat="45.30887" lon="5.85577">
        <ele>2048.23</ele>
        <time>2015-03-07T07:47:52Z</time>
      </trkpt>
      <trkpt lat="45.30901" lon="5.85593">
        <ele>2042.94</ele>
        <time>2015-03-07T07:47:54Z</time>
      </trkpt>
      <trkpt lat="45.3092" lon="5.856">
        <ele>2041.02</ele>
        <time>2015-03-07T07:47:56Z</time>
      </trkpt>
      <trkpt lat="45.30928" lon="5.85609">
        <ele>2036.69</ele>
        <time>2015-03-07T07:47:57Z</time>
      </trkpt>
      <trkpt lat="45.30935" lon="5.8562">
        <ele>2032.84</ele>
        <time>2015-03-07T07:47:58Z</time>
      </trkpt>
      <trkpt lat="45.30956" lon="5.85643">
        <ele>2025.64</ele>
        <time>2015-03-07T07:48:01Z</time>
      </trkpt>
      <trkpt lat="45.30964" lon="5.8565">
        <ele>2022.27</ele>
        <time>2015-03-07T07:48:02Z</time>
      </trkpt>
      <trkpt lat="45.30994" lon="5.85655">
        <ele>2024.19</ele>
        <time>2015-03-07T07:48:05Z</time>
      </trkpt>
      <trkpt lat="45.31005" lon="5.8566">
        <ele>2020.35</ele>
        <time>2015-03-07T07:48:06Z</time>
      </trkpt>
      <trkpt lat="45.31013" lon="5.85669">
        <ele>2016.5</ele>
        <time>2015-03-07T07:48:07Z</time>
      </trkpt>
      <trkpt lat="45.31039" lon="5.85681">
        <ele>2007.85</ele>
        <time>2015-03-07T07:48:10Z</time>
      </trkpt>
      <trkpt lat="45.31056" lon="5.85688">
        <ele>2001.6</ele>
        <time>2015-03-07T07:48:12Z</time>
      </trkpt>
      <trkpt lat="45.31063" lon="5.85692">
        <ele>2001.6</ele>
        <time>2015-03-07T07:48:13Z</time>
      </trkpt>
      <trkpt lat="45.3107" lon="5.85691">
        <ele>1998.24</ele>
        <time>2015-03-07T07:48:14Z</time>
      </trkpt>
      <trkpt lat="45.31077" lon="5.85687">
        <ele>1998.24</ele>
        <time>2015-03-07T07:48:15Z</time>
      </trkpt>
      <trkpt lat="45.31086" lon="5.85689">
        <ele>1994.87</ele>
        <time>2015-03-07T07:48:16Z</time>
      </trkpt>
      <trkpt lat="45.31105" lon="5.85701">
        <ele>1992.47</ele>
        <time>2015-03-07T07:48:18Z</time>
      </trkpt>
      <trkpt lat="45.31121" lon="5.85719">
        <ele>1986.7</ele>
        <time>2015-03-07T07:48:20Z</time>
      </trkpt>
      <trkpt lat="45.31135" lon="5.85739">
        <ele>1980.93</ele>
        <time>2015-03-07T07:48:22Z</time>
      </trkpt>
      <trkpt lat="45.31151" lon="5.85744">
        <ele>1978.53</ele>
        <time>2015-03-07T07:48:24Z</time>
      </trkpt>
      <trkpt lat="45.3117" lon="5.85767">
        <ele>1976.13</ele>
        <time>2015-03-07T07:48:27Z</time>
      </trkpt>
      <trkpt lat="45.31191" lon="5.85781">
        <ele>1970.36</ele>
        <time>2015-03-07T07:48:30Z</time>
      </trkpt>
      <trkpt lat="45.31203" lon="5.85801">
        <ele>1967.96</ele>
        <time>2015-03-07T07:48:32Z</time>
      </trkpt>
      <trkpt lat="45.31217" lon="5.85833">
        <ele>1963.15</ele>
        <time>2015-03-07T07:48:35Z</time>
      </trkpt>
      <trkpt lat="45.31245" lon="5.85864">
        <ele>1963.15</ele>
        <time>2015-03-07T07:48:41Z</time>
      </trkpt>
      <trkpt lat="45.31259" lon="5.85876">
        <ele>1961.23</ele>
        <time>2015-03-07T07:48:45Z</time>
      </trkpt>
      <trkpt lat="45.31266" lon="5.85879">
        <ele>1960.27</ele>
        <time>2015-03-07T07:48:47Z</time>
      </trkpt>
      <trkpt lat="45.31282" lon="5.85887">
        <ele>1958.34</ele>
        <time>2015-03-07T07:48:51Z</time>
      </trkpt>
      <trkpt lat="45.31297" lon="5.85897">
        <ele>1956.42</ele>
        <time>2015-03-07T07:48:55Z</time>
      </trkpt>
      <trkpt lat="45.31306" lon="5.85902">
        <ele>1955.46</ele>
        <time>2015-03-07T07:48:57Z</time>
      </trkpt>
      <trkpt lat="45.31314" lon="5.85909">
        <ele>1954.5</ele>
        <time>2015-03-07T07:48:59Z</time>
      </trkpt>
      <trkpt lat="45.31343" lon="5.85935">
        <ele>1951.13</ele>
        <time>2015-03-07T07:49:06Z</time>
      </trkpt>
      <trkpt lat="45.31377" lon="5.85964">
        <ele>1947.77</ele>
        <time>2015-03-07T07:49:13Z</time>
      </trkpt>
      <trkpt lat="45.31387" lon="5.85972">
        <ele>1946.81</ele>
        <time>2015-03-07T07:49:15Z</time>
      </trkpt>
      <trkpt lat="45.31409" lon="5.85989">
        <ele>1943.44</ele>
        <time>2015-03-07T07:49:19Z</time>
      </trkpt>
      <trkpt lat="45.31431" lon="5.86005">
        <ele>1941.04</ele>
        <time>2015-03-07T07:49:24Z</time>
      </trkpt>
      <trkpt lat="45.31464" lon="5.86023">
        <ele>1937.67</ele>
        <time>2015-03-07T07:49:29Z</time>
      </trkpt>
      <trkpt lat="45.31483" lon="5.86034">
        <ele>1933.83</ele>
        <time>2015-03-07T07:49:32Z</time>
      </trkpt>
      <trkpt lat="45.31498" lon="5.8604">
        <ele>1932.39</ele>
        <time>2015-03-07T07:49:35Z</time>
      </trkpt>
      <trkpt lat="45.3153" lon="5.86052">
        <ele>1929.02</ele>
        <time>2015-03-07T07:49:42Z</time>
      </trkpt>
      <trkpt lat="45.31572" lon="5.86072">
        <ele>1925.18</ele>
        <time>2015-03-07T07:49:50Z</time>
      </trkpt>
      <trkpt lat="45.31583" lon="5.86078">
        <ele>1923.74</ele>
        <time>2015-03-07T07:49:52Z</time>
      </trkpt>
      <trkpt lat="45.31602" lon="5.86083">
        <ele>1921.33</ele>
        <time>2015-03-07T07:49:55Z</time>
      </trkpt>
      <trkpt lat="45.31622" lon="5.86089">
        <ele>1918.45</ele>
        <time>2015-03-07T07:49:58Z</time>
      </trkpt>
      <trkpt lat="45.31647" lon="5.86097">
        <ele>1915.08</ele>
        <time>2015-03-07T07:50:03Z</time>
      </trkpt>
      <trkpt lat="45.31656" lon="5.861">
        <ele>1914.12</ele>
        <time>2015-03-07T07:50:05Z</time>
      </trkpt>
      <trkpt lat="45.31672" lon="5.8611">
        <ele>1910.76</ele>
        <time>2015-03-07T07:50:10Z</time>
      </trkpt>
      <trkpt lat="45.31712" lon="5.86135">
        <ele>1907.39</ele>
        <time>2015-03-07T07:50:19Z</time>
      </trkpt>
      <trkpt lat="45.31716" lon="5.86138">
        <ele>1906.91</ele>
        <time>2015-03-07T07:50:20Z</time>
      </trkpt>
      <trkpt lat="45.31735" lon="5.86157">
        <ele>1903.07</ele>
        <time>2015-03-07T07:50:28Z</time>
      </trkpt>
      <trkpt lat="45.31735" lon="5.86157">
        <ele>1902.11</ele>
        <time>2015-03-07T07:50:34Z</time>
      </trkpt>
      <trkpt lat="45.31747" lon="5.86167">
        <ele>1900.66</ele>
        <time>2015-03-07T07:50:39Z</time>
      </trkpt>
      <trkpt lat="45.31749" lon="5.86164">
        <ele>1899.7</ele>
        <time>2015-03-07T07:50:41Z</time>
      </trkpt>
      <trkpt lat="45.31758" lon="5.8617">
        <ele>1895.38</ele>
        <time>2015-03-07T07:50:45Z</time>
      </trkpt>
      <trkpt lat="45.31762" lon="5.8617">
        <ele>1895.38</ele>
        <time>2015-03-07T07:50:46Z</time>
      </trkpt>
      <trkpt lat="45.31777" lon="5.86174">
        <ele>1892.01</ele>
        <time>2015-03-07T07:50:49Z</time>
      </trkpt>
      <trkpt lat="45.31788" lon="5.86169">
        <ele>1889.13</ele>
        <time>2015-03-07T07:50:51Z</time>
      </trkpt>
      <trkpt lat="45.31803" lon="5.86167">
        <ele>1883.36</ele>
        <time>2015-03-07T07:50:54Z</time>
      </trkpt>
      <trkpt lat="45.31815" lon="5.86165">
        <ele>1880.96</ele>
        <time>2015-03-07T07:50:56Z</time>
      </trkpt>
      <trkpt lat="45.31834" lon="5.86163">
        <ele>1874.71</ele>
        <time>2015-03-07T07:51:00Z</time>
      </trkpt>
      <trkpt lat="45.3185" lon="5.86165">
        <ele>1870.38</ele>
        <time>2015-03-07T07:51:05Z</time>
      </trkpt>
      <trkpt lat="45.31852" lon="5.86166">
        <ele>1870.38</ele>
        <time>2015-03-07T07:51:06Z</time>
      </trkpt>
      <trkpt lat="45.31853" lon="5.86165">
        <ele>1869.9</ele>
        <time>2015-03-07T07:51:07Z</time>
      </trkpt>
      <trkpt lat="45.31858" lon="5.86148">
        <ele>1864.13</ele>
        <time>2015-03-07T07:51:11Z</time>
      </trkpt>
      <trkpt lat="45.31862" lon="5.86147">
        <ele>1861.25</ele>
        <time>2015-03-07T07:51:12Z</time>
      </trkpt>
      <trkpt lat="45.31872" lon="5.86144">
        <ele>1857.4</ele>
        <time>2015-03-07T07:51:14Z</time>
      </trkpt>
      <trkpt lat="45.31884" lon="5.86146">
        <ele>1855.48</ele>
        <time>2015-03-07T07:51:16Z</time>
      </trkpt>
      <trkpt lat="45.31898" lon="5.86154">
        <ele>1852.6</ele>
        <time>2015-03-07T07:51:20Z</time>
      </trkpt>
      <trkpt lat="45.31928" lon="5.86172">
        <ele>1849.71</ele>
        <time>2015-03-07T07:51:28Z</time>
      </trkpt>
      <trkpt lat="45.31945" lon="5.86189">
        <ele>1846.83</ele>
        <time>2015-03-07T07:51:34Z</time>
      </trkpt>
      <trkpt lat="45.31951" lon="5.86197">
        <ele>1845.87</ele>
        <time>2015-03-07T07:51:43Z</time>
      </trkpt>
      <trkpt lat="45.31961" lon="5.86211">
        <ele>1846.83</ele>
        <time>2015-03-07T07:52:01Z</time>
      </trkpt>
      <trkpt lat="45.31971" lon="5.86224">
        <ele>1846.35</ele>
        <time>2015-03-07T07:52:12Z</time>
      </trkpt>
      <trkpt lat="45.31977" lon="5.86225">
        <ele>1843.95</ele>
        <time>2015-03-07T07:52:15Z</time>
      </trkpt>
      <trkpt lat="45.31982" lon="5.86227">
        <ele>1842.02</ele>
        <time>2015-03-07T07:52:17Z</time>
      </trkpt>
      <trkpt lat="45.3199" lon="5.86242">
        <ele>1835.77</ele>
        <time>2015-03-07T07:52:20Z</time>
      </trkpt>
      <trkpt lat="45.31994" lon="5.86249">
        <ele>1832.41</ele>
        <time>2015-03-07T07:52:22Z</time>
      </trkpt>
      <trkpt lat="45.31996" lon="5.86254">
        <ele>1830.49</ele>
        <time>2015-03-07T07:52:23Z</time>
      </trkpt>
      <trkpt lat="45.32" lon="5.86264">
        <ele>1829.53</ele>
        <time>2015-03-07T07:52:25Z</time>
      </trkpt>
      <trkpt lat="45.32002" lon="5.8627">
        <ele>1825.68</ele>
        <time>2015-03-07T07:52:29Z</time>
      </trkpt>
      <trkpt lat="45.3201" lon="5.86286">
        <ele>1822.8</ele>
        <time>2015-03-07T07:52:36Z</time>
      </trkpt>
      <trkpt lat="45.32019" lon="5.86299">
        <ele>1819.43</ele>
        <time>2015-03-07T07:52:41Z</time>
      </trkpt>
      <trkpt lat="45.32027" lon="5.8631">
        <ele>1817.99</ele>
        <time>2015-03-07T07:52:43Z</time>
      </trkpt>
      <trkpt lat="45.32041" lon="5.86337">
        <ele>1815.11</ele>
        <time>2015-03-07T07:52:50Z</time>
      </trkpt>
      <trkpt lat="45.32061" lon="5.86382">
        <ele>1811.74</ele>
        <time>2015-03-07T07:52:59Z</time>
      </trkpt>
      <trkpt lat="45.32074" lon="5.86389">
        <ele>1809.82</ele>
        <time>2015-03-07T07:53:03Z</time>
      </trkpt>
      <trkpt lat="45.32086" lon="5.86407">
        <ele>1807.9</ele>
        <time>2015-03-07T07:53:08Z</time>
      </trkpt>
      <trkpt lat="45.32094" lon="5.86442">
        <ele>1805.97</ele>
        <time>2015-03-07T07:53:16Z</time>
      </trkpt>
      <trkpt lat="45.32098" lon="5.86449">
        <ele>1804.53</ele>
        <time>2015-03-07T07:53:19Z</time>
      </trkpt>
      <trkpt lat="45.32098" lon="5.86453">
        <ele>1805.01</ele>
        <time>2015-03-07T07:58:24Z</time>
      </trkpt>
      <trkpt lat="45.32097" lon="5.86456">
        <ele>1805.97</ele>
        <time>2015-03-07T07:59:48Z</time>
      </trkpt>
      <trkpt lat="45.32093" lon="5.8647">
        <ele>1808.86</ele>
        <time>2015-03-07T08:00:03Z</time>
      </trkpt>
      <trkpt lat="45.32088" lon="5.86476">
        <ele>1812.22</ele>
        <time>2015-03-07T08:00:15Z</time>
      </trkpt>
      <trkpt lat="45.32083" lon="5.86493">
        <ele>1815.11</ele>
        <time>2015-03-07T08:00:35Z</time>
      </trkpt>
      <trkpt lat="45.32079" lon="5.865">
        <ele>1817.99</ele>
        <time>2015-03-07T08:00:46Z</time>
      </trkpt>
      <trkpt lat="45.32078" lon="5.86501">
        <ele>1818.47</ele>
        <time>2015-03-07T08:00:48Z</time>
      </trkpt>
      <trkpt lat="45.32074" lon="5.86508">
        <ele>1821.35</ele>
        <time>2015-03-07T08:01:00Z</time>
      </trkpt>
      <trkpt lat="45.32074" lon="5.86509">
        <ele>1821.84</ele>
        <time>2015-03-07T08:01:01Z</time>
      </trkpt>
      <trkpt lat="45.32074" lon="5.86514">
        <ele>1822.32</ele>
        <time>2015-03-07T08:01:06Z</time>
      </trkpt>
      <trkpt lat="45.32071" lon="5.8652">
        <ele>1823.28</ele>
        <time>2015-03-07T08:01:13Z</time>
      </trkpt>
      <trkpt lat="45.3207" lon="5.86526">
        <ele>1825.2</ele>
        <time>2015-03-07T08:01:21Z</time>
      </trkpt>
      <trkpt lat="45.32066" lon="5.86528">
        <ele>1828.08</ele>
        <time>2015-03-07T08:01:37Z</time>
      </trkpt>
      <trkpt lat="45.32056" lon="5.86528">
        <ele>1831.45</ele>
        <time>2015-03-07T08:01:55Z</time>
      </trkpt>
      <trkpt lat="45.32058" lon="5.86538">
        <ele>1832.89</ele>
        <time>2015-03-07T08:02:06Z</time>
      </trkpt>
      <trkpt lat="45.32061" lon="5.8655">
        <ele>1834.33</ele>
        <time>2015-03-07T08:02:19Z</time>
      </trkpt>
      <trkpt lat="45.32055" lon="5.86547">
        <ele>1835.29</ele>
        <time>2015-03-07T08:02:30Z</time>
      </trkpt>
      <trkpt lat="45.32057" lon="5.86555">
        <ele>1837.7</ele>
        <time>2015-03-07T08:02:48Z</time>
      </trkpt>
      <trkpt lat="45.32063" lon="5.86564">
        <ele>1840.1</ele>
        <time>2015-03-07T08:02:58Z</time>
      </trkpt>
      <trkpt lat="45.32065" lon="5.86567">
        <ele>1840.1</ele>
        <time>2015-03-07T08:03:02Z</time>
      </trkpt>
      <trkpt lat="45.32069" lon="5.86573">
        <ele>1841.06</ele>
        <time>2015-03-07T08:03:11Z</time>
      </trkpt>
      <trkpt lat="45.32076" lon="5.86577">
        <ele>1841.54</ele>
        <time>2015-03-07T08:03:24Z</time>
      </trkpt>
      <trkpt lat="45.32086" lon="5.86588">
        <ele>1844.43</ele>
        <time>2015-03-07T08:03:40Z</time>
      </trkpt>
      <trkpt lat="45.32087" lon="5.86589">
        <ele>1844.43</ele>
        <time>2015-03-07T08:03:42Z</time>
      </trkpt>
      <trkpt lat="45.32094" lon="5.86591">
        <ele>1845.39</ele>
        <time>2015-03-07T08:03:51Z</time>
      </trkpt>
      <trkpt lat="45.32099" lon="5.86593">
        <ele>1846.83</ele>
        <time>2015-03-07T08:04:04Z</time>
      </trkpt>
      <trkpt lat="45.32091" lon="5.86599">
        <ele>1849.23</ele>
        <time>2015-03-07T08:04:20Z</time>
      </trkpt>
      <trkpt lat="45.32096" lon="5.86605">
        <ele>1850.19</ele>
        <time>2015-03-07T08:04:31Z</time>
      </trkpt>
      <trkpt lat="45.32099" lon="5.86613">
        <ele>1852.12</ele>
        <time>2015-03-07T08:04:43Z</time>
      </trkpt>
      <trkpt lat="45.32092" lon="5.86616">
        <ele>1853.56</ele>
        <time>2015-03-07T08:04:58Z</time>
      </trkpt>
      <trkpt lat="45.3209" lon="5.86622">
        <ele>1855.48</ele>
        <time>2015-03-07T08:08:02Z</time>
      </trkpt>
      <trkpt lat="45.32091" lon="5.86623">
        <ele>1858.37</ele>
        <time>2015-03-07T08:08:19Z</time>
      </trkpt>
      <trkpt lat="45.32089" lon="5.86629">
        <ele>1861.73</ele>
        <time>2015-03-07T08:09:10Z</time>
      </trkpt>
      <trkpt lat="45.32084" lon="5.86639">
        <ele>1862.69</ele>
        <time>2015-03-07T08:09:40Z</time>
      </trkpt>
      <trkpt lat="45.32087" lon="5.86639">
        <ele>1866.06</ele>
        <time>2015-03-07T08:10:05Z</time>
      </trkpt>
      <trkpt lat="45.32099" lon="5.86639">
        <ele>1868.94</ele>
        <time>2015-03-07T08:10:31Z</time>
      </trkpt>
      <trkpt lat="45.321" lon="5.86645">
        <ele>1871.82</ele>
        <time>2015-03-07T08:10:44Z</time>
      </trkpt>
      <trkpt lat="45.32099" lon="5.86647">
        <ele>1874.71</ele>
        <time>2015-03-07T08:11:01Z</time>
      </trkpt>
      <trkpt lat="45.32095" lon="5.86649">
        <ele>1878.07</ele>
        <time>2015-03-07T08:11:17Z</time>
      </trkpt>
      <trkpt lat="45.32092" lon="5.86645">
        <ele>1880.96</ele>
        <time>2015-03-07T08:11:37Z</time>
      </trkpt>
      <trkpt lat="45.32091" lon="5.86652">
        <ele>1883.84</ele>
        <time>2015-03-07T08:12:03Z</time>
      </trkpt>
      <trkpt lat="45.32088" lon="5.86644">
        <ele>1885.28</ele>
        <time>2015-03-07T08:12:26Z</time>
      </trkpt>
      <trkpt lat="45.32087" lon="5.86647">
        <ele>1886.24</ele>
        <time>2015-03-07T08:13:23Z</time>
      </trkpt>
      <trkpt lat="45.32088" lon="5.86654">
        <ele>1889.13</ele>
        <time>2015-03-07T08:13:33Z</time>
      </trkpt>
      <trkpt lat="45.32106" lon="5.86655">
        <ele>1888.65</ele>
        <time>2015-03-07T08:13:47Z</time>
      </trkpt>
      <trkpt lat="45.32123" lon="5.86657">
        <ele>1886.24</ele>
        <time>2015-03-07T08:13:58Z</time>
      </trkpt>
      <trkpt lat="45.32131" lon="5.86656">
        <ele>1885.76</ele>
        <time>2015-03-07T08:14:05Z</time>
      </trkpt>
      <trkpt lat="45.32135" lon="5.8665">
        <ele>1885.76</ele>
        <time>2015-03-07T08:14:17Z</time>
      </trkpt>
      <trkpt lat="45.32136" lon="5.8665">
        <ele>1885.28</ele>
        <time>2015-03-07T08:14:34Z</time>
      </trkpt>
      <trkpt lat="45.32138" lon="5.86648">
        <ele>1884.32</ele>
        <time>2015-03-07T08:14:51Z</time>
      </trkpt>
      <trkpt lat="45.32139" lon="5.86647">
        <ele>1881.92</ele>
        <time>2015-03-07T08:15:06Z</time>
      </trkpt>
      <trkpt lat="45.32144" lon="5.86645">
        <ele>1881.44</ele>
        <time>2015-03-07T08:15:16Z</time>
      </trkpt>
      <trkpt lat="45.32163" lon="5.8665">
        <ele>1881.44</ele>
        <time>2015-03-07T08:15:32Z</time>
      </trkpt>
      <trkpt lat="45.32166" lon="5.86651">
        <ele>1881.44</ele>
        <time>2015-03-07T08:15:35Z</time>
      </trkpt>
      <trkpt lat="45.32178" lon="5.86652">
        <ele>1880.96</ele>
        <time>2015-03-07T08:15:45Z</time>
      </trkpt>
      <trkpt lat="45.32179" lon="5.86653">
        <ele>1881.44</ele>
        <time>2015-03-07T08:16:00Z</time>
      </trkpt>
      <trkpt lat="45.3219" lon="5.86652">
        <ele>1880.48</ele>
        <time>2015-03-07T08:16:23Z</time>
      </trkpt>
      <trkpt lat="45.322" lon="5.86649">
        <ele>1878.07</ele>
        <time>2015-03-07T08:16:29Z</time>
      </trkpt>
      <trkpt lat="45.32207" lon="5.86652">
        <ele>1876.63</ele>
        <time>2015-03-07T08:16:36Z</time>
      </trkpt>
      <trkpt lat="45.32212" lon="5.86652">
        <ele>1877.11</ele>
        <time>2015-03-07T08:16:44Z</time>
      </trkpt>
      <trkpt lat="45.32217" lon="5.86654">
        <ele>1877.11</ele>
        <time>2015-03-07T08:17:01Z</time>
      </trkpt>
      <trkpt lat="45.32224" lon="5.86656">
        <ele>1876.15</ele>
        <time>2015-03-07T08:17:11Z</time>
      </trkpt>
      <trkpt lat="45.32233" lon="5.86657">
        <ele>1876.15</ele>
        <time>2015-03-07T08:17:22Z</time>
      </trkpt>
      <trkpt lat="45.32239" lon="5.86658">
        <ele>1876.63</ele>
        <time>2015-03-07T08:17:34Z</time>
      </trkpt>
      <trkpt lat="45.32247" lon="5.86664">
        <ele>1877.59</ele>
        <time>2015-03-07T08:17:48Z</time>
      </trkpt>
      <trkpt lat="45.32254" lon="5.86668">
        <ele>1878.55</ele>
        <time>2015-03-07T08:17:55Z</time>
      </trkpt>
      <trkpt lat="45.32258" lon="5.8667">
        <ele>1878.55</ele>
        <time>2015-03-07T08:17:59Z</time>
      </trkpt>
      <trkpt lat="45.32267" lon="5.86672">
        <ele>1878.55</ele>
        <time>2015-03-07T08:18:06Z</time>
      </trkpt>
      <trkpt lat="45.3227" lon="5.86672">
        <ele>1878.55</ele>
        <time>2015-03-07T08:18:09Z</time>
      </trkpt>
      <trkpt lat="45.32278" lon="5.86676">
        <ele>1878.07</ele>
        <time>2015-03-07T08:18:16Z</time>
      </trkpt>
      <trkpt lat="45.32281" lon="5.86677">
        <ele>1878.07</ele>
        <time>2015-03-07T08:18:18Z</time>
      </trkpt>
      <trkpt lat="45.32286" lon="5.86677">
        <ele>1877.11</ele>
        <time>2015-03-07T08:18:22Z</time>
      </trkpt>
      <trkpt lat="45.32289" lon="5.86677">
        <ele>1877.11</ele>
        <time>2015-03-07T08:18:25Z</time>
      </trkpt>
      <trkpt lat="45.32292" lon="5.86678">
        <ele>1877.59</ele>
        <time>2015-03-07T08:18:28Z</time>
      </trkpt>
      <trkpt lat="45.32303" lon="5.86681">
        <ele>1878.07</ele>
        <time>2015-03-07T08:18:39Z</time>
      </trkpt>
      <trkpt lat="45.32312" lon="5.86683">
        <ele>1878.55</ele>
        <time>2015-03-07T08:18:50Z</time>
      </trkpt>
      <trkpt lat="45.3232" lon="5.86688">
        <ele>1879.03</ele>
        <time>2015-03-07T08:18:58Z</time>
      </trkpt>
      <trkpt lat="45.32329" lon="5.86695">
        <ele>1881.44</ele>
        <time>2015-03-07T08:19:14Z</time>
      </trkpt>
      <trkpt lat="45.32333" lon="5.86697">
        <ele>1881.92</ele>
        <time>2015-03-07T08:19:32Z</time>
      </trkpt>
      <trkpt lat="45.32344" lon="5.86702">
        <ele>1883.84</ele>
        <time>2015-03-07T08:19:46Z</time>
      </trkpt>
      <trkpt lat="45.32347" lon="5.86701">
        <ele>1885.28</ele>
        <time>2015-03-07T08:19:51Z</time>
      </trkpt>
      <trkpt lat="45.32359" lon="5.867">
        <ele>1884.8</ele>
        <time>2015-03-07T08:20:01Z</time>
      </trkpt>
      <trkpt lat="45.32369" lon="5.86707">
        <ele>1885.28</ele>
        <time>2015-03-07T08:20:12Z</time>
      </trkpt>
      <trkpt lat="45.32374" lon="5.86709">
        <ele>1885.28</ele>
        <time>2015-03-07T08:20:16Z</time>
      </trkpt>
      <trkpt lat="45.3239" lon="5.86716">
        <ele>1887.69</ele>
        <time>2015-03-07T08:20:33Z</time>
      </trkpt>
      <trkpt lat="45.32403" lon="5.86724">
        <ele>1888.65</ele>
        <time>2015-03-07T08:20:45Z</time>
      </trkpt>
      <trkpt lat="45.32416" lon="5.86732">
        <ele>1888.65</ele>
        <time>2015-03-07T08:20:57Z</time>
      </trkpt>
      <trkpt lat="45.32431" lon="5.86745">
        <ele>1888.17</ele>
        <time>2015-03-07T08:21:12Z</time>
      </trkpt>
      <trkpt lat="45.32446" lon="5.86754">
        <ele>1888.17</ele>
        <time>2015-03-07T08:21:25Z</time>
      </trkpt>
      <trkpt lat="45.32462" lon="5.86764">
        <ele>1887.69</ele>
        <time>2015-03-07T08:21:40Z</time>
      </trkpt>
      <trkpt lat="45.32471" lon="5.86767">
        <ele>1887.69</ele>
        <time>2015-03-07T08:21:46Z</time>
      </trkpt>
      <trkpt lat="45.32488" lon="5.86777">
        <ele>1886.72</ele>
        <time>2015-03-07T08:21:59Z</time>
      </trkpt>
      <trkpt lat="45.32497" lon="5.86782">
        <ele>1885.28</ele>
        <time>2015-03-07T08:22:08Z</time>
      </trkpt>
      <trkpt lat="45.325" lon="5.86786">
        <ele>1884.32</ele>
        <time>2015-03-07T08:22:12Z</time>
      </trkpt>
      <trkpt lat="45.32506" lon="5.86791">
        <ele>1883.84</ele>
        <time>2015-03-07T08:22:17Z</time>
      </trkpt>
      <trkpt lat="45.32513" lon="5.86801">
        <ele>1883.84</ele>
        <time>2015-03-07T08:22:28Z</time>
      </trkpt>
      <trkpt lat="45.32534" lon="5.86804">
        <ele>1880.48</ele>
        <time>2015-03-07T08:22:38Z</time>
      </trkpt>
      <trkpt lat="45.3254" lon="5.8681">
        <ele>1879.03</ele>
        <time>2015-03-07T08:22:46Z</time>
      </trkpt>
      <trkpt lat="45.32547" lon="5.86814">
        <ele>1877.11</ele>
        <time>2015-03-07T08:22:55Z</time>
      </trkpt>
      <trkpt lat="45.32562" lon="5.86822">
        <ele>1873.75</ele>
        <time>2015-03-07T08:23:06Z</time>
      </trkpt>
      <trkpt lat="45.32563" lon="5.86823">
        <ele>1873.27</ele>
        <time>2015-03-07T08:23:18Z</time>
      </trkpt>
      <trkpt lat="45.32562" lon="5.86824">
        <ele>1873.27</ele>
        <time>2015-03-07T08:23:33Z</time>
      </trkpt>
      <trkpt lat="45.32562" lon="5.86822">
        <ele>1873.27</ele>
        <time>2015-03-07T08:23:44Z</time>
      </trkpt>
      <trkpt lat="45.32562" lon="5.86823">
        <ele>1873.27</ele>
        <time>2015-03-07T08:24:08Z</time>
      </trkpt>
      <trkpt lat="45.32562" lon="5.86823">
        <ele>1874.23</ele>
        <time>2015-03-07T08:24:28Z</time>
      </trkpt>
      <trkpt lat="45.32562" lon="5.86825">
        <ele>1873.75</ele>
        <time>2015-03-07T08:25:08Z</time>
      </trkpt>
      <trkpt lat="45.32578" lon="5.86828">
        <ele>1873.27</ele>
        <time>2015-03-07T08:25:11Z</time>
      </trkpt>
      <trkpt lat="45.32598" lon="5.86827">
        <ele>1868.94</ele>
        <time>2015-03-07T08:25:14Z</time>
      </trkpt>
      <trkpt lat="45.32619" lon="5.86829">
        <ele>1864.13</ele>
        <time>2015-03-07T08:25:18Z</time>
      </trkpt>
      <trkpt lat="45.32624" lon="5.8683">
        <ele>1863.17</ele>
        <time>2015-03-07T08:25:19Z</time>
      </trkpt>
      <trkpt lat="45.32635" lon="5.86831">
        <ele>1862.21</ele>
        <time>2015-03-07T08:25:21Z</time>
      </trkpt>
      <trkpt lat="45.32655" lon="5.86843">
        <ele>1857.4</ele>
        <time>2015-03-07T08:25:25Z</time>
      </trkpt>
      <trkpt lat="45.32668" lon="5.86851">
        <ele>1855.48</ele>
        <time>2015-03-07T08:25:29Z</time>
      </trkpt>
      <trkpt lat="45.32692" lon="5.86843">
        <ele>1850.19</ele>
        <time>2015-03-07T08:25:33Z</time>
      </trkpt>
      <trkpt lat="45.32714" lon="5.86847">
        <ele>1842.5</ele>
        <time>2015-03-07T08:25:36Z</time>
      </trkpt>
      <trkpt lat="45.3273" lon="5.86839">
        <ele>1840.1</ele>
        <time>2015-03-07T08:25:39Z</time>
      </trkpt>
      <trkpt lat="45.32747" lon="5.86834">
        <ele>1834.33</ele>
        <time>2015-03-07T08:25:42Z</time>
      </trkpt>
      <trkpt lat="45.3276" lon="5.86833">
        <ele>1830.49</ele>
        <time>2015-03-07T08:25:44Z</time>
      </trkpt>
      <trkpt lat="45.32765" lon="5.86832">
        <ele>1829.05</ele>
        <time>2015-03-07T08:25:45Z</time>
      </trkpt>
      <trkpt lat="45.32774" lon="5.86818">
        <ele>1824.72</ele>
        <time>2015-03-07T08:25:48Z</time>
      </trkpt>
      <trkpt lat="45.32781" lon="5.86817">
        <ele>1824.72</ele>
        <time>2015-03-07T08:25:49Z</time>
      </trkpt>
      <trkpt lat="45.32794" lon="5.86819">
        <ele>1819.43</ele>
        <time>2015-03-07T08:25:52Z</time>
      </trkpt>
      <trkpt lat="45.32804" lon="5.86819">
        <ele>1818.47</ele>
        <time>2015-03-07T08:25:55Z</time>
      </trkpt>
      <trkpt lat="45.32816" lon="5.86818">
        <ele>1817.03</ele>
        <time>2015-03-07T08:25:58Z</time>
      </trkpt>
      <trkpt lat="45.32823" lon="5.86822">
        <ele>1815.59</ele>
        <time>2015-03-07T08:26:01Z</time>
      </trkpt>
      <trkpt lat="45.32838" lon="5.8682">
        <ele>1811.74</ele>
        <time>2015-03-07T08:26:05Z</time>
      </trkpt>
      <trkpt lat="45.32852" lon="5.86829">
        <ele>1808.86</ele>
        <time>2015-03-07T08:26:08Z</time>
      </trkpt>
      <trkpt lat="45.3286" lon="5.86836">
        <ele>1805.49</ele>
        <time>2015-03-07T08:26:11Z</time>
      </trkpt>
      <trkpt lat="45.32861" lon="5.86836">
        <ele>1804.53</ele>
        <time>2015-03-07T08:26:13Z</time>
      </trkpt>
      <trkpt lat="45.3286" lon="5.86839">
        <ele>1805.49</ele>
        <time>2015-03-07T08:27:31Z</time>
      </trkpt>
      <trkpt lat="45.32865" lon="5.86847">
        <ele>1806.94</ele>
        <time>2015-03-07T08:27:45Z</time>
      </trkpt>
      <trkpt lat="45.32871" lon="5.86856">
        <ele>1807.42</ele>
        <time>2015-03-07T08:27:56Z</time>
      </trkpt>
      <trkpt lat="45.32873" lon="5.86859">
        <ele>1806.94</ele>
        <time>2015-03-07T08:28:00Z</time>
      </trkpt>
      <trkpt lat="45.32878" lon="5.86866">
        <ele>1806.45</ele>
        <time>2015-03-07T08:28:10Z</time>
      </trkpt>
      <trkpt lat="45.3288" lon="5.86874">
        <ele>1806.45</ele>
        <time>2015-03-07T08:28:19Z</time>
      </trkpt>
      <trkpt lat="45.32881" lon="5.86875">
        <ele>1806.94</ele>
        <time>2015-03-07T08:28:38Z</time>
      </trkpt>
      <trkpt lat="45.32881" lon="5.86876">
        <ele>1806.94</ele>
        <time>2015-03-07T08:29:01Z</time>
      </trkpt>
      <trkpt lat="45.32881" lon="5.86879">
        <ele>1807.42</ele>
        <time>2015-03-07T08:29:39Z</time>
      </trkpt>
      <trkpt lat="45.32874" lon="5.86873">
        <ele>1809.82</ele>
        <time>2015-03-07T08:32:09Z</time>
      </trkpt>
      <trkpt lat="45.32859" lon="5.86866">
        <ele>1813.18</ele>
        <time>2015-03-07T08:32:30Z</time>
      </trkpt>
      <trkpt lat="45.32851" lon="5.86856">
        <ele>1816.07</ele>
        <time>2015-03-07T08:32:44Z</time>
      </trkpt>
      <trkpt lat="45.32846" lon="5.86849">
        <ele>1817.99</ele>
        <time>2015-03-07T08:33:04Z</time>
      </trkpt>
      <trkpt lat="45.32833" lon="5.8685">
        <ele>1820.87</ele>
        <time>2015-03-07T08:33:23Z</time>
      </trkpt>
      <trkpt lat="45.32832" lon="5.8685">
        <ele>1821.35</ele>
        <time>2015-03-07T08:33:24Z</time>
      </trkpt>
      <trkpt lat="45.32823" lon="5.86849">
        <ele>1823.28</ele>
        <time>2015-03-07T08:33:38Z</time>
      </trkpt>
      <trkpt lat="45.32826" lon="5.86853">
        <ele>1824.72</ele>
        <time>2015-03-07T08:33:53Z</time>
      </trkpt>
      <trkpt lat="45.32827" lon="5.86855">
        <ele>1824.72</ele>
        <time>2015-03-07T08:33:55Z</time>
      </trkpt>
      <trkpt lat="45.3283" lon="5.8686">
        <ele>1825.68</ele>
        <time>2015-03-07T08:34:02Z</time>
      </trkpt>
      <trkpt lat="45.32833" lon="5.86866">
        <ele>1827.12</ele>
        <time>2015-03-07T08:34:14Z</time>
      </trkpt>
      <trkpt lat="45.32823" lon="5.86864">
        <ele>1830.01</ele>
        <time>2015-03-07T08:34:32Z</time>
      </trkpt>
      <trkpt lat="45.32816" lon="5.86863">
        <ele>1830.97</ele>
        <time>2015-03-07T08:34:42Z</time>
      </trkpt>
      <trkpt lat="45.32807" lon="5.8686">
        <ele>1832.41</ele>
        <time>2015-03-07T08:34:55Z</time>
      </trkpt>
      <trkpt lat="45.3279" lon="5.86858">
        <ele>1835.29</ele>
        <time>2015-03-07T08:35:14Z</time>
      </trkpt>
      <trkpt lat="45.32774" lon="5.86864">
        <ele>1838.18</ele>
        <time>2015-03-07T08:35:35Z</time>
      </trkpt>
      <trkpt lat="45.32768" lon="5.86867">
        <ele>1840.1</ele>
        <time>2015-03-07T08:35:48Z</time>
      </trkpt>
      <trkpt lat="45.32772" lon="5.86867">
        <ele>1841.54</ele>
        <time>2015-03-07T08:36:01Z</time>
      </trkpt>
      <trkpt lat="45.32777" lon="5.86868">
        <ele>1842.5</ele>
        <time>2015-03-07T08:36:11Z</time>
      </trkpt>
      <trkpt lat="45.3278" lon="5.86868">
        <ele>1843.95</ele>
        <time>2015-03-07T08:36:16Z</time>
      </trkpt>
      <trkpt lat="45.32793" lon="5.86875">
        <ele>1843.47</ele>
        <time>2015-03-07T08:36:32Z</time>
      </trkpt>
      <trkpt lat="45.32808" lon="5.86882">
        <ele>1842.98</ele>
        <time>2015-03-07T08:36:50Z</time>
      </trkpt>
      <trkpt lat="45.32822" lon="5.86886">
        <ele>1842.02</ele>
        <time>2015-03-07T08:37:02Z</time>
      </trkpt>
      <trkpt lat="45.32827" lon="5.86888">
        <ele>1842.5</ele>
        <time>2015-03-07T08:37:07Z</time>
      </trkpt>
      <trkpt lat="45.32833" lon="5.86891">
        <ele>1842.98</ele>
        <time>2015-03-07T08:37:20Z</time>
      </trkpt>
      <trkpt lat="45.32835" lon="5.86896">
        <ele>1844.91</ele>
        <time>2015-03-07T08:37:39Z</time>
      </trkpt>
      <trkpt lat="45.32832" lon="5.86897">
        <ele>1845.87</ele>
        <time>2015-03-07T08:37:54Z</time>
      </trkpt>
      <trkpt lat="45.32835" lon="5.86903">
        <ele>1847.79</ele>
        <time>2015-03-07T08:38:05Z</time>
      </trkpt>
      <trkpt lat="45.32839" lon="5.86911">
        <ele>1849.23</ele>
        <time>2015-03-07T08:38:17Z</time>
      </trkpt>
      <trkpt lat="45.32842" lon="5.86915">
        <ele>1850.19</ele>
        <time>2015-03-07T08:38:25Z</time>
      </trkpt>
      <trkpt lat="45.3284" lon="5.86917">
        <ele>1852.12</ele>
        <time>2015-03-07T08:38:39Z</time>
      </trkpt>
      <trkpt lat="45.32838" lon="5.86917">
        <ele>1852.6</ele>
        <time>2015-03-07T08:38:44Z</time>
      </trkpt>
      <trkpt lat="45.3283" lon="5.86915">
        <ele>1854.52</ele>
        <time>2015-03-07T08:38:58Z</time>
      </trkpt>
      <trkpt lat="45.32828" lon="5.86916">
        <ele>1855.48</ele>
        <time>2015-03-07T08:39:10Z</time>
      </trkpt>
      <trkpt lat="45.32829" lon="5.86917">
        <ele>1855.96</ele>
        <time>2015-03-07T08:39:14Z</time>
      </trkpt>
      <trkpt lat="45.32834" lon="5.86925">
        <ele>1857.4</ele>
        <time>2015-03-07T08:39:25Z</time>
      </trkpt>
      <trkpt lat="45.32837" lon="5.86929">
        <ele>1858.37</ele>
        <time>2015-03-07T08:39:33Z</time>
      </trkpt>
      <trkpt lat="45.32842" lon="5.86937">
        <ele>1859.33</ele>
        <time>2015-03-07T08:39:45Z</time>
      </trkpt>
      <trkpt lat="45.32846" lon="5.86941">
        <ele>1859.81</ele>
        <time>2015-03-07T08:39:51Z</time>
      </trkpt>
      <trkpt lat="45.32851" lon="5.86948">
        <ele>1862.21</ele>
        <time>2015-03-07T08:40:02Z</time>
      </trkpt>
      <trkpt lat="45.32857" lon="5.86956">
        <ele>1863.65</ele>
        <time>2015-03-07T08:40:14Z</time>
      </trkpt>
      <trkpt lat="45.32861" lon="5.86964">
        <ele>1865.09</ele>
        <time>2015-03-07T08:40:23Z</time>
      </trkpt>
      <trkpt lat="45.32865" lon="5.86974">
        <ele>1866.06</ele>
        <time>2015-03-07T08:40:34Z</time>
      </trkpt>
      <trkpt lat="45.32861" lon="5.8698">
        <ele>1867.02</ele>
        <time>2015-03-07T08:40:46Z</time>
      </trkpt>
      <trkpt lat="45.32858" lon="5.86979">
        <ele>1867.5</ele>
        <time>2015-03-07T08:40:51Z</time>
      </trkpt>
      <trkpt lat="45.32852" lon="5.86977">
        <ele>1868.94</ele>
        <time>2015-03-07T08:40:59Z</time>
      </trkpt>
      <trkpt lat="45.32838" lon="5.86968">
        <ele>1871.34</ele>
        <time>2015-03-07T08:41:20Z</time>
      </trkpt>
      <trkpt lat="45.3282" lon="5.86962">
        <ele>1874.23</ele>
        <time>2015-03-07T08:41:47Z</time>
      </trkpt>
      <trkpt lat="45.32806" lon="5.8696">
        <ele>1877.59</ele>
        <time>2015-03-07T08:42:06Z</time>
      </trkpt>
      <trkpt lat="45.32797" lon="5.86953">
        <ele>1880.96</ele>
        <time>2015-03-07T08:42:21Z</time>
      </trkpt>
      <trkpt lat="45.32781" lon="5.86942">
        <ele>1883.36</ele>
        <time>2015-03-07T08:42:46Z</time>
      </trkpt>
      <trkpt lat="45.32773" lon="5.86941">
        <ele>1885.76</ele>
        <time>2015-03-07T08:43:06Z</time>
      </trkpt>
      <trkpt lat="45.32761" lon="5.8694">
        <ele>1886.72</ele>
        <time>2015-03-07T08:43:16Z</time>
      </trkpt>
      <trkpt lat="45.32749" lon="5.86943">
        <ele>1887.69</ele>
        <time>2015-03-07T08:43:35Z</time>
      </trkpt>
      <trkpt lat="45.32746" lon="5.86945">
        <ele>1888.65</ele>
        <time>2015-03-07T08:43:39Z</time>
      </trkpt>
      <trkpt lat="45.32736" lon="5.8695">
        <ele>1890.57</ele>
        <time>2015-03-07T08:43:56Z</time>
      </trkpt>
      <trkpt lat="45.32728" lon="5.86948">
        <ele>1892.49</ele>
        <time>2015-03-07T08:44:07Z</time>
      </trkpt>
      <trkpt lat="45.32708" lon="5.8695">
        <ele>1895.38</ele>
        <time>2015-03-07T08:44:35Z</time>
      </trkpt>
      <trkpt lat="45.32706" lon="5.86958">
        <ele>1897.78</ele>
        <time>2015-03-07T08:44:48Z</time>
      </trkpt>
      <trkpt lat="45.32716" lon="5.86959">
        <ele>1900.66</ele>
        <time>2015-03-07T08:45:01Z</time>
      </trkpt>
      <trkpt lat="45.32722" lon="5.86962">
        <ele>1902.11</ele>
        <time>2015-03-07T08:45:11Z</time>
      </trkpt>
      <trkpt lat="45.32732" lon="5.86963">
        <ele>1902.59</ele>
        <time>2015-03-07T08:45:22Z</time>
      </trkpt>
      <trkpt lat="45.32743" lon="5.86966">
        <ele>1903.07</ele>
        <time>2015-03-07T08:45:33Z</time>
      </trkpt>
      <trkpt lat="45.32756" lon="5.86972">
        <ele>1901.63</ele>
        <time>2015-03-07T08:45:46Z</time>
      </trkpt>
      <trkpt lat="45.32763" lon="5.86976">
        <ele>1902.11</ele>
        <time>2015-03-07T08:45:54Z</time>
      </trkpt>
      <trkpt lat="45.32767" lon="5.86979">
        <ele>1902.11</ele>
        <time>2015-03-07T08:46:00Z</time>
      </trkpt>
      <trkpt lat="45.32782" lon="5.86988">
        <ele>1902.11</ele>
        <time>2015-03-07T08:46:15Z</time>
      </trkpt>
      <trkpt lat="45.32789" lon="5.86991">
        <ele>1902.11</ele>
        <time>2015-03-07T08:46:22Z</time>
      </trkpt>
      <trkpt lat="45.32799" lon="5.86992">
        <ele>1901.63</ele>
        <time>2015-03-07T08:46:30Z</time>
      </trkpt>
      <trkpt lat="45.32802" lon="5.86995">
        <ele>1901.14</ele>
        <time>2015-03-07T08:46:33Z</time>
      </trkpt>
      <trkpt lat="45.32811" lon="5.86996">
        <ele>1900.66</ele>
        <time>2015-03-07T08:46:42Z</time>
      </trkpt>
      <trkpt lat="45.32815" lon="5.87001">
        <ele>1900.66</ele>
        <time>2015-03-07T08:46:53Z</time>
      </trkpt>
      <trkpt lat="45.32821" lon="5.87">
        <ele>1900.18</ele>
        <time>2015-03-07T08:47:05Z</time>
      </trkpt>
      <trkpt lat="45.3283" lon="5.87013">
        <ele>1900.18</ele>
        <time>2015-03-07T08:47:29Z</time>
      </trkpt>
      <trkpt lat="45.32834" lon="5.87022">
        <ele>1900.18</ele>
        <time>2015-03-07T08:47:42Z</time>
      </trkpt>
      <trkpt lat="45.32841" lon="5.87032">
        <ele>1899.22</ele>
        <time>2015-03-07T08:47:57Z</time>
      </trkpt>
      <trkpt lat="45.32846" lon="5.87037">
        <ele>1901.63</ele>
        <time>2015-03-07T08:48:12Z</time>
      </trkpt>
      <trkpt lat="45.32853" lon="5.87038">
        <ele>1900.66</ele>
        <time>2015-03-07T08:48:31Z</time>
      </trkpt>
      <trkpt lat="45.32859" lon="5.87039">
        <ele>1897.3</ele>
        <time>2015-03-07T08:48:46Z</time>
      </trkpt>
      <trkpt lat="45.32862" lon="5.8704">
        <ele>1894.42</ele>
        <time>2015-03-07T08:48:57Z</time>
      </trkpt>
      <trkpt lat="45.32867" lon="5.87039">
        <ele>1891.53</ele>
        <time>2015-03-07T08:49:10Z</time>
      </trkpt>
      <trkpt lat="45.32868" lon="5.87039">
        <ele>1890.57</ele>
        <time>2015-03-07T08:49:26Z</time>
      </trkpt>
      <trkpt lat="45.32885" lon="5.87046">
        <ele>1887.69</ele>
        <time>2015-03-07T08:51:20Z</time>
      </trkpt>
      <trkpt lat="45.32893" lon="5.87053">
        <ele>1884.32</ele>
        <time>2015-03-07T08:51:25Z</time>
      </trkpt>
      <trkpt lat="45.32904" lon="5.87063">
        <ele>1881.44</ele>
        <time>2015-03-07T08:51:34Z</time>
      </trkpt>
      <trkpt lat="45.32915" lon="5.87067">
        <ele>1881.92</ele>
        <time>2015-03-07T08:51:43Z</time>
      </trkpt>
      <trkpt lat="45.32919" lon="5.8707">
        <ele>1878.55</ele>
        <time>2015-03-07T08:51:54Z</time>
      </trkpt>
      <trkpt lat="45.32927" lon="5.87081">
        <ele>1877.11</ele>
        <time>2015-03-07T08:52:04Z</time>
      </trkpt>
      <trkpt lat="45.32928" lon="5.87082">
        <ele>1877.11</ele>
        <time>2015-03-07T08:52:05Z</time>
      </trkpt>
      <trkpt lat="45.32934" lon="5.87095">
        <ele>1874.23</ele>
        <time>2015-03-07T08:52:18Z</time>
      </trkpt>
      <trkpt lat="45.3294" lon="5.87105">
        <ele>1874.71</ele>
        <time>2015-03-07T08:52:31Z</time>
      </trkpt>
      <trkpt lat="45.32943" lon="5.8711">
        <ele>1872.79</ele>
        <time>2015-03-07T08:52:42Z</time>
      </trkpt>
      <trkpt lat="45.32944" lon="5.87111">
        <ele>1869.9</ele>
        <time>2015-03-07T08:52:52Z</time>
      </trkpt>
      <trkpt lat="45.32945" lon="5.87112">
        <ele>1869.42</ele>
        <time>2015-03-07T08:52:53Z</time>
      </trkpt>
      <trkpt lat="45.32952" lon="5.87125">
        <ele>1866.54</ele>
        <time>2015-03-07T08:53:01Z</time>
      </trkpt>
      <trkpt lat="45.32954" lon="5.87137">
        <ele>1865.58</ele>
        <time>2015-03-07T08:53:09Z</time>
      </trkpt>
      <trkpt lat="45.32961" lon="5.87159">
        <ele>1862.69</ele>
        <time>2015-03-07T08:53:21Z</time>
      </trkpt>
      <trkpt lat="45.3297" lon="5.87174">
        <ele>1860.29</ele>
        <time>2015-03-07T08:53:28Z</time>
      </trkpt>
      <trkpt lat="45.32982" lon="5.87186">
        <ele>1856.92</ele>
        <time>2015-03-07T08:53:36Z</time>
      </trkpt>
      <trkpt lat="45.32983" lon="5.87188">
        <ele>1855.96</ele>
        <time>2015-03-07T08:53:38Z</time>
      </trkpt>
      <trkpt lat="45.32989" lon="5.87195">
        <ele>1853.56</ele>
        <time>2015-03-07T08:53:44Z</time>
      </trkpt>
      <trkpt lat="45.32992" lon="5.87201">
        <ele>1851.64</ele>
        <time>2015-03-07T08:53:48Z</time>
      </trkpt>
      <trkpt lat="45.32992" lon="5.87203">
        <ele>1852.12</ele>
        <time>2015-03-07T08:53:51Z</time>
      </trkpt>
      <trkpt lat="45.32994" lon="5.87209">
        <ele>1852.6</ele>
        <time>2015-03-07T08:53:56Z</time>
      </trkpt>
      <trkpt lat="45.32998" lon="5.87221">
        <ele>1850.19</ele>
        <time>2015-03-07T08:54:02Z</time>
      </trkpt>
      <trkpt lat="45.33006" lon="5.87239">
        <ele>1849.71</ele>
        <time>2015-03-07T08:54:14Z</time>
      </trkpt>
      <trkpt lat="45.33006" lon="5.87239">
        <ele>1851.16</ele>
        <time>2015-03-07T08:54:29Z</time>
      </trkpt>
      <trkpt lat="45.33013" lon="5.8725">
        <ele>1851.16</ele>
        <time>2015-03-07T08:54:41Z</time>
      </trkpt>
      <trkpt lat="45.33015" lon="5.87254">
        <ele>1848.75</ele>
        <time>2015-03-07T08:54:51Z</time>
      </trkpt>
      <trkpt lat="45.33016" lon="5.87256">
        <ele>1847.79</ele>
        <time>2015-03-07T08:54:57Z</time>
      </trkpt>
      <trkpt lat="45.33015" lon="5.87256">
        <ele>1846.83</ele>
        <time>2015-03-07T08:55:20Z</time>
      </trkpt>
      <trkpt lat="45.33019" lon="5.87257">
        <ele>1848.75</ele>
        <time>2015-03-07T08:55:31Z</time>
      </trkpt>
      <trkpt lat="45.33035" lon="5.87269">
        <ele>1846.35</ele>
        <time>2015-03-07T08:55:43Z</time>
      </trkpt>
      <trkpt lat="45.33046" lon="5.87281">
        <ele>1844.91</ele>
        <time>2015-03-07T08:55:54Z</time>
      </trkpt>
      <trkpt lat="45.33046" lon="5.87282">
        <ele>1844.91</ele>
        <time>2015-03-07T08:55:55Z</time>
      </trkpt>
      <trkpt lat="45.33061" lon="5.873">
        <ele>1845.39</ele>
        <time>2015-03-07T08:56:07Z</time>
      </trkpt>
      <trkpt lat="45.33067" lon="5.87307">
        <ele>1844.91</ele>
        <time>2015-03-07T08:56:15Z</time>
      </trkpt>
      <trkpt lat="45.33076" lon="5.8731">
        <ele>1842.98</ele>
        <time>2015-03-07T08:56:23Z</time>
      </trkpt>
      <trkpt lat="45.33087" lon="5.87312">
        <ele>1840.58</ele>
        <time>2015-03-07T08:56:33Z</time>
      </trkpt>
      <trkpt lat="45.33094" lon="5.87315">
        <ele>1840.1</ele>
        <time>2015-03-07T08:56:40Z</time>
      </trkpt>
      <trkpt lat="45.33099" lon="5.87318">
        <ele>1839.62</ele>
        <time>2015-03-07T08:56:44Z</time>
      </trkpt>
      <trkpt lat="45.33109" lon="5.87322">
        <ele>1838.66</ele>
        <time>2015-03-07T08:56:53Z</time>
      </trkpt>
      <trkpt lat="45.33116" lon="5.87321">
        <ele>1840.1</ele>
        <time>2015-03-07T08:57:01Z</time>
      </trkpt>
      <trkpt lat="45.33119" lon="5.87323">
        <ele>1840.1</ele>
        <time>2015-03-07T08:57:04Z</time>
      </trkpt>
      <trkpt lat="45.33127" lon="5.87322">
        <ele>1841.54</ele>
        <time>2015-03-07T08:57:16Z</time>
      </trkpt>
      <trkpt lat="45.33128" lon="5.87322">
        <ele>1841.54</ele>
        <time>2015-03-07T08:57:17Z</time>
      </trkpt>
      <trkpt lat="45.33131" lon="5.87322">
        <ele>1841.06</ele>
        <time>2015-03-07T08:57:19Z</time>
      </trkpt>
      <trkpt lat="45.33137" lon="5.87321">
        <ele>1840.58</ele>
        <time>2015-03-07T08:57:25Z</time>
      </trkpt>
      <trkpt lat="45.33149" lon="5.87322">
        <ele>1840.1</ele>
        <time>2015-03-07T08:57:34Z</time>
      </trkpt>
      <trkpt lat="45.33162" lon="5.87325">
        <ele>1838.66</ele>
        <time>2015-03-07T08:57:43Z</time>
      </trkpt>
      <trkpt lat="45.33177" lon="5.87335">
        <ele>1837.7</ele>
        <time>2015-03-07T08:57:56Z</time>
      </trkpt>
      <trkpt lat="45.33185" lon="5.87335">
        <ele>1837.7</ele>
        <time>2015-03-07T08:58:02Z</time>
      </trkpt>
      <trkpt lat="45.33189" lon="5.87337">
        <ele>1837.22</ele>
        <time>2015-03-07T08:58:06Z</time>
      </trkpt>
      <trkpt lat="45.33202" lon="5.87342">
        <ele>1835.77</ele>
        <time>2015-03-07T08:58:19Z</time>
      </trkpt>
      <trkpt lat="45.33214" lon="5.87347">
        <ele>1836.26</ele>
        <time>2015-03-07T08:58:29Z</time>
      </trkpt>
      <trkpt lat="45.33224" lon="5.87352">
        <ele>1836.26</ele>
        <time>2015-03-07T08:58:40Z</time>
      </trkpt>
      <trkpt lat="45.3323" lon="5.87353">
        <ele>1836.26</ele>
        <time>2015-03-07T08:58:46Z</time>
      </trkpt>
      <trkpt lat="45.33246" lon="5.87355">
        <ele>1834.81</ele>
        <time>2015-03-07T08:59:00Z</time>
      </trkpt>
      <trkpt lat="45.33248" lon="5.87355">
        <ele>1834.81</ele>
        <time>2015-03-07T08:59:02Z</time>
      </trkpt>
      <trkpt lat="45.33259" lon="5.87354">
        <ele>1832.89</ele>
        <time>2015-03-07T08:59:10Z</time>
      </trkpt>
      <trkpt lat="45.33263" lon="5.87355">
        <ele>1834.33</ele>
        <time>2015-03-07T08:59:17Z</time>
      </trkpt>
      <trkpt lat="45.33274" lon="5.87364">
        <ele>1834.81</ele>
        <time>2015-03-07T08:59:31Z</time>
      </trkpt>
      <trkpt lat="45.33286" lon="5.87375">
        <ele>1834.33</ele>
        <time>2015-03-07T08:59:45Z</time>
      </trkpt>
      <trkpt lat="45.33294" lon="5.87385">
        <ele>1835.29</ele>
        <time>2015-03-07T08:59:58Z</time>
      </trkpt>
      <trkpt lat="45.33301" lon="5.87393">
        <ele>1835.77</ele>
        <time>2015-03-07T09:00:08Z</time>
      </trkpt>
      <trkpt lat="45.33312" lon="5.87399">
        <ele>1836.26</ele>
        <time>2015-03-07T09:00:23Z</time>
      </trkpt>
      <trkpt lat="45.3332" lon="5.87409">
        <ele>1836.26</ele>
        <time>2015-03-07T09:00:38Z</time>
      </trkpt>
      <trkpt lat="45.33322" lon="5.87413">
        <ele>1836.74</ele>
        <time>2015-03-07T09:00:44Z</time>
      </trkpt>
      <trkpt lat="45.33326" lon="5.87415">
        <ele>1837.22</ele>
        <time>2015-03-07T09:00:55Z</time>
      </trkpt>
      <trkpt lat="45.33331" lon="5.87424">
        <ele>1837.7</ele>
        <time>2015-03-07T09:01:10Z</time>
      </trkpt>
      <trkpt lat="45.33333" lon="5.87426">
        <ele>1837.7</ele>
        <time>2015-03-07T09:01:14Z</time>
      </trkpt>
      <trkpt lat="45.33343" lon="5.87436">
        <ele>1838.18</ele>
        <time>2015-03-07T09:01:29Z</time>
      </trkpt>
      <trkpt lat="45.33349" lon="5.87442">
        <ele>1838.18</ele>
        <time>2015-03-07T09:01:39Z</time>
      </trkpt>
      <trkpt lat="45.33358" lon="5.87453">
        <ele>1838.66</ele>
        <time>2015-03-07T09:01:50Z</time>
      </trkpt>
      <trkpt lat="45.33363" lon="5.87459">
        <ele>1838.66</ele>
        <time>2015-03-07T09:02:00Z</time>
      </trkpt>
      <trkpt lat="45.33372" lon="5.87469">
        <ele>1839.14</ele>
        <time>2015-03-07T09:02:15Z</time>
      </trkpt>
      <trkpt lat="45.33376" lon="5.87475">
        <ele>1839.62</ele>
        <time>2015-03-07T09:02:28Z</time>
      </trkpt>
      <trkpt lat="45.33383" lon="5.87482">
        <ele>1839.14</ele>
        <time>2015-03-07T09:02:41Z</time>
      </trkpt>
      <trkpt lat="45.33392" lon="5.87492">
        <ele>1839.14</ele>
        <time>2015-03-07T09:02:51Z</time>
      </trkpt>
      <trkpt lat="45.33404" lon="5.87501">
        <ele>1839.14</ele>
        <time>2015-03-07T09:03:05Z</time>
      </trkpt>
      <trkpt lat="45.3342" lon="5.87511">
        <ele>1838.18</ele>
        <time>2015-03-07T09:03:19Z</time>
      </trkpt>
      <trkpt lat="45.3342" lon="5.87512">
        <ele>1837.22</ele>
        <time>2015-03-07T09:03:37Z</time>
      </trkpt>
      <trkpt lat="45.33419" lon="5.8751">
        <ele>1836.74</ele>
        <time>2015-03-07T09:04:16Z</time>
      </trkpt>
      <trkpt lat="45.33421" lon="5.87511">
        <ele>1837.22</ele>
        <time>2015-03-07T09:04:59Z</time>
      </trkpt>
      <trkpt lat="45.3342" lon="5.87509">
        <ele>1837.7</ele>
        <time>2015-03-07T09:05:13Z</time>
      </trkpt>
      <trkpt lat="45.33419" lon="5.8751">
        <ele>1836.26</ele>
        <time>2015-03-07T09:05:43Z</time>
      </trkpt>
      <trkpt lat="45.33444" lon="5.87514">
        <ele>1835.29</ele>
        <time>2015-03-07T09:06:03Z</time>
      </trkpt>
      <trkpt lat="45.33467" lon="5.87518">
        <ele>1832.89</ele>
        <time>2015-03-07T09:06:08Z</time>
      </trkpt>
      <trkpt lat="45.33488" lon="5.87532">
        <ele>1831.45</ele>
        <time>2015-03-07T09:06:14Z</time>
      </trkpt>
      <trkpt lat="45.33526" lon="5.8754">
        <ele>1827.12</ele>
        <time>2015-03-07T09:06:20Z</time>
      </trkpt>
      <trkpt lat="45.3356" lon="5.87541">
        <ele>1824.24</ele>
        <time>2015-03-07T09:06:26Z</time>
      </trkpt>
      <trkpt lat="45.33592" lon="5.87541">
        <ele>1820.87</ele>
        <time>2015-03-07T09:06:31Z</time>
      </trkpt>
      <trkpt lat="45.33619" lon="5.87536">
        <ele>1818.47</ele>
        <time>2015-03-07T09:06:37Z</time>
      </trkpt>
      <trkpt lat="45.3364" lon="5.87535">
        <ele>1817.03</ele>
        <time>2015-03-07T09:06:43Z</time>
      </trkpt>
      <trkpt lat="45.3365" lon="5.87534">
        <ele>1817.03</ele>
        <time>2015-03-07T09:06:56Z</time>
      </trkpt>
      <trkpt lat="45.33671" lon="5.87524">
        <ele>1816.07</ele>
        <time>2015-03-07T09:07:16Z</time>
      </trkpt>
      <trkpt lat="45.33709" lon="5.8753">
        <ele>1812.7</ele>
        <time>2015-03-07T09:07:25Z</time>
      </trkpt>
      <trkpt lat="45.3373" lon="5.87537">
        <ele>1811.26</ele>
        <time>2015-03-07T09:07:31Z</time>
      </trkpt>
      <trkpt lat="45.3375" lon="5.87538">
        <ele>1810.3</ele>
        <time>2015-03-07T09:07:36Z</time>
      </trkpt>
      <trkpt lat="45.33791" lon="5.8755">
        <ele>1807.42</ele>
        <time>2015-03-07T09:07:47Z</time>
      </trkpt>
      <trkpt lat="45.33824" lon="5.87564">
        <ele>1805.01</ele>
        <time>2015-03-07T09:07:58Z</time>
      </trkpt>
      <trkpt lat="45.3385" lon="5.8757">
        <ele>1802.61</ele>
        <time>2015-03-07T09:08:06Z</time>
      </trkpt>
      <trkpt lat="45.33874" lon="5.87589">
        <ele>1802.13</ele>
        <time>2015-03-07T09:08:18Z</time>
      </trkpt>
      <trkpt lat="45.33893" lon="5.87614">
        <ele>1799.73</ele>
        <time>2015-03-07T09:08:28Z</time>
      </trkpt>
      <trkpt lat="45.33918" lon="5.87635">
        <ele>1796.84</ele>
        <time>2015-03-07T09:08:39Z</time>
      </trkpt>
      <trkpt lat="45.3393" lon="5.87639">
        <ele>1795.4</ele>
        <time>2015-03-07T09:08:43Z</time>
      </trkpt>
      <trkpt lat="45.33952" lon="5.87647">
        <ele>1793.48</ele>
        <time>2015-03-07T09:08:54Z</time>
      </trkpt>
      <trkpt lat="45.3396" lon="5.87654">
        <ele>1794.44</ele>
        <time>2015-03-07T09:09:07Z</time>
      </trkpt>
      <trkpt lat="45.33967" lon="5.87653">
        <ele>1793.48</ele>
        <time>2015-03-07T09:09:09Z</time>
      </trkpt>
      <trkpt lat="45.33973" lon="5.87653">
        <ele>1792.52</ele>
        <time>2015-03-07T09:09:11Z</time>
      </trkpt>
      <trkpt lat="45.33981" lon="5.87654">
        <ele>1791.07</ele>
        <time>2015-03-07T09:09:14Z</time>
      </trkpt>
      <trkpt lat="45.33992" lon="5.87653">
        <ele>1790.11</ele>
        <time>2015-03-07T09:09:16Z</time>
      </trkpt>
      <trkpt lat="45.34009" lon="5.87654">
        <ele>1788.67</ele>
        <time>2015-03-07T09:09:19Z</time>
      </trkpt>
      <trkpt lat="45.34037" lon="5.87642">
        <ele>1784.82</ele>
        <time>2015-03-07T09:09:24Z</time>
      </trkpt>
      <trkpt lat="45.34068" lon="5.87629">
        <ele>1782.9</ele>
        <time>2015-03-07T09:09:33Z</time>
      </trkpt>
      <trkpt lat="45.34084" lon="5.87626">
        <ele>1780.5</ele>
        <time>2015-03-07T09:09:42Z</time>
      </trkpt>
      <trkpt lat="45.34082" lon="5.87627">
        <ele>1780.02</ele>
        <time>2015-03-07T09:10:36Z</time>
      </trkpt>
      <trkpt lat="45.34084" lon="5.87628">
        <ele>1780.02</ele>
        <time>2015-03-07T09:11:02Z</time>
      </trkpt>
      <trkpt lat="45.34083" lon="5.87626">
        <ele>1780.02</ele>
        <time>2015-03-07T09:11:19Z</time>
      </trkpt>
      <trkpt lat="45.34083" lon="5.87626">
        <ele>1780.02</ele>
        <time>2015-03-07T09:11:20Z</time>
      </trkpt>
      <trkpt lat="45.34083" lon="5.87629">
        <ele>1779.54</ele>
        <time>2015-03-07T09:11:43Z</time>
      </trkpt>
      <trkpt lat="45.34083" lon="5.87628">
        <ele>1780.02</ele>
        <time>2015-03-07T09:12:25Z</time>
      </trkpt>
      <trkpt lat="45.34082" lon="5.87625">
        <ele>1778.58</ele>
        <time>2015-03-07T09:12:57Z</time>
      </trkpt>
      <trkpt lat="45.34084" lon="5.8763">
        <ele>1779.06</ele>
        <time>2015-03-07T09:13:40Z</time>
      </trkpt>
      <trkpt lat="45.3408" lon="5.87626">
        <ele>1779.06</ele>
        <time>2015-03-07T09:14:08Z</time>
      </trkpt>
      <trkpt lat="45.34083" lon="5.87629">
        <ele>1779.54</ele>
        <time>2015-03-07T09:15:24Z</time>
      </trkpt>
      <trkpt lat="45.34084" lon="5.87631">
        <ele>1779.54</ele>
        <time>2015-03-07T09:15:47Z</time>
      </trkpt>
      <trkpt lat="45.34084" lon="5.8763">
        <ele>1779.54</ele>
        <time>2015-03-07T09:16:10Z</time>
      </trkpt>
      <trkpt lat="45.34082" lon="5.87638">
        <ele>1782.42</ele>
        <time>2015-03-07T09:16:47Z</time>
      </trkpt>
      <trkpt lat="45.34085" lon="5.87639">
        <ele>1784.34</ele>
        <time>2015-03-07T09:17:09Z</time>
      </trkpt>
      <trkpt lat="45.34086" lon="5.87644">
        <ele>1787.23</ele>
        <time>2015-03-07T09:17:23Z</time>
      </trkpt>
      <trkpt lat="45.34086" lon="5.87649">
        <ele>1788.67</ele>
        <time>2015-03-07T09:17:34Z</time>
      </trkpt>
      <trkpt lat="45.34093" lon="5.87649">
        <ele>1791.07</ele>
        <time>2015-03-07T09:17:51Z</time>
      </trkpt>
      <trkpt lat="45.34097" lon="5.87651">
        <ele>1793</ele>
        <time>2015-03-07T09:18:03Z</time>
      </trkpt>
      <trkpt lat="45.34097" lon="5.87658">
        <ele>1795.4</ele>
        <time>2015-03-07T09:18:15Z</time>
      </trkpt>
      <trkpt lat="45.34096" lon="5.87662">
        <ele>1797.8</ele>
        <time>2015-03-07T09:18:30Z</time>
      </trkpt>
      <trkpt lat="45.34094" lon="5.87667">
        <ele>1800.21</ele>
        <time>2015-03-07T09:18:43Z</time>
      </trkpt>
      <trkpt lat="45.34093" lon="5.87672">
        <ele>1802.13</ele>
        <time>2015-03-07T09:18:57Z</time>
      </trkpt>
      <trkpt lat="45.34091" lon="5.87677">
        <ele>1805.01</ele>
        <time>2015-03-07T09:19:15Z</time>
      </trkpt>
      <trkpt lat="45.34091" lon="5.8768">
        <ele>1806.45</ele>
        <time>2015-03-07T09:19:28Z</time>
      </trkpt>
      <trkpt lat="45.34091" lon="5.87686">
        <ele>1809.34</ele>
        <time>2015-03-07T09:19:42Z</time>
      </trkpt>
      <trkpt lat="45.34092" lon="5.87689">
        <ele>1811.74</ele>
        <time>2015-03-07T09:19:58Z</time>
      </trkpt>
      <trkpt lat="45.34094" lon="5.87692">
        <ele>1813.66</ele>
        <time>2015-03-07T09:20:08Z</time>
      </trkpt>
      <trkpt lat="45.34098" lon="5.87691">
        <ele>1815.59</ele>
        <time>2015-03-07T09:20:22Z</time>
      </trkpt>
      <trkpt lat="45.34101" lon="5.87693">
        <ele>1817.51</ele>
        <time>2015-03-07T09:20:35Z</time>
      </trkpt>
      <trkpt lat="45.34105" lon="5.87693">
        <ele>1820.87</ele>
        <time>2015-03-07T09:20:48Z</time>
      </trkpt>
      <trkpt lat="45.34107" lon="5.87694">
        <ele>1822.32</ele>
        <time>2015-03-07T09:21:01Z</time>
      </trkpt>
      <trkpt lat="45.3411" lon="5.87695">
        <ele>1823.76</ele>
        <time>2015-03-07T09:21:24Z</time>
      </trkpt>
      <trkpt lat="45.34112" lon="5.87697">
        <ele>1825.68</ele>
        <time>2015-03-07T09:21:40Z</time>
      </trkpt>
      <trkpt lat="45.34117" lon="5.877">
        <ele>1828.56</ele>
        <time>2015-03-07T09:21:58Z</time>
      </trkpt>
      <trkpt lat="45.34119" lon="5.87706">
        <ele>1830.97</ele>
        <time>2015-03-07T09:22:15Z</time>
      </trkpt>
      <trkpt lat="45.34116" lon="5.87712">
        <ele>1833.37</ele>
        <time>2015-03-07T09:22:30Z</time>
      </trkpt>
      <trkpt lat="45.34114" lon="5.87716">
        <ele>1834.81</ele>
        <time>2015-03-07T09:22:43Z</time>
      </trkpt>
      <trkpt lat="45.34118" lon="5.87716">
        <ele>1835.77</ele>
        <time>2015-03-07T09:22:53Z</time>
      </trkpt>
      <trkpt lat="45.34118" lon="5.87715">
        <ele>1835.77</ele>
        <time>2015-03-07T09:22:55Z</time>
      </trkpt>
      <trkpt lat="45.34124" lon="5.87714">
        <ele>1837.22</ele>
        <time>2015-03-07T09:23:10Z</time>
      </trkpt>
      <trkpt lat="45.34127" lon="5.87712">
        <ele>1838.18</ele>
        <time>2015-03-07T09:23:23Z</time>
      </trkpt>
      <trkpt lat="45.34131" lon="5.87712">
        <ele>1839.62</ele>
        <time>2015-03-07T09:23:35Z</time>
      </trkpt>
      <trkpt lat="45.34134" lon="5.87713">
        <ele>1841.54</ele>
        <time>2015-03-07T09:23:47Z</time>
      </trkpt>
      <trkpt lat="45.34137" lon="5.87712">
        <ele>1843.47</ele>
        <time>2015-03-07T09:24:00Z</time>
      </trkpt>
      <trkpt lat="45.3414" lon="5.87711">
        <ele>1844.43</ele>
        <time>2015-03-07T09:24:12Z</time>
      </trkpt>
      <trkpt lat="45.34145" lon="5.87709">
        <ele>1846.35</ele>
        <time>2015-03-07T09:24:22Z</time>
      </trkpt>
      <trkpt lat="45.34149" lon="5.87709">
        <ele>1847.79</ele>
        <time>2015-03-07T09:24:33Z</time>
      </trkpt>
      <trkpt lat="45.34154" lon="5.87709">
        <ele>1849.23</ele>
        <time>2015-03-07T09:24:45Z</time>
      </trkpt>
      <trkpt lat="45.34158" lon="5.87712">
        <ele>1851.16</ele>
        <time>2015-03-07T09:24:58Z</time>
      </trkpt>
      <trkpt lat="45.34163" lon="5.87709">
        <ele>1852.6</ele>
        <time>2015-03-07T09:25:11Z</time>
      </trkpt>
      <trkpt lat="45.34168" lon="5.87705">
        <ele>1854.52</ele>
        <time>2015-03-07T09:25:24Z</time>
      </trkpt>
      <trkpt lat="45.34171" lon="5.87703">
        <ele>1855.48</ele>
        <time>2015-03-07T09:25:34Z</time>
      </trkpt>
      <trkpt lat="45.34176" lon="5.87699">
        <ele>1856.92</ele>
        <time>2015-03-07T09:25:46Z</time>
      </trkpt>
      <trkpt lat="45.3418" lon="5.87692">
        <ele>1858.85</ele>
        <time>2015-03-07T09:25:58Z</time>
      </trkpt>
      <trkpt lat="45.34184" lon="5.87688">
        <ele>1859.81</ele>
        <time>2015-03-07T09:26:07Z</time>
      </trkpt>
      <trkpt lat="45.34187" lon="5.87684">
        <ele>1861.73</ele>
        <time>2015-03-07T09:26:17Z</time>
      </trkpt>
      <trkpt lat="45.34191" lon="5.8768">
        <ele>1863.17</ele>
        <time>2015-03-07T09:26:27Z</time>
      </trkpt>
      <trkpt lat="45.34192" lon="5.8768">
        <ele>1863.65</ele>
        <time>2015-03-07T09:26:30Z</time>
      </trkpt>
      <trkpt lat="45.34197" lon="5.87673">
        <ele>1865.09</ele>
        <time>2015-03-07T09:26:40Z</time>
      </trkpt>
      <trkpt lat="45.34199" lon="5.87672">
        <ele>1866.54</ele>
        <time>2015-03-07T09:26:49Z</time>
      </trkpt>
      <trkpt lat="45.34203" lon="5.87672">
        <ele>1867.5</ele>
        <time>2015-03-07T09:26:59Z</time>
      </trkpt>
      <trkpt lat="45.34209" lon="5.87672">
        <ele>1869.42</ele>
        <time>2015-03-07T09:27:14Z</time>
      </trkpt>
      <trkpt lat="45.34216" lon="5.8767">
        <ele>1870.86</ele>
        <time>2015-03-07T09:27:28Z</time>
      </trkpt>
      <trkpt lat="45.34224" lon="5.87668">
        <ele>1873.27</ele>
        <time>2015-03-07T09:27:45Z</time>
      </trkpt>
      <trkpt lat="45.34231" lon="5.87665">
        <ele>1875.67</ele>
        <time>2015-03-07T09:28:00Z</time>
      </trkpt>
      <trkpt lat="45.34236" lon="5.87667">
        <ele>1877.59</ele>
        <time>2015-03-07T09:28:12Z</time>
      </trkpt>
      <trkpt lat="45.34237" lon="5.87676">
        <ele>1880</ele>
        <time>2015-03-07T09:28:27Z</time>
      </trkpt>
      <trkpt lat="45.34238" lon="5.87674">
        <ele>1880.96</ele>
        <time>2015-03-07T09:28:49Z</time>
      </trkpt>
      <trkpt lat="45.34244" lon="5.87673">
        <ele>1882.88</ele>
        <time>2015-03-07T09:29:03Z</time>
      </trkpt>
      <trkpt lat="45.34248" lon="5.87675">
        <ele>1884.32</ele>
        <time>2015-03-07T09:29:14Z</time>
      </trkpt>
      <trkpt lat="45.34247" lon="5.87682">
        <ele>1885.76</ele>
        <time>2015-03-07T09:29:25Z</time>
      </trkpt>
      <trkpt lat="45.34245" lon="5.87688">
        <ele>1887.69</ele>
        <time>2015-03-07T09:29:38Z</time>
      </trkpt>
      <trkpt lat="45.34243" lon="5.87696">
        <ele>1889.61</ele>
        <time>2015-03-07T09:29:52Z</time>
      </trkpt>
      <trkpt lat="45.34241" lon="5.87704">
        <ele>1891.53</ele>
        <time>2015-03-07T09:30:04Z</time>
      </trkpt>
      <trkpt lat="45.34239" lon="5.87712">
        <ele>1892.97</ele>
        <time>2015-03-07T09:30:20Z</time>
      </trkpt>
      <trkpt lat="45.34238" lon="5.87718">
        <ele>1894.42</ele>
        <time>2015-03-07T09:30:34Z</time>
      </trkpt>
      <trkpt lat="45.34239" lon="5.87722">
        <ele>1896.34</ele>
        <time>2015-03-07T09:30:51Z</time>
      </trkpt>
      <trkpt lat="45.34241" lon="5.87725">
        <ele>1897.78</ele>
        <time>2015-03-07T09:31:05Z</time>
      </trkpt>
      <trkpt lat="45.34242" lon="5.87723">
        <ele>1898.26</ele>
        <time>2015-03-07T09:31:17Z</time>
      </trkpt>
      <trkpt lat="45.34243" lon="5.87723">
        <ele>1897.78</ele>
        <time>2015-03-07T09:31:40Z</time>
      </trkpt>
      <trkpt lat="45.34243" lon="5.87723">
        <ele>1899.22</ele>
        <time>2015-03-07T09:33:09Z</time>
      </trkpt>
      <trkpt lat="45.34241" lon="5.87721">
        <ele>1898.74</ele>
        <time>2015-03-07T09:33:34Z</time>
      </trkpt>
      <trkpt lat="45.3424" lon="5.8772">
        <ele>1898.26</ele>
        <time>2015-03-07T09:33:54Z</time>
      </trkpt>
      <trkpt lat="45.34239" lon="5.8772">
        <ele>1898.26</ele>
        <time>2015-03-07T09:34:25Z</time>
      </trkpt>
      <trkpt lat="45.34239" lon="5.8772">
        <ele>1898.26</ele>
        <time>2015-03-07T09:34:47Z</time>
      </trkpt>
      <trkpt lat="45.3424" lon="5.87721">
        <ele>1898.26</ele>
        <time>2015-03-07T09:35:03Z</time>
      </trkpt>
      <trkpt lat="45.34238" lon="5.87719">
        <ele>1898.26</ele>
        <time>2015-03-07T09:35:26Z</time>
      </trkpt>
      <trkpt lat="45.3424" lon="5.87717">
        <ele>1898.74</ele>
        <time>2015-03-07T09:35:56Z</time>
      </trkpt>
      <trkpt lat="45.34239" lon="5.87718">
        <ele>1898.74</ele>
        <time>2015-03-07T09:36:13Z</time>
      </trkpt>
      <trkpt lat="45.34239" lon="5.87718">
        <ele>1898.74</ele>
        <time>2015-03-07T09:36:36Z</time>
      </trkpt>
      <trkpt lat="45.3424" lon="5.87719">
        <ele>1898.26</ele>
        <time>2015-03-07T09:36:58Z</time>
      </trkpt>
      <trkpt lat="45.34242" lon="5.87719">
        <ele>1899.22</ele>
        <time>2015-03-07T09:37:47Z</time>
      </trkpt>
      <trkpt lat="45.34242" lon="5.87718">
        <ele>1899.22</ele>
        <time>2015-03-07T09:38:10Z</time>
      </trkpt>
      <trkpt lat="45.34242" lon="5.87718">
        <ele>1898.74</ele>
        <time>2015-03-07T09:38:30Z</time>
      </trkpt>
      <trkpt lat="45.34239" lon="5.87728">
        <ele>1899.22</ele>
        <time>2015-03-07T09:38:50Z</time>
      </trkpt>
      <trkpt lat="45.34237" lon="5.87729">
        <ele>1898.26</ele>
        <time>2015-03-07T09:39:35Z</time>
      </trkpt>
      <trkpt lat="45.34238" lon="5.8773">
        <ele>1898.74</ele>
        <time>2015-03-07T09:40:07Z</time>
      </trkpt>
      <trkpt lat="45.34239" lon="5.87731">
        <ele>1896.82</ele>
        <time>2015-03-07T09:40:16Z</time>
      </trkpt>
      <trkpt lat="45.3423" lon="5.87753">
        <ele>1893.93</ele>
        <time>2015-03-07T09:40:22Z</time>
      </trkpt>
      <trkpt lat="45.34233" lon="5.87756">
        <ele>1892.49</ele>
        <time>2015-03-07T09:40:24Z</time>
      </trkpt>
      <trkpt lat="45.34236" lon="5.87762">
        <ele>1888.17</ele>
        <time>2015-03-07T09:40:26Z</time>
      </trkpt>
      <trkpt lat="45.34247" lon="5.87757">
        <ele>1881.44</ele>
        <time>2015-03-07T09:40:29Z</time>
      </trkpt>
      <trkpt lat="45.34247" lon="5.87762">
        <ele>1879.51</ele>
        <time>2015-03-07T09:40:30Z</time>
      </trkpt>
      <trkpt lat="45.3425" lon="5.87768">
        <ele>1875.67</ele>
        <time>2015-03-07T09:40:32Z</time>
      </trkpt>
      <trkpt lat="45.34259" lon="5.87759">
        <ele>1873.27</ele>
        <time>2015-03-07T09:40:34Z</time>
      </trkpt>
      <trkpt lat="45.34267" lon="5.87747">
        <ele>1869.42</ele>
        <time>2015-03-07T09:40:36Z</time>
      </trkpt>
      <trkpt lat="45.34276" lon="5.87736">
        <ele>1867.02</ele>
        <time>2015-03-07T09:40:38Z</time>
      </trkpt>
      <trkpt lat="45.343" lon="5.87712">
        <ele>1862.69</ele>
        <time>2015-03-07T09:40:43Z</time>
      </trkpt>
      <trkpt lat="45.34307" lon="5.87707">
        <ele>1862.69</ele>
        <time>2015-03-07T09:40:44Z</time>
      </trkpt>
      <trkpt lat="45.34329" lon="5.8769">
        <ele>1858.85</ele>
        <time>2015-03-07T09:40:47Z</time>
      </trkpt>
      <trkpt lat="45.34343" lon="5.87679">
        <ele>1855</ele>
        <time>2015-03-07T09:40:49Z</time>
      </trkpt>
      <trkpt lat="45.34355" lon="5.87668">
        <ele>1852.12</ele>
        <time>2015-03-07T09:40:51Z</time>
      </trkpt>
      <trkpt lat="45.34366" lon="5.87661">
        <ele>1850.19</ele>
        <time>2015-03-07T09:40:53Z</time>
      </trkpt>
      <trkpt lat="45.34384" lon="5.87647">
        <ele>1847.31</ele>
        <time>2015-03-07T09:40:58Z</time>
      </trkpt>
      <trkpt lat="45.34388" lon="5.87646">
        <ele>1846.35</ele>
        <time>2015-03-07T09:40:59Z</time>
      </trkpt>
      <trkpt lat="45.34401" lon="5.87647">
        <ele>1844.43</ele>
        <time>2015-03-07T09:41:02Z</time>
      </trkpt>
      <trkpt lat="45.34403" lon="5.87651">
        <ele>1842.98</ele>
        <time>2015-03-07T09:41:03Z</time>
      </trkpt>
      <trkpt lat="45.34407" lon="5.87658">
        <ele>1839.62</ele>
        <time>2015-03-07T09:41:05Z</time>
      </trkpt>
      <trkpt lat="45.34432" lon="5.87658">
        <ele>1833.37</ele>
        <time>2015-03-07T09:41:09Z</time>
      </trkpt>
      <trkpt lat="45.34442" lon="5.87661">
        <ele>1831.45</ele>
        <time>2015-03-07T09:41:11Z</time>
      </trkpt>
      <trkpt lat="45.34451" lon="5.87673">
        <ele>1827.12</ele>
        <time>2015-03-07T09:41:13Z</time>
      </trkpt>
      <trkpt lat="45.34478" lon="5.87678">
        <ele>1818.95</ele>
        <time>2015-03-07T09:41:17Z</time>
      </trkpt>
      <trkpt lat="45.34496" lon="5.87684">
        <ele>1816.55</ele>
        <time>2015-03-07T09:41:20Z</time>
      </trkpt>
      <trkpt lat="45.34526" lon="5.87694">
        <ele>1811.26</ele>
        <time>2015-03-07T09:41:24Z</time>
      </trkpt>
      <trkpt lat="45.34548" lon="5.87702">
        <ele>1807.42</ele>
        <time>2015-03-07T09:41:27Z</time>
      </trkpt>
      <trkpt lat="45.34557" lon="5.87705">
        <ele>1805.97</ele>
        <time>2015-03-07T09:41:28Z</time>
      </trkpt>
      <trkpt lat="45.3458" lon="5.87724">
        <ele>1803.09</ele>
        <time>2015-03-07T09:41:32Z</time>
      </trkpt>
      <trkpt lat="45.34593" lon="5.87739">
        <ele>1799.73</ele>
        <time>2015-03-07T09:41:35Z</time>
      </trkpt>
      <trkpt lat="45.34604" lon="5.87751">
        <ele>1798.28</ele>
        <time>2015-03-07T09:41:38Z</time>
      </trkpt>
      <trkpt lat="45.34622" lon="5.87767">
        <ele>1796.84</ele>
        <time>2015-03-07T09:41:42Z</time>
      </trkpt>
      <trkpt lat="45.3465" lon="5.8778">
        <ele>1792.52</ele>
        <time>2015-03-07T09:41:47Z</time>
      </trkpt>
      <trkpt lat="45.34654" lon="5.87781">
        <ele>1792.52</ele>
        <time>2015-03-07T09:41:48Z</time>
      </trkpt>
      <trkpt lat="45.34684" lon="5.87789">
        <ele>1789.15</ele>
        <time>2015-03-07T09:41:54Z</time>
      </trkpt>
      <trkpt lat="45.34689" lon="5.87792">
        <ele>1788.19</ele>
        <time>2015-03-07T09:41:55Z</time>
      </trkpt>
      <trkpt lat="45.34702" lon="5.87796">
        <ele>1786.75</ele>
        <time>2015-03-07T09:41:58Z</time>
      </trkpt>
      <trkpt lat="45.34731" lon="5.87809">
        <ele>1783.86</ele>
        <time>2015-03-07T09:42:04Z</time>
      </trkpt>
      <trkpt lat="45.34742" lon="5.87815">
        <ele>1782.42</ele>
        <time>2015-03-07T09:42:07Z</time>
      </trkpt>
      <trkpt lat="45.3476" lon="5.87816">
        <ele>1780.98</ele>
        <time>2015-03-07T09:42:11Z</time>
      </trkpt>
      <trkpt lat="45.34784" lon="5.87816">
        <ele>1778.58</ele>
        <time>2015-03-07T09:42:17Z</time>
      </trkpt>
      <trkpt lat="45.34806" lon="5.87824">
        <ele>1776.65</ele>
        <time>2015-03-07T09:42:22Z</time>
      </trkpt>
      <trkpt lat="45.34834" lon="5.87853">
        <ele>1772.81</ele>
        <time>2015-03-07T09:42:31Z</time>
      </trkpt>
      <trkpt lat="45.34837" lon="5.87859">
        <ele>1769.92</ele>
        <time>2015-03-07T09:42:37Z</time>
      </trkpt>
      <trkpt lat="45.34837" lon="5.87859">
        <ele>1768.96</ele>
        <time>2015-03-07T09:42:59Z</time>
      </trkpt>
      <trkpt lat="45.34843" lon="5.87862">
        <ele>1769.44</ele>
        <time>2015-03-07T09:43:13Z</time>
      </trkpt>
      <trkpt lat="45.34855" lon="5.87865">
        <ele>1768.96</ele>
        <time>2015-03-07T09:43:15Z</time>
      </trkpt>
      <trkpt lat="45.34881" lon="5.87867">
        <ele>1764.16</ele>
        <time>2015-03-07T09:43:19Z</time>
      </trkpt>
      <trkpt lat="45.34888" lon="5.87867">
        <ele>1762.71</ele>
        <time>2015-03-07T09:43:20Z</time>
      </trkpt>
      <trkpt lat="45.34912" lon="5.87873">
        <ele>1759.83</ele>
        <time>2015-03-07T09:43:24Z</time>
      </trkpt>
      <trkpt lat="45.34922" lon="5.87877">
        <ele>1759.35</ele>
        <time>2015-03-07T09:43:26Z</time>
      </trkpt>
      <trkpt lat="45.34938" lon="5.87899">
        <ele>1754.54</ele>
        <time>2015-03-07T09:43:30Z</time>
      </trkpt>
      <trkpt lat="45.34944" lon="5.87903">
        <ele>1753.58</ele>
        <time>2015-03-07T09:43:31Z</time>
      </trkpt>
      <trkpt lat="45.34959" lon="5.87905">
        <ele>1751.66</ele>
        <time>2015-03-07T09:43:34Z</time>
      </trkpt>
      <trkpt lat="45.3497" lon="5.87908">
        <ele>1750.7</ele>
        <time>2015-03-07T09:43:37Z</time>
      </trkpt>
      <trkpt lat="45.35009" lon="5.87918">
        <ele>1747.33</ele>
        <time>2015-03-07T09:43:49Z</time>
      </trkpt>
      <trkpt lat="45.35037" lon="5.87931">
        <ele>1745.41</ele>
        <time>2015-03-07T09:43:59Z</time>
      </trkpt>
      <trkpt lat="45.35071" lon="5.87952">
        <ele>1742.05</ele>
        <time>2015-03-07T09:44:05Z</time>
      </trkpt>
      <trkpt lat="45.35092" lon="5.8797">
        <ele>1738.68</ele>
        <time>2015-03-07T09:44:08Z</time>
      </trkpt>
      <trkpt lat="45.35113" lon="5.87993">
        <ele>1737.24</ele>
        <time>2015-03-07T09:44:16Z</time>
      </trkpt>
      <trkpt lat="45.35128" lon="5.87997">
        <ele>1735.8</ele>
        <time>2015-03-07T09:44:20Z</time>
      </trkpt>
      <trkpt lat="45.35171" lon="5.88005">
        <ele>1732.43</ele>
        <time>2015-03-07T09:44:30Z</time>
      </trkpt>
      <trkpt lat="45.35183" lon="5.88006">
        <ele>1730.99</ele>
        <time>2015-03-07T09:44:34Z</time>
      </trkpt>
      <trkpt lat="45.3519" lon="5.88005">
        <ele>1730.03</ele>
        <time>2015-03-07T09:44:36Z</time>
      </trkpt>
      <trkpt lat="45.35225" lon="5.88005">
        <ele>1728.11</ele>
        <time>2015-03-07T09:44:46Z</time>
      </trkpt>
      <trkpt lat="45.35249" lon="5.87999">
        <ele>1726.67</ele>
        <time>2015-03-07T09:44:52Z</time>
      </trkpt>
      <trkpt lat="45.35274" lon="5.87996">
        <ele>1722.34</ele>
        <time>2015-03-07T09:44:58Z</time>
      </trkpt>
      <trkpt lat="45.35293" lon="5.88002">
        <ele>1721.38</ele>
        <time>2015-03-07T09:45:05Z</time>
      </trkpt>
      <trkpt lat="45.35309" lon="5.88004">
        <ele>1720.9</ele>
        <time>2015-03-07T09:45:10Z</time>
      </trkpt>
      <trkpt lat="45.35321" lon="5.88016">
        <ele>1719.46</ele>
        <time>2015-03-07T09:45:14Z</time>
      </trkpt>
      <trkpt lat="45.35341" lon="5.88046">
        <ele>1717.53</ele>
        <time>2015-03-07T09:45:25Z</time>
      </trkpt>
      <trkpt lat="45.35358" lon="5.88057">
        <ele>1716.57</ele>
        <time>2015-03-07T09:45:32Z</time>
      </trkpt>
      <trkpt lat="45.35386" lon="5.88067">
        <ele>1715.13</ele>
        <time>2015-03-07T09:45:42Z</time>
      </trkpt>
      <trkpt lat="45.354" lon="5.88075">
        <ele>1714.17</ele>
        <time>2015-03-07T09:45:45Z</time>
      </trkpt>
      <trkpt lat="45.35426" lon="5.88113">
        <ele>1711.28</ele>
        <time>2015-03-07T09:45:52Z</time>
      </trkpt>
      <trkpt lat="45.35432" lon="5.88147">
        <ele>1707.92</ele>
        <time>2015-03-07T09:45:57Z</time>
      </trkpt>
      <trkpt lat="45.35435" lon="5.88162">
        <ele>1706.96</ele>
        <time>2015-03-07T09:46:08Z</time>
      </trkpt>
      <trkpt lat="45.35443" lon="5.88179">
        <ele>1706.96</ele>
        <time>2015-03-07T09:46:16Z</time>
      </trkpt>
      <trkpt lat="45.35457" lon="5.88186">
        <ele>1706</ele>
        <time>2015-03-07T09:46:24Z</time>
      </trkpt>
      <trkpt lat="45.35484" lon="5.88196">
        <ele>1705.04</ele>
        <time>2015-03-07T09:46:36Z</time>
      </trkpt>
      <trkpt lat="45.35516" lon="5.88202">
        <ele>1704.07</ele>
        <time>2015-03-07T09:46:49Z</time>
      </trkpt>
      <trkpt lat="45.35551" lon="5.88203">
        <ele>1702.15</ele>
        <time>2015-03-07T09:47:00Z</time>
      </trkpt>
      <trkpt lat="45.35577" lon="5.88193">
        <ele>1700.23</ele>
        <time>2015-03-07T09:47:09Z</time>
      </trkpt>
      <trkpt lat="45.35611" lon="5.88189">
        <ele>1697.34</ele>
        <time>2015-03-07T09:47:18Z</time>
      </trkpt>
      <trkpt lat="45.35641" lon="5.8819">
        <ele>1695.42</ele>
        <time>2015-03-07T09:47:28Z</time>
      </trkpt>
      <trkpt lat="45.3566" lon="5.88198">
        <ele>1694.46</ele>
        <time>2015-03-07T09:47:37Z</time>
      </trkpt>
      <trkpt lat="45.35664" lon="5.882">
        <ele>1694.46</ele>
        <time>2015-03-07T09:47:38Z</time>
      </trkpt>
      <trkpt lat="45.35672" lon="5.88202">
        <ele>1693.5</ele>
        <time>2015-03-07T09:47:40Z</time>
      </trkpt>
      <trkpt lat="45.35698" lon="5.88205">
        <ele>1691.58</ele>
        <time>2015-03-07T09:47:49Z</time>
      </trkpt>
      <trkpt lat="45.35706" lon="5.88207">
        <ele>1691.1</ele>
        <time>2015-03-07T09:47:51Z</time>
      </trkpt>
      <trkpt lat="45.35751" lon="5.88228">
        <ele>1687.73</ele>
        <time>2015-03-07T09:48:03Z</time>
      </trkpt>
      <trkpt lat="45.35763" lon="5.88232">
        <ele>1686.77</ele>
        <time>2015-03-07T09:48:08Z</time>
      </trkpt>
      <trkpt lat="45.35772" lon="5.88236">
        <ele>1686.77</ele>
        <time>2015-03-07T09:48:16Z</time>
      </trkpt>
      <trkpt lat="45.35786" lon="5.88242">
        <ele>1686.29</ele>
        <time>2015-03-07T09:48:25Z</time>
      </trkpt>
      <trkpt lat="45.35828" lon="5.88253">
        <ele>1682.93</ele>
        <time>2015-03-07T09:48:38Z</time>
      </trkpt>
      <trkpt lat="45.35864" lon="5.88269">
        <ele>1680.04</ele>
        <time>2015-03-07T09:48:49Z</time>
      </trkpt>
      <trkpt lat="45.35918" lon="5.88271">
        <ele>1676.68</ele>
        <time>2015-03-07T09:49:04Z</time>
      </trkpt>
      <trkpt lat="45.35923" lon="5.8829">
        <ele>1672.83</ele>
        <time>2015-03-07T09:49:08Z</time>
      </trkpt>
      <trkpt lat="45.35925" lon="5.88305">
        <ele>1670.91</ele>
        <time>2015-03-07T09:49:10Z</time>
      </trkpt>
      <trkpt lat="45.35929" lon="5.88312">
        <ele>1668.99</ele>
        <time>2015-03-07T09:49:11Z</time>
      </trkpt>
      <trkpt lat="45.35964" lon="5.88336">
        <ele>1661.78</ele>
        <time>2015-03-07T09:49:14Z</time>
      </trkpt>
      <trkpt lat="45.35976" lon="5.88344">
        <ele>1658.41</ele>
        <time>2015-03-07T09:49:15Z</time>
      </trkpt>
      <trkpt lat="45.35989" lon="5.88351">
        <ele>1655.05</ele>
        <time>2015-03-07T09:49:16Z</time>
      </trkpt>
      <trkpt lat="45.36002" lon="5.88357">
        <ele>1652.16</ele>
        <time>2015-03-07T09:49:17Z</time>
      </trkpt>
      <trkpt lat="45.36029" lon="5.88366">
        <ele>1649.28</ele>
        <time>2015-03-07T09:49:19Z</time>
      </trkpt>
      <trkpt lat="45.3604" lon="5.88371">
        <ele>1645.43</ele>
        <time>2015-03-07T09:49:20Z</time>
      </trkpt>
      <trkpt lat="45.36069" lon="5.88392">
        <ele>1636.78</ele>
        <time>2015-03-07T09:49:23Z</time>
      </trkpt>
      <trkpt lat="45.36081" lon="5.88404">
        <ele>1633.9</ele>
        <time>2015-03-07T09:49:25Z</time>
      </trkpt>
      <trkpt lat="45.36089" lon="5.88412">
        <ele>1633.42</ele>
        <time>2015-03-07T09:49:27Z</time>
      </trkpt>
      <trkpt lat="45.36118" lon="5.88445">
        <ele>1630.05</ele>
        <time>2015-03-07T09:49:39Z</time>
      </trkpt>
      <trkpt lat="45.36145" lon="5.88467">
        <ele>1628.61</ele>
        <time>2015-03-07T09:49:50Z</time>
      </trkpt>
      <trkpt lat="45.36161" lon="5.88477">
        <ele>1627.65</ele>
        <time>2015-03-07T09:49:58Z</time>
      </trkpt>
      <trkpt lat="45.36194" lon="5.88488">
        <ele>1625.25</ele>
        <time>2015-03-07T09:50:09Z</time>
      </trkpt>
      <trkpt lat="45.36217" lon="5.88488">
        <ele>1623.32</ele>
        <time>2015-03-07T09:50:15Z</time>
      </trkpt>
      <trkpt lat="45.36263" lon="5.88502">
        <ele>1619.48</ele>
        <time>2015-03-07T09:50:24Z</time>
      </trkpt>
      <trkpt lat="45.36307" lon="5.8852">
        <ele>1616.59</ele>
        <time>2015-03-07T09:50:32Z</time>
      </trkpt>
      <trkpt lat="45.36326" lon="5.88525">
        <ele>1615.15</ele>
        <time>2015-03-07T09:50:35Z</time>
      </trkpt>
      <trkpt lat="45.36369" lon="5.88544">
        <ele>1611.79</ele>
        <time>2015-03-07T09:50:42Z</time>
      </trkpt>
      <trkpt lat="45.36425" lon="5.88563">
        <ele>1608.9</ele>
        <time>2015-03-07T09:50:53Z</time>
      </trkpt>
      <trkpt lat="45.36463" lon="5.8857">
        <ele>1606.98</ele>
        <time>2015-03-07T09:51:03Z</time>
      </trkpt>
      <trkpt lat="45.36476" lon="5.88571">
        <ele>1606.5</ele>
        <time>2015-03-07T09:51:06Z</time>
      </trkpt>
      <trkpt lat="45.36484" lon="5.88568">
        <ele>1606.02</ele>
        <time>2015-03-07T09:51:14Z</time>
      </trkpt>
      <trkpt lat="45.36493" lon="5.88569">
        <ele>1606.98</ele>
        <time>2015-03-07T09:51:29Z</time>
      </trkpt>
      <trkpt lat="45.36494" lon="5.88569">
        <ele>1606.98</ele>
        <time>2015-03-07T09:51:30Z</time>
      </trkpt>
      <trkpt lat="45.36504" lon="5.88573">
        <ele>1606.98</ele>
        <time>2015-03-07T09:51:40Z</time>
      </trkpt>
      <trkpt lat="45.3651" lon="5.88577">
        <ele>1606.98</ele>
        <time>2015-03-07T09:51:53Z</time>
      </trkpt>
      <trkpt lat="45.36518" lon="5.88583">
        <ele>1607.46</ele>
        <time>2015-03-07T09:51:59Z</time>
      </trkpt>
      <trkpt lat="45.36528" lon="5.88592">
        <ele>1607.94</ele>
        <time>2015-03-07T09:52:09Z</time>
      </trkpt>
      <trkpt lat="45.36545" lon="5.88607">
        <ele>1607.94</ele>
        <time>2015-03-07T09:52:21Z</time>
      </trkpt>
      <trkpt lat="45.3656" lon="5.88621">
        <ele>1606.98</ele>
        <time>2015-03-07T09:52:30Z</time>
      </trkpt>
      <trkpt lat="45.36578" lon="5.88634">
        <ele>1606.02</ele>
        <time>2015-03-07T09:52:41Z</time>
      </trkpt>
      <trkpt lat="45.36589" lon="5.88644">
        <ele>1606.02</ele>
        <time>2015-03-07T09:52:50Z</time>
      </trkpt>
      <trkpt lat="45.3659" lon="5.88644">
        <ele>1606.5</ele>
        <time>2015-03-07T09:52:51Z</time>
      </trkpt>
      <trkpt lat="45.36594" lon="5.88647">
        <ele>1606.5</ele>
        <time>2015-03-07T09:52:59Z</time>
      </trkpt>
      <trkpt lat="45.3661" lon="5.88659">
        <ele>1606.02</ele>
        <time>2015-03-07T09:53:10Z</time>
      </trkpt>
      <trkpt lat="45.36625" lon="5.88671">
        <ele>1606.5</ele>
        <time>2015-03-07T09:53:19Z</time>
      </trkpt>
      <trkpt lat="45.36634" lon="5.8868">
        <ele>1606.02</ele>
        <time>2015-03-07T09:53:26Z</time>
      </trkpt>
      <trkpt lat="45.36639" lon="5.88685">
        <ele>1606.02</ele>
        <time>2015-03-07T09:53:31Z</time>
      </trkpt>
      <trkpt lat="45.36664" lon="5.88706">
        <ele>1604.58</ele>
        <time>2015-03-07T09:53:42Z</time>
      </trkpt>
      <trkpt lat="45.36682" lon="5.88716">
        <ele>1604.1</ele>
        <time>2015-03-07T09:53:51Z</time>
      </trkpt>
      <trkpt lat="45.36699" lon="5.88726">
        <ele>1603.62</ele>
        <time>2015-03-07T09:53:59Z</time>
      </trkpt>
      <trkpt lat="45.36726" lon="5.88742">
        <ele>1602.66</ele>
        <time>2015-03-07T09:54:08Z</time>
      </trkpt>
      <trkpt lat="45.36733" lon="5.88748">
        <ele>1602.17</ele>
        <time>2015-03-07T09:54:12Z</time>
      </trkpt>
      <trkpt lat="45.36745" lon="5.88756">
        <ele>1601.69</ele>
        <time>2015-03-07T09:54:20Z</time>
      </trkpt>
      <trkpt lat="45.36755" lon="5.88765">
        <ele>1601.69</ele>
        <time>2015-03-07T09:54:32Z</time>
      </trkpt>
      <trkpt lat="45.36757" lon="5.88767">
        <ele>1601.69</ele>
        <time>2015-03-07T09:54:36Z</time>
      </trkpt>
      <trkpt lat="45.3677" lon="5.88773">
        <ele>1602.17</ele>
        <time>2015-03-07T09:54:46Z</time>
      </trkpt>
      <trkpt lat="45.36778" lon="5.8879">
        <ele>1601.69</ele>
        <time>2015-03-07T09:54:55Z</time>
      </trkpt>
      <trkpt lat="45.36786" lon="5.88795">
        <ele>1602.17</ele>
        <time>2015-03-07T09:55:06Z</time>
      </trkpt>
      <trkpt lat="45.36801" lon="5.88806">
        <ele>1601.69</ele>
        <time>2015-03-07T09:55:15Z</time>
      </trkpt>
      <trkpt lat="45.3682" lon="5.88817">
        <ele>1600.73</ele>
        <time>2015-03-07T09:55:26Z</time>
      </trkpt>
      <trkpt lat="45.36838" lon="5.88824">
        <ele>1600.73</ele>
        <time>2015-03-07T09:55:35Z</time>
      </trkpt>
      <trkpt lat="45.36856" lon="5.88834">
        <ele>1599.29</ele>
        <time>2015-03-07T09:55:45Z</time>
      </trkpt>
      <trkpt lat="45.36885" lon="5.88854">
        <ele>1597.85</ele>
        <time>2015-03-07T09:55:57Z</time>
      </trkpt>
      <trkpt lat="45.36909" lon="5.88879">
        <ele>1595.93</ele>
        <time>2015-03-07T09:56:08Z</time>
      </trkpt>
      <trkpt lat="45.36941" lon="5.88893">
        <ele>1594.96</ele>
        <time>2015-03-07T09:56:20Z</time>
      </trkpt>
      <trkpt lat="45.36945" lon="5.88892">
        <ele>1594.48</ele>
        <time>2015-03-07T09:56:21Z</time>
      </trkpt>
      <trkpt lat="45.36975" lon="5.88906">
        <ele>1591.6</ele>
        <time>2015-03-07T09:56:27Z</time>
      </trkpt>
      <trkpt lat="45.37011" lon="5.88921">
        <ele>1587.27</ele>
        <time>2015-03-07T09:56:32Z</time>
      </trkpt>
      <trkpt lat="45.37034" lon="5.88945">
        <ele>1583.91</ele>
        <time>2015-03-07T09:56:36Z</time>
      </trkpt>
      <trkpt lat="45.37039" lon="5.88951">
        <ele>1583.91</ele>
        <time>2015-03-07T09:56:37Z</time>
      </trkpt>
      <trkpt lat="45.37061" lon="5.88982">
        <ele>1581.03</ele>
        <time>2015-03-07T09:56:44Z</time>
      </trkpt>
      <trkpt lat="45.37069" lon="5.88992">
        <ele>1580.54</ele>
        <time>2015-03-07T09:56:50Z</time>
      </trkpt>
      <trkpt lat="45.37102" lon="5.89022">
        <ele>1577.66</ele>
        <time>2015-03-07T09:56:59Z</time>
      </trkpt>
      <trkpt lat="45.37108" lon="5.89031">
        <ele>1576.7</ele>
        <time>2015-03-07T09:57:06Z</time>
      </trkpt>
      <trkpt lat="45.3713" lon="5.89043">
        <ele>1578.14</ele>
        <time>2015-03-07T09:57:29Z</time>
      </trkpt>
      <trkpt lat="45.37149" lon="5.89054">
        <ele>1576.7</ele>
        <time>2015-03-07T09:57:36Z</time>
      </trkpt>
      <trkpt lat="45.37186" lon="5.89082">
        <ele>1573.33</ele>
        <time>2015-03-07T09:57:45Z</time>
      </trkpt>
      <trkpt lat="45.37229" lon="5.89101">
        <ele>1569.97</ele>
        <time>2015-03-07T09:57:54Z</time>
      </trkpt>
      <trkpt lat="45.3724" lon="5.89104">
        <ele>1569.01</ele>
        <time>2015-03-07T09:57:56Z</time>
      </trkpt>
      <trkpt lat="45.37265" lon="5.89118">
        <ele>1566.61</ele>
        <time>2015-03-07T09:58:00Z</time>
      </trkpt>
      <trkpt lat="45.37267" lon="5.89119">
        <ele>1563.72</ele>
        <time>2015-03-07T09:58:05Z</time>
      </trkpt>
      <trkpt lat="45.37267" lon="5.89123">
        <ele>1563.24</ele>
        <time>2015-03-07T09:58:14Z</time>
      </trkpt>
      <trkpt lat="45.3726" lon="5.89136">
        <ele>1562.28</ele>
        <time>2015-03-07T09:58:18Z</time>
      </trkpt>
      <trkpt lat="45.37257" lon="5.89145">
        <ele>1561.32</ele>
        <time>2015-03-07T09:58:20Z</time>
      </trkpt>
      <trkpt lat="45.37264" lon="5.8916">
        <ele>1557.95</ele>
        <time>2015-03-07T09:58:23Z</time>
      </trkpt>
      <trkpt lat="45.37275" lon="5.89174">
        <ele>1555.07</ele>
        <time>2015-03-07T09:58:28Z</time>
      </trkpt>
      <trkpt lat="45.37293" lon="5.89184">
        <ele>1552.19</ele>
        <time>2015-03-07T09:58:38Z</time>
      </trkpt>
      <trkpt lat="45.37306" lon="5.8919">
        <ele>1550.26</ele>
        <time>2015-03-07T09:58:47Z</time>
      </trkpt>
      <trkpt lat="45.37327" lon="5.89198">
        <ele>1549.3</ele>
        <time>2015-03-07T09:59:03Z</time>
      </trkpt>
      <trkpt lat="45.37331" lon="5.89202">
        <ele>1549.3</ele>
        <time>2015-03-07T09:59:09Z</time>
      </trkpt>
      <trkpt lat="45.37339" lon="5.8921">
        <ele>1549.78</ele>
        <time>2015-03-07T09:59:26Z</time>
      </trkpt>
      <trkpt lat="45.3734" lon="5.89232">
        <ele>1546.42</ele>
        <time>2015-03-07T09:59:36Z</time>
      </trkpt>
      <trkpt lat="45.37345" lon="5.89225">
        <ele>1544.5</ele>
        <time>2015-03-07T09:59:38Z</time>
      </trkpt>
      <trkpt lat="45.37363" lon="5.89219">
        <ele>1541.61</ele>
        <time>2015-03-07T09:59:42Z</time>
      </trkpt>
      <trkpt lat="45.37371" lon="5.89214">
        <ele>1539.69</ele>
        <time>2015-03-07T09:59:44Z</time>
      </trkpt>
      <trkpt lat="45.3738" lon="5.89201">
        <ele>1536.8</ele>
        <time>2015-03-07T09:59:48Z</time>
      </trkpt>
      <trkpt lat="45.37406" lon="5.89205">
        <ele>1534.4</ele>
        <time>2015-03-07T10:00:00Z</time>
      </trkpt>
      <trkpt lat="45.37427" lon="5.89212">
        <ele>1532.96</ele>
        <time>2015-03-07T10:00:12Z</time>
      </trkpt>
      <trkpt lat="45.37454" lon="5.89228">
        <ele>1531.52</ele>
        <time>2015-03-07T10:00:24Z</time>
      </trkpt>
      <trkpt lat="45.37455" lon="5.8923">
        <ele>1532.48</ele>
        <time>2015-03-07T10:01:20Z</time>
      </trkpt>
      <trkpt lat="45.37455" lon="5.8923">
        <ele>1534.4</ele>
        <time>2015-03-07T10:03:28Z</time>
      </trkpt>
      <trkpt lat="45.37457" lon="5.89214">
        <ele>1533.44</ele>
        <time>2015-03-07T10:03:34Z</time>
      </trkpt>
      <trkpt lat="45.37473" lon="5.89208">
        <ele>1532.96</ele>
        <time>2015-03-07T10:03:46Z</time>
      </trkpt>
      <trkpt lat="45.3749" lon="5.89212">
        <ele>1532.48</ele>
        <time>2015-03-07T10:03:56Z</time>
      </trkpt>
      <trkpt lat="45.37517" lon="5.89223">
        <ele>1531.52</ele>
        <time>2015-03-07T10:04:08Z</time>
      </trkpt>
      <trkpt lat="45.37531" lon="5.89233">
        <ele>1531.04</ele>
        <time>2015-03-07T10:04:16Z</time>
      </trkpt>
      <trkpt lat="45.37544" lon="5.89246">
        <ele>1530.56</ele>
        <time>2015-03-07T10:04:25Z</time>
      </trkpt>
      <trkpt lat="45.37558" lon="5.89262">
        <ele>1530.08</ele>
        <time>2015-03-07T10:04:34Z</time>
      </trkpt>
      <trkpt lat="45.37579" lon="5.89278">
        <ele>1529.59</ele>
        <time>2015-03-07T10:04:48Z</time>
      </trkpt>
      <trkpt lat="45.37587" lon="5.89294">
        <ele>1529.11</ele>
        <time>2015-03-07T10:04:55Z</time>
      </trkpt>
      <trkpt lat="45.37592" lon="5.89301">
        <ele>1529.11</ele>
        <time>2015-03-07T10:05:06Z</time>
      </trkpt>
      <trkpt lat="45.37606" lon="5.89315">
        <ele>1528.63</ele>
        <time>2015-03-07T10:05:22Z</time>
      </trkpt>
      <trkpt lat="45.3761" lon="5.89322">
        <ele>1528.63</ele>
        <time>2015-03-07T10:05:28Z</time>
      </trkpt>
      <trkpt lat="45.37613" lon="5.89345">
        <ele>1527.67</ele>
        <time>2015-03-07T10:05:40Z</time>
      </trkpt>
      <trkpt lat="45.37615" lon="5.89358">
        <ele>1526.71</ele>
        <time>2015-03-07T10:06:11Z</time>
      </trkpt>
      <trkpt lat="45.37613" lon="5.89355">
        <ele>1527.19</ele>
        <time>2015-03-07T10:06:32Z</time>
      </trkpt>
      <trkpt lat="45.37613" lon="5.89348">
        <ele>1526.71</ele>
        <time>2015-03-07T10:08:43Z</time>
      </trkpt>
      <trkpt lat="45.37615" lon="5.89351">
        <ele>1527.19</ele>
        <time>2015-03-07T10:09:49Z</time>
      </trkpt>
      <trkpt lat="45.37624" lon="5.89358">
        <ele>1527.19</ele>
        <time>2015-03-07T10:10:05Z</time>
      </trkpt>
      <trkpt lat="45.37645" lon="5.89365">
        <ele>1527.19</ele>
        <time>2015-03-07T10:10:28Z</time>
      </trkpt>
      <trkpt lat="45.3766" lon="5.89374">
        <ele>1526.71</ele>
        <time>2015-03-07T10:10:42Z</time>
      </trkpt>
      <trkpt lat="45.37668" lon="5.89377">
        <ele>1526.23</ele>
        <time>2015-03-07T10:10:49Z</time>
      </trkpt>
      <trkpt lat="45.37675" lon="5.89378">
        <ele>1526.23</ele>
        <time>2015-03-07T10:10:57Z</time>
      </trkpt>
      <trkpt lat="45.37699" lon="5.89388">
        <ele>1524.79</ele>
        <time>2015-03-07T10:11:13Z</time>
      </trkpt>
      <trkpt lat="45.37702" lon="5.89388">
        <ele>1524.79</ele>
        <time>2015-03-07T10:11:15Z</time>
      </trkpt>
      <trkpt lat="45.37705" lon="5.89386">
        <ele>1523.35</ele>
        <time>2015-03-07T10:11:18Z</time>
      </trkpt>
      <trkpt lat="45.3771" lon="5.89375">
        <ele>1521.9</ele>
        <time>2015-03-07T10:11:32Z</time>
      </trkpt>
      <trkpt lat="45.37711" lon="5.89375">
        <ele>1521.9</ele>
        <time>2015-03-07T10:11:34Z</time>
      </trkpt>
      <trkpt lat="45.37716" lon="5.89376">
        <ele>1521.42</ele>
        <time>2015-03-07T10:11:37Z</time>
      </trkpt>
      <trkpt lat="45.37726" lon="5.89386">
        <ele>1519.5</ele>
        <time>2015-03-07T10:11:46Z</time>
      </trkpt>
      <trkpt lat="45.37734" lon="5.89396">
        <ele>1520.94</ele>
        <time>2015-03-07T10:11:58Z</time>
      </trkpt>
      <trkpt lat="45.37746" lon="5.89403">
        <ele>1521.42</ele>
        <time>2015-03-07T10:12:11Z</time>
      </trkpt>
      <trkpt lat="45.37749" lon="5.89413">
        <ele>1522.39</ele>
        <time>2015-03-07T10:12:28Z</time>
      </trkpt>
      <trkpt lat="45.37759" lon="5.89411">
        <ele>1522.39</ele>
        <time>2015-03-07T10:12:44Z</time>
      </trkpt>
      <trkpt lat="45.37762" lon="5.89408">
        <ele>1521.42</ele>
        <time>2015-03-07T10:12:47Z</time>
      </trkpt>
      <trkpt lat="45.37769" lon="5.89404">
        <ele>1518.54</ele>
        <time>2015-03-07T10:12:54Z</time>
      </trkpt>
      <trkpt lat="45.37769" lon="5.89404">
        <ele>1518.54</ele>
        <time>2015-03-07T10:12:55Z</time>
      </trkpt>
      <trkpt lat="45.37778" lon="5.89404">
        <ele>1519.02</ele>
        <time>2015-03-07T10:13:10Z</time>
      </trkpt>
      <trkpt lat="45.37781" lon="5.894">
        <ele>1519.02</ele>
        <time>2015-03-07T10:13:14Z</time>
      </trkpt>
      <trkpt lat="45.37789" lon="5.89393">
        <ele>1518.06</ele>
        <time>2015-03-07T10:13:21Z</time>
      </trkpt>
      <trkpt lat="45.37804" lon="5.894">
        <ele>1517.1</ele>
        <time>2015-03-07T10:13:31Z</time>
      </trkpt>
      <trkpt lat="45.37811" lon="5.89407">
        <ele>1517.58</ele>
        <time>2015-03-07T10:13:42Z</time>
      </trkpt>
      <trkpt lat="45.3782" lon="5.89413">
        <ele>1517.58</ele>
        <time>2015-03-07T10:13:54Z</time>
      </trkpt>
      <trkpt lat="45.37841" lon="5.89428">
        <ele>1518.06</ele>
        <time>2015-03-07T10:14:17Z</time>
      </trkpt>
      <trkpt lat="45.37855" lon="5.89429">
        <ele>1518.06</ele>
        <time>2015-03-07T10:14:28Z</time>
      </trkpt>
      <trkpt lat="45.37866" lon="5.8943">
        <ele>1517.1</ele>
        <time>2015-03-07T10:14:38Z</time>
      </trkpt>
      <trkpt lat="45.37871" lon="5.89432">
        <ele>1517.1</ele>
        <time>2015-03-07T10:14:42Z</time>
      </trkpt>
      <trkpt lat="45.37876" lon="5.89432">
        <ele>1517.1</ele>
        <time>2015-03-07T10:14:48Z</time>
      </trkpt>
      <trkpt lat="45.37887" lon="5.89435">
        <ele>1514.21</ele>
        <time>2015-03-07T10:14:55Z</time>
      </trkpt>
      <trkpt lat="45.37901" lon="5.89439">
        <ele>1512.77</ele>
        <time>2015-03-07T10:15:06Z</time>
      </trkpt>
      <trkpt lat="45.37914" lon="5.89445">
        <ele>1511.81</ele>
        <time>2015-03-07T10:15:20Z</time>
      </trkpt>
      <trkpt lat="45.37929" lon="5.89455">
        <ele>1512.29</ele>
        <time>2015-03-07T10:15:35Z</time>
      </trkpt>
      <trkpt lat="45.37932" lon="5.89457">
        <ele>1511.81</ele>
        <time>2015-03-07T10:15:37Z</time>
      </trkpt>
      <trkpt lat="45.37943" lon="5.89455">
        <ele>1509.41</ele>
        <time>2015-03-07T10:15:45Z</time>
      </trkpt>
      <trkpt lat="45.37952" lon="5.89452">
        <ele>1508.93</ele>
        <time>2015-03-07T10:15:51Z</time>
      </trkpt>
      <trkpt lat="45.37964" lon="5.89448">
        <ele>1507.48</ele>
        <time>2015-03-07T10:16:01Z</time>
      </trkpt>
      <trkpt lat="45.37971" lon="5.89449">
        <ele>1507.48</ele>
        <time>2015-03-07T10:16:08Z</time>
      </trkpt>
      <trkpt lat="45.37979" lon="5.89452">
        <ele>1507</ele>
        <time>2015-03-07T10:16:18Z</time>
      </trkpt>
      <trkpt lat="45.3799" lon="5.89459">
        <ele>1507.48</ele>
        <time>2015-03-07T10:16:29Z</time>
      </trkpt>
      <trkpt lat="45.37995" lon="5.89473">
        <ele>1507.48</ele>
        <time>2015-03-07T10:16:42Z</time>
      </trkpt>
      <trkpt lat="45.38" lon="5.89475">
        <ele>1508.93</ele>
        <time>2015-03-07T10:16:48Z</time>
      </trkpt>
      <trkpt lat="45.38008" lon="5.89489">
        <ele>1507</ele>
        <time>2015-03-07T10:16:57Z</time>
      </trkpt>
      <trkpt lat="45.38016" lon="5.89492">
        <ele>1507.97</ele>
        <time>2015-03-07T10:17:12Z</time>
      </trkpt>
      <trkpt lat="45.38024" lon="5.89492">
        <ele>1508.93</ele>
        <time>2015-03-07T10:17:20Z</time>
      </trkpt>
      <trkpt lat="45.38033" lon="5.89493">
        <ele>1509.41</ele>
        <time>2015-03-07T10:17:30Z</time>
      </trkpt>
      <trkpt lat="45.3804" lon="5.89499">
        <ele>1510.37</ele>
        <time>2015-03-07T10:17:45Z</time>
      </trkpt>
      <trkpt lat="45.38055" lon="5.89506">
        <ele>1509.41</ele>
        <time>2015-03-07T10:17:56Z</time>
      </trkpt>
      <trkpt lat="45.38068" lon="5.89504">
        <ele>1508.93</ele>
        <time>2015-03-07T10:18:10Z</time>
      </trkpt>
      <trkpt lat="45.38076" lon="5.89503">
        <ele>1509.41</ele>
        <time>2015-03-07T10:18:17Z</time>
      </trkpt>
      <trkpt lat="45.38077" lon="5.89501">
        <ele>1509.41</ele>
        <time>2015-03-07T10:18:19Z</time>
      </trkpt>
      <trkpt lat="45.38092" lon="5.89495">
        <ele>1506.52</ele>
        <time>2015-03-07T10:18:31Z</time>
      </trkpt>
      <trkpt lat="45.38097" lon="5.895">
        <ele>1507</ele>
        <time>2015-03-07T10:18:40Z</time>
      </trkpt>
      <trkpt lat="45.38109" lon="5.8951">
        <ele>1508.45</ele>
        <time>2015-03-07T10:18:54Z</time>
      </trkpt>
      <trkpt lat="45.38111" lon="5.8951">
        <ele>1508.93</ele>
        <time>2015-03-07T10:18:57Z</time>
      </trkpt>
      <trkpt lat="45.38122" lon="5.89513">
        <ele>1508.93</ele>
        <time>2015-03-07T10:19:10Z</time>
      </trkpt>
      <trkpt lat="45.3813" lon="5.8951">
        <ele>1509.41</ele>
        <time>2015-03-07T10:19:18Z</time>
      </trkpt>
      <trkpt lat="45.38135" lon="5.89509">
        <ele>1509.41</ele>
        <time>2015-03-07T10:19:22Z</time>
      </trkpt>
      <trkpt lat="45.38151" lon="5.89514">
        <ele>1508.93</ele>
        <time>2015-03-07T10:19:36Z</time>
      </trkpt>
      <trkpt lat="45.38155" lon="5.89515">
        <ele>1508.93</ele>
        <time>2015-03-07T10:19:39Z</time>
      </trkpt>
      <trkpt lat="45.38168" lon="5.8952">
        <ele>1508.45</ele>
        <time>2015-03-07T10:19:50Z</time>
      </trkpt>
      <trkpt lat="45.38178" lon="5.89522">
        <ele>1508.45</ele>
        <time>2015-03-07T10:20:00Z</time>
      </trkpt>
      <trkpt lat="45.38181" lon="5.89524">
        <ele>1507.97</ele>
        <time>2015-03-07T10:20:05Z</time>
      </trkpt>
      <trkpt lat="45.38184" lon="5.89523">
        <ele>1507.97</ele>
        <time>2015-03-07T10:20:08Z</time>
      </trkpt>
      <trkpt lat="45.38196" lon="5.89534">
        <ele>1506.52</ele>
        <time>2015-03-07T10:20:23Z</time>
      </trkpt>
      <trkpt lat="45.38206" lon="5.89531">
        <ele>1506.52</ele>
        <time>2015-03-07T10:20:38Z</time>
      </trkpt>
      <trkpt lat="45.38208" lon="5.89529">
        <ele>1506.04</ele>
        <time>2015-03-07T10:20:40Z</time>
      </trkpt>
      <trkpt lat="45.38221" lon="5.89526">
        <ele>1504.6</ele>
        <time>2015-03-07T10:20:50Z</time>
      </trkpt>
      <trkpt lat="45.38222" lon="5.89526">
        <ele>1504.6</ele>
        <time>2015-03-07T10:20:52Z</time>
      </trkpt>
      <trkpt lat="45.38233" lon="5.89526">
        <ele>1503.64</ele>
        <time>2015-03-07T10:21:04Z</time>
      </trkpt>
      <trkpt lat="45.38237" lon="5.89531">
        <ele>1503.16</ele>
        <time>2015-03-07T10:21:13Z</time>
      </trkpt>
      <trkpt lat="45.38238" lon="5.8954">
        <ele>1504.6</ele>
        <time>2015-03-07T10:21:21Z</time>
      </trkpt>
      <trkpt lat="45.38246" lon="5.89553">
        <ele>1505.56</ele>
        <time>2015-03-07T10:21:33Z</time>
      </trkpt>
      <trkpt lat="45.38255" lon="5.89566">
        <ele>1506.04</ele>
        <time>2015-03-07T10:21:47Z</time>
      </trkpt>
      <trkpt lat="45.38259" lon="5.89574">
        <ele>1507.48</ele>
        <time>2015-03-07T10:21:59Z</time>
      </trkpt>
      <trkpt lat="45.38266" lon="5.89573">
        <ele>1506.52</ele>
        <time>2015-03-07T10:22:10Z</time>
      </trkpt>
      <trkpt lat="45.38269" lon="5.89572">
        <ele>1506.04</ele>
        <time>2015-03-07T10:22:19Z</time>
      </trkpt>
      <trkpt lat="45.38273" lon="5.8957">
        <ele>1503.64</ele>
        <time>2015-03-07T10:22:35Z</time>
      </trkpt>
      <trkpt lat="45.38275" lon="5.89562">
        <ele>1504.6</ele>
        <time>2015-03-07T10:22:46Z</time>
      </trkpt>
      <trkpt lat="45.3828" lon="5.89559">
        <ele>1504.6</ele>
        <time>2015-03-07T10:22:55Z</time>
      </trkpt>
      <trkpt lat="45.38298" lon="5.8956">
        <ele>1503.16</ele>
        <time>2015-03-07T10:23:09Z</time>
      </trkpt>
      <trkpt lat="45.38306" lon="5.8956">
        <ele>1502.68</ele>
        <time>2015-03-07T10:23:17Z</time>
      </trkpt>
      <trkpt lat="45.38321" lon="5.89543">
        <ele>1499.31</ele>
        <time>2015-03-07T10:23:27Z</time>
      </trkpt>
      <trkpt lat="45.38323" lon="5.89541">
        <ele>1499.31</ele>
        <time>2015-03-07T10:23:28Z</time>
      </trkpt>
      <trkpt lat="45.38338" lon="5.89547">
        <ele>1497.39</ele>
        <time>2015-03-07T10:23:41Z</time>
      </trkpt>
      <trkpt lat="45.38341" lon="5.89545">
        <ele>1496.91</ele>
        <time>2015-03-07T10:23:46Z</time>
      </trkpt>
      <trkpt lat="45.38343" lon="5.89559">
        <ele>1494.99</ele>
        <time>2015-03-07T10:23:59Z</time>
      </trkpt>
      <trkpt lat="45.38348" lon="5.89559">
        <ele>1497.87</ele>
        <time>2015-03-07T10:24:18Z</time>
      </trkpt>
      <trkpt lat="45.38363" lon="5.89561">
        <ele>1497.87</ele>
        <time>2015-03-07T10:24:35Z</time>
      </trkpt>
      <trkpt lat="45.38376" lon="5.89559">
        <ele>1496.91</ele>
        <time>2015-03-07T10:24:43Z</time>
      </trkpt>
      <trkpt lat="45.38387" lon="5.89554">
        <ele>1494.99</ele>
        <time>2015-03-07T10:24:51Z</time>
      </trkpt>
      <trkpt lat="45.38403" lon="5.89551">
        <ele>1493.55</ele>
        <time>2015-03-07T10:25:05Z</time>
      </trkpt>
      <trkpt lat="45.3841" lon="5.8954">
        <ele>1491.62</ele>
        <time>2015-03-07T10:25:16Z</time>
      </trkpt>
      <trkpt lat="45.38406" lon="5.89533">
        <ele>1488.26</ele>
        <time>2015-03-07T10:25:26Z</time>
      </trkpt>
      <trkpt lat="45.38407" lon="5.89535">
        <ele>1488.74</ele>
        <time>2015-03-07T10:25:29Z</time>
      </trkpt>
      <trkpt lat="45.38421" lon="5.89547">
        <ele>1487.3</ele>
        <time>2015-03-07T10:25:43Z</time>
      </trkpt>
      <trkpt lat="45.38434" lon="5.89552">
        <ele>1486.34</ele>
        <time>2015-03-07T10:25:54Z</time>
      </trkpt>
      <trkpt lat="45.38449" lon="5.89559">
        <ele>1484.89</ele>
        <time>2015-03-07T10:26:06Z</time>
      </trkpt>
      <trkpt lat="45.38465" lon="5.89571">
        <ele>1481.05</ele>
        <time>2015-03-07T10:26:13Z</time>
      </trkpt>
      <trkpt lat="45.38471" lon="5.89571">
        <ele>1480.09</ele>
        <time>2015-03-07T10:26:21Z</time>
      </trkpt>
      <trkpt lat="45.38485" lon="5.89574">
        <ele>1479.61</ele>
        <time>2015-03-07T10:26:36Z</time>
      </trkpt>
      <trkpt lat="45.38494" lon="5.89576">
        <ele>1481.05</ele>
        <time>2015-03-07T10:28:33Z</time>
      </trkpt>
      <trkpt lat="45.38501" lon="5.89574">
        <ele>1481.05</ele>
        <time>2015-03-07T10:28:36Z</time>
      </trkpt>
      <trkpt lat="45.38503" lon="5.89571">
        <ele>1480.09</ele>
        <time>2015-03-07T10:28:54Z</time>
      </trkpt>
      <trkpt lat="45.38506" lon="5.8957">
        <ele>1480.09</ele>
        <time>2015-03-07T10:29:37Z</time>
      </trkpt>
      <trkpt lat="45.38516" lon="5.89572">
        <ele>1479.13</ele>
        <time>2015-03-07T10:29:47Z</time>
      </trkpt>
      <trkpt lat="45.38526" lon="5.89583">
        <ele>1479.61</ele>
        <time>2015-03-07T10:30:06Z</time>
      </trkpt>
      <trkpt lat="45.38527" lon="5.89593">
        <ele>1479.61</ele>
        <time>2015-03-07T10:30:15Z</time>
      </trkpt>
      <trkpt lat="45.38534" lon="5.89606">
        <ele>1478.65</ele>
        <time>2015-03-07T10:30:22Z</time>
      </trkpt>
      <trkpt lat="45.38534" lon="5.89606">
        <ele>1478.16</ele>
        <time>2015-03-07T10:30:23Z</time>
      </trkpt>
      <trkpt lat="45.38547" lon="5.8961">
        <ele>1478.16</ele>
        <time>2015-03-07T10:30:34Z</time>
      </trkpt>
      <trkpt lat="45.38556" lon="5.89617">
        <ele>1478.65</ele>
        <time>2015-03-07T10:30:43Z</time>
      </trkpt>
      <trkpt lat="45.38569" lon="5.89628">
        <ele>1477.68</ele>
        <time>2015-03-07T10:30:57Z</time>
      </trkpt>
      <trkpt lat="45.38577" lon="5.89633">
        <ele>1477.68</ele>
        <time>2015-03-07T10:31:03Z</time>
      </trkpt>
      <trkpt lat="45.38591" lon="5.89621">
        <ele>1476.24</ele>
        <time>2015-03-07T10:31:17Z</time>
      </trkpt>
      <trkpt lat="45.38607" lon="5.89626">
        <ele>1474.8</ele>
        <time>2015-03-07T10:31:24Z</time>
      </trkpt>
      <trkpt lat="45.38619" lon="5.89628">
        <ele>1472.4</ele>
        <time>2015-03-07T10:31:35Z</time>
      </trkpt>
      <trkpt lat="45.38636" lon="5.89652">
        <ele>1475.28</ele>
        <time>2015-03-07T10:32:01Z</time>
      </trkpt>
      <trkpt lat="45.38647" lon="5.89654">
        <ele>1478.16</ele>
        <time>2015-03-07T10:32:21Z</time>
      </trkpt>
      <trkpt lat="45.38657" lon="5.89667">
        <ele>1481.53</ele>
        <time>2015-03-07T10:32:41Z</time>
      </trkpt>
      <trkpt lat="45.38664" lon="5.89679">
        <ele>1482.97</ele>
        <time>2015-03-07T10:32:59Z</time>
      </trkpt>
      <trkpt lat="45.38677" lon="5.89687">
        <ele>1484.41</ele>
        <time>2015-03-07T10:33:18Z</time>
      </trkpt>
      <trkpt lat="45.38679" lon="5.8969">
        <ele>1484.41</ele>
        <time>2015-03-07T10:33:21Z</time>
      </trkpt>
      <trkpt lat="45.38698" lon="5.89705">
        <ele>1486.34</ele>
        <time>2015-03-07T10:33:46Z</time>
      </trkpt>
      <trkpt lat="45.38703" lon="5.89705">
        <ele>1488.26</ele>
        <time>2015-03-07T10:33:53Z</time>
      </trkpt>
      <trkpt lat="45.38714" lon="5.89712">
        <ele>1488.74</ele>
        <time>2015-03-07T10:34:06Z</time>
      </trkpt>
      <trkpt lat="45.38721" lon="5.8972">
        <ele>1490.66</ele>
        <time>2015-03-07T10:34:18Z</time>
      </trkpt>
      <trkpt lat="45.3873" lon="5.89726">
        <ele>1491.62</ele>
        <time>2015-03-07T10:34:30Z</time>
      </trkpt>
      <trkpt lat="45.38739" lon="5.89735">
        <ele>1493.55</ele>
        <time>2015-03-07T10:34:49Z</time>
      </trkpt>
      <trkpt lat="45.38748" lon="5.89743">
        <ele>1494.51</ele>
        <time>2015-03-07T10:35:08Z</time>
      </trkpt>
      <trkpt lat="45.38759" lon="5.89755">
        <ele>1497.87</ele>
        <time>2015-03-07T10:35:29Z</time>
      </trkpt>
      <trkpt lat="45.38773" lon="5.89769">
        <ele>1500.27</ele>
        <time>2015-03-07T10:35:48Z</time>
      </trkpt>
      <trkpt lat="45.3878" lon="5.89779">
        <ele>1501.24</ele>
        <time>2015-03-07T10:35:57Z</time>
      </trkpt>
      <trkpt lat="45.38782" lon="5.8978">
        <ele>1501.24</ele>
        <time>2015-03-07T10:36:00Z</time>
      </trkpt>
      <trkpt lat="45.38792" lon="5.89794">
        <ele>1502.2</ele>
        <time>2015-03-07T10:36:12Z</time>
      </trkpt>
      <trkpt lat="45.38802" lon="5.89811">
        <ele>1504.12</ele>
        <time>2015-03-07T10:36:31Z</time>
      </trkpt>
      <trkpt lat="45.38809" lon="5.89825">
        <ele>1504.6</ele>
        <time>2015-03-07T10:36:44Z</time>
      </trkpt>
      <trkpt lat="45.38819" lon="5.89836">
        <ele>1505.08</ele>
        <time>2015-03-07T10:36:58Z</time>
      </trkpt>
      <trkpt lat="45.38824" lon="5.89843">
        <ele>1505.56</ele>
        <time>2015-03-07T10:37:04Z</time>
      </trkpt>
      <trkpt lat="45.38831" lon="5.89851">
        <ele>1506.04</ele>
        <time>2015-03-07T10:37:14Z</time>
      </trkpt>
      <trkpt lat="45.38845" lon="5.89866">
        <ele>1506.04</ele>
        <time>2015-03-07T10:37:29Z</time>
      </trkpt>
      <trkpt lat="45.38852" lon="5.89874">
        <ele>1506.04</ele>
        <time>2015-03-07T10:37:39Z</time>
      </trkpt>
      <trkpt lat="45.38863" lon="5.89887">
        <ele>1506.04</ele>
        <time>2015-03-07T10:37:51Z</time>
      </trkpt>
      <trkpt lat="45.38877" lon="5.89898">
        <ele>1505.08</ele>
        <time>2015-03-07T10:38:05Z</time>
      </trkpt>
      <trkpt lat="45.38885" lon="5.89905">
        <ele>1506.52</ele>
        <time>2015-03-07T10:38:22Z</time>
      </trkpt>
      <trkpt lat="45.38889" lon="5.89906">
        <ele>1506.52</ele>
        <time>2015-03-07T10:38:26Z</time>
      </trkpt>
      <trkpt lat="45.38907" lon="5.8991">
        <ele>1506.52</ele>
        <time>2015-03-07T10:38:40Z</time>
      </trkpt>
      <trkpt lat="45.3892" lon="5.89909">
        <ele>1506.04</ele>
        <time>2015-03-07T10:38:54Z</time>
      </trkpt>
      <trkpt lat="45.3892" lon="5.89908">
        <ele>1506.04</ele>
        <time>2015-03-07T10:39:10Z</time>
      </trkpt>
      <trkpt lat="45.38919" lon="5.89907">
        <ele>1505.08</ele>
        <time>2015-03-07T10:39:35Z</time>
      </trkpt>
      <trkpt lat="45.38929" lon="5.89916">
        <ele>1506.04</ele>
        <time>2015-03-07T10:40:38Z</time>
      </trkpt>
      <trkpt lat="45.3894" lon="5.89926">
        <ele>1506.04</ele>
        <time>2015-03-07T10:40:49Z</time>
      </trkpt>
      <trkpt lat="45.3895" lon="5.89935">
        <ele>1506.04</ele>
        <time>2015-03-07T10:40:59Z</time>
      </trkpt>
      <trkpt lat="45.38962" lon="5.89945">
        <ele>1506.52</ele>
        <time>2015-03-07T10:41:13Z</time>
      </trkpt>
      <trkpt lat="45.38962" lon="5.89945">
        <ele>1506.52</ele>
        <time>2015-03-07T10:41:14Z</time>
      </trkpt>
      <trkpt lat="45.38969" lon="5.89952">
        <ele>1506.52</ele>
        <time>2015-03-07T10:41:22Z</time>
      </trkpt>
      <trkpt lat="45.38978" lon="5.89964">
        <ele>1507.48</ele>
        <time>2015-03-07T10:41:36Z</time>
      </trkpt>
      <trkpt lat="45.38985" lon="5.89969">
        <ele>1508.45</ele>
        <time>2015-03-07T10:41:48Z</time>
      </trkpt>
      <trkpt lat="45.38993" lon="5.89975">
        <ele>1508.93</ele>
        <time>2015-03-07T10:41:58Z</time>
      </trkpt>
      <trkpt lat="45.39004" lon="5.8997">
        <ele>1509.89</ele>
        <time>2015-03-07T10:42:11Z</time>
      </trkpt>
      <trkpt lat="45.39005" lon="5.89971">
        <ele>1510.37</ele>
        <time>2015-03-07T10:42:13Z</time>
      </trkpt>
      <trkpt lat="45.39013" lon="5.89978">
        <ele>1511.33</ele>
        <time>2015-03-07T10:42:23Z</time>
      </trkpt>
      <trkpt lat="45.39013" lon="5.89979">
        <ele>1511.33</ele>
        <time>2015-03-07T10:42:24Z</time>
      </trkpt>
      <trkpt lat="45.3902" lon="5.89979">
        <ele>1512.29</ele>
        <time>2015-03-07T10:42:34Z</time>
      </trkpt>
      <trkpt lat="45.39021" lon="5.89979">
        <ele>1512.29</ele>
        <time>2015-03-07T10:42:35Z</time>
      </trkpt>
      <trkpt lat="45.39028" lon="5.89976">
        <ele>1513.73</ele>
        <time>2015-03-07T10:42:44Z</time>
      </trkpt>
      <trkpt lat="45.39033" lon="5.89976">
        <ele>1513.73</ele>
        <time>2015-03-07T10:42:50Z</time>
      </trkpt>
      <trkpt lat="45.39042" lon="5.89973">
        <ele>1515.66</ele>
        <time>2015-03-07T10:43:01Z</time>
      </trkpt>
      <trkpt lat="45.39046" lon="5.89975">
        <ele>1516.14</ele>
        <time>2015-03-07T10:43:07Z</time>
      </trkpt>
      <trkpt lat="45.39051" lon="5.89976">
        <ele>1516.62</ele>
        <time>2015-03-07T10:43:13Z</time>
      </trkpt>
      <trkpt lat="45.39055" lon="5.89977">
        <ele>1517.1</ele>
        <time>2015-03-07T10:43:19Z</time>
      </trkpt>
      <trkpt lat="45.39064" lon="5.8998">
        <ele>1518.54</ele>
        <time>2015-03-07T10:43:30Z</time>
      </trkpt>
      <trkpt lat="45.39072" lon="5.89981">
        <ele>1518.54</ele>
        <time>2015-03-07T10:43:41Z</time>
      </trkpt>
      <trkpt lat="45.39077" lon="5.89981">
        <ele>1519.02</ele>
        <time>2015-03-07T10:43:46Z</time>
      </trkpt>
      <trkpt lat="45.39079" lon="5.89981">
        <ele>1519.02</ele>
        <time>2015-03-07T10:43:49Z</time>
      </trkpt>
      <trkpt lat="45.39087" lon="5.89978">
        <ele>1519.98</ele>
        <time>2015-03-07T10:43:59Z</time>
      </trkpt>
      <trkpt lat="45.39094" lon="5.89976">
        <ele>1520.46</ele>
        <time>2015-03-07T10:44:10Z</time>
      </trkpt>
      <trkpt lat="45.39102" lon="5.89971">
        <ele>1522.39</ele>
        <time>2015-03-07T10:44:22Z</time>
      </trkpt>
      <trkpt lat="45.39108" lon="5.89964">
        <ele>1523.83</ele>
        <time>2015-03-07T10:44:34Z</time>
      </trkpt>
      <trkpt lat="45.3911" lon="5.89963">
        <ele>1523.83</ele>
        <time>2015-03-07T10:44:37Z</time>
      </trkpt>
      <trkpt lat="45.39117" lon="5.89958">
        <ele>1525.27</ele>
        <time>2015-03-07T10:44:49Z</time>
      </trkpt>
      <trkpt lat="45.39124" lon="5.89956">
        <ele>1526.71</ele>
        <time>2015-03-07T10:44:59Z</time>
      </trkpt>
      <trkpt lat="45.39131" lon="5.89956">
        <ele>1528.15</ele>
        <time>2015-03-07T10:45:08Z</time>
      </trkpt>
      <trkpt lat="45.39133" lon="5.89956">
        <ele>1528.15</ele>
        <time>2015-03-07T10:45:11Z</time>
      </trkpt>
      <trkpt lat="45.39145" lon="5.89957">
        <ele>1529.59</ele>
        <time>2015-03-07T10:45:25Z</time>
      </trkpt>
      <trkpt lat="45.3915" lon="5.89957">
        <ele>1530.56</ele>
        <time>2015-03-07T10:45:31Z</time>
      </trkpt>
      <trkpt lat="45.39158" lon="5.89954">
        <ele>1532</ele>
        <time>2015-03-07T10:45:42Z</time>
      </trkpt>
      <trkpt lat="45.39167" lon="5.89952">
        <ele>1532.96</ele>
        <time>2015-03-07T10:45:53Z</time>
      </trkpt>
      <trkpt lat="45.39175" lon="5.89948">
        <ele>1534.4</ele>
        <time>2015-03-07T10:46:04Z</time>
      </trkpt>
      <trkpt lat="45.39184" lon="5.89943">
        <ele>1536.8</ele>
        <time>2015-03-07T10:46:15Z</time>
      </trkpt>
      <trkpt lat="45.39189" lon="5.89942">
        <ele>1537.77</ele>
        <time>2015-03-07T10:46:24Z</time>
      </trkpt>
      <trkpt lat="45.39197" lon="5.89945">
        <ele>1539.21</ele>
        <time>2015-03-07T10:46:34Z</time>
      </trkpt>
      <trkpt lat="45.39201" lon="5.89948">
        <ele>1540.65</ele>
        <time>2015-03-07T10:46:41Z</time>
      </trkpt>
      <trkpt lat="45.39209" lon="5.89951">
        <ele>1541.61</ele>
        <time>2015-03-07T10:46:52Z</time>
      </trkpt>
      <trkpt lat="45.39216" lon="5.89954">
        <ele>1543.05</ele>
        <time>2015-03-07T10:47:04Z</time>
      </trkpt>
      <trkpt lat="45.39221" lon="5.89954">
        <ele>1543.53</ele>
        <time>2015-03-07T10:47:09Z</time>
      </trkpt>
      <trkpt lat="45.39229" lon="5.89955">
        <ele>1543.53</ele>
        <time>2015-03-07T10:47:21Z</time>
      </trkpt>
      <trkpt lat="45.39243" lon="5.89958">
        <ele>1545.46</ele>
        <time>2015-03-07T10:47:40Z</time>
      </trkpt>
      <trkpt lat="45.39245" lon="5.89958">
        <ele>1545.46</ele>
        <time>2015-03-07T10:47:42Z</time>
      </trkpt>
      <trkpt lat="45.39254" lon="5.89957">
        <ele>1546.42</ele>
        <time>2015-03-07T10:47:55Z</time>
      </trkpt>
      <trkpt lat="45.39264" lon="5.89958">
        <ele>1548.82</ele>
        <time>2015-03-07T10:48:07Z</time>
      </trkpt>
      <trkpt lat="45.3927" lon="5.89961">
        <ele>1549.78</ele>
        <time>2015-03-07T10:48:17Z</time>
      </trkpt>
      <trkpt lat="45.39277" lon="5.89968">
        <ele>1551.22</ele>
        <time>2015-03-07T10:48:29Z</time>
      </trkpt>
      <trkpt lat="45.39283" lon="5.89973">
        <ele>1552.67</ele>
        <time>2015-03-07T10:48:37Z</time>
      </trkpt>
      <trkpt lat="45.39288" lon="5.89983">
        <ele>1554.59</ele>
        <time>2015-03-07T10:48:50Z</time>
      </trkpt>
      <trkpt lat="45.39289" lon="5.89985">
        <ele>1554.59</ele>
        <time>2015-03-07T10:48:52Z</time>
      </trkpt>
      <trkpt lat="45.39293" lon="5.89995">
        <ele>1555.55</ele>
        <time>2015-03-07T10:49:03Z</time>
      </trkpt>
      <trkpt lat="45.39294" lon="5.90011">
        <ele>1556.03</ele>
        <time>2015-03-07T10:49:17Z</time>
      </trkpt>
      <trkpt lat="45.39294" lon="5.90019">
        <ele>1558.43</ele>
        <time>2015-03-07T10:49:28Z</time>
      </trkpt>
      <trkpt lat="45.39294" lon="5.90019">
        <ele>1557.95</ele>
        <time>2015-03-07T10:50:03Z</time>
      </trkpt>
      <trkpt lat="45.39294" lon="5.90019">
        <ele>1557.95</ele>
        <time>2015-03-07T10:50:05Z</time>
      </trkpt>
      <trkpt lat="45.39294" lon="5.90025">
        <ele>1557.95</ele>
        <time>2015-03-07T10:50:11Z</time>
      </trkpt>
      <trkpt lat="45.39294" lon="5.90061">
        <ele>1555.55</ele>
        <time>2015-03-07T10:50:25Z</time>
      </trkpt>
      <trkpt lat="45.39295" lon="5.90072">
        <ele>1552.67</ele>
        <time>2015-03-07T10:50:29Z</time>
      </trkpt>
      <trkpt lat="45.39294" lon="5.90075">
        <ele>1552.19</ele>
        <time>2015-03-07T10:50:32Z</time>
      </trkpt>
      <trkpt lat="45.39292" lon="5.90088">
        <ele>1552.67</ele>
        <time>2015-03-07T10:50:41Z</time>
      </trkpt>
      <trkpt lat="45.3929" lon="5.90094">
        <ele>1554.11</ele>
        <time>2015-03-07T10:50:48Z</time>
      </trkpt>
      <trkpt lat="45.3929" lon="5.90105">
        <ele>1555.07</ele>
        <time>2015-03-07T10:50:57Z</time>
      </trkpt>
      <trkpt lat="45.39292" lon="5.90115">
        <ele>1556.51</ele>
        <time>2015-03-07T10:51:07Z</time>
      </trkpt>
      <trkpt lat="45.39291" lon="5.90129">
        <ele>1557.47</ele>
        <time>2015-03-07T10:51:21Z</time>
      </trkpt>
      <trkpt lat="45.39292" lon="5.90132">
        <ele>1557.47</ele>
        <time>2015-03-07T10:51:36Z</time>
      </trkpt>
      <trkpt lat="45.39292" lon="5.90132">
        <ele>1557.47</ele>
        <time>2015-03-07T10:51:53Z</time>
      </trkpt>
      <trkpt lat="45.39292" lon="5.90132">
        <ele>1556.99</ele>
        <time>2015-03-07T10:52:48Z</time>
      </trkpt>
      <trkpt lat="45.39292" lon="5.90133">
        <ele>1557.95</ele>
        <time>2015-03-07T10:53:58Z</time>
      </trkpt>
      <trkpt lat="45.39293" lon="5.90135">
        <ele>1557.95</ele>
        <time>2015-03-07T10:54:00Z</time>
      </trkpt>
      <trkpt lat="45.393" lon="5.90149">
        <ele>1557.95</ele>
        <time>2015-03-07T10:54:12Z</time>
      </trkpt>
      <trkpt lat="45.39306" lon="5.90155">
        <ele>1556.99</ele>
        <time>2015-03-07T10:54:17Z</time>
      </trkpt>
      <trkpt lat="45.3932" lon="5.90168">
        <ele>1555.55</ele>
        <time>2015-03-07T10:54:30Z</time>
      </trkpt>
      <trkpt lat="45.39331" lon="5.90185">
        <ele>1553.63</ele>
        <time>2015-03-07T10:54:38Z</time>
      </trkpt>
      <trkpt lat="45.39338" lon="5.90204">
        <ele>1549.78</ele>
        <time>2015-03-07T10:54:43Z</time>
      </trkpt>
      <trkpt lat="45.3933" lon="5.90217">
        <ele>1547.38</ele>
        <time>2015-03-07T10:54:46Z</time>
      </trkpt>
      <trkpt lat="45.39323" lon="5.90229">
        <ele>1544.5</ele>
        <time>2015-03-07T10:54:49Z</time>
      </trkpt>
      <trkpt lat="45.39321" lon="5.90232">
        <ele>1543.53</ele>
        <time>2015-03-07T10:54:50Z</time>
      </trkpt>
      <trkpt lat="45.3932" lon="5.90253">
        <ele>1539.69</ele>
        <time>2015-03-07T10:55:01Z</time>
      </trkpt>
      <trkpt lat="45.39322" lon="5.90261">
        <ele>1541.61</ele>
        <time>2015-03-07T10:55:15Z</time>
      </trkpt>
      <trkpt lat="45.39333" lon="5.90296">
        <ele>1542.57</ele>
        <time>2015-03-07T10:55:40Z</time>
      </trkpt>
      <trkpt lat="45.39336" lon="5.90303">
        <ele>1543.05</ele>
        <time>2015-03-07T10:55:44Z</time>
      </trkpt>
      <trkpt lat="45.39347" lon="5.90329">
        <ele>1544.5</ele>
        <time>2015-03-07T10:56:02Z</time>
      </trkpt>
      <trkpt lat="45.39348" lon="5.9034">
        <ele>1545.94</ele>
        <time>2015-03-07T10:56:13Z</time>
      </trkpt>
      <trkpt lat="45.39354" lon="5.90352">
        <ele>1547.86</ele>
        <time>2015-03-07T10:56:32Z</time>
      </trkpt>
      <trkpt lat="45.39364" lon="5.90367">
        <ele>1550.74</ele>
        <time>2015-03-07T10:56:46Z</time>
      </trkpt>
      <trkpt lat="45.39374" lon="5.90372">
        <ele>1553.15</ele>
        <time>2015-03-07T10:57:01Z</time>
      </trkpt>
      <trkpt lat="45.39379" lon="5.90377">
        <ele>1554.59</ele>
        <time>2015-03-07T10:57:10Z</time>
      </trkpt>
      <trkpt lat="45.39384" lon="5.90378">
        <ele>1554.59</ele>
        <time>2015-03-07T10:57:12Z</time>
      </trkpt>
      <trkpt lat="45.39411" lon="5.90373">
        <ele>1551.22</ele>
        <time>2015-03-07T10:57:23Z</time>
      </trkpt>
      <trkpt lat="45.39414" lon="5.90372">
        <ele>1550.26</ele>
        <time>2015-03-07T10:57:25Z</time>
      </trkpt>
      <trkpt lat="45.39415" lon="5.90374">
        <ele>1550.26</ele>
        <time>2015-03-07T10:57:26Z</time>
      </trkpt>
      <trkpt lat="45.39418" lon="5.90382">
        <ele>1549.3</ele>
        <time>2015-03-07T10:57:31Z</time>
      </trkpt>
      <trkpt lat="45.39425" lon="5.90403">
        <ele>1546.42</ele>
        <time>2015-03-07T10:57:43Z</time>
      </trkpt>
      <trkpt lat="45.39428" lon="5.90404">
        <ele>1546.42</ele>
        <time>2015-03-07T10:57:48Z</time>
      </trkpt>
      <trkpt lat="45.39433" lon="5.90409">
        <ele>1546.42</ele>
        <time>2015-03-07T10:57:54Z</time>
      </trkpt>
      <trkpt lat="45.39444" lon="5.90429">
        <ele>1548.34</ele>
        <time>2015-03-07T10:58:10Z</time>
      </trkpt>
      <trkpt lat="45.39456" lon="5.90445">
        <ele>1549.78</ele>
        <time>2015-03-07T10:58:30Z</time>
      </trkpt>
      <trkpt lat="45.39462" lon="5.90464">
        <ele>1551.71</ele>
        <time>2015-03-07T10:58:46Z</time>
      </trkpt>
      <trkpt lat="45.39464" lon="5.90468">
        <ele>1552.19</ele>
        <time>2015-03-07T10:58:49Z</time>
      </trkpt>
      <trkpt lat="45.3947" lon="5.90482">
        <ele>1552.67</ele>
        <time>2015-03-07T10:59:01Z</time>
      </trkpt>
      <trkpt lat="45.39471" lon="5.90486">
        <ele>1553.15</ele>
        <time>2015-03-07T10:59:05Z</time>
      </trkpt>
      <trkpt lat="45.39483" lon="5.90498">
        <ele>1552.67</ele>
        <time>2015-03-07T10:59:20Z</time>
      </trkpt>
      <trkpt lat="45.39487" lon="5.90503">
        <ele>1552.67</ele>
        <time>2015-03-07T10:59:24Z</time>
      </trkpt>
      <trkpt lat="45.3949" lon="5.9051">
        <ele>1553.15</ele>
        <time>2015-03-07T10:59:30Z</time>
      </trkpt>
      <trkpt lat="45.39499" lon="5.90524">
        <ele>1552.19</ele>
        <time>2015-03-07T10:59:38Z</time>
      </trkpt>
      <trkpt lat="45.39503" lon="5.90541">
        <ele>1553.15</ele>
        <time>2015-03-07T10:59:52Z</time>
      </trkpt>
      <trkpt lat="45.39504" lon="5.90549">
        <ele>1554.11</ele>
        <time>2015-03-07T10:59:58Z</time>
      </trkpt>
      <trkpt lat="45.39508" lon="5.9056">
        <ele>1555.07</ele>
        <time>2015-03-07T11:00:12Z</time>
      </trkpt>
      <trkpt lat="45.3951" lon="5.90573">
        <ele>1556.51</ele>
        <time>2015-03-07T11:00:24Z</time>
      </trkpt>
      <trkpt lat="45.39514" lon="5.90581">
        <ele>1557.47</ele>
        <time>2015-03-07T11:00:32Z</time>
      </trkpt>
      <trkpt lat="45.39524" lon="5.9059">
        <ele>1557.47</ele>
        <time>2015-03-07T11:00:41Z</time>
      </trkpt>
      <trkpt lat="45.39536" lon="5.906">
        <ele>1556.99</ele>
        <time>2015-03-07T11:00:53Z</time>
      </trkpt>
      <trkpt lat="45.39537" lon="5.90603">
        <ele>1556.99</ele>
        <time>2015-03-07T11:00:57Z</time>
      </trkpt>
      <trkpt lat="45.39546" lon="5.90626">
        <ele>1557.95</ele>
        <time>2015-03-07T11:01:11Z</time>
      </trkpt>
      <trkpt lat="45.39552" lon="5.90632">
        <ele>1559.4</ele>
        <time>2015-03-07T11:01:18Z</time>
      </trkpt>
      <trkpt lat="45.39561" lon="5.90646">
        <ele>1558.92</ele>
        <time>2015-03-07T11:01:29Z</time>
      </trkpt>
      <trkpt lat="45.39568" lon="5.90657">
        <ele>1559.4</ele>
        <time>2015-03-07T11:01:41Z</time>
      </trkpt>
      <trkpt lat="45.39575" lon="5.90671">
        <ele>1562.28</ele>
        <time>2015-03-07T11:01:57Z</time>
      </trkpt>
      <trkpt lat="45.39583" lon="5.90686">
        <ele>1562.76</ele>
        <time>2015-03-07T11:02:10Z</time>
      </trkpt>
      <trkpt lat="45.39592" lon="5.90702">
        <ele>1562.28</ele>
        <time>2015-03-07T11:02:21Z</time>
      </trkpt>
      <trkpt lat="45.39602" lon="5.90712">
        <ele>1562.28</ele>
        <time>2015-03-07T11:02:33Z</time>
      </trkpt>
      <trkpt lat="45.39617" lon="5.90722">
        <ele>1561.32</ele>
        <time>2015-03-07T11:02:46Z</time>
      </trkpt>
      <trkpt lat="45.39622" lon="5.90725">
        <ele>1561.32</ele>
        <time>2015-03-07T11:02:52Z</time>
      </trkpt>
      <trkpt lat="45.3964" lon="5.90737">
        <ele>1562.28</ele>
        <time>2015-03-07T11:03:11Z</time>
      </trkpt>
      <trkpt lat="45.39659" lon="5.90727">
        <ele>1559.4</ele>
        <time>2015-03-07T11:03:21Z</time>
      </trkpt>
      <trkpt lat="45.39672" lon="5.9072">
        <ele>1556.51</ele>
        <time>2015-03-07T11:03:24Z</time>
      </trkpt>
      <trkpt lat="45.39681" lon="5.90717">
        <ele>1554.59</ele>
        <time>2015-03-07T11:03:26Z</time>
      </trkpt>
      <trkpt lat="45.3969" lon="5.90717">
        <ele>1551.71</ele>
        <time>2015-03-07T11:03:28Z</time>
      </trkpt>
      <trkpt lat="45.39709" lon="5.90714">
        <ele>1546.42</ele>
        <time>2015-03-07T11:03:33Z</time>
      </trkpt>
      <trkpt lat="45.39721" lon="5.90713">
        <ele>1545.46</ele>
        <time>2015-03-07T11:03:36Z</time>
      </trkpt>
      <trkpt lat="45.39731" lon="5.90716">
        <ele>1542.09</ele>
        <time>2015-03-07T11:03:40Z</time>
      </trkpt>
      <trkpt lat="45.39733" lon="5.90716">
        <ele>1541.61</ele>
        <time>2015-03-07T11:03:42Z</time>
      </trkpt>
      <trkpt lat="45.39741" lon="5.90717">
        <ele>1542.09</ele>
        <time>2015-03-07T11:03:52Z</time>
      </trkpt>
      <trkpt lat="45.39757" lon="5.90734">
        <ele>1542.57</ele>
        <time>2015-03-07T11:04:08Z</time>
      </trkpt>
      <trkpt lat="45.39772" lon="5.90741">
        <ele>1543.05</ele>
        <time>2015-03-07T11:04:21Z</time>
      </trkpt>
      <trkpt lat="45.39773" lon="5.90742">
        <ele>1543.05</ele>
        <time>2015-03-07T11:04:23Z</time>
      </trkpt>
      <trkpt lat="45.39785" lon="5.90749">
        <ele>1543.05</ele>
        <time>2015-03-07T11:04:34Z</time>
      </trkpt>
      <trkpt lat="45.39792" lon="5.90753">
        <ele>1543.05</ele>
        <time>2015-03-07T11:04:40Z</time>
      </trkpt>
      <trkpt lat="45.39808" lon="5.90752">
        <ele>1541.61</ele>
        <time>2015-03-07T11:04:50Z</time>
      </trkpt>
      <trkpt lat="45.3982" lon="5.90752">
        <ele>1540.17</ele>
        <time>2015-03-07T11:04:57Z</time>
      </trkpt>
      <trkpt lat="45.39826" lon="5.9075">
        <ele>1538.73</ele>
        <time>2015-03-07T11:05:00Z</time>
      </trkpt>
      <trkpt lat="45.39832" lon="5.90746">
        <ele>1536.8</ele>
        <time>2015-03-07T11:05:04Z</time>
      </trkpt>
      <trkpt lat="45.39842" lon="5.90743">
        <ele>1535.84</ele>
        <time>2015-03-07T11:05:13Z</time>
      </trkpt>
      <trkpt lat="45.39843" lon="5.90744">
        <ele>1535.84</ele>
        <time>2015-03-07T11:05:14Z</time>
      </trkpt>
      <trkpt lat="45.39863" lon="5.90747">
        <ele>1533.44</ele>
        <time>2015-03-07T11:05:27Z</time>
      </trkpt>
      <trkpt lat="45.39866" lon="5.90746">
        <ele>1532.96</ele>
        <time>2015-03-07T11:05:29Z</time>
      </trkpt>
      <trkpt lat="45.39869" lon="5.90746">
        <ele>1532.96</ele>
        <time>2015-03-07T11:05:31Z</time>
      </trkpt>
      <trkpt lat="45.39873" lon="5.90747">
        <ele>1532.96</ele>
        <time>2015-03-07T11:05:35Z</time>
      </trkpt>
      <trkpt lat="45.39887" lon="5.90743">
        <ele>1531.52</ele>
        <time>2015-03-07T11:05:45Z</time>
      </trkpt>
      <trkpt lat="45.39898" lon="5.90739">
        <ele>1531.52</ele>
        <time>2015-03-07T11:05:56Z</time>
      </trkpt>
      <trkpt lat="45.399" lon="5.90739">
        <ele>1531.52</ele>
        <time>2015-03-07T11:06:00Z</time>
      </trkpt>
      <trkpt lat="45.39908" lon="5.9074">
        <ele>1532.96</ele>
        <time>2015-03-07T11:06:11Z</time>
      </trkpt>
      <trkpt lat="45.39916" lon="5.90741">
        <ele>1533.92</ele>
        <time>2015-03-07T11:06:27Z</time>
      </trkpt>
      <trkpt lat="45.39919" lon="5.90743">
        <ele>1533.92</ele>
        <time>2015-03-07T11:06:41Z</time>
      </trkpt>
      <trkpt lat="45.39945" lon="5.90742">
        <ele>1531.52</ele>
        <time>2015-03-07T11:06:53Z</time>
      </trkpt>
      <trkpt lat="45.3995" lon="5.90742">
        <ele>1530.56</ele>
        <time>2015-03-07T11:06:55Z</time>
      </trkpt>
      <trkpt lat="45.39962" lon="5.90749">
        <ele>1529.11</ele>
        <time>2015-03-07T11:07:06Z</time>
      </trkpt>
      <trkpt lat="45.39969" lon="5.90749">
        <ele>1529.11</ele>
        <time>2015-03-07T11:07:10Z</time>
      </trkpt>
      <trkpt lat="45.39984" lon="5.90746">
        <ele>1526.71</ele>
        <time>2015-03-07T11:07:14Z</time>
      </trkpt>
      <trkpt lat="45.40002" lon="5.9075">
        <ele>1523.35</ele>
        <time>2015-03-07T11:07:19Z</time>
      </trkpt>
      <trkpt lat="45.4001" lon="5.90752">
        <ele>1521.9</ele>
        <time>2015-03-07T11:07:23Z</time>
      </trkpt>
      <trkpt lat="45.40029" lon="5.90762">
        <ele>1519.98</ele>
        <time>2015-03-07T11:07:33Z</time>
      </trkpt>
      <trkpt lat="45.40035" lon="5.90765">
        <ele>1519.02</ele>
        <time>2015-03-07T11:07:38Z</time>
      </trkpt>
      <trkpt lat="45.40041" lon="5.90763">
        <ele>1518.54</ele>
        <time>2015-03-07T11:07:41Z</time>
      </trkpt>
      <trkpt lat="45.40056" lon="5.90773">
        <ele>1515.18</ele>
        <time>2015-03-07T11:07:49Z</time>
      </trkpt>
      <trkpt lat="45.40056" lon="5.90773">
        <ele>1514.21</ele>
        <time>2015-03-07T11:08:20Z</time>
      </trkpt>
      <trkpt lat="45.40078" lon="5.90773">
        <ele>1511.33</ele>
        <time>2015-03-07T11:08:29Z</time>
      </trkpt>
      <trkpt lat="45.40089" lon="5.90777">
        <ele>1509.41</ele>
        <time>2015-03-07T11:08:39Z</time>
      </trkpt>
      <trkpt lat="45.40093" lon="5.90781">
        <ele>1508.93</ele>
        <time>2015-03-07T11:08:44Z</time>
      </trkpt>
      <trkpt lat="45.40107" lon="5.90802">
        <ele>1506.04</ele>
        <time>2015-03-07T11:08:54Z</time>
      </trkpt>
      <trkpt lat="45.40125" lon="5.90815">
        <ele>1505.56</ele>
        <time>2015-03-07T11:09:06Z</time>
      </trkpt>
      <trkpt lat="45.40135" lon="5.90824">
        <ele>1505.08</ele>
        <time>2015-03-07T11:09:17Z</time>
      </trkpt>
      <trkpt lat="45.40149" lon="5.9083">
        <ele>1504.12</ele>
        <time>2015-03-07T11:09:29Z</time>
      </trkpt>
      <trkpt lat="45.40166" lon="5.90833">
        <ele>1501.72</ele>
        <time>2015-03-07T11:09:38Z</time>
      </trkpt>
      <trkpt lat="45.40167" lon="5.90834">
        <ele>1501.72</ele>
        <time>2015-03-07T11:09:39Z</time>
      </trkpt>
      <trkpt lat="45.40181" lon="5.90842">
        <ele>1500.27</ele>
        <time>2015-03-07T11:09:49Z</time>
      </trkpt>
      <trkpt lat="45.40204" lon="5.90857">
        <ele>1498.35</ele>
        <time>2015-03-07T11:10:03Z</time>
      </trkpt>
      <trkpt lat="45.40212" lon="5.9086">
        <ele>1496.91</ele>
        <time>2015-03-07T11:10:13Z</time>
      </trkpt>
      <trkpt lat="45.40218" lon="5.90858">
        <ele>1496.43</ele>
        <time>2015-03-07T11:10:15Z</time>
      </trkpt>
      <trkpt lat="45.40227" lon="5.90865">
        <ele>1494.51</ele>
        <time>2015-03-07T11:10:22Z</time>
      </trkpt>
      <trkpt lat="45.40242" lon="5.90877">
        <ele>1494.51</ele>
        <time>2015-03-07T11:10:35Z</time>
      </trkpt>
      <trkpt lat="45.40247" lon="5.90881">
        <ele>1494.51</ele>
        <time>2015-03-07T11:10:41Z</time>
      </trkpt>
      <trkpt lat="45.40259" lon="5.90892">
        <ele>1495.47</ele>
        <time>2015-03-07T11:11:00Z</time>
      </trkpt>
      <trkpt lat="45.40262" lon="5.90895">
        <ele>1495.95</ele>
        <time>2015-03-07T11:11:34Z</time>
      </trkpt>
      <trkpt lat="45.40276" lon="5.90912">
        <ele>1496.43</ele>
        <time>2015-03-07T11:11:47Z</time>
      </trkpt>
      <trkpt lat="45.40292" lon="5.90928">
        <ele>1496.91</ele>
        <time>2015-03-07T11:12:02Z</time>
      </trkpt>
      <trkpt lat="45.40304" lon="5.90937">
        <ele>1496.43</ele>
        <time>2015-03-07T11:12:12Z</time>
      </trkpt>
      <trkpt lat="45.40307" lon="5.90936">
        <ele>1496.91</ele>
        <time>2015-03-07T11:12:14Z</time>
      </trkpt>
      <trkpt lat="45.40312" lon="5.90936">
        <ele>1496.91</ele>
        <time>2015-03-07T11:12:17Z</time>
      </trkpt>
      <trkpt lat="45.40322" lon="5.90947">
        <ele>1496.43</ele>
        <time>2015-03-07T11:12:32Z</time>
      </trkpt>
      <trkpt lat="45.40329" lon="5.90952">
        <ele>1496.43</ele>
        <time>2015-03-07T11:12:42Z</time>
      </trkpt>
      <trkpt lat="45.40338" lon="5.90961">
        <ele>1496.91</ele>
        <time>2015-03-07T11:12:53Z</time>
      </trkpt>
      <trkpt lat="45.40346" lon="5.90961">
        <ele>1496.91</ele>
        <time>2015-03-07T11:12:59Z</time>
      </trkpt>
      <trkpt lat="45.40361" lon="5.90972">
        <ele>1495.47</ele>
        <time>2015-03-07T11:13:10Z</time>
      </trkpt>
      <trkpt lat="45.40372" lon="5.90982">
        <ele>1495.47</ele>
        <time>2015-03-07T11:13:21Z</time>
      </trkpt>
      <trkpt lat="45.40386" lon="5.90993">
        <ele>1496.91</ele>
        <time>2015-03-07T11:13:36Z</time>
      </trkpt>
      <trkpt lat="45.40393" lon="5.91">
        <ele>1497.87</ele>
        <time>2015-03-07T11:13:48Z</time>
      </trkpt>
      <trkpt lat="45.40413" lon="5.91017">
        <ele>1497.39</ele>
        <time>2015-03-07T11:14:03Z</time>
      </trkpt>
      <trkpt lat="45.4043" lon="5.91018">
        <ele>1494.51</ele>
        <time>2015-03-07T11:14:11Z</time>
      </trkpt>
      <trkpt lat="45.40446" lon="5.9102">
        <ele>1491.62</ele>
        <time>2015-03-07T11:14:16Z</time>
      </trkpt>
      <trkpt lat="45.40447" lon="5.9102">
        <ele>1490.18</ele>
        <time>2015-03-07T11:14:19Z</time>
      </trkpt>
      <trkpt lat="45.40449" lon="5.91021">
        <ele>1489.7</ele>
        <time>2015-03-07T11:14:21Z</time>
      </trkpt>
      <trkpt lat="45.4046" lon="5.91025">
        <ele>1488.26</ele>
        <time>2015-03-07T11:14:27Z</time>
      </trkpt>
      <trkpt lat="45.40476" lon="5.91036">
        <ele>1485.85</ele>
        <time>2015-03-07T11:14:40Z</time>
      </trkpt>
      <trkpt lat="45.4048" lon="5.91041">
        <ele>1485.37</ele>
        <time>2015-03-07T11:15:10Z</time>
      </trkpt>
      <trkpt lat="45.40504" lon="5.91044">
        <ele>1483.45</ele>
        <time>2015-03-07T11:15:30Z</time>
      </trkpt>
      <trkpt lat="45.40517" lon="5.9105">
        <ele>1481.05</ele>
        <time>2015-03-07T11:15:42Z</time>
      </trkpt>
      <trkpt lat="45.40529" lon="5.91053">
        <ele>1483.45</ele>
        <time>2015-03-07T11:15:58Z</time>
      </trkpt>
      <trkpt lat="45.40542" lon="5.91055">
        <ele>1483.45</ele>
        <time>2015-03-07T11:16:13Z</time>
      </trkpt>
      <trkpt lat="45.40547" lon="5.91058">
        <ele>1482.97</ele>
        <time>2015-03-07T11:16:22Z</time>
      </trkpt>
      <trkpt lat="45.4055" lon="5.91074">
        <ele>1479.61</ele>
        <time>2015-03-07T11:16:29Z</time>
      </trkpt>
      <trkpt lat="45.40552" lon="5.91073">
        <ele>1478.65</ele>
        <time>2015-03-07T11:16:32Z</time>
      </trkpt>
      <trkpt lat="45.40554" lon="5.91072">
        <ele>1478.16</ele>
        <time>2015-03-07T11:16:34Z</time>
      </trkpt>
      <trkpt lat="45.40556" lon="5.91065">
        <ele>1476.72</ele>
        <time>2015-03-07T11:16:38Z</time>
      </trkpt>
      <trkpt lat="45.40556" lon="5.91062">
        <ele>1474.32</ele>
        <time>2015-03-07T11:16:43Z</time>
      </trkpt>
      <trkpt lat="45.40564" lon="5.91063">
        <ele>1473.36</ele>
        <time>2015-03-07T11:16:47Z</time>
      </trkpt>
      <trkpt lat="45.40568" lon="5.91071">
        <ele>1470.47</ele>
        <time>2015-03-07T11:16:51Z</time>
      </trkpt>
      <trkpt lat="45.40575" lon="5.91083">
        <ele>1470.95</ele>
        <time>2015-03-07T11:17:03Z</time>
      </trkpt>
      <trkpt lat="45.40582" lon="5.91092">
        <ele>1471.44</ele>
        <time>2015-03-07T11:17:18Z</time>
      </trkpt>
      <trkpt lat="45.40587" lon="5.91093">
        <ele>1471.44</ele>
        <time>2015-03-07T11:17:23Z</time>
      </trkpt>
      <trkpt lat="45.40599" lon="5.91089">
        <ele>1471.92</ele>
        <time>2015-03-07T11:17:33Z</time>
      </trkpt>
      <trkpt lat="45.4061" lon="5.91087">
        <ele>1472.88</ele>
        <time>2015-03-07T11:17:43Z</time>
      </trkpt>
      <trkpt lat="45.40621" lon="5.91079">
        <ele>1471.92</ele>
        <time>2015-03-07T11:17:49Z</time>
      </trkpt>
      <trkpt lat="45.40625" lon="5.91072">
        <ele>1469.99</ele>
        <time>2015-03-07T11:17:59Z</time>
      </trkpt>
      <trkpt lat="45.40629" lon="5.91077">
        <ele>1469.51</ele>
        <time>2015-03-07T11:18:25Z</time>
      </trkpt>
      <trkpt lat="45.40629" lon="5.91085">
        <ele>1469.99</ele>
        <time>2015-03-07T11:18:33Z</time>
      </trkpt>
      <trkpt lat="45.4064" lon="5.91087">
        <ele>1473.36</ele>
        <time>2015-03-07T11:18:50Z</time>
      </trkpt>
      <trkpt lat="45.40642" lon="5.91086">
        <ele>1473.36</ele>
        <time>2015-03-07T11:18:52Z</time>
      </trkpt>
      <trkpt lat="45.40656" lon="5.91086">
        <ele>1476.72</ele>
        <time>2015-03-07T11:19:07Z</time>
      </trkpt>
      <trkpt lat="45.40659" lon="5.91089">
        <ele>1478.65</ele>
        <time>2015-03-07T11:19:15Z</time>
      </trkpt>
      <trkpt lat="45.40669" lon="5.91102">
        <ele>1481.05</ele>
        <time>2015-03-07T11:19:32Z</time>
      </trkpt>
      <trkpt lat="45.40672" lon="5.91119">
        <ele>1483.45</ele>
        <time>2015-03-07T11:19:46Z</time>
      </trkpt>
      <trkpt lat="45.40668" lon="5.91139">
        <ele>1484.41</ele>
        <time>2015-03-07T11:20:00Z</time>
      </trkpt>
      <trkpt lat="45.40667" lon="5.91161">
        <ele>1484.89</ele>
        <time>2015-03-07T11:20:14Z</time>
      </trkpt>
      <trkpt lat="45.40678" lon="5.91181">
        <ele>1485.37</ele>
        <time>2015-03-07T11:20:29Z</time>
      </trkpt>
      <trkpt lat="45.40689" lon="5.91203">
        <ele>1486.82</ele>
        <time>2015-03-07T11:20:45Z</time>
      </trkpt>
      <trkpt lat="45.40698" lon="5.91219">
        <ele>1487.78</ele>
        <time>2015-03-07T11:21:01Z</time>
      </trkpt>
      <trkpt lat="45.40712" lon="5.9124">
        <ele>1490.18</ele>
        <time>2015-03-07T11:21:25Z</time>
      </trkpt>
      <trkpt lat="45.40723" lon="5.91249">
        <ele>1493.06</ele>
        <time>2015-03-07T11:21:46Z</time>
      </trkpt>
      <trkpt lat="45.40723" lon="5.91253">
        <ele>1493.55</ele>
        <time>2015-03-07T11:21:50Z</time>
      </trkpt>
      <trkpt lat="45.40734" lon="5.91274">
        <ele>1494.03</ele>
        <time>2015-03-07T11:22:10Z</time>
      </trkpt>
      <trkpt lat="45.40745" lon="5.91295">
        <ele>1495.95</ele>
        <time>2015-03-07T11:22:33Z</time>
      </trkpt>
      <trkpt lat="45.40755" lon="5.91314">
        <ele>1498.35</ele>
        <time>2015-03-07T11:22:58Z</time>
      </trkpt>
      <trkpt lat="45.40761" lon="5.91325">
        <ele>1500.76</ele>
        <time>2015-03-07T11:23:18Z</time>
      </trkpt>
      <trkpt lat="45.40772" lon="5.91338">
        <ele>1502.68</ele>
        <time>2015-03-07T11:23:35Z</time>
      </trkpt>
      <trkpt lat="45.40784" lon="5.91353">
        <ele>1505.56</ele>
        <time>2015-03-07T11:23:53Z</time>
      </trkpt>
      <trkpt lat="45.40791" lon="5.91364">
        <ele>1507.48</ele>
        <time>2015-03-07T11:24:11Z</time>
      </trkpt>
      <trkpt lat="45.408" lon="5.91377">
        <ele>1509.89</ele>
        <time>2015-03-07T11:24:30Z</time>
      </trkpt>
      <trkpt lat="45.40808" lon="5.9139">
        <ele>1511.33</ele>
        <time>2015-03-07T11:24:49Z</time>
      </trkpt>
      <trkpt lat="45.40819" lon="5.91412">
        <ele>1514.21</ele>
        <time>2015-03-07T11:25:11Z</time>
      </trkpt>
      <trkpt lat="45.40822" lon="5.91424">
        <ele>1517.1</ele>
        <time>2015-03-07T11:25:29Z</time>
      </trkpt>
      <trkpt lat="45.40827" lon="5.9144">
        <ele>1519.02</ele>
        <time>2015-03-07T11:25:47Z</time>
      </trkpt>
      <trkpt lat="45.40837" lon="5.91445">
        <ele>1520.46</ele>
        <time>2015-03-07T11:26:02Z</time>
      </trkpt>
      <trkpt lat="45.40842" lon="5.91446">
        <ele>1521.9</ele>
        <time>2015-03-07T11:26:09Z</time>
      </trkpt>
      <trkpt lat="45.40854" lon="5.9146">
        <ele>1524.31</ele>
        <time>2015-03-07T11:26:24Z</time>
      </trkpt>
      <trkpt lat="45.40855" lon="5.91464">
        <ele>1524.79</ele>
        <time>2015-03-07T11:26:27Z</time>
      </trkpt>
      <trkpt lat="45.40856" lon="5.91467">
        <ele>1524.79</ele>
        <time>2015-03-07T11:26:29Z</time>
      </trkpt>
      <trkpt lat="45.40861" lon="5.91481">
        <ele>1525.75</ele>
        <time>2015-03-07T11:26:40Z</time>
      </trkpt>
      <trkpt lat="45.40862" lon="5.91483">
        <ele>1525.75</ele>
        <time>2015-03-07T11:26:42Z</time>
      </trkpt>
      <trkpt lat="45.40875" lon="5.91496">
        <ele>1527.19</ele>
        <time>2015-03-07T11:26:58Z</time>
      </trkpt>
      <trkpt lat="45.40885" lon="5.91505">
        <ele>1528.63</ele>
        <time>2015-03-07T11:27:08Z</time>
      </trkpt>
      <trkpt lat="45.40888" lon="5.91507">
        <ele>1528.63</ele>
        <time>2015-03-07T11:27:11Z</time>
      </trkpt>
      <trkpt lat="45.40895" lon="5.91508">
        <ele>1529.59</ele>
        <time>2015-03-07T11:27:18Z</time>
      </trkpt>
      <trkpt lat="45.40897" lon="5.91508">
        <ele>1529.59</ele>
        <time>2015-03-07T11:27:20Z</time>
      </trkpt>
      <trkpt lat="45.40899" lon="5.91509">
        <ele>1530.08</ele>
        <time>2015-03-07T11:27:23Z</time>
      </trkpt>
      <trkpt lat="45.40906" lon="5.91516">
        <ele>1532.96</ele>
        <time>2015-03-07T11:27:37Z</time>
      </trkpt>
      <trkpt lat="45.40911" lon="5.91533">
        <ele>1535.36</ele>
        <time>2015-03-07T11:27:52Z</time>
      </trkpt>
      <trkpt lat="45.40913" lon="5.91548">
        <ele>1536.8</ele>
        <time>2015-03-07T11:28:04Z</time>
      </trkpt>
      <trkpt lat="45.4092" lon="5.91565">
        <ele>1538.73</ele>
        <time>2015-03-07T11:28:17Z</time>
      </trkpt>
      <trkpt lat="45.40931" lon="5.91582">
        <ele>1540.65</ele>
        <time>2015-03-07T11:28:33Z</time>
      </trkpt>
      <trkpt lat="45.4094" lon="5.91591">
        <ele>1542.09</ele>
        <time>2015-03-07T11:28:47Z</time>
      </trkpt>
      <trkpt lat="45.40942" lon="5.916">
        <ele>1543.53</ele>
        <time>2015-03-07T11:28:56Z</time>
      </trkpt>
      <trkpt lat="45.4095" lon="5.91611">
        <ele>1545.46</ele>
        <time>2015-03-07T11:29:10Z</time>
      </trkpt>
      <trkpt lat="45.40958" lon="5.916">
        <ele>1546.9</ele>
        <time>2015-03-07T11:29:25Z</time>
      </trkpt>
      <trkpt lat="45.4096" lon="5.91596">
        <ele>1548.34</ele>
        <time>2015-03-07T11:29:31Z</time>
      </trkpt>
      <trkpt lat="45.40961" lon="5.9159">
        <ele>1548.82</ele>
        <time>2015-03-07T11:29:42Z</time>
      </trkpt>
      <trkpt lat="45.40962" lon="5.91598">
        <ele>1550.26</ele>
        <time>2015-03-07T11:30:04Z</time>
      </trkpt>
      <trkpt lat="45.40961" lon="5.91612">
        <ele>1553.15</ele>
        <time>2015-03-07T11:30:24Z</time>
      </trkpt>
      <trkpt lat="45.40959" lon="5.91615">
        <ele>1553.63</ele>
        <time>2015-03-07T11:30:27Z</time>
      </trkpt>
      <trkpt lat="45.40955" lon="5.91621">
        <ele>1554.11</ele>
        <time>2015-03-07T11:30:32Z</time>
      </trkpt>
      <trkpt lat="45.40953" lon="5.9163">
        <ele>1555.07</ele>
        <time>2015-03-07T11:30:38Z</time>
      </trkpt>
      <trkpt lat="45.40947" lon="5.91638">
        <ele>1556.99</ele>
        <time>2015-03-07T11:30:53Z</time>
      </trkpt>
      <trkpt lat="45.40952" lon="5.91658">
        <ele>1557.95</ele>
        <time>2015-03-07T11:31:07Z</time>
      </trkpt>
      <trkpt lat="45.40952" lon="5.91659">
        <ele>1557.95</ele>
        <time>2015-03-07T11:31:08Z</time>
      </trkpt>
      <trkpt lat="45.40959" lon="5.91678">
        <ele>1559.4</ele>
        <time>2015-03-07T11:31:25Z</time>
      </trkpt>
      <trkpt lat="45.40958" lon="5.9169">
        <ele>1562.28</ele>
        <time>2015-03-07T11:31:38Z</time>
      </trkpt>
      <trkpt lat="45.40964" lon="5.91696">
        <ele>1564.2</ele>
        <time>2015-03-07T11:31:48Z</time>
      </trkpt>
      <trkpt lat="45.4097" lon="5.91698">
        <ele>1567.57</ele>
        <time>2015-03-07T11:32:00Z</time>
      </trkpt>
      <trkpt lat="45.40982" lon="5.91702">
        <ele>1569.97</ele>
        <time>2015-03-07T11:32:20Z</time>
      </trkpt>
      <trkpt lat="45.40987" lon="5.91706">
        <ele>1570.93</ele>
        <time>2015-03-07T11:32:27Z</time>
      </trkpt>
      <trkpt lat="45.4099" lon="5.91713">
        <ele>1570.93</ele>
        <time>2015-03-07T11:32:35Z</time>
      </trkpt>
      <trkpt lat="45.40998" lon="5.9172">
        <ele>1570.45</ele>
        <time>2015-03-07T11:32:49Z</time>
      </trkpt>
      <trkpt lat="45.41" lon="5.91723">
        <ele>1571.89</ele>
        <time>2015-03-07T11:32:52Z</time>
      </trkpt>
      <trkpt lat="45.41013" lon="5.91734">
        <ele>1571.89</ele>
        <time>2015-03-07T11:33:09Z</time>
      </trkpt>
      <trkpt lat="45.41025" lon="5.91741">
        <ele>1574.3</ele>
        <time>2015-03-07T11:33:26Z</time>
      </trkpt>
      <trkpt lat="45.41039" lon="5.91751">
        <ele>1575.26</ele>
        <time>2015-03-07T11:33:43Z</time>
      </trkpt>
      <trkpt lat="45.41047" lon="5.91762">
        <ele>1575.74</ele>
        <time>2015-03-07T11:33:56Z</time>
      </trkpt>
      <trkpt lat="45.41052" lon="5.91766">
        <ele>1576.7</ele>
        <time>2015-03-07T11:34:03Z</time>
      </trkpt>
      <trkpt lat="45.41063" lon="5.9178">
        <ele>1578.14</ele>
        <time>2015-03-07T11:34:19Z</time>
      </trkpt>
      <trkpt lat="45.41071" lon="5.91797">
        <ele>1580.06</ele>
        <time>2015-03-07T11:34:34Z</time>
      </trkpt>
      <trkpt lat="45.41077" lon="5.91808">
        <ele>1580.54</ele>
        <time>2015-03-07T11:34:44Z</time>
      </trkpt>
      <trkpt lat="45.41089" lon="5.91821">
        <ele>1582.47</ele>
        <time>2015-03-07T11:35:00Z</time>
      </trkpt>
      <trkpt lat="45.41102" lon="5.91835">
        <ele>1583.43</ele>
        <time>2015-03-07T11:35:17Z</time>
      </trkpt>
      <trkpt lat="45.41104" lon="5.91836">
        <ele>1583.91</ele>
        <time>2015-03-07T11:35:21Z</time>
      </trkpt>
      <trkpt lat="45.41114" lon="5.91844">
        <ele>1584.39</ele>
        <time>2015-03-07T11:35:34Z</time>
      </trkpt>
      <trkpt lat="45.41125" lon="5.91858">
        <ele>1585.83</ele>
        <time>2015-03-07T11:35:49Z</time>
      </trkpt>
      <trkpt lat="45.41146" lon="5.91878">
        <ele>1588.72</ele>
        <time>2015-03-07T11:36:14Z</time>
      </trkpt>
      <trkpt lat="45.41161" lon="5.91894">
        <ele>1590.64</ele>
        <time>2015-03-07T11:36:33Z</time>
      </trkpt>
      <trkpt lat="45.41172" lon="5.91907">
        <ele>1593.04</ele>
        <time>2015-03-07T11:36:48Z</time>
      </trkpt>
      <trkpt lat="45.41176" lon="5.91911">
        <ele>1593.52</ele>
        <time>2015-03-07T11:36:53Z</time>
      </trkpt>
      <trkpt lat="45.41187" lon="5.91923">
        <ele>1596.41</ele>
        <time>2015-03-07T11:37:08Z</time>
      </trkpt>
      <trkpt lat="45.41194" lon="5.91934">
        <ele>1598.33</ele>
        <time>2015-03-07T11:37:24Z</time>
      </trkpt>
      <trkpt lat="45.412" lon="5.91944">
        <ele>1601.21</ele>
        <time>2015-03-07T11:37:37Z</time>
      </trkpt>
      <trkpt lat="45.41202" lon="5.91949">
        <ele>1601.69</ele>
        <time>2015-03-07T11:37:49Z</time>
      </trkpt>
      <trkpt lat="45.41205" lon="5.91962">
        <ele>1604.1</ele>
        <time>2015-03-07T11:38:00Z</time>
      </trkpt>
      <trkpt lat="45.4121" lon="5.91982">
        <ele>1606.5</ele>
        <time>2015-03-07T11:38:20Z</time>
      </trkpt>
      <trkpt lat="45.41214" lon="5.91995">
        <ele>1608.42</ele>
        <time>2015-03-07T11:38:32Z</time>
      </trkpt>
      <trkpt lat="45.41218" lon="5.92001">
        <ele>1610.35</ele>
        <time>2015-03-07T11:38:40Z</time>
      </trkpt>
      <trkpt lat="45.4122" lon="5.92006">
        <ele>1611.31</ele>
        <time>2015-03-07T11:38:54Z</time>
      </trkpt>
      <trkpt lat="45.41221" lon="5.92003">
        <ele>1611.79</ele>
        <time>2015-03-07T11:38:58Z</time>
      </trkpt>
      <trkpt lat="45.41225" lon="5.92">
        <ele>1613.23</ele>
        <time>2015-03-07T11:39:05Z</time>
      </trkpt>
      <trkpt lat="45.41229" lon="5.92006">
        <ele>1615.15</ele>
        <time>2015-03-07T11:39:14Z</time>
      </trkpt>
      <trkpt lat="45.41233" lon="5.92018">
        <ele>1618.04</ele>
        <time>2015-03-07T11:39:28Z</time>
      </trkpt>
      <trkpt lat="45.41235" lon="5.92018">
        <ele>1618.52</ele>
        <time>2015-03-07T11:39:34Z</time>
      </trkpt>
      <trkpt lat="45.41237" lon="5.92015">
        <ele>1619.96</ele>
        <time>2015-03-07T11:39:39Z</time>
      </trkpt>
      <trkpt lat="45.41241" lon="5.92022">
        <ele>1622.36</ele>
        <time>2015-03-07T11:39:50Z</time>
      </trkpt>
      <trkpt lat="45.41245" lon="5.92033">
        <ele>1625.25</ele>
        <time>2015-03-07T11:40:03Z</time>
      </trkpt>
      <trkpt lat="45.41246" lon="5.92033">
        <ele>1625.73</ele>
        <time>2015-03-07T11:40:15Z</time>
      </trkpt>
      <trkpt lat="45.41248" lon="5.9203">
        <ele>1625.73</ele>
        <time>2015-03-07T11:40:25Z</time>
      </trkpt>
      <trkpt lat="45.41254" lon="5.92028">
        <ele>1627.17</ele>
        <time>2015-03-07T11:40:34Z</time>
      </trkpt>
      <trkpt lat="45.41258" lon="5.92029">
        <ele>1628.61</ele>
        <time>2015-03-07T11:40:43Z</time>
      </trkpt>
      <trkpt lat="45.41262" lon="5.92041">
        <ele>1631.49</ele>
        <time>2015-03-07T11:40:57Z</time>
      </trkpt>
      <trkpt lat="45.41263" lon="5.92051">
        <ele>1633.42</ele>
        <time>2015-03-07T11:41:08Z</time>
      </trkpt>
      <trkpt lat="45.41269" lon="5.92059">
        <ele>1635.34</ele>
        <time>2015-03-07T11:41:18Z</time>
      </trkpt>
      <trkpt lat="45.41273" lon="5.92062">
        <ele>1637.26</ele>
        <time>2015-03-07T11:41:29Z</time>
      </trkpt>
      <trkpt lat="45.41274" lon="5.92059">
        <ele>1638.22</ele>
        <time>2015-03-07T11:41:36Z</time>
      </trkpt>
      <trkpt lat="45.41279" lon="5.92059">
        <ele>1641.11</ele>
        <time>2015-03-07T11:41:46Z</time>
      </trkpt>
      <trkpt lat="45.41282" lon="5.92068">
        <ele>1643.03</ele>
        <time>2015-03-07T11:41:58Z</time>
      </trkpt>
      <trkpt lat="45.41283" lon="5.92078">
        <ele>1644.47</ele>
        <time>2015-03-07T11:42:16Z</time>
      </trkpt>
      <trkpt lat="45.41286" lon="5.92087">
        <ele>1645.91</ele>
        <time>2015-03-07T11:42:30Z</time>
      </trkpt>
      <trkpt lat="45.4129" lon="5.92096">
        <ele>1647.84</ele>
        <time>2015-03-07T11:42:44Z</time>
      </trkpt>
      <trkpt lat="45.4129" lon="5.92103">
        <ele>1649.28</ele>
        <time>2015-03-07T11:43:03Z</time>
      </trkpt>
      <trkpt lat="45.41288" lon="5.92121">
        <ele>1652.64</ele>
        <time>2015-03-07T11:43:23Z</time>
      </trkpt>
      <trkpt lat="45.41286" lon="5.92137">
        <ele>1655.53</ele>
        <time>2015-03-07T11:43:41Z</time>
      </trkpt>
      <trkpt lat="45.41282" lon="5.9215">
        <ele>1658.89</ele>
        <time>2015-03-07T11:43:58Z</time>
      </trkpt>
      <trkpt lat="45.4128" lon="5.92165">
        <ele>1661.78</ele>
        <time>2015-03-07T11:44:16Z</time>
      </trkpt>
      <trkpt lat="45.4128" lon="5.92168">
        <ele>1662.26</ele>
        <time>2015-03-07T11:44:19Z</time>
      </trkpt>
      <trkpt lat="45.41281" lon="5.92177">
        <ele>1664.66</ele>
        <time>2015-03-07T11:44:30Z</time>
      </trkpt>
      <trkpt lat="45.41283" lon="5.92187">
        <ele>1667.06</ele>
        <time>2015-03-07T11:44:44Z</time>
      </trkpt>
      <trkpt lat="45.41283" lon="5.92191">
        <ele>1668.51</ele>
        <time>2015-03-07T11:44:49Z</time>
      </trkpt>
      <trkpt lat="45.41287" lon="5.92196">
        <ele>1670.91</ele>
        <time>2015-03-07T11:45:01Z</time>
      </trkpt>
      <trkpt lat="45.41288" lon="5.92197">
        <ele>1670.91</ele>
        <time>2015-03-07T11:45:02Z</time>
      </trkpt>
      <trkpt lat="45.41293" lon="5.92199">
        <ele>1672.35</ele>
        <time>2015-03-07T11:45:12Z</time>
      </trkpt>
      <trkpt lat="45.41298" lon="5.92199">
        <ele>1673.79</ele>
        <time>2015-03-07T11:45:21Z</time>
      </trkpt>
      <trkpt lat="45.41303" lon="5.92199">
        <ele>1675.72</ele>
        <time>2015-03-07T11:45:30Z</time>
      </trkpt>
      <trkpt lat="45.41308" lon="5.922">
        <ele>1677.16</ele>
        <time>2015-03-07T11:45:39Z</time>
      </trkpt>
      <trkpt lat="45.4131" lon="5.92201">
        <ele>1679.08</ele>
        <time>2015-03-07T11:45:48Z</time>
      </trkpt>
      <trkpt lat="45.41314" lon="5.92205">
        <ele>1681.48</ele>
        <time>2015-03-07T11:45:55Z</time>
      </trkpt>
      <trkpt lat="45.41322" lon="5.92208">
        <ele>1683.41</ele>
        <time>2015-03-07T11:46:05Z</time>
      </trkpt>
      <trkpt lat="45.4133" lon="5.92209">
        <ele>1684.85</ele>
        <time>2015-03-07T11:46:19Z</time>
      </trkpt>
      <trkpt lat="45.41339" lon="5.9221">
        <ele>1687.73</ele>
        <time>2015-03-07T11:46:33Z</time>
      </trkpt>
      <trkpt lat="45.41348" lon="5.92209">
        <ele>1689.17</ele>
        <time>2015-03-07T11:46:46Z</time>
      </trkpt>
      <trkpt lat="45.41358" lon="5.92206">
        <ele>1691.1</ele>
        <time>2015-03-07T11:46:59Z</time>
      </trkpt>
      <trkpt lat="45.41366" lon="5.92205">
        <ele>1693.02</ele>
        <time>2015-03-07T11:47:12Z</time>
      </trkpt>
      <trkpt lat="45.41373" lon="5.92201">
        <ele>1694.46</ele>
        <time>2015-03-07T11:47:23Z</time>
      </trkpt>
      <trkpt lat="45.41374" lon="5.92201">
        <ele>1694.46</ele>
        <time>2015-03-07T11:47:24Z</time>
      </trkpt>
      <trkpt lat="45.41379" lon="5.92196">
        <ele>1697.34</ele>
        <time>2015-03-07T11:47:35Z</time>
      </trkpt>
      <trkpt lat="45.41385" lon="5.92195">
        <ele>1698.79</ele>
        <time>2015-03-07T11:47:45Z</time>
      </trkpt>
      <trkpt lat="45.4139" lon="5.92194">
        <ele>1700.23</ele>
        <time>2015-03-07T11:47:54Z</time>
      </trkpt>
      <trkpt lat="45.41395" lon="5.92196">
        <ele>1702.63</ele>
        <time>2015-03-07T11:48:05Z</time>
      </trkpt>
      <trkpt lat="45.41396" lon="5.92197">
        <ele>1702.63</ele>
        <time>2015-03-07T11:48:07Z</time>
      </trkpt>
      <trkpt lat="45.41403" lon="5.92201">
        <ele>1705.04</ele>
        <time>2015-03-07T11:48:18Z</time>
      </trkpt>
      <trkpt lat="45.41408" lon="5.92203">
        <ele>1706.96</ele>
        <time>2015-03-07T11:48:28Z</time>
      </trkpt>
      <trkpt lat="45.41416" lon="5.92211">
        <ele>1709.84</ele>
        <time>2015-03-07T11:48:46Z</time>
      </trkpt>
      <trkpt lat="45.41418" lon="5.92217">
        <ele>1711.28</ele>
        <time>2015-03-07T11:48:56Z</time>
      </trkpt>
      <trkpt lat="45.41421" lon="5.92223">
        <ele>1713.21</ele>
        <time>2015-03-07T11:49:06Z</time>
      </trkpt>
      <trkpt lat="45.41427" lon="5.9223">
        <ele>1715.13</ele>
        <time>2015-03-07T11:49:18Z</time>
      </trkpt>
      <trkpt lat="45.41431" lon="5.92235">
        <ele>1716.57</ele>
        <time>2015-03-07T11:49:29Z</time>
      </trkpt>
      <trkpt lat="45.41434" lon="5.92238">
        <ele>1718.49</ele>
        <time>2015-03-07T11:49:38Z</time>
      </trkpt>
      <trkpt lat="45.4144" lon="5.9224">
        <ele>1720.9</ele>
        <time>2015-03-07T11:49:51Z</time>
      </trkpt>
      <trkpt lat="45.41447" lon="5.9224">
        <ele>1722.82</ele>
        <time>2015-03-07T11:50:03Z</time>
      </trkpt>
      <trkpt lat="45.41452" lon="5.92238">
        <ele>1724.26</ele>
        <time>2015-03-07T11:50:13Z</time>
      </trkpt>
      <trkpt lat="45.41456" lon="5.92234">
        <ele>1726.18</ele>
        <time>2015-03-07T11:50:22Z</time>
      </trkpt>
      <trkpt lat="45.41464" lon="5.92235">
        <ele>1728.11</ele>
        <time>2015-03-07T11:50:34Z</time>
      </trkpt>
      <trkpt lat="45.41471" lon="5.92244">
        <ele>1729.55</ele>
        <time>2015-03-07T11:50:46Z</time>
      </trkpt>
      <trkpt lat="45.41474" lon="5.92248">
        <ele>1731.95</ele>
        <time>2015-03-07T11:50:58Z</time>
      </trkpt>
      <trkpt lat="45.41479" lon="5.92246">
        <ele>1732.91</ele>
        <time>2015-03-07T11:51:06Z</time>
      </trkpt>
      <trkpt lat="45.41483" lon="5.92253">
        <ele>1735.8</ele>
        <time>2015-03-07T11:51:19Z</time>
      </trkpt>
      <trkpt lat="45.41487" lon="5.92249">
        <ele>1736.28</ele>
        <time>2015-03-07T11:51:32Z</time>
      </trkpt>
      <trkpt lat="45.41489" lon="5.92248">
        <ele>1738.2</ele>
        <time>2015-03-07T11:51:42Z</time>
      </trkpt>
      <trkpt lat="45.41491" lon="5.92248">
        <ele>1740.12</ele>
        <time>2015-03-07T11:51:53Z</time>
      </trkpt>
      <trkpt lat="45.41492" lon="5.92249">
        <ele>1740.6</ele>
        <time>2015-03-07T11:51:55Z</time>
      </trkpt>
      <trkpt lat="45.41494" lon="5.92257">
        <ele>1743.49</ele>
        <time>2015-03-07T11:52:06Z</time>
      </trkpt>
      <trkpt lat="45.41505" lon="5.9227">
        <ele>1746.37</ele>
        <time>2015-03-07T11:52:27Z</time>
      </trkpt>
      <trkpt lat="45.41507" lon="5.92272">
        <ele>1746.37</ele>
        <time>2015-03-07T11:52:31Z</time>
      </trkpt>
      <trkpt lat="45.41509" lon="5.92273">
        <ele>1746.37</ele>
        <time>2015-03-07T11:52:33Z</time>
      </trkpt>
      <trkpt lat="45.41517" lon="5.92276">
        <ele>1747.81</ele>
        <time>2015-03-07T11:52:44Z</time>
      </trkpt>
      <trkpt lat="45.41523" lon="5.92276">
        <ele>1749.74</ele>
        <time>2015-03-07T11:52:55Z</time>
      </trkpt>
      <trkpt lat="45.41528" lon="5.92277">
        <ele>1751.18</ele>
        <time>2015-03-07T11:53:06Z</time>
      </trkpt>
      <trkpt lat="45.41537" lon="5.9228">
        <ele>1751.66</ele>
        <time>2015-03-07T11:53:19Z</time>
      </trkpt>
      <trkpt lat="45.4155" lon="5.92286">
        <ele>1753.58</ele>
        <time>2015-03-07T11:53:37Z</time>
      </trkpt>
      <trkpt lat="45.41551" lon="5.92287">
        <ele>1754.54</ele>
        <time>2015-03-07T11:53:40Z</time>
      </trkpt>
      <trkpt lat="45.4156" lon="5.92292">
        <ele>1756.47</ele>
        <time>2015-03-07T11:53:52Z</time>
      </trkpt>
      <trkpt lat="45.41566" lon="5.92295">
        <ele>1758.39</ele>
        <time>2015-03-07T11:54:03Z</time>
      </trkpt>
      <trkpt lat="45.41572" lon="5.92298">
        <ele>1760.31</ele>
        <time>2015-03-07T11:54:13Z</time>
      </trkpt>
      <trkpt lat="45.41577" lon="5.923">
        <ele>1760.79</ele>
        <time>2015-03-07T11:54:26Z</time>
      </trkpt>
      <trkpt lat="45.41585" lon="5.92305">
        <ele>1762.71</ele>
        <time>2015-03-07T11:54:36Z</time>
      </trkpt>
      <trkpt lat="45.41594" lon="5.92314">
        <ele>1764.16</ele>
        <time>2015-03-07T11:54:49Z</time>
      </trkpt>
      <trkpt lat="45.41602" lon="5.92325">
        <ele>1765.12</ele>
        <time>2015-03-07T11:55:01Z</time>
      </trkpt>
      <trkpt lat="45.41607" lon="5.92335">
        <ele>1766.56</ele>
        <time>2015-03-07T11:55:13Z</time>
      </trkpt>
      <trkpt lat="45.41616" lon="5.92347">
        <ele>1768.48</ele>
        <time>2015-03-07T11:55:27Z</time>
      </trkpt>
      <trkpt lat="45.41622" lon="5.92359">
        <ele>1770.41</ele>
        <time>2015-03-07T11:55:40Z</time>
      </trkpt>
      <trkpt lat="45.41628" lon="5.92366">
        <ele>1772.81</ele>
        <time>2015-03-07T11:55:54Z</time>
      </trkpt>
      <trkpt lat="45.41631" lon="5.92375">
        <ele>1774.25</ele>
        <time>2015-03-07T11:56:08Z</time>
      </trkpt>
      <trkpt lat="45.41634" lon="5.92385">
        <ele>1775.21</ele>
        <time>2015-03-07T11:56:42Z</time>
      </trkpt>
      <trkpt lat="45.41639" lon="5.92397">
        <ele>1776.65</ele>
        <time>2015-03-07T11:56:56Z</time>
      </trkpt>
      <trkpt lat="45.41646" lon="5.92414">
        <ele>1780.02</ele>
        <time>2015-03-07T11:57:15Z</time>
      </trkpt>
      <trkpt lat="45.41651" lon="5.92428">
        <ele>1781.94</ele>
        <time>2015-03-07T11:57:31Z</time>
      </trkpt>
      <trkpt lat="45.4166" lon="5.92446">
        <ele>1783.86</ele>
        <time>2015-03-07T11:57:52Z</time>
      </trkpt>
      <trkpt lat="45.41665" lon="5.92461">
        <ele>1787.23</ele>
        <time>2015-03-07T11:58:09Z</time>
      </trkpt>
      <trkpt lat="45.41672" lon="5.92479">
        <ele>1789.63</ele>
        <time>2015-03-07T11:58:27Z</time>
      </trkpt>
      <trkpt lat="45.41679" lon="5.92505">
        <ele>1792.52</ele>
        <time>2015-03-07T11:58:52Z</time>
      </trkpt>
      <trkpt lat="45.41686" lon="5.92524">
        <ele>1795.88</ele>
        <time>2015-03-07T11:59:12Z</time>
      </trkpt>
      <trkpt lat="45.4169" lon="5.92541">
        <ele>1798.28</ele>
        <time>2015-03-07T11:59:29Z</time>
      </trkpt>
      <trkpt lat="45.41696" lon="5.92554">
        <ele>1800.21</ele>
        <time>2015-03-07T11:59:44Z</time>
      </trkpt>
      <trkpt lat="45.41702" lon="5.92566">
        <ele>1802.13</ele>
        <time>2015-03-07T11:59:59Z</time>
      </trkpt>
      <trkpt lat="45.4171" lon="5.9258">
        <ele>1805.97</ele>
        <time>2015-03-07T12:00:16Z</time>
      </trkpt>
      <trkpt lat="45.41716" lon="5.92591">
        <ele>1807.42</ele>
        <time>2015-03-07T12:00:28Z</time>
      </trkpt>
      <trkpt lat="45.41721" lon="5.92599">
        <ele>1808.38</ele>
        <time>2015-03-07T12:00:39Z</time>
      </trkpt>
      <trkpt lat="45.41725" lon="5.92604">
        <ele>1811.74</ele>
        <time>2015-03-07T12:00:48Z</time>
      </trkpt>
      <trkpt lat="45.41732" lon="5.92615">
        <ele>1811.26</ele>
        <time>2015-03-07T12:01:06Z</time>
      </trkpt>
      <trkpt lat="45.41734" lon="5.92619">
        <ele>1813.18</ele>
        <time>2015-03-07T12:01:10Z</time>
      </trkpt>
      <trkpt lat="45.41739" lon="5.92631">
        <ele>1815.11</ele>
        <time>2015-03-07T12:01:24Z</time>
      </trkpt>
      <trkpt lat="45.41741" lon="5.92635">
        <ele>1815.59</ele>
        <time>2015-03-07T12:01:27Z</time>
      </trkpt>
      <trkpt lat="45.41751" lon="5.92647">
        <ele>1817.99</ele>
        <time>2015-03-07T12:01:42Z</time>
      </trkpt>
      <trkpt lat="45.41758" lon="5.92655">
        <ele>1820.87</ele>
        <time>2015-03-07T12:01:55Z</time>
      </trkpt>
      <trkpt lat="45.41765" lon="5.92657">
        <ele>1821.35</ele>
        <time>2015-03-07T12:02:03Z</time>
      </trkpt>
      <trkpt lat="45.41773" lon="5.9266">
        <ele>1821.84</ele>
        <time>2015-03-07T12:02:12Z</time>
      </trkpt>
      <trkpt lat="45.41782" lon="5.92663">
        <ele>1819.43</ele>
        <time>2015-03-07T12:02:23Z</time>
      </trkpt>
      <trkpt lat="45.41781" lon="5.92663">
        <ele>1817.99</ele>
        <time>2015-03-07T12:02:25Z</time>
      </trkpt>
      <trkpt lat="45.41781" lon="5.92662">
        <ele>1820.39</ele>
        <time>2015-03-07T12:02:31Z</time>
      </trkpt>
      <trkpt lat="45.41786" lon="5.92663">
        <ele>1820.39</ele>
        <time>2015-03-07T12:02:48Z</time>
      </trkpt>
      <trkpt lat="45.41795" lon="5.92666">
        <ele>1818.95</ele>
        <time>2015-03-07T12:03:03Z</time>
      </trkpt>
      <trkpt lat="45.41795" lon="5.92667">
        <ele>1819.91</ele>
        <time>2015-03-07T12:03:27Z</time>
      </trkpt>
      <trkpt lat="45.41796" lon="5.92669">
        <ele>1818.47</ele>
        <time>2015-03-07T12:03:45Z</time>
      </trkpt>
      <trkpt lat="45.41796" lon="5.92667">
        <ele>1817.99</ele>
        <time>2015-03-07T12:04:08Z</time>
      </trkpt>
      <trkpt lat="45.41802" lon="5.92677">
        <ele>1821.35</ele>
        <time>2015-03-07T12:08:59Z</time>
      </trkpt>
      <trkpt lat="45.41803" lon="5.92674">
        <ele>1820.39</ele>
        <time>2015-03-07T12:09:07Z</time>
      </trkpt>
      <trkpt lat="45.418" lon="5.92671">
        <ele>1821.35</ele>
        <time>2015-03-07T12:09:56Z</time>
      </trkpt>
      <trkpt lat="45.41799" lon="5.92672">
        <ele>1821.35</ele>
        <time>2015-03-07T12:10:16Z</time>
      </trkpt>
      <trkpt lat="45.41798" lon="5.92671">
        <ele>1821.84</ele>
        <time>2015-03-07T12:10:54Z</time>
      </trkpt>
      <trkpt lat="45.41798" lon="5.92672">
        <ele>1821.35</ele>
        <time>2015-03-07T12:11:13Z</time>
      </trkpt>
      <trkpt lat="45.41799" lon="5.92675">
        <ele>1821.35</ele>
        <time>2015-03-07T12:11:41Z</time>
      </trkpt>
      <trkpt lat="45.41797" lon="5.92673">
        <ele>1822.32</ele>
        <time>2015-03-07T12:12:31Z</time>
      </trkpt>
      <trkpt lat="45.41799" lon="5.92672">
        <ele>1823.76</ele>
        <time>2015-03-07T12:12:50Z</time>
      </trkpt>
      <trkpt lat="45.41806" lon="5.92669">
        <ele>1824.24</ele>
        <time>2015-03-07T12:13:09Z</time>
      </trkpt>
      <trkpt lat="45.41819" lon="5.92678">
        <ele>1822.32</ele>
        <time>2015-03-07T12:13:19Z</time>
      </trkpt>
      <trkpt lat="45.41836" lon="5.9269">
        <ele>1822.32</ele>
        <time>2015-03-07T12:13:28Z</time>
      </trkpt>
      <trkpt lat="45.41847" lon="5.92698">
        <ele>1821.84</ele>
        <time>2015-03-07T12:13:36Z</time>
      </trkpt>
      <trkpt lat="45.41862" lon="5.92705">
        <ele>1820.87</ele>
        <time>2015-03-07T12:13:47Z</time>
      </trkpt>
      <trkpt lat="45.41878" lon="5.92712">
        <ele>1820.87</ele>
        <time>2015-03-07T12:13:58Z</time>
      </trkpt>
      <trkpt lat="45.41898" lon="5.92722">
        <ele>1819.91</ele>
        <time>2015-03-07T12:14:08Z</time>
      </trkpt>
      <trkpt lat="45.41915" lon="5.92726">
        <ele>1819.43</ele>
        <time>2015-03-07T12:14:17Z</time>
      </trkpt>
      <trkpt lat="45.41936" lon="5.9273">
        <ele>1818.95</ele>
        <time>2015-03-07T12:14:29Z</time>
      </trkpt>
      <trkpt lat="45.41961" lon="5.92749">
        <ele>1818.47</ele>
        <time>2015-03-07T12:14:40Z</time>
      </trkpt>
      <trkpt lat="45.41966" lon="5.92752">
        <ele>1817.99</ele>
        <time>2015-03-07T12:14:41Z</time>
      </trkpt>
      <trkpt lat="45.41983" lon="5.92759">
        <ele>1816.07</ele>
        <time>2015-03-07T12:14:44Z</time>
      </trkpt>
      <trkpt lat="45.42006" lon="5.92768">
        <ele>1812.7</ele>
        <time>2015-03-07T12:14:48Z</time>
      </trkpt>
      <trkpt lat="45.42017" lon="5.92769">
        <ele>1811.26</ele>
        <time>2015-03-07T12:14:51Z</time>
      </trkpt>
      <trkpt lat="45.42047" lon="5.9277">
        <ele>1808.86</ele>
        <time>2015-03-07T12:14:58Z</time>
      </trkpt>
      <trkpt lat="45.42066" lon="5.92749">
        <ele>1805.01</ele>
        <time>2015-03-07T12:15:02Z</time>
      </trkpt>
      <trkpt lat="45.42079" lon="5.92749">
        <ele>1800.69</ele>
        <time>2015-03-07T12:15:04Z</time>
      </trkpt>
      <trkpt lat="45.42082" lon="5.92741">
        <ele>1799.24</ele>
        <time>2015-03-07T12:15:05Z</time>
      </trkpt>
      <trkpt lat="45.42103" lon="5.92718">
        <ele>1790.11</ele>
        <time>2015-03-07T12:15:09Z</time>
      </trkpt>
      <trkpt lat="45.42118" lon="5.92715">
        <ele>1788.19</ele>
        <time>2015-03-07T12:15:11Z</time>
      </trkpt>
      <trkpt lat="45.42125" lon="5.92695">
        <ele>1783.38</ele>
        <time>2015-03-07T12:15:13Z</time>
      </trkpt>
      <trkpt lat="45.42132" lon="5.92687">
        <ele>1780.5</ele>
        <time>2015-03-07T12:15:14Z</time>
      </trkpt>
      <trkpt lat="45.42152" lon="5.92664">
        <ele>1773.77</ele>
        <time>2015-03-07T12:15:17Z</time>
      </trkpt>
      <trkpt lat="45.42167" lon="5.92653">
        <ele>1770.41</ele>
        <time>2015-03-07T12:15:20Z</time>
      </trkpt>
      <trkpt lat="45.42177" lon="5.92643">
        <ele>1768.48</ele>
        <time>2015-03-07T12:15:22Z</time>
      </trkpt>
      <trkpt lat="45.422" lon="5.92643">
        <ele>1764.16</ele>
        <time>2015-03-07T12:15:26Z</time>
      </trkpt>
      <trkpt lat="45.4221" lon="5.92634">
        <ele>1762.23</ele>
        <time>2015-03-07T12:15:29Z</time>
      </trkpt>
      <trkpt lat="45.42215" lon="5.92633">
        <ele>1761.27</ele>
        <time>2015-03-07T12:15:30Z</time>
      </trkpt>
      <trkpt lat="45.42231" lon="5.92629">
        <ele>1756.47</ele>
        <time>2015-03-07T12:15:33Z</time>
      </trkpt>
      <trkpt lat="45.42236" lon="5.92629">
        <ele>1754.54</ele>
        <time>2015-03-07T12:15:34Z</time>
      </trkpt>
      <trkpt lat="45.42243" lon="5.92626">
        <ele>1751.66</ele>
        <time>2015-03-07T12:15:36Z</time>
      </trkpt>
      <trkpt lat="45.42247" lon="5.92626">
        <ele>1750.22</ele>
        <time>2015-03-07T12:15:38Z</time>
      </trkpt>
      <trkpt lat="45.42256" lon="5.92627">
        <ele>1748.29</ele>
        <time>2015-03-07T12:15:46Z</time>
      </trkpt>
      <trkpt lat="45.42282" lon="5.92641">
        <ele>1745.89</ele>
        <time>2015-03-07T12:15:57Z</time>
      </trkpt>
      <trkpt lat="45.42293" lon="5.92647">
        <ele>1745.41</ele>
        <time>2015-03-07T12:16:00Z</time>
      </trkpt>
      <trkpt lat="45.42299" lon="5.92644">
        <ele>1743.01</ele>
        <time>2015-03-07T12:16:04Z</time>
      </trkpt>
      <trkpt lat="45.42308" lon="5.92643">
        <ele>1741.08</ele>
        <time>2015-03-07T12:16:09Z</time>
      </trkpt>
      <trkpt lat="45.4231" lon="5.92639">
        <ele>1740.12</ele>
        <time>2015-03-07T12:16:21Z</time>
      </trkpt>
      <trkpt lat="45.42312" lon="5.92638">
        <ele>1740.6</ele>
        <time>2015-03-07T12:16:52Z</time>
      </trkpt>
      <trkpt lat="45.42313" lon="5.92639">
        <ele>1740.12</ele>
        <time>2015-03-07T12:17:05Z</time>
      </trkpt>
      <trkpt lat="45.42322" lon="5.92656">
        <ele>1739.64</ele>
        <time>2015-03-07T12:17:17Z</time>
      </trkpt>
      <trkpt lat="45.4233" lon="5.92659">
        <ele>1739.16</ele>
        <time>2015-03-07T12:17:22Z</time>
      </trkpt>
      <trkpt lat="45.42333" lon="5.92655">
        <ele>1737.72</ele>
        <time>2015-03-07T12:17:34Z</time>
      </trkpt>
      <trkpt lat="45.42333" lon="5.92644">
        <ele>1735.32</ele>
        <time>2015-03-07T12:17:51Z</time>
      </trkpt>
      <trkpt lat="45.42337" lon="5.92642">
        <ele>1733.39</ele>
        <time>2015-03-07T12:17:56Z</time>
      </trkpt>
      <trkpt lat="45.42342" lon="5.92643">
        <ele>1732.91</ele>
        <time>2015-03-07T12:17:58Z</time>
      </trkpt>
      <trkpt lat="45.4235" lon="5.92638">
        <ele>1731.47</ele>
        <time>2015-03-07T12:18:01Z</time>
      </trkpt>
      <trkpt lat="45.42385" lon="5.92652">
        <ele>1728.11</ele>
        <time>2015-03-07T12:18:11Z</time>
      </trkpt>
      <trkpt lat="45.42401" lon="5.92657">
        <ele>1726.67</ele>
        <time>2015-03-07T12:18:14Z</time>
      </trkpt>
      <trkpt lat="45.42425" lon="5.92654">
        <ele>1722.82</ele>
        <time>2015-03-07T12:18:22Z</time>
      </trkpt>
      <trkpt lat="45.42443" lon="5.92642">
        <ele>1718.97</ele>
        <time>2015-03-07T12:18:28Z</time>
      </trkpt>
      <trkpt lat="45.42456" lon="5.92645">
        <ele>1715.61</ele>
        <time>2015-03-07T12:18:31Z</time>
      </trkpt>
      <trkpt lat="45.42461" lon="5.92643">
        <ele>1715.13</ele>
        <time>2015-03-07T12:18:33Z</time>
      </trkpt>
      <trkpt lat="45.42469" lon="5.92655">
        <ele>1711.28</ele>
        <time>2015-03-07T12:18:39Z</time>
      </trkpt>
      <trkpt lat="45.42474" lon="5.92657">
        <ele>1708.4</ele>
        <time>2015-03-07T12:18:48Z</time>
      </trkpt>
      <trkpt lat="45.42474" lon="5.92657">
        <ele>1707.92</ele>
        <time>2015-03-07T12:18:50Z</time>
      </trkpt>
      <trkpt lat="45.42488" lon="5.92631">
        <ele>1703.59</ele>
        <time>2015-03-07T12:18:56Z</time>
      </trkpt>
      <trkpt lat="45.42495" lon="5.92621">
        <ele>1700.23</ele>
        <time>2015-03-07T12:18:58Z</time>
      </trkpt>
      <trkpt lat="45.42498" lon="5.9262">
        <ele>1698.79</ele>
        <time>2015-03-07T12:18:59Z</time>
      </trkpt>
      <trkpt lat="45.42503" lon="5.92622">
        <ele>1697.34</ele>
        <time>2015-03-07T12:19:01Z</time>
      </trkpt>
      <trkpt lat="45.42505" lon="5.92624">
        <ele>1695.9</ele>
        <time>2015-03-07T12:19:04Z</time>
      </trkpt>
      <trkpt lat="45.42516" lon="5.92631">
        <ele>1695.9</ele>
        <time>2015-03-07T12:19:14Z</time>
      </trkpt>
      <trkpt lat="45.42529" lon="5.92642">
        <ele>1697.34</ele>
        <time>2015-03-07T12:19:38Z</time>
      </trkpt>
      <trkpt lat="45.42553" lon="5.92654">
        <ele>1695.42</ele>
        <time>2015-03-07T12:19:49Z</time>
      </trkpt>
      <trkpt lat="45.42559" lon="5.92658">
        <ele>1694.46</ele>
        <time>2015-03-07T12:19:54Z</time>
      </trkpt>
      <trkpt lat="45.42585" lon="5.92641">
        <ele>1692.54</ele>
        <time>2015-03-07T12:20:06Z</time>
      </trkpt>
      <trkpt lat="45.42603" lon="5.92654">
        <ele>1691.58</ele>
        <time>2015-03-07T12:20:10Z</time>
      </trkpt>
      <trkpt lat="45.42626" lon="5.92662">
        <ele>1688.21</ele>
        <time>2015-03-07T12:20:15Z</time>
      </trkpt>
      <trkpt lat="45.4264" lon="5.92665">
        <ele>1686.29</ele>
        <time>2015-03-07T12:20:18Z</time>
      </trkpt>
      <trkpt lat="45.42661" lon="5.92674">
        <ele>1684.37</ele>
        <time>2015-03-07T12:20:24Z</time>
      </trkpt>
      <trkpt lat="45.42682" lon="5.92681">
        <ele>1682.44</ele>
        <time>2015-03-07T12:20:35Z</time>
      </trkpt>
      <trkpt lat="45.42703" lon="5.92674">
        <ele>1681</ele>
        <time>2015-03-07T12:20:43Z</time>
      </trkpt>
      <trkpt lat="45.42723" lon="5.9268">
        <ele>1676.68</ele>
        <time>2015-03-07T12:20:47Z</time>
      </trkpt>
      <trkpt lat="45.42728" lon="5.9268">
        <ele>1675.72</ele>
        <time>2015-03-07T12:20:49Z</time>
      </trkpt>
      <trkpt lat="45.42733" lon="5.9268">
        <ele>1674.75</ele>
        <time>2015-03-07T12:21:01Z</time>
      </trkpt>
      <trkpt lat="45.42753" lon="5.92682">
        <ele>1675.23</ele>
        <time>2015-03-07T12:21:26Z</time>
      </trkpt>
      <trkpt lat="45.42771" lon="5.92694">
        <ele>1675.72</ele>
        <time>2015-03-07T12:21:44Z</time>
      </trkpt>
      <trkpt lat="45.42784" lon="5.92703">
        <ele>1674.75</ele>
        <time>2015-03-07T12:21:55Z</time>
      </trkpt>
      <trkpt lat="45.42798" lon="5.92712">
        <ele>1674.27</ele>
        <time>2015-03-07T12:21:59Z</time>
      </trkpt>
      <trkpt lat="45.42822" lon="5.92722">
        <ele>1671.87</ele>
        <time>2015-03-07T12:22:05Z</time>
      </trkpt>
      <trkpt lat="45.42838" lon="5.92721">
        <ele>1668.99</ele>
        <time>2015-03-07T12:22:10Z</time>
      </trkpt>
      <trkpt lat="45.4285" lon="5.92727">
        <ele>1668.02</ele>
        <time>2015-03-07T12:22:21Z</time>
      </trkpt>
      <trkpt lat="45.42852" lon="5.92727">
        <ele>1668.51</ele>
        <time>2015-03-07T12:22:23Z</time>
      </trkpt>
      <trkpt lat="45.42857" lon="5.92728">
        <ele>1668.51</ele>
        <time>2015-03-07T12:22:26Z</time>
      </trkpt>
      <trkpt lat="45.42868" lon="5.92729">
        <ele>1668.99</ele>
        <time>2015-03-07T12:22:35Z</time>
      </trkpt>
      <trkpt lat="45.42875" lon="5.92728">
        <ele>1668.99</ele>
        <time>2015-03-07T12:22:48Z</time>
      </trkpt>
      <trkpt lat="45.42883" lon="5.9273">
        <ele>1669.47</ele>
        <time>2015-03-07T12:23:00Z</time>
      </trkpt>
      <trkpt lat="45.42894" lon="5.92737">
        <ele>1669.95</ele>
        <time>2015-03-07T12:23:18Z</time>
      </trkpt>
      <trkpt lat="45.42919" lon="5.92749">
        <ele>1668.02</ele>
        <time>2015-03-07T12:23:32Z</time>
      </trkpt>
      <trkpt lat="45.42932" lon="5.92754">
        <ele>1667.06</ele>
        <time>2015-03-07T12:23:40Z</time>
      </trkpt>
      <trkpt lat="45.42932" lon="5.92755">
        <ele>1668.02</ele>
        <time>2015-03-07T12:25:44Z</time>
      </trkpt>
      <trkpt lat="45.42943" lon="5.92765">
        <ele>1667.06</ele>
        <time>2015-03-07T12:25:48Z</time>
      </trkpt>
      <trkpt lat="45.42947" lon="5.92753">
        <ele>1665.62</ele>
        <time>2015-03-07T12:25:58Z</time>
      </trkpt>
      <trkpt lat="45.42952" lon="5.9274">
        <ele>1662.26</ele>
        <time>2015-03-07T12:26:01Z</time>
      </trkpt>
      <trkpt lat="45.42957" lon="5.92733">
        <ele>1658.89</ele>
        <time>2015-03-07T12:26:03Z</time>
      </trkpt>
      <trkpt lat="45.42964" lon="5.92724">
        <ele>1657.93</ele>
        <time>2015-03-07T12:26:05Z</time>
      </trkpt>
      <trkpt lat="45.42973" lon="5.92715">
        <ele>1655.05</ele>
        <time>2015-03-07T12:26:08Z</time>
      </trkpt>
      <trkpt lat="45.42986" lon="5.92694">
        <ele>1650.24</ele>
        <time>2015-03-07T12:26:12Z</time>
      </trkpt>
      <trkpt lat="45.42997" lon="5.92694">
        <ele>1646.88</ele>
        <time>2015-03-07T12:26:14Z</time>
      </trkpt>
      <trkpt lat="45.43" lon="5.92695">
        <ele>1646.88</ele>
        <time>2015-03-07T12:26:15Z</time>
      </trkpt>
      <trkpt lat="45.43008" lon="5.92697">
        <ele>1644.47</ele>
        <time>2015-03-07T12:26:18Z</time>
      </trkpt>
      <trkpt lat="45.43028" lon="5.9269">
        <ele>1642.07</ele>
        <time>2015-03-07T12:26:24Z</time>
      </trkpt>
      <trkpt lat="45.43044" lon="5.92689">
        <ele>1640.15</ele>
        <time>2015-03-07T12:26:27Z</time>
      </trkpt>
      <trkpt lat="45.43063" lon="5.92689">
        <ele>1635.82</ele>
        <time>2015-03-07T12:26:32Z</time>
      </trkpt>
      <trkpt lat="45.4307" lon="5.92686">
        <ele>1635.34</ele>
        <time>2015-03-07T12:26:34Z</time>
      </trkpt>
      <trkpt lat="45.43072" lon="5.92686">
        <ele>1634.38</ele>
        <time>2015-03-07T12:26:36Z</time>
      </trkpt>
      <trkpt lat="45.43082" lon="5.92687">
        <ele>1633.42</ele>
        <time>2015-03-07T12:26:39Z</time>
      </trkpt>
      <trkpt lat="45.43091" lon="5.92686">
        <ele>1631.49</ele>
        <time>2015-03-07T12:26:41Z</time>
      </trkpt>
      <trkpt lat="45.43105" lon="5.9269">
        <ele>1630.05</ele>
        <time>2015-03-07T12:26:44Z</time>
      </trkpt>
      <trkpt lat="45.43122" lon="5.92691">
        <ele>1627.17</ele>
        <time>2015-03-07T12:26:48Z</time>
      </trkpt>
      <trkpt lat="45.43138" lon="5.92691">
        <ele>1623.32</ele>
        <time>2015-03-07T12:26:52Z</time>
      </trkpt>
      <trkpt lat="45.43143" lon="5.92693">
        <ele>1622.84</ele>
        <time>2015-03-07T12:26:54Z</time>
      </trkpt>
      <trkpt lat="45.43165" lon="5.92704">
        <ele>1620.92</ele>
        <time>2015-03-07T12:27:07Z</time>
      </trkpt>
      <trkpt lat="45.43187" lon="5.92714">
        <ele>1619</ele>
        <time>2015-03-07T12:27:19Z</time>
      </trkpt>
      <trkpt lat="45.43195" lon="5.92713">
        <ele>1618.04</ele>
        <time>2015-03-07T12:27:22Z</time>
      </trkpt>
      <trkpt lat="45.43204" lon="5.92715">
        <ele>1616.59</ele>
        <time>2015-03-07T12:27:27Z</time>
      </trkpt>
      <trkpt lat="45.4321" lon="5.92712">
        <ele>1615.63</ele>
        <time>2015-03-07T12:27:42Z</time>
      </trkpt>
      <trkpt lat="45.43217" lon="5.92723">
        <ele>1615.15</ele>
        <time>2015-03-07T12:27:55Z</time>
      </trkpt>
      <trkpt lat="45.43227" lon="5.92728">
        <ele>1615.15</ele>
        <time>2015-03-07T12:28:05Z</time>
      </trkpt>
      <trkpt lat="45.43229" lon="5.92729">
        <ele>1613.71</ele>
        <time>2015-03-07T12:28:07Z</time>
      </trkpt>
      <trkpt lat="45.43237" lon="5.92727">
        <ele>1611.31</ele>
        <time>2015-03-07T12:28:12Z</time>
      </trkpt>
      <trkpt lat="45.43241" lon="5.92727">
        <ele>1610.35</ele>
        <time>2015-03-07T12:28:15Z</time>
      </trkpt>
      <trkpt lat="45.43247" lon="5.92736">
        <ele>1609.86</ele>
        <time>2015-03-07T12:28:20Z</time>
      </trkpt>
      <trkpt lat="45.4325" lon="5.92741">
        <ele>1609.86</ele>
        <time>2015-03-07T12:28:23Z</time>
      </trkpt>
      <trkpt lat="45.43258" lon="5.9274">
        <ele>1607.46</ele>
        <time>2015-03-07T12:28:31Z</time>
      </trkpt>
      <trkpt lat="45.43258" lon="5.9274">
        <ele>1607.46</ele>
        <time>2015-03-07T12:28:32Z</time>
      </trkpt>
      <trkpt lat="45.43263" lon="5.92734">
        <ele>1607.46</ele>
        <time>2015-03-07T12:28:36Z</time>
      </trkpt>
      <trkpt lat="45.43276" lon="5.92746">
        <ele>1606.5</ele>
        <time>2015-03-07T12:28:47Z</time>
      </trkpt>
      <trkpt lat="45.43282" lon="5.92747">
        <ele>1606.5</ele>
        <time>2015-03-07T12:28:54Z</time>
      </trkpt>
      <trkpt lat="45.43299" lon="5.9275">
        <ele>1606.5</ele>
        <time>2015-03-07T12:29:10Z</time>
      </trkpt>
      <trkpt lat="45.43328" lon="5.92754">
        <ele>1603.14</ele>
        <time>2015-03-07T12:29:17Z</time>
      </trkpt>
      <trkpt lat="45.43353" lon="5.92758">
        <ele>1601.21</ele>
        <time>2015-03-07T12:29:22Z</time>
      </trkpt>
      <trkpt lat="45.4337" lon="5.92765">
        <ele>1596.89</ele>
        <time>2015-03-07T12:29:27Z</time>
      </trkpt>
      <trkpt lat="45.43372" lon="5.92765">
        <ele>1596.89</ele>
        <time>2015-03-07T12:29:28Z</time>
      </trkpt>
      <trkpt lat="45.434" lon="5.92781">
        <ele>1594.48</ele>
        <time>2015-03-07T12:29:39Z</time>
      </trkpt>
      <trkpt lat="45.43403" lon="5.92781">
        <ele>1594</ele>
        <time>2015-03-07T12:29:40Z</time>
      </trkpt>
      <trkpt lat="45.43427" lon="5.92782">
        <ele>1592.56</ele>
        <time>2015-03-07T12:29:51Z</time>
      </trkpt>
      <trkpt lat="45.43459" lon="5.92789">
        <ele>1589.68</ele>
        <time>2015-03-07T12:30:03Z</time>
      </trkpt>
      <trkpt lat="45.43483" lon="5.92804">
        <ele>1588.72</ele>
        <time>2015-03-07T12:30:18Z</time>
      </trkpt>
      <trkpt lat="45.43514" lon="5.9282">
        <ele>1586.31</ele>
        <time>2015-03-07T12:30:32Z</time>
      </trkpt>
      <trkpt lat="45.43521" lon="5.92826">
        <ele>1586.31</ele>
        <time>2015-03-07T12:30:42Z</time>
      </trkpt>
      <trkpt lat="45.43546" lon="5.92816">
        <ele>1582.95</ele>
        <time>2015-03-07T12:31:02Z</time>
      </trkpt>
      <trkpt lat="45.43554" lon="5.92806">
        <ele>1579.1</ele>
        <time>2015-03-07T12:31:05Z</time>
      </trkpt>
      <trkpt lat="45.43556" lon="5.92798">
        <ele>1576.22</ele>
        <time>2015-03-07T12:31:07Z</time>
      </trkpt>
      <trkpt lat="45.43563" lon="5.92789">
        <ele>1574.78</ele>
        <time>2015-03-07T12:31:09Z</time>
      </trkpt>
      <trkpt lat="45.4357" lon="5.9278">
        <ele>1571.41</ele>
        <time>2015-03-07T12:31:11Z</time>
      </trkpt>
      <trkpt lat="45.43576" lon="5.92774">
        <ele>1569.01</ele>
        <time>2015-03-07T12:31:13Z</time>
      </trkpt>
      <trkpt lat="45.43582" lon="5.92775">
        <ele>1567.57</ele>
        <time>2015-03-07T12:31:16Z</time>
      </trkpt>
      <trkpt lat="45.43582" lon="5.92777">
        <ele>1568.05</ele>
        <time>2015-03-07T12:31:32Z</time>
      </trkpt>
      <trkpt lat="45.43584" lon="5.92781">
        <ele>1567.57</ele>
        <time>2015-03-07T12:31:34Z</time>
      </trkpt>
      <trkpt lat="45.43597" lon="5.92789">
        <ele>1565.16</ele>
        <time>2015-03-07T12:31:44Z</time>
      </trkpt>
      <trkpt lat="45.43606" lon="5.92777">
        <ele>1563.24</ele>
        <time>2015-03-07T12:31:57Z</time>
      </trkpt>
      <trkpt lat="45.43606" lon="5.92776">
        <ele>1563.24</ele>
        <time>2015-03-07T12:32:25Z</time>
      </trkpt>
      <trkpt lat="45.43602" lon="5.92773">
        <ele>1563.24</ele>
        <time>2015-03-07T12:33:38Z</time>
      </trkpt>
      <trkpt lat="45.43609" lon="5.92761">
        <ele>1561.32</ele>
        <time>2015-03-07T12:33:48Z</time>
      </trkpt>
      <trkpt lat="45.43614" lon="5.92761">
        <ele>1559.88</ele>
        <time>2015-03-07T12:33:50Z</time>
      </trkpt>
      <trkpt lat="45.43632" lon="5.92762">
        <ele>1557.95</ele>
        <time>2015-03-07T12:34:03Z</time>
      </trkpt>
      <trkpt lat="45.43646" lon="5.92752">
        <ele>1558.43</ele>
        <time>2015-03-07T12:34:21Z</time>
      </trkpt>
      <trkpt lat="45.4365" lon="5.92743">
        <ele>1559.4</ele>
        <time>2015-03-07T12:34:34Z</time>
      </trkpt>
      <trkpt lat="45.43651" lon="5.92743">
        <ele>1559.4</ele>
        <time>2015-03-07T12:34:36Z</time>
      </trkpt>
      <trkpt lat="45.43656" lon="5.92737">
        <ele>1560.36</ele>
        <time>2015-03-07T12:34:46Z</time>
      </trkpt>
      <trkpt lat="45.43659" lon="5.92737">
        <ele>1560.84</ele>
        <time>2015-03-07T12:34:49Z</time>
      </trkpt>
      <trkpt lat="45.43662" lon="5.92736">
        <ele>1560.36</ele>
        <time>2015-03-07T12:34:51Z</time>
      </trkpt>
      <trkpt lat="45.43682" lon="5.92726">
        <ele>1559.88</ele>
        <time>2015-03-07T12:35:01Z</time>
      </trkpt>
      <trkpt lat="45.43707" lon="5.92679">
        <ele>1555.07</ele>
        <time>2015-03-07T12:35:07Z</time>
      </trkpt>
      <trkpt lat="45.43718" lon="5.92656">
        <ele>1551.22</ele>
        <time>2015-03-07T12:35:10Z</time>
      </trkpt>
      <trkpt lat="45.4372" lon="5.92652">
        <ele>1551.22</ele>
        <time>2015-03-07T12:35:11Z</time>
      </trkpt>
      <trkpt lat="45.43745" lon="5.92613">
        <ele>1548.34</ele>
        <time>2015-03-07T12:35:20Z</time>
      </trkpt>
      <trkpt lat="45.43752" lon="5.926">
        <ele>1546.9</ele>
        <time>2015-03-07T12:35:24Z</time>
      </trkpt>
      <trkpt lat="45.43754" lon="5.92596">
        <ele>1546.42</ele>
        <time>2015-03-07T12:35:27Z</time>
      </trkpt>
      <trkpt lat="45.43791" lon="5.92591">
        <ele>1544.01</ele>
        <time>2015-03-07T12:35:39Z</time>
      </trkpt>
      <trkpt lat="45.43804" lon="5.9259">
        <ele>1542.57</ele>
        <time>2015-03-07T12:35:42Z</time>
      </trkpt>
      <trkpt lat="45.43827" lon="5.92577">
        <ele>1540.17</ele>
        <time>2015-03-07T12:35:54Z</time>
      </trkpt>
      <trkpt lat="45.4384" lon="5.92571">
        <ele>1540.17</ele>
        <time>2015-03-07T12:36:00Z</time>
      </trkpt>
      <trkpt lat="45.4386" lon="5.92547">
        <ele>1536.8</ele>
        <time>2015-03-07T12:36:04Z</time>
      </trkpt>
      <trkpt lat="45.43864" lon="5.92534">
        <ele>1535.36</ele>
        <time>2015-03-07T12:36:07Z</time>
      </trkpt>
      <trkpt lat="45.43867" lon="5.92506">
        <ele>1534.88</ele>
        <time>2015-03-07T12:36:16Z</time>
      </trkpt>
      <trkpt lat="45.43867" lon="5.92502">
        <ele>1534.4</ele>
        <time>2015-03-07T12:36:17Z</time>
      </trkpt>
      <trkpt lat="45.43877" lon="5.92449">
        <ele>1532</ele>
        <time>2015-03-07T12:36:30Z</time>
      </trkpt>
      <trkpt lat="45.43888" lon="5.92422">
        <ele>1531.04</ele>
        <time>2015-03-07T12:36:40Z</time>
      </trkpt>
      <trkpt lat="45.43916" lon="5.92387">
        <ele>1527.67</ele>
        <time>2015-03-07T12:36:49Z</time>
      </trkpt>
      <trkpt lat="45.4392" lon="5.92386">
        <ele>1527.19</ele>
        <time>2015-03-07T12:36:50Z</time>
      </trkpt>
      <trkpt lat="45.43959" lon="5.92384">
        <ele>1524.31</ele>
        <time>2015-03-07T12:37:04Z</time>
      </trkpt>
      <trkpt lat="45.43965" lon="5.92385">
        <ele>1523.35</ele>
        <time>2015-03-07T12:37:13Z</time>
      </trkpt>
      <trkpt lat="45.43967" lon="5.92386">
        <ele>1521.42</ele>
        <time>2015-03-07T12:41:55Z</time>
      </trkpt>
      <trkpt lat="45.43972" lon="5.92393">
        <ele>1523.83</ele>
        <time>2015-03-07T12:42:56Z</time>
      </trkpt>
      <trkpt lat="45.43984" lon="5.92407">
        <ele>1525.75</ele>
        <time>2015-03-07T12:43:16Z</time>
      </trkpt>
      <trkpt lat="45.44001" lon="5.92425">
        <ele>1522.87</ele>
        <time>2015-03-07T12:43:29Z</time>
      </trkpt>
      <trkpt lat="45.44013" lon="5.92428">
        <ele>1521.9</ele>
        <time>2015-03-07T12:43:41Z</time>
      </trkpt>
      <trkpt lat="45.44022" lon="5.92426">
        <ele>1523.35</ele>
        <time>2015-03-07T12:43:51Z</time>
      </trkpt>
      <trkpt lat="45.44027" lon="5.92423">
        <ele>1524.79</ele>
        <time>2015-03-07T12:44:00Z</time>
      </trkpt>
      <trkpt lat="45.44031" lon="5.9242">
        <ele>1526.23</ele>
        <time>2015-03-07T12:44:11Z</time>
      </trkpt>
      <trkpt lat="45.44038" lon="5.92416">
        <ele>1527.67</ele>
        <time>2015-03-07T12:44:22Z</time>
      </trkpt>
      <trkpt lat="45.44038" lon="5.92414">
        <ele>1528.15</ele>
        <time>2015-03-07T12:44:25Z</time>
      </trkpt>
      <trkpt lat="45.44043" lon="5.92408">
        <ele>1530.08</ele>
        <time>2015-03-07T12:44:34Z</time>
      </trkpt>
      <trkpt lat="45.44045" lon="5.92408">
        <ele>1530.56</ele>
        <time>2015-03-07T12:44:38Z</time>
      </trkpt>
      <trkpt lat="45.44054" lon="5.92413">
        <ele>1532.96</ele>
        <time>2015-03-07T12:44:51Z</time>
      </trkpt>
      <trkpt lat="45.44061" lon="5.9242">
        <ele>1532.96</ele>
        <time>2015-03-07T12:45:03Z</time>
      </trkpt>
      <trkpt lat="45.44071" lon="5.92431">
        <ele>1532.96</ele>
        <time>2015-03-07T12:45:16Z</time>
      </trkpt>
      <trkpt lat="45.44083" lon="5.92445">
        <ele>1531.52</ele>
        <time>2015-03-07T12:45:28Z</time>
      </trkpt>
      <trkpt lat="45.44094" lon="5.92457">
        <ele>1531.52</ele>
        <time>2015-03-07T12:45:40Z</time>
      </trkpt>
      <trkpt lat="45.44104" lon="5.92466">
        <ele>1532.96</ele>
        <time>2015-03-07T12:45:51Z</time>
      </trkpt>
      <trkpt lat="45.44113" lon="5.92475">
        <ele>1533.44</ele>
        <time>2015-03-07T12:46:01Z</time>
      </trkpt>
      <trkpt lat="45.44123" lon="5.92489">
        <ele>1534.88</ele>
        <time>2015-03-07T12:46:19Z</time>
      </trkpt>
      <trkpt lat="45.44131" lon="5.92502">
        <ele>1538.25</ele>
        <time>2015-03-07T12:46:38Z</time>
      </trkpt>
      <trkpt lat="45.44135" lon="5.92504">
        <ele>1538.25</ele>
        <time>2015-03-07T12:46:44Z</time>
      </trkpt>
      <trkpt lat="45.44143" lon="5.92503">
        <ele>1539.21</ele>
        <time>2015-03-07T12:46:55Z</time>
      </trkpt>
      <trkpt lat="45.44148" lon="5.92499">
        <ele>1540.17</ele>
        <time>2015-03-07T12:47:05Z</time>
      </trkpt>
      <trkpt lat="45.44152" lon="5.92495">
        <ele>1541.61</ele>
        <time>2015-03-07T12:47:12Z</time>
      </trkpt>
      <trkpt lat="45.44162" lon="5.92488">
        <ele>1542.57</ele>
        <time>2015-03-07T12:47:26Z</time>
      </trkpt>
      <trkpt lat="45.44165" lon="5.92485">
        <ele>1543.05</ele>
        <time>2015-03-07T12:47:30Z</time>
      </trkpt>
      <trkpt lat="45.44167" lon="5.92484">
        <ele>1543.05</ele>
        <time>2015-03-07T12:47:32Z</time>
      </trkpt>
      <trkpt lat="45.44169" lon="5.92481">
        <ele>1544.01</ele>
        <time>2015-03-07T12:47:36Z</time>
      </trkpt>
      <trkpt lat="45.44176" lon="5.92479">
        <ele>1545.46</ele>
        <time>2015-03-07T12:47:45Z</time>
      </trkpt>
      <trkpt lat="45.44181" lon="5.92484">
        <ele>1546.42</ele>
        <time>2015-03-07T12:47:57Z</time>
      </trkpt>
      <trkpt lat="45.44179" lon="5.92483">
        <ele>1546.42</ele>
        <time>2015-03-07T12:48:14Z</time>
      </trkpt>
      <trkpt lat="45.44184" lon="5.92488">
        <ele>1546.9</ele>
        <time>2015-03-07T12:48:29Z</time>
      </trkpt>
      <trkpt lat="45.442" lon="5.9251">
        <ele>1544.5</ele>
        <time>2015-03-07T12:48:42Z</time>
      </trkpt>
      <trkpt lat="45.44217" lon="5.92533">
        <ele>1542.57</ele>
        <time>2015-03-07T12:48:55Z</time>
      </trkpt>
      <trkpt lat="45.44228" lon="5.92552">
        <ele>1541.61</ele>
        <time>2015-03-07T12:49:06Z</time>
      </trkpt>
      <trkpt lat="45.44238" lon="5.92568">
        <ele>1539.69</ele>
        <time>2015-03-07T12:49:19Z</time>
      </trkpt>
      <trkpt lat="45.44255" lon="5.92594">
        <ele>1540.17</ele>
        <time>2015-03-07T12:49:38Z</time>
      </trkpt>
      <trkpt lat="45.4427" lon="5.92617">
        <ele>1539.69</ele>
        <time>2015-03-07T12:49:52Z</time>
      </trkpt>
      <trkpt lat="45.44291" lon="5.92647">
        <ele>1538.73</ele>
        <time>2015-03-07T12:50:12Z</time>
      </trkpt>
      <trkpt lat="45.44301" lon="5.92668">
        <ele>1537.77</ele>
        <time>2015-03-07T12:50:24Z</time>
      </trkpt>
      <trkpt lat="45.44311" lon="5.9269">
        <ele>1537.29</ele>
        <time>2015-03-07T12:50:41Z</time>
      </trkpt>
      <trkpt lat="45.44321" lon="5.92703">
        <ele>1538.25</ele>
        <time>2015-03-07T12:50:54Z</time>
      </trkpt>
      <trkpt lat="45.44333" lon="5.92718">
        <ele>1539.69</ele>
        <time>2015-03-07T12:51:08Z</time>
      </trkpt>
      <trkpt lat="45.44346" lon="5.92729">
        <ele>1541.13</ele>
        <time>2015-03-07T12:51:22Z</time>
      </trkpt>
      <trkpt lat="45.44362" lon="5.92744">
        <ele>1542.57</ele>
        <time>2015-03-07T12:51:39Z</time>
      </trkpt>
      <trkpt lat="45.44379" lon="5.92763">
        <ele>1543.53</ele>
        <time>2015-03-07T12:51:57Z</time>
      </trkpt>
      <trkpt lat="45.4439" lon="5.92787">
        <ele>1544.01</ele>
        <time>2015-03-07T12:52:17Z</time>
      </trkpt>
      <trkpt lat="45.44404" lon="5.92807">
        <ele>1545.94</ele>
        <time>2015-03-07T12:52:36Z</time>
      </trkpt>
      <trkpt lat="45.44421" lon="5.92825">
        <ele>1546.42</ele>
        <time>2015-03-07T12:52:52Z</time>
      </trkpt>
      <trkpt lat="45.44433" lon="5.92842">
        <ele>1547.38</ele>
        <time>2015-03-07T12:53:08Z</time>
      </trkpt>
      <trkpt lat="45.44439" lon="5.92853">
        <ele>1547.86</ele>
        <time>2015-03-07T12:53:22Z</time>
      </trkpt>
      <trkpt lat="45.44466" lon="5.92872">
        <ele>1548.34</ele>
        <time>2015-03-07T12:53:48Z</time>
      </trkpt>
      <trkpt lat="45.4448" lon="5.92881">
        <ele>1547.38</ele>
        <time>2015-03-07T12:54:02Z</time>
      </trkpt>
      <trkpt lat="45.44491" lon="5.92877">
        <ele>1547.86</ele>
        <time>2015-03-07T12:54:16Z</time>
      </trkpt>
      <trkpt lat="45.44495" lon="5.92877">
        <ele>1548.82</ele>
        <time>2015-03-07T12:54:20Z</time>
      </trkpt>
      <trkpt lat="45.44505" lon="5.92877">
        <ele>1549.78</ele>
        <time>2015-03-07T12:54:29Z</time>
      </trkpt>
      <trkpt lat="45.44528" lon="5.9288">
        <ele>1547.38</ele>
        <time>2015-03-07T12:54:38Z</time>
      </trkpt>
      <trkpt lat="45.44544" lon="5.92879">
        <ele>1547.86</ele>
        <time>2015-03-07T12:54:52Z</time>
      </trkpt>
      <trkpt lat="45.44557" lon="5.92877">
        <ele>1547.86</ele>
        <time>2015-03-07T12:55:02Z</time>
      </trkpt>
      <trkpt lat="45.44569" lon="5.92878">
        <ele>1547.38</ele>
        <time>2015-03-07T12:55:12Z</time>
      </trkpt>
      <trkpt lat="45.44572" lon="5.92878">
        <ele>1547.38</ele>
        <time>2015-03-07T12:55:14Z</time>
      </trkpt>
      <trkpt lat="45.44585" lon="5.92886">
        <ele>1548.82</ele>
        <time>2015-03-07T12:55:30Z</time>
      </trkpt>
      <trkpt lat="45.44601" lon="5.92891">
        <ele>1550.26</ele>
        <time>2015-03-07T12:55:46Z</time>
      </trkpt>
      <trkpt lat="45.44613" lon="5.92893">
        <ele>1552.19</ele>
        <time>2015-03-07T12:55:58Z</time>
      </trkpt>
      <trkpt lat="45.44614" lon="5.92893">
        <ele>1552.19</ele>
        <time>2015-03-07T12:56:00Z</time>
      </trkpt>
      <trkpt lat="45.44621" lon="5.92894">
        <ele>1553.15</ele>
        <time>2015-03-07T12:56:06Z</time>
      </trkpt>
      <trkpt lat="45.44626" lon="5.92893">
        <ele>1553.63</ele>
        <time>2015-03-07T12:56:11Z</time>
      </trkpt>
      <trkpt lat="45.44636" lon="5.9289">
        <ele>1555.07</ele>
        <time>2015-03-07T12:56:22Z</time>
      </trkpt>
      <trkpt lat="45.44637" lon="5.92891">
        <ele>1555.55</ele>
        <time>2015-03-07T12:56:25Z</time>
      </trkpt>
      <trkpt lat="45.44641" lon="5.92891">
        <ele>1555.55</ele>
        <time>2015-03-07T12:56:28Z</time>
      </trkpt>
      <trkpt lat="45.44659" lon="5.92897">
        <ele>1556.99</ele>
        <time>2015-03-07T12:56:46Z</time>
      </trkpt>
      <trkpt lat="45.44663" lon="5.92895">
        <ele>1557.47</ele>
        <time>2015-03-07T12:56:55Z</time>
      </trkpt>
      <trkpt lat="45.44674" lon="5.92899">
        <ele>1559.4</ele>
        <time>2015-03-07T12:57:08Z</time>
      </trkpt>
      <trkpt lat="45.44683" lon="5.92901">
        <ele>1561.32</ele>
        <time>2015-03-07T12:57:24Z</time>
      </trkpt>
      <trkpt lat="45.44679" lon="5.9291">
        <ele>1562.28</ele>
        <time>2015-03-07T12:57:32Z</time>
      </trkpt>
      <trkpt lat="45.44681" lon="5.92912">
        <ele>1563.24</ele>
        <time>2015-03-07T12:57:49Z</time>
      </trkpt>
      <trkpt lat="45.44677" lon="5.92905">
        <ele>1565.64</ele>
        <time>2015-03-07T12:58:10Z</time>
      </trkpt>
      <trkpt lat="45.44678" lon="5.92901">
        <ele>1566.12</ele>
        <time>2015-03-07T12:58:14Z</time>
      </trkpt>
      <trkpt lat="45.44681" lon="5.929">
        <ele>1566.61</ele>
        <time>2015-03-07T12:58:35Z</time>
      </trkpt>
      <trkpt lat="45.44684" lon="5.92906">
        <ele>1567.57</ele>
        <time>2015-03-07T12:58:43Z</time>
      </trkpt>
      <trkpt lat="45.44695" lon="5.92906">
        <ele>1570.93</ele>
        <time>2015-03-07T12:59:06Z</time>
      </trkpt>
      <trkpt lat="45.44707" lon="5.92911">
        <ele>1573.33</ele>
        <time>2015-03-07T12:59:25Z</time>
      </trkpt>
      <trkpt lat="45.44719" lon="5.92909">
        <ele>1576.7</ele>
        <time>2015-03-07T12:59:44Z</time>
      </trkpt>
      <trkpt lat="45.44732" lon="5.92921">
        <ele>1578.62</ele>
        <time>2015-03-07T13:00:06Z</time>
      </trkpt>
      <trkpt lat="45.44734" lon="5.92918">
        <ele>1578.14</ele>
        <time>2015-03-07T13:00:29Z</time>
      </trkpt>
      <trkpt lat="45.44735" lon="5.92919">
        <ele>1576.7</ele>
        <time>2015-03-07T13:00:57Z</time>
      </trkpt>
      <trkpt lat="45.44742" lon="5.92923">
        <ele>1577.66</ele>
        <time>2015-03-07T13:01:21Z</time>
      </trkpt>
      <trkpt lat="45.44743" lon="5.92927">
        <ele>1578.14</ele>
        <time>2015-03-07T13:01:25Z</time>
      </trkpt>
      <trkpt lat="45.44758" lon="5.92934">
        <ele>1581.51</ele>
        <time>2015-03-07T13:01:41Z</time>
      </trkpt>
      <trkpt lat="45.44767" lon="5.92936">
        <ele>1583.43</ele>
        <time>2015-03-07T13:01:54Z</time>
      </trkpt>
      <trkpt lat="45.44784" lon="5.92939">
        <ele>1585.83</ele>
        <time>2015-03-07T13:02:12Z</time>
      </trkpt>
      <trkpt lat="45.44788" lon="5.92952">
        <ele>1585.83</ele>
        <time>2015-03-07T13:02:22Z</time>
      </trkpt>
      <trkpt lat="45.44803" lon="5.92969">
        <ele>1585.83</ele>
        <time>2015-03-07T13:02:38Z</time>
      </trkpt>
      <trkpt lat="45.4481" lon="5.92982">
        <ele>1585.35</ele>
        <time>2015-03-07T13:02:49Z</time>
      </trkpt>
      <trkpt lat="45.44815" lon="5.92991">
        <ele>1585.35</ele>
        <time>2015-03-07T13:03:04Z</time>
      </trkpt>
      <trkpt lat="45.44811" lon="5.92992">
        <ele>1584.39</ele>
        <time>2015-03-07T13:03:35Z</time>
      </trkpt>
      <trkpt lat="45.4481" lon="5.92996">
        <ele>1583.91</ele>
        <time>2015-03-07T13:04:02Z</time>
      </trkpt>
      <trkpt lat="45.44815" lon="5.93002">
        <ele>1583.43</ele>
        <time>2015-03-07T13:05:32Z</time>
      </trkpt>
      <trkpt lat="45.4482" lon="5.93021">
        <ele>1584.39</ele>
        <time>2015-03-07T13:05:59Z</time>
      </trkpt>
      <trkpt lat="45.44826" lon="5.93023">
        <ele>1586.31</ele>
        <time>2015-03-07T13:06:43Z</time>
      </trkpt>
      <trkpt lat="45.44828" lon="5.93015">
        <ele>1589.68</ele>
        <time>2015-03-07T13:07:23Z</time>
      </trkpt>
      <trkpt lat="45.44834" lon="5.93025">
        <ele>1592.56</ele>
        <time>2015-03-07T13:07:44Z</time>
      </trkpt>
      <trkpt lat="45.44831" lon="5.93022">
        <ele>1594</ele>
        <time>2015-03-07T13:08:07Z</time>
      </trkpt>
      <trkpt lat="45.44842" lon="5.93038">
        <ele>1596.41</ele>
        <time>2015-03-07T13:08:43Z</time>
      </trkpt>
      <trkpt lat="45.44847" lon="5.9304">
        <ele>1598.33</ele>
        <time>2015-03-07T13:09:05Z</time>
      </trkpt>
      <trkpt lat="45.44847" lon="5.93035">
        <ele>1601.21</ele>
        <time>2015-03-07T13:09:42Z</time>
      </trkpt>
      <trkpt lat="45.4485" lon="5.93036">
        <ele>1603.62</ele>
        <time>2015-03-07T13:10:37Z</time>
      </trkpt>
      <trkpt lat="45.44843" lon="5.93027">
        <ele>1605.06</ele>
        <time>2015-03-07T13:11:04Z</time>
      </trkpt>
      <trkpt lat="45.44839" lon="5.9302">
        <ele>1608.42</ele>
        <time>2015-03-07T13:11:24Z</time>
      </trkpt>
      <trkpt lat="45.44837" lon="5.9301">
        <ele>1611.31</ele>
        <time>2015-03-07T13:11:42Z</time>
      </trkpt>
      <trkpt lat="45.44842" lon="5.93011">
        <ele>1614.19</ele>
        <time>2015-03-07T13:12:09Z</time>
      </trkpt>
      <trkpt lat="45.44849" lon="5.93021">
        <ele>1615.15</ele>
        <time>2015-03-07T13:12:31Z</time>
      </trkpt>
      <trkpt lat="45.44854" lon="5.93018">
        <ele>1616.59</ele>
        <time>2015-03-07T13:12:53Z</time>
      </trkpt>
      <trkpt lat="45.44863" lon="5.93031">
        <ele>1617.56</ele>
        <time>2015-03-07T13:13:50Z</time>
      </trkpt>
      <trkpt lat="45.44874" lon="5.93026">
        <ele>1620.44</ele>
        <time>2015-03-07T13:14:16Z</time>
      </trkpt>
      <trkpt lat="45.44877" lon="5.93029">
        <ele>1620.92</ele>
        <time>2015-03-07T13:14:36Z</time>
      </trkpt>
      <trkpt lat="45.4488" lon="5.93032">
        <ele>1622.36</ele>
        <time>2015-03-07T13:15:02Z</time>
      </trkpt>
      <trkpt lat="45.44885" lon="5.93035">
        <ele>1625.25</ele>
        <time>2015-03-07T13:15:34Z</time>
      </trkpt>
      <trkpt lat="45.44894" lon="5.93038">
        <ele>1628.13</ele>
        <time>2015-03-07T13:15:58Z</time>
      </trkpt>
      <trkpt lat="45.44904" lon="5.93053">
        <ele>1628.13</ele>
        <time>2015-03-07T13:16:11Z</time>
      </trkpt>
      <trkpt lat="45.44907" lon="5.9306">
        <ele>1626.69</ele>
        <time>2015-03-07T13:16:23Z</time>
      </trkpt>
      <trkpt lat="45.44912" lon="5.93083">
        <ele>1623.8</ele>
        <time>2015-03-07T13:16:39Z</time>
      </trkpt>
      <trkpt lat="45.44907" lon="5.93087">
        <ele>1623.32</ele>
        <time>2015-03-07T13:16:47Z</time>
      </trkpt>
      <trkpt lat="45.44907" lon="5.9311">
        <ele>1622.36</ele>
        <time>2015-03-07T13:17:04Z</time>
      </trkpt>
      <trkpt lat="45.44899" lon="5.93137">
        <ele>1621.4</ele>
        <time>2015-03-07T13:17:24Z</time>
      </trkpt>
      <trkpt lat="45.44889" lon="5.93162">
        <ele>1618.52</ele>
        <time>2015-03-07T13:17:41Z</time>
      </trkpt>
      <trkpt lat="45.44882" lon="5.93203">
        <ele>1618.04</ele>
        <time>2015-03-07T13:17:56Z</time>
      </trkpt>
      <trkpt lat="45.44893" lon="5.93251">
        <ele>1618.04</ele>
        <time>2015-03-07T13:18:10Z</time>
      </trkpt>
      <trkpt lat="45.44891" lon="5.93284">
        <ele>1618.52</ele>
        <time>2015-03-07T13:18:21Z</time>
      </trkpt>
      <trkpt lat="45.44889" lon="5.93303">
        <ele>1619</ele>
        <time>2015-03-07T13:18:29Z</time>
      </trkpt>
      <trkpt lat="45.44895" lon="5.93237">
        <ele>1619.48</ele>
        <time>2015-03-07T13:18:41Z</time>
      </trkpt>
      <trkpt lat="45.44895" lon="5.93223">
        <ele>1621.4</ele>
        <time>2015-03-07T13:18:55Z</time>
      </trkpt>
      <trkpt lat="45.44883" lon="5.93226">
        <ele>1622.36</ele>
        <time>2015-03-07T13:19:09Z</time>
      </trkpt>
      <trkpt lat="45.44874" lon="5.93231">
        <ele>1622.36</ele>
        <time>2015-03-07T13:19:24Z</time>
      </trkpt>
      <trkpt lat="45.4486" lon="5.93242">
        <ele>1622.36</ele>
        <time>2015-03-07T13:19:39Z</time>
      </trkpt>
      <trkpt lat="45.44853" lon="5.93257">
        <ele>1620.44</ele>
        <time>2015-03-07T13:19:53Z</time>
      </trkpt>
      <trkpt lat="45.44854" lon="5.93259">
        <ele>1620.44</ele>
        <time>2015-03-07T13:19:59Z</time>
      </trkpt>
      <trkpt lat="45.44859" lon="5.93268">
        <ele>1621.88</ele>
        <time>2015-03-07T13:20:17Z</time>
      </trkpt>
      <trkpt lat="45.44859" lon="5.93265">
        <ele>1622.36</ele>
        <time>2015-03-07T13:20:36Z</time>
      </trkpt>
      <trkpt lat="45.44859" lon="5.93275">
        <ele>1624.28</ele>
        <time>2015-03-07T13:20:52Z</time>
      </trkpt>
      <trkpt lat="45.44856" lon="5.93288">
        <ele>1626.21</ele>
        <time>2015-03-07T13:21:17Z</time>
      </trkpt>
      <trkpt lat="45.44866" lon="5.93295">
        <ele>1628.61</ele>
        <time>2015-03-07T13:21:45Z</time>
      </trkpt>
      <trkpt lat="45.44884" lon="5.93306">
        <ele>1629.09</ele>
        <time>2015-03-07T13:22:04Z</time>
      </trkpt>
      <trkpt lat="45.44901" lon="5.93299">
        <ele>1631.49</ele>
        <time>2015-03-07T13:22:24Z</time>
      </trkpt>
      <trkpt lat="45.44906" lon="5.93284">
        <ele>1633.9</ele>
        <time>2015-03-07T13:22:47Z</time>
      </trkpt>
      <trkpt lat="45.4492" lon="5.93252">
        <ele>1637.26</ele>
        <time>2015-03-07T13:23:06Z</time>
      </trkpt>
      <trkpt lat="45.44931" lon="5.9324">
        <ele>1640.63</ele>
        <time>2015-03-07T13:23:27Z</time>
      </trkpt>
      <trkpt lat="45.44935" lon="5.93227">
        <ele>1643.51</ele>
        <time>2015-03-07T13:23:55Z</time>
      </trkpt>
      <trkpt lat="45.44931" lon="5.93231">
        <ele>1646.88</ele>
        <time>2015-03-07T13:24:26Z</time>
      </trkpt>
      <trkpt lat="45.44929" lon="5.93235">
        <ele>1647.84</ele>
        <time>2015-03-07T13:24:32Z</time>
      </trkpt>
      <trkpt lat="45.44922" lon="5.93259">
        <ele>1649.76</ele>
        <time>2015-03-07T13:24:55Z</time>
      </trkpt>
      <trkpt lat="45.44926" lon="5.93238">
        <ele>1651.68</ele>
        <time>2015-03-07T13:25:10Z</time>
      </trkpt>
      <trkpt lat="45.44933" lon="5.93222">
        <ele>1653.12</ele>
        <time>2015-03-07T13:25:21Z</time>
      </trkpt>
      <trkpt lat="45.44937" lon="5.93208">
        <ele>1655.05</ele>
        <time>2015-03-07T13:25:42Z</time>
      </trkpt>
      <trkpt lat="45.44947" lon="5.93223">
        <ele>1657.45</ele>
        <time>2015-03-07T13:26:02Z</time>
      </trkpt>
      <trkpt lat="45.44949" lon="5.93227">
        <ele>1657.45</ele>
        <time>2015-03-07T13:26:10Z</time>
      </trkpt>
      <trkpt lat="45.44954" lon="5.93213">
        <ele>1657.93</ele>
        <time>2015-03-07T13:26:28Z</time>
      </trkpt>
      <trkpt lat="45.44948" lon="5.93222">
        <ele>1660.33</ele>
        <time>2015-03-07T13:26:48Z</time>
      </trkpt>
      <trkpt lat="45.44951" lon="5.93223">
        <ele>1661.78</ele>
        <time>2015-03-07T13:27:03Z</time>
      </trkpt>
      <trkpt lat="45.44955" lon="5.93229">
        <ele>1664.66</ele>
        <time>2015-03-07T13:27:30Z</time>
      </trkpt>
      <trkpt lat="45.44959" lon="5.93231">
        <ele>1666.58</ele>
        <time>2015-03-07T13:27:55Z</time>
      </trkpt>
      <trkpt lat="45.44962" lon="5.93248">
        <ele>1668.02</ele>
        <time>2015-03-07T13:28:23Z</time>
      </trkpt>
      <trkpt lat="45.44968" lon="5.9325">
        <ele>1668.51</ele>
        <time>2015-03-07T13:28:45Z</time>
      </trkpt>
      <trkpt lat="45.44978" lon="5.93254">
        <ele>1671.87</ele>
        <time>2015-03-07T13:29:44Z</time>
      </trkpt>
      <trkpt lat="45.44981" lon="5.9325">
        <ele>1673.79</ele>
        <time>2015-03-07T13:30:10Z</time>
      </trkpt>
      <trkpt lat="45.44987" lon="5.93244">
        <ele>1675.23</ele>
        <time>2015-03-07T13:30:35Z</time>
      </trkpt>
      <trkpt lat="45.44984" lon="5.93239">
        <ele>1678.12</ele>
        <time>2015-03-07T13:31:24Z</time>
      </trkpt>
      <trkpt lat="45.44988" lon="5.93233">
        <ele>1681.48</ele>
        <time>2015-03-07T13:31:45Z</time>
      </trkpt>
      <trkpt lat="45.44988" lon="5.93225">
        <ele>1682.44</ele>
        <time>2015-03-07T13:31:59Z</time>
      </trkpt>
      <trkpt lat="45.44988" lon="5.93218">
        <ele>1682.44</ele>
        <time>2015-03-07T13:32:17Z</time>
      </trkpt>
      <trkpt lat="45.44993" lon="5.93213">
        <ele>1682.44</ele>
        <time>2015-03-07T13:32:27Z</time>
      </trkpt>
      <trkpt lat="45.45001" lon="5.93209">
        <ele>1681.96</ele>
        <time>2015-03-07T13:32:51Z</time>
      </trkpt>
      <trkpt lat="45.45008" lon="5.93196">
        <ele>1682.93</ele>
        <time>2015-03-07T13:33:03Z</time>
      </trkpt>
      <trkpt lat="45.44998" lon="5.93209">
        <ele>1683.89</ele>
        <time>2015-03-07T13:33:15Z</time>
      </trkpt>
      <trkpt lat="45.44994" lon="5.93213">
        <ele>1685.33</ele>
        <time>2015-03-07T13:33:35Z</time>
      </trkpt>
      <trkpt lat="45.44993" lon="5.93215">
        <ele>1686.77</ele>
        <time>2015-03-07T13:34:01Z</time>
      </trkpt>
      <trkpt lat="45.44995" lon="5.93209">
        <ele>1686.77</ele>
        <time>2015-03-07T13:35:10Z</time>
      </trkpt>
      <trkpt lat="45.44992" lon="5.93211">
        <ele>1687.25</ele>
        <time>2015-03-07T13:37:20Z</time>
      </trkpt>
      <trkpt lat="45.44994" lon="5.9321">
        <ele>1689.65</ele>
        <time>2015-03-07T13:37:50Z</time>
      </trkpt>
      <trkpt lat="45.44991" lon="5.93202">
        <ele>1692.54</ele>
        <time>2015-03-07T13:38:20Z</time>
      </trkpt>
      <trkpt lat="45.4499" lon="5.93204">
        <ele>1695.42</ele>
        <time>2015-03-07T13:39:20Z</time>
      </trkpt>
      <trkpt lat="45.44993" lon="5.93198">
        <ele>1697.83</ele>
        <time>2015-03-07T13:39:49Z</time>
      </trkpt>
      <trkpt lat="45.44995" lon="5.93191">
        <ele>1700.71</ele>
        <time>2015-03-07T13:40:20Z</time>
      </trkpt>
      <trkpt lat="45.44998" lon="5.93187">
        <ele>1702.63</ele>
        <time>2015-03-07T13:40:40Z</time>
      </trkpt>
      <trkpt lat="45.44998" lon="5.93189">
        <ele>1704.07</ele>
        <time>2015-03-07T13:41:01Z</time>
      </trkpt>
      <trkpt lat="45.45003" lon="5.93184">
        <ele>1706.96</ele>
        <time>2015-03-07T13:41:23Z</time>
      </trkpt>
      <trkpt lat="45.44996" lon="5.93193">
        <ele>1707.92</ele>
        <time>2015-03-07T13:42:19Z</time>
      </trkpt>
      <trkpt lat="45.45003" lon="5.93189">
        <ele>1707.92</ele>
        <time>2015-03-07T13:42:41Z</time>
      </trkpt>
      <trkpt lat="45.44999" lon="5.93193">
        <ele>1585.35</ele>
        <time>2015-03-07T13:42:53Z</time>
      </trkpt>
      <trkpt lat="45.44999" lon="5.93193">
        <ele>1588.72</ele>
        <time>2015-03-07T13:44:37Z</time>
      </trkpt>
      <trkpt lat="45.44999" lon="5.93193">
        <ele>1591.6</ele>
        <time>2015-03-07T13:44:58Z</time>
      </trkpt>
      <trkpt lat="45.44999" lon="5.93193">
        <ele>1594.96</ele>
        <time>2015-03-07T13:45:14Z</time>
      </trkpt>
      <trkpt lat="45.45027" lon="5.93134">
        <ele>1608.9</ele>
        <time>2015-03-07T13:47:08Z</time>
      </trkpt>
      <trkpt lat="45.45032" lon="5.93124">
        <ele>1613.23</ele>
        <time>2015-03-07T13:47:40Z</time>
      </trkpt>
      <trkpt lat="45.45031" lon="5.93123">
        <ele>1613.71</ele>
        <time>2015-03-07T13:47:41Z</time>
      </trkpt>
      <trkpt lat="45.45031" lon="5.93118">
        <ele>1616.59</ele>
        <time>2015-03-07T13:48:04Z</time>
      </trkpt>
      <trkpt lat="45.45032" lon="5.93117">
        <ele>1619.96</ele>
        <time>2015-03-07T13:48:16Z</time>
      </trkpt>
      <trkpt lat="45.45039" lon="5.93123">
        <ele>1622.84</ele>
        <time>2015-03-07T13:48:36Z</time>
      </trkpt>
      <trkpt lat="45.45046" lon="5.93122">
        <ele>1624.28</ele>
        <time>2015-03-07T13:48:52Z</time>
      </trkpt>
      <trkpt lat="45.45048" lon="5.93124">
        <ele>1624.77</ele>
        <time>2015-03-07T13:48:54Z</time>
      </trkpt>
      <trkpt lat="45.4505" lon="5.93124">
        <ele>1625.25</ele>
        <time>2015-03-07T13:48:56Z</time>
      </trkpt>
      <trkpt lat="45.4505" lon="5.93127">
        <ele>1625.25</ele>
        <time>2015-03-07T13:48:58Z</time>
      </trkpt>
      <trkpt lat="45.45057" lon="5.9313">
        <ele>1626.69</ele>
        <time>2015-03-07T13:49:07Z</time>
      </trkpt>
      <trkpt lat="45.45064" lon="5.93136">
        <ele>1627.65</ele>
        <time>2015-03-07T13:49:16Z</time>
      </trkpt>
      <trkpt lat="45.45066" lon="5.93151">
        <ele>1627.65</ele>
        <time>2015-03-07T13:49:28Z</time>
      </trkpt>
      <trkpt lat="45.45069" lon="5.93166">
        <ele>1628.13</ele>
        <time>2015-03-07T13:49:43Z</time>
      </trkpt>
      <trkpt lat="45.4507" lon="5.93171">
        <ele>1627.65</ele>
        <time>2015-03-07T13:50:07Z</time>
      </trkpt>
      <trkpt lat="45.45075" lon="5.93181">
        <ele>1631.01</ele>
        <time>2015-03-07T13:50:25Z</time>
      </trkpt>
      <trkpt lat="45.45079" lon="5.93187">
        <ele>1631.98</ele>
        <time>2015-03-07T13:50:40Z</time>
      </trkpt>
      <trkpt lat="45.45085" lon="5.93186">
        <ele>1635.34</ele>
        <time>2015-03-07T13:50:54Z</time>
      </trkpt>
      <trkpt lat="45.45097" lon="5.93185">
        <ele>1637.26</ele>
        <time>2015-03-07T13:51:10Z</time>
      </trkpt>
      <trkpt lat="45.4511" lon="5.93175">
        <ele>1639.19</ele>
        <time>2015-03-07T13:51:29Z</time>
      </trkpt>
      <trkpt lat="45.45119" lon="5.93172">
        <ele>1640.63</ele>
        <time>2015-03-07T13:51:41Z</time>
      </trkpt>
      <trkpt lat="45.45135" lon="5.93169">
        <ele>1638.22</ele>
        <time>2015-03-07T13:51:48Z</time>
      </trkpt>
      <trkpt lat="45.45142" lon="5.93165">
        <ele>1636.78</ele>
        <time>2015-03-07T13:51:51Z</time>
      </trkpt>
      <trkpt lat="45.45146" lon="5.93153">
        <ele>1637.74</ele>
        <time>2015-03-07T13:52:05Z</time>
      </trkpt>
      <trkpt lat="45.45156" lon="5.93145">
        <ele>1638.22</ele>
        <time>2015-03-07T13:52:12Z</time>
      </trkpt>
      <trkpt lat="45.45163" lon="5.93126">
        <ele>1636.3</ele>
        <time>2015-03-07T13:52:25Z</time>
      </trkpt>
      <trkpt lat="45.45169" lon="5.93109">
        <ele>1636.78</ele>
        <time>2015-03-07T13:52:39Z</time>
      </trkpt>
      <trkpt lat="45.45181" lon="5.93096">
        <ele>1637.26</ele>
        <time>2015-03-07T13:52:51Z</time>
      </trkpt>
      <trkpt lat="45.45188" lon="5.93082">
        <ele>1637.26</ele>
        <time>2015-03-07T13:53:01Z</time>
      </trkpt>
      <trkpt lat="45.45191" lon="5.93079">
        <ele>1638.7</ele>
        <time>2015-03-07T13:53:10Z</time>
      </trkpt>
      <trkpt lat="45.45186" lon="5.93076">
        <ele>1641.59</ele>
        <time>2015-03-07T13:53:21Z</time>
      </trkpt>
      <trkpt lat="45.45191" lon="5.93061">
        <ele>1642.07</ele>
        <time>2015-03-07T13:53:31Z</time>
      </trkpt>
      <trkpt lat="45.45186" lon="5.93054">
        <ele>1644.47</ele>
        <time>2015-03-07T13:53:48Z</time>
      </trkpt>
      <trkpt lat="45.45181" lon="5.93051">
        <ele>1647.36</ele>
        <time>2015-03-07T13:54:00Z</time>
      </trkpt>
      <trkpt lat="45.45179" lon="5.93054">
        <ele>1650.72</ele>
        <time>2015-03-07T13:54:12Z</time>
      </trkpt>
      <trkpt lat="45.45171" lon="5.93057">
        <ele>1653.6</ele>
        <time>2015-03-07T13:54:29Z</time>
      </trkpt>
      <trkpt lat="45.45163" lon="5.93056">
        <ele>1656.97</ele>
        <time>2015-03-07T13:54:44Z</time>
      </trkpt>
      <trkpt lat="45.45157" lon="5.93055">
        <ele>1659.85</ele>
        <time>2015-03-07T13:54:56Z</time>
      </trkpt>
      <trkpt lat="45.45149" lon="5.93045">
        <ele>1662.74</ele>
        <time>2015-03-07T13:55:12Z</time>
      </trkpt>
      <trkpt lat="45.4515" lon="5.93029">
        <ele>1665.14</ele>
        <time>2015-03-07T13:55:29Z</time>
      </trkpt>
      <trkpt lat="45.4515" lon="5.93016">
        <ele>1667.06</ele>
        <time>2015-03-07T13:55:45Z</time>
      </trkpt>
      <trkpt lat="45.45148" lon="5.93004">
        <ele>1669.95</ele>
        <time>2015-03-07T13:55:58Z</time>
      </trkpt>
      <trkpt lat="45.45144" lon="5.92985">
        <ele>1673.31</ele>
        <time>2015-03-07T13:56:16Z</time>
      </trkpt>
      <trkpt lat="45.4514" lon="5.92974">
        <ele>1676.2</ele>
        <time>2015-03-07T13:56:30Z</time>
      </trkpt>
      <trkpt lat="45.45141" lon="5.92964">
        <ele>1679.56</ele>
        <time>2015-03-07T13:56:43Z</time>
      </trkpt>
      <trkpt lat="45.45141" lon="5.92955">
        <ele>1682.44</ele>
        <time>2015-03-07T13:56:55Z</time>
      </trkpt>
      <trkpt lat="45.45139" lon="5.92939">
        <ele>1684.37</ele>
        <time>2015-03-07T13:57:09Z</time>
      </trkpt>
      <trkpt lat="45.45153" lon="5.92915">
        <ele>1687.25</ele>
        <time>2015-03-07T13:57:36Z</time>
      </trkpt>
      <trkpt lat="45.45168" lon="5.92896">
        <ele>1686.77</ele>
        <time>2015-03-07T13:57:53Z</time>
      </trkpt>
      <trkpt lat="45.45179" lon="5.92876">
        <ele>1686.77</ele>
        <time>2015-03-07T13:58:12Z</time>
      </trkpt>
      <trkpt lat="45.45194" lon="5.92858">
        <ele>1687.25</ele>
        <time>2015-03-07T13:58:28Z</time>
      </trkpt>
      <trkpt lat="45.45205" lon="5.92841">
        <ele>1688.21</ele>
        <time>2015-03-07T13:58:42Z</time>
      </trkpt>
      <trkpt lat="45.45209" lon="5.92833">
        <ele>1688.21</ele>
        <time>2015-03-07T13:58:46Z</time>
      </trkpt>
      <trkpt lat="45.45218" lon="5.9281">
        <ele>1684.37</ele>
        <time>2015-03-07T13:58:51Z</time>
      </trkpt>
      <trkpt lat="45.4522" lon="5.92806">
        <ele>1683.89</ele>
        <time>2015-03-07T13:58:53Z</time>
      </trkpt>
      <trkpt lat="45.4522" lon="5.92801">
        <ele>1684.37</ele>
        <time>2015-03-07T13:58:59Z</time>
      </trkpt>
      <trkpt lat="45.45223" lon="5.92782">
        <ele>1686.77</ele>
        <time>2015-03-07T13:59:15Z</time>
      </trkpt>
      <trkpt lat="45.45233" lon="5.92767">
        <ele>1688.21</ele>
        <time>2015-03-07T13:59:29Z</time>
      </trkpt>
      <trkpt lat="45.45239" lon="5.92752">
        <ele>1690.14</ele>
        <time>2015-03-07T13:59:43Z</time>
      </trkpt>
      <trkpt lat="45.45243" lon="5.92734">
        <ele>1690.14</ele>
        <time>2015-03-07T13:59:56Z</time>
      </trkpt>
      <trkpt lat="45.45243" lon="5.92729">
        <ele>1690.14</ele>
        <time>2015-03-07T13:59:59Z</time>
      </trkpt>
      <trkpt lat="45.45247" lon="5.92715">
        <ele>1691.58</ele>
        <time>2015-03-07T14:00:14Z</time>
      </trkpt>
      <trkpt lat="45.45252" lon="5.92705">
        <ele>1692.54</ele>
        <time>2015-03-07T14:00:25Z</time>
      </trkpt>
      <trkpt lat="45.45266" lon="5.9269">
        <ele>1693.5</ele>
        <time>2015-03-07T14:00:40Z</time>
      </trkpt>
      <trkpt lat="45.45269" lon="5.92674">
        <ele>1692.54</ele>
        <time>2015-03-07T14:00:50Z</time>
      </trkpt>
      <trkpt lat="45.45273" lon="5.92675">
        <ele>1691.58</ele>
        <time>2015-03-07T14:00:52Z</time>
      </trkpt>
      <trkpt lat="45.45281" lon="5.92664">
        <ele>1688.21</ele>
        <time>2015-03-07T14:00:56Z</time>
      </trkpt>
      <trkpt lat="45.45282" lon="5.92661">
        <ele>1687.25</ele>
        <time>2015-03-07T14:00:58Z</time>
      </trkpt>
      <trkpt lat="45.45292" lon="5.92646">
        <ele>1689.65</ele>
        <time>2015-03-07T14:01:14Z</time>
      </trkpt>
      <trkpt lat="45.45298" lon="5.92626">
        <ele>1691.58</ele>
        <time>2015-03-07T14:01:33Z</time>
      </trkpt>
      <trkpt lat="45.4531" lon="5.9261">
        <ele>1692.54</ele>
        <time>2015-03-07T14:01:50Z</time>
      </trkpt>
      <trkpt lat="45.4532" lon="5.92604">
        <ele>1694.46</ele>
        <time>2015-03-07T14:02:04Z</time>
      </trkpt>
      <trkpt lat="45.4533" lon="5.9259">
        <ele>1695.9</ele>
        <time>2015-03-07T14:02:20Z</time>
      </trkpt>
      <trkpt lat="45.4534" lon="5.92574">
        <ele>1698.31</ele>
        <time>2015-03-07T14:02:41Z</time>
      </trkpt>
      <trkpt lat="45.45346" lon="5.92571">
        <ele>1699.27</ele>
        <time>2015-03-07T14:02:49Z</time>
      </trkpt>
      <trkpt lat="45.45352" lon="5.92564">
        <ele>1699.75</ele>
        <time>2015-03-07T14:02:56Z</time>
      </trkpt>
      <trkpt lat="45.45363" lon="5.92543">
        <ele>1701.19</ele>
        <time>2015-03-07T14:03:14Z</time>
      </trkpt>
      <trkpt lat="45.45369" lon="5.92532">
        <ele>1701.67</ele>
        <time>2015-03-07T14:03:24Z</time>
      </trkpt>
      <trkpt lat="45.4538" lon="5.92516">
        <ele>1703.59</ele>
        <time>2015-03-07T14:03:44Z</time>
      </trkpt>
      <trkpt lat="45.45389" lon="5.92498">
        <ele>1706.96</ele>
        <time>2015-03-07T14:03:58Z</time>
      </trkpt>
      <trkpt lat="45.45397" lon="5.92492">
        <ele>1708.4</ele>
        <time>2015-03-07T14:04:09Z</time>
      </trkpt>
      <trkpt lat="45.45408" lon="5.92486">
        <ele>1711.76</ele>
        <time>2015-03-07T14:04:23Z</time>
      </trkpt>
      <trkpt lat="45.4542" lon="5.92478">
        <ele>1714.17</ele>
        <time>2015-03-07T14:04:38Z</time>
      </trkpt>
      <trkpt lat="45.45422" lon="5.9248">
        <ele>1714.65</ele>
        <time>2015-03-07T14:04:48Z</time>
      </trkpt>
      <trkpt lat="45.45423" lon="5.92483">
        <ele>1715.61</ele>
        <time>2015-03-07T14:04:51Z</time>
      </trkpt>
      <trkpt lat="45.45429" lon="5.92482">
        <ele>1718.01</ele>
        <time>2015-03-07T14:05:00Z</time>
      </trkpt>
      <trkpt lat="45.45432" lon="5.92489">
        <ele>1718.97</ele>
        <time>2015-03-07T14:05:14Z</time>
      </trkpt>
      <trkpt lat="45.45441" lon="5.92488">
        <ele>1721.38</ele>
        <time>2015-03-07T14:05:36Z</time>
      </trkpt>
      <trkpt lat="45.45446" lon="5.92485">
        <ele>1723.78</ele>
        <time>2015-03-07T14:06:00Z</time>
      </trkpt>
      <trkpt lat="45.45448" lon="5.92479">
        <ele>1727.15</ele>
        <time>2015-03-07T14:06:14Z</time>
      </trkpt>
      <trkpt lat="45.45452" lon="5.92471">
        <ele>1730.03</ele>
        <time>2015-03-07T14:06:28Z</time>
      </trkpt>
      <trkpt lat="45.45457" lon="5.92464">
        <ele>1732.91</ele>
        <time>2015-03-07T14:06:46Z</time>
      </trkpt>
      <trkpt lat="45.45458" lon="5.92455">
        <ele>1735.32</ele>
        <time>2015-03-07T14:07:01Z</time>
      </trkpt>
      <trkpt lat="45.45454" lon="5.92447">
        <ele>1737.72</ele>
        <time>2015-03-07T14:07:14Z</time>
      </trkpt>
      <trkpt lat="45.4545" lon="5.92438">
        <ele>1741.08</ele>
        <time>2015-03-07T14:07:28Z</time>
      </trkpt>
      <trkpt lat="45.45443" lon="5.92432">
        <ele>1743.49</ele>
        <time>2015-03-07T14:07:42Z</time>
      </trkpt>
      <trkpt lat="45.45443" lon="5.92425">
        <ele>1746.37</ele>
        <time>2015-03-07T14:07:55Z</time>
      </trkpt>
      <trkpt lat="45.45449" lon="5.92424">
        <ele>1749.26</ele>
        <time>2015-03-07T14:08:13Z</time>
      </trkpt>
      <trkpt lat="45.45456" lon="5.92414">
        <ele>1752.62</ele>
        <time>2015-03-07T14:08:29Z</time>
      </trkpt>
      <trkpt lat="45.45458" lon="5.92403">
        <ele>1754.06</ele>
        <time>2015-03-07T14:08:44Z</time>
      </trkpt>
      <trkpt lat="45.45453" lon="5.92393">
        <ele>1755.02</ele>
        <time>2015-03-07T14:09:02Z</time>
      </trkpt>
      <trkpt lat="45.45449" lon="5.92383">
        <ele>1754.54</ele>
        <time>2015-03-07T14:09:11Z</time>
      </trkpt>
      <trkpt lat="45.45444" lon="5.92375">
        <ele>1756.95</ele>
        <time>2015-03-07T14:09:25Z</time>
      </trkpt>
      <trkpt lat="45.45438" lon="5.92371">
        <ele>1759.35</ele>
        <time>2015-03-07T14:09:38Z</time>
      </trkpt>
      <trkpt lat="45.45438" lon="5.92361">
        <ele>1762.23</ele>
        <time>2015-03-07T14:09:52Z</time>
      </trkpt>
      <trkpt lat="45.45442" lon="5.92359">
        <ele>1765.12</ele>
        <time>2015-03-07T14:10:12Z</time>
      </trkpt>
      <trkpt lat="45.45449" lon="5.92352">
        <ele>1768.48</ele>
        <time>2015-03-07T14:11:01Z</time>
      </trkpt>
      <trkpt lat="45.45461" lon="5.92352">
        <ele>1771.37</ele>
        <time>2015-03-07T14:11:17Z</time>
      </trkpt>
      <trkpt lat="45.45468" lon="5.92351">
        <ele>1772.33</ele>
        <time>2015-03-07T14:11:28Z</time>
      </trkpt>
      <trkpt lat="45.4548" lon="5.92339">
        <ele>1774.73</ele>
        <time>2015-03-07T14:11:45Z</time>
      </trkpt>
      <trkpt lat="45.45481" lon="5.92327">
        <ele>1778.1</ele>
        <time>2015-03-07T14:11:58Z</time>
      </trkpt>
      <trkpt lat="45.45477" lon="5.9232">
        <ele>1780.5</ele>
        <time>2015-03-07T14:12:11Z</time>
      </trkpt>
      <trkpt lat="45.45474" lon="5.92311">
        <ele>1782.42</ele>
        <time>2015-03-07T14:12:24Z</time>
      </trkpt>
      <trkpt lat="45.45468" lon="5.92304">
        <ele>1785.31</ele>
        <time>2015-03-07T14:12:40Z</time>
      </trkpt>
      <trkpt lat="45.45475" lon="5.92304">
        <ele>1788.19</ele>
        <time>2015-03-07T14:12:59Z</time>
      </trkpt>
      <trkpt lat="45.4549" lon="5.92305">
        <ele>1791.07</ele>
        <time>2015-03-07T14:13:24Z</time>
      </trkpt>
      <trkpt lat="45.45502" lon="5.92307">
        <ele>1793.96</ele>
        <time>2015-03-07T14:13:41Z</time>
      </trkpt>
      <trkpt lat="45.45512" lon="5.92309">
        <ele>1797.32</ele>
        <time>2015-03-07T14:13:59Z</time>
      </trkpt>
      <trkpt lat="45.45522" lon="5.92312">
        <ele>1798.76</ele>
        <time>2015-03-07T14:14:16Z</time>
      </trkpt>
      <trkpt lat="45.45531" lon="5.92315">
        <ele>1801.65</ele>
        <time>2015-03-07T14:14:30Z</time>
      </trkpt>
      <trkpt lat="45.45542" lon="5.92319">
        <ele>1805.01</ele>
        <time>2015-03-07T14:14:46Z</time>
      </trkpt>
      <trkpt lat="45.45544" lon="5.92319">
        <ele>1805.01</ele>
        <time>2015-03-07T14:14:48Z</time>
      </trkpt>
      <trkpt lat="45.45554" lon="5.92321">
        <ele>1807.42</ele>
        <time>2015-03-07T14:15:01Z</time>
      </trkpt>
      <trkpt lat="45.45568" lon="5.92327">
        <ele>1808.38</ele>
        <time>2015-03-07T14:15:18Z</time>
      </trkpt>
      <trkpt lat="45.45575" lon="5.92326">
        <ele>1809.34</ele>
        <time>2015-03-07T14:15:27Z</time>
      </trkpt>
      <trkpt lat="45.45583" lon="5.92324">
        <ele>1810.78</ele>
        <time>2015-03-07T14:15:38Z</time>
      </trkpt>
      <trkpt lat="45.45587" lon="5.92324">
        <ele>1812.22</ele>
        <time>2015-03-07T14:15:43Z</time>
      </trkpt>
      <trkpt lat="45.45596" lon="5.92329">
        <ele>1813.18</ele>
        <time>2015-03-07T14:15:58Z</time>
      </trkpt>
      <trkpt lat="45.4561" lon="5.92341">
        <ele>1812.22</ele>
        <time>2015-03-07T14:16:15Z</time>
      </trkpt>
      <trkpt lat="45.45629" lon="5.92356">
        <ele>1810.78</ele>
        <time>2015-03-07T14:16:32Z</time>
      </trkpt>
      <trkpt lat="45.45645" lon="5.92366">
        <ele>1810.78</ele>
        <time>2015-03-07T14:16:49Z</time>
      </trkpt>
      <trkpt lat="45.4566" lon="5.9237">
        <ele>1810.3</ele>
        <time>2015-03-07T14:17:07Z</time>
      </trkpt>
      <trkpt lat="45.45668" lon="5.92369">
        <ele>1810.78</ele>
        <time>2015-03-07T14:17:25Z</time>
      </trkpt>
      <trkpt lat="45.45674" lon="5.9237">
        <ele>1813.18</ele>
        <time>2015-03-07T14:17:43Z</time>
      </trkpt>
      <trkpt lat="45.45681" lon="5.92367">
        <ele>1814.63</ele>
        <time>2015-03-07T14:17:57Z</time>
      </trkpt>
      <trkpt lat="45.45685" lon="5.92368">
        <ele>1817.51</ele>
        <time>2015-03-07T14:18:16Z</time>
      </trkpt>
      <trkpt lat="45.45699" lon="5.92362">
        <ele>1820.39</ele>
        <time>2015-03-07T14:18:30Z</time>
      </trkpt>
      <trkpt lat="45.45706" lon="5.92358">
        <ele>1822.8</ele>
        <time>2015-03-07T14:18:48Z</time>
      </trkpt>
      <trkpt lat="45.457" lon="5.92355">
        <ele>1824.24</ele>
        <time>2015-03-07T14:19:01Z</time>
      </trkpt>
      <trkpt lat="45.45695" lon="5.92351">
        <ele>1826.16</ele>
        <time>2015-03-07T14:19:12Z</time>
      </trkpt>
      <trkpt lat="45.45693" lon="5.92349">
        <ele>1826.64</ele>
        <time>2015-03-07T14:19:16Z</time>
      </trkpt>
      <trkpt lat="45.45685" lon="5.92345">
        <ele>1828.08</ele>
        <time>2015-03-07T14:19:29Z</time>
      </trkpt>
      <trkpt lat="45.45685" lon="5.92343">
        <ele>1830.97</ele>
        <time>2015-03-07T14:19:39Z</time>
      </trkpt>
      <trkpt lat="45.45685" lon="5.92347">
        <ele>1831.93</ele>
        <time>2015-03-07T14:20:50Z</time>
      </trkpt>
      <trkpt lat="45.45698" lon="5.92345">
        <ele>1834.81</ele>
        <time>2015-03-07T14:21:11Z</time>
      </trkpt>
      <trkpt lat="45.45713" lon="5.92341">
        <ele>1838.18</ele>
        <time>2015-03-07T14:21:27Z</time>
      </trkpt>
      <trkpt lat="45.45715" lon="5.92341">
        <ele>1839.62</ele>
        <time>2015-03-07T14:21:30Z</time>
      </trkpt>
      <trkpt lat="45.45727" lon="5.92338">
        <ele>1841.54</ele>
        <time>2015-03-07T14:21:52Z</time>
      </trkpt>
      <trkpt lat="45.4573" lon="5.9234">
        <ele>1842.02</ele>
        <time>2015-03-07T14:21:57Z</time>
      </trkpt>
      <trkpt lat="45.45738" lon="5.92352">
        <ele>1840.58</ele>
        <time>2015-03-07T14:22:02Z</time>
      </trkpt>
      <trkpt lat="45.45739" lon="5.92349">
        <ele>1841.54</ele>
        <time>2015-03-07T14:22:18Z</time>
      </trkpt>
      <trkpt lat="45.45747" lon="5.9235">
        <ele>1842.02</ele>
        <time>2015-03-07T14:22:33Z</time>
      </trkpt>
      <trkpt lat="45.45765" lon="5.92356">
        <ele>1843.47</ele>
        <time>2015-03-07T14:22:49Z</time>
      </trkpt>
      <trkpt lat="45.45782" lon="5.92359">
        <ele>1843.47</ele>
        <time>2015-03-07T14:23:06Z</time>
      </trkpt>
      <trkpt lat="45.4579" lon="5.92358">
        <ele>1843.47</ele>
        <time>2015-03-07T14:23:13Z</time>
      </trkpt>
      <trkpt lat="45.45807" lon="5.92364">
        <ele>1843.47</ele>
        <time>2015-03-07T14:23:28Z</time>
      </trkpt>
      <trkpt lat="45.45823" lon="5.92385">
        <ele>1844.91</ele>
        <time>2015-03-07T14:23:47Z</time>
      </trkpt>
      <trkpt lat="45.45841" lon="5.92395">
        <ele>1844.43</ele>
        <time>2015-03-07T14:24:00Z</time>
      </trkpt>
      <trkpt lat="45.45858" lon="5.92404">
        <ele>1845.87</ele>
        <time>2015-03-07T14:24:14Z</time>
      </trkpt>
      <trkpt lat="45.45871" lon="5.92417">
        <ele>1844.43</ele>
        <time>2015-03-07T14:24:30Z</time>
      </trkpt>
      <trkpt lat="45.45878" lon="5.92427">
        <ele>1847.31</ele>
        <time>2015-03-07T14:24:44Z</time>
      </trkpt>
      <trkpt lat="45.45894" lon="5.9243">
        <ele>1850.19</ele>
        <time>2015-03-07T14:25:06Z</time>
      </trkpt>
      <trkpt lat="45.45903" lon="5.92435">
        <ele>1852.6</ele>
        <time>2015-03-07T14:25:20Z</time>
      </trkpt>
      <trkpt lat="45.45917" lon="5.92446">
        <ele>1853.56</ele>
        <time>2015-03-07T14:25:35Z</time>
      </trkpt>
      <trkpt lat="45.45924" lon="5.92453">
        <ele>1856.44</ele>
        <time>2015-03-07T14:25:51Z</time>
      </trkpt>
      <trkpt lat="45.45933" lon="5.9246">
        <ele>1859.81</ele>
        <time>2015-03-07T14:26:07Z</time>
      </trkpt>
      <trkpt lat="45.45946" lon="5.92471">
        <ele>1860.77</ele>
        <time>2015-03-07T14:26:24Z</time>
      </trkpt>
      <trkpt lat="45.45949" lon="5.92473">
        <ele>1861.73</ele>
        <time>2015-03-07T14:26:27Z</time>
      </trkpt>
      <trkpt lat="45.4596" lon="5.92479">
        <ele>1858.37</ele>
        <time>2015-03-07T14:26:37Z</time>
      </trkpt>
      <trkpt lat="45.45976" lon="5.92473">
        <ele>1857.89</ele>
        <time>2015-03-07T14:26:48Z</time>
      </trkpt>
      <trkpt lat="45.45991" lon="5.92473">
        <ele>1855.96</ele>
        <time>2015-03-07T14:27:04Z</time>
      </trkpt>
      <trkpt lat="45.46006" lon="5.92467">
        <ele>1857.4</ele>
        <time>2015-03-07T14:27:21Z</time>
      </trkpt>
      <trkpt lat="45.46018" lon="5.92459">
        <ele>1860.29</ele>
        <time>2015-03-07T14:27:37Z</time>
      </trkpt>
      <trkpt lat="45.46027" lon="5.92454">
        <ele>1862.21</ele>
        <time>2015-03-07T14:27:47Z</time>
      </trkpt>
      <trkpt lat="45.4604" lon="5.92451">
        <ele>1863.17</ele>
        <time>2015-03-07T14:27:58Z</time>
      </trkpt>
      <trkpt lat="45.46047" lon="5.9245">
        <ele>1866.06</ele>
        <time>2015-03-07T14:28:06Z</time>
      </trkpt>
      <trkpt lat="45.4606" lon="5.92449">
        <ele>1868.46</ele>
        <time>2015-03-07T14:28:20Z</time>
      </trkpt>
      <trkpt lat="45.46066" lon="5.9244">
        <ele>1866.54</ele>
        <time>2015-03-07T14:28:27Z</time>
      </trkpt>
      <trkpt lat="45.46067" lon="5.92439">
        <ele>1866.06</ele>
        <time>2015-03-07T14:28:28Z</time>
      </trkpt>
      <trkpt lat="45.4608" lon="5.92439">
        <ele>1863.65</ele>
        <time>2015-03-07T14:28:42Z</time>
      </trkpt>
      <trkpt lat="45.46087" lon="5.92448">
        <ele>1867.02</ele>
        <time>2015-03-07T14:28:54Z</time>
      </trkpt>
      <trkpt lat="45.46102" lon="5.92451">
        <ele>1863.65</ele>
        <time>2015-03-07T14:29:01Z</time>
      </trkpt>
      <trkpt lat="45.46117" lon="5.92453">
        <ele>1862.69</ele>
        <time>2015-03-07T14:29:16Z</time>
      </trkpt>
      <trkpt lat="45.46134" lon="5.92458">
        <ele>1863.17</ele>
        <time>2015-03-07T14:29:32Z</time>
      </trkpt>
      <trkpt lat="45.46145" lon="5.92459">
        <ele>1865.09</ele>
        <time>2015-03-07T14:29:45Z</time>
      </trkpt>
      <trkpt lat="45.46153" lon="5.92458">
        <ele>1868.46</ele>
        <time>2015-03-07T14:29:54Z</time>
      </trkpt>
      <trkpt lat="45.46155" lon="5.92458">
        <ele>1868.94</ele>
        <time>2015-03-07T14:29:56Z</time>
      </trkpt>
      <trkpt lat="45.46167" lon="5.92463">
        <ele>1867.02</ele>
        <time>2015-03-07T14:30:03Z</time>
      </trkpt>
      <trkpt lat="45.46181" lon="5.92466">
        <ele>1865.58</ele>
        <time>2015-03-07T14:30:12Z</time>
      </trkpt>
      <trkpt lat="45.46197" lon="5.92475">
        <ele>1865.09</ele>
        <time>2015-03-07T14:30:22Z</time>
      </trkpt>
      <trkpt lat="45.46211" lon="5.92477">
        <ele>1866.54</ele>
        <time>2015-03-07T14:30:35Z</time>
      </trkpt>
      <trkpt lat="45.46223" lon="5.92476">
        <ele>1869.42</ele>
        <time>2015-03-07T14:30:48Z</time>
      </trkpt>
      <trkpt lat="45.46241" lon="5.92474">
        <ele>1866.06</ele>
        <time>2015-03-07T14:31:11Z</time>
      </trkpt>
      <trkpt lat="45.46253" lon="5.92478">
        <ele>1867.02</ele>
        <time>2015-03-07T14:31:30Z</time>
      </trkpt>
      <trkpt lat="45.4627" lon="5.92496">
        <ele>1868.46</ele>
        <time>2015-03-07T14:31:52Z</time>
      </trkpt>
      <trkpt lat="45.46271" lon="5.92496">
        <ele>1868.94</ele>
        <time>2015-03-07T14:31:53Z</time>
      </trkpt>
      <trkpt lat="45.46279" lon="5.92502">
        <ele>1867.02</ele>
        <time>2015-03-07T14:32:03Z</time>
      </trkpt>
      <trkpt lat="45.46298" lon="5.92509">
        <ele>1867.02</ele>
        <time>2015-03-07T14:32:22Z</time>
      </trkpt>
      <trkpt lat="45.46317" lon="5.92521">
        <ele>1867.98</ele>
        <time>2015-03-07T14:32:43Z</time>
      </trkpt>
      <trkpt lat="45.46319" lon="5.92523">
        <ele>1867.98</ele>
        <time>2015-03-07T14:32:45Z</time>
      </trkpt>
      <trkpt lat="45.46335" lon="5.92532">
        <ele>1868.94</ele>
        <time>2015-03-07T14:33:03Z</time>
      </trkpt>
      <trkpt lat="45.46343" lon="5.92543">
        <ele>1871.82</ele>
        <time>2015-03-07T14:33:17Z</time>
      </trkpt>
      <trkpt lat="45.46354" lon="5.92554">
        <ele>1875.19</ele>
        <time>2015-03-07T14:33:33Z</time>
      </trkpt>
      <trkpt lat="45.46355" lon="5.92555">
        <ele>1876.15</ele>
        <time>2015-03-07T14:33:35Z</time>
      </trkpt>
      <trkpt lat="45.46361" lon="5.9256">
        <ele>1880</ele>
        <time>2015-03-07T14:33:44Z</time>
      </trkpt>
      <trkpt lat="45.46361" lon="5.92561">
        <ele>1880</ele>
        <time>2015-03-07T14:33:45Z</time>
      </trkpt>
      <trkpt lat="45.46364" lon="5.92563">
        <ele>1878.55</ele>
        <time>2015-03-07T14:33:49Z</time>
      </trkpt>
      <trkpt lat="45.46378" lon="5.92575">
        <ele>1880.96</ele>
        <time>2015-03-07T14:34:12Z</time>
      </trkpt>
      <trkpt lat="45.46388" lon="5.92581">
        <ele>1884.32</ele>
        <time>2015-03-07T14:34:26Z</time>
      </trkpt>
      <trkpt lat="45.4639" lon="5.92582">
        <ele>1886.72</ele>
        <time>2015-03-07T14:34:30Z</time>
      </trkpt>
      <trkpt lat="45.46397" lon="5.92586">
        <ele>1887.69</ele>
        <time>2015-03-07T14:34:44Z</time>
      </trkpt>
      <trkpt lat="45.46404" lon="5.92587">
        <ele>1891.05</ele>
        <time>2015-03-07T14:35:07Z</time>
      </trkpt>
      <trkpt lat="45.46418" lon="5.92581">
        <ele>1892.01</ele>
        <time>2015-03-07T14:35:29Z</time>
      </trkpt>
      <trkpt lat="45.46428" lon="5.92574">
        <ele>1894.9</ele>
        <time>2015-03-07T14:35:43Z</time>
      </trkpt>
      <trkpt lat="45.46441" lon="5.92566">
        <ele>1897.3</ele>
        <time>2015-03-07T14:36:02Z</time>
      </trkpt>
      <trkpt lat="45.46451" lon="5.92561">
        <ele>1900.18</ele>
        <time>2015-03-07T14:36:15Z</time>
      </trkpt>
      <trkpt lat="45.46453" lon="5.9256">
        <ele>1902.11</ele>
        <time>2015-03-07T14:36:18Z</time>
      </trkpt>
      <trkpt lat="45.46462" lon="5.92552">
        <ele>1904.51</ele>
        <time>2015-03-07T14:36:31Z</time>
      </trkpt>
      <trkpt lat="45.46465" lon="5.92546">
        <ele>1904.03</ele>
        <time>2015-03-07T14:36:38Z</time>
      </trkpt>
      <trkpt lat="45.46466" lon="5.92538">
        <ele>1906.43</ele>
        <time>2015-03-07T14:36:45Z</time>
      </trkpt>
      <trkpt lat="45.46469" lon="5.92525">
        <ele>1908.35</ele>
        <time>2015-03-07T14:36:57Z</time>
      </trkpt>
      <trkpt lat="45.46469" lon="5.92514">
        <ele>1908.83</ele>
        <time>2015-03-07T14:37:17Z</time>
      </trkpt>
      <trkpt lat="45.46468" lon="5.92515">
        <ele>1910.76</ele>
        <time>2015-03-07T14:38:44Z</time>
      </trkpt>
      <trkpt lat="45.46469" lon="5.92514">
        <ele>1911.24</ele>
        <time>2015-03-07T14:39:22Z</time>
      </trkpt>
      <trkpt lat="45.4647" lon="5.92514">
        <ele>1911.72</ele>
        <time>2015-03-07T14:39:46Z</time>
      </trkpt>
      <trkpt lat="45.4647" lon="5.92513">
        <ele>1912.2</ele>
        <time>2015-03-07T14:40:35Z</time>
      </trkpt>
      <trkpt lat="45.46469" lon="5.92512">
        <ele>1911.24</ele>
        <time>2015-03-07T14:40:53Z</time>
      </trkpt>
      <trkpt lat="45.46467" lon="5.92512">
        <ele>1913.16</ele>
        <time>2015-03-07T14:41:30Z</time>
      </trkpt>
      <trkpt lat="45.46466" lon="5.92514">
        <ele>1909.32</ele>
        <time>2015-03-07T14:41:44Z</time>
      </trkpt>
      <trkpt lat="45.46469" lon="5.9251">
        <ele>1910.76</ele>
        <time>2015-03-07T14:42:07Z</time>
      </trkpt>
      <trkpt lat="45.46469" lon="5.92509">
        <ele>1909.32</ele>
        <time>2015-03-07T14:42:10Z</time>
      </trkpt>
      <trkpt lat="45.46468" lon="5.92508">
        <ele>1913.16</ele>
        <time>2015-03-07T14:42:17Z</time>
      </trkpt>
      <trkpt lat="45.46468" lon="5.92509">
        <ele>1914.12</ele>
        <time>2015-03-07T14:42:28Z</time>
      </trkpt>
      <trkpt lat="45.46469" lon="5.9251">
        <ele>1914.6</ele>
        <time>2015-03-07T14:42:55Z</time>
      </trkpt>
      <trkpt lat="45.46466" lon="5.92513">
        <ele>1915.08</ele>
        <time>2015-03-07T14:43:27Z</time>
      </trkpt>
      <trkpt lat="45.46466" lon="5.92513">
        <ele>1914.12</ele>
        <time>2015-03-07T14:44:10Z</time>
      </trkpt>
      <trkpt lat="45.46445" lon="5.92529">
        <ele>1910.76</ele>
        <time>2015-03-07T14:44:18Z</time>
      </trkpt>
      <trkpt lat="45.46435" lon="5.92544">
        <ele>1908.35</ele>
        <time>2015-03-07T14:44:21Z</time>
      </trkpt>
      <trkpt lat="45.46428" lon="5.92554">
        <ele>1904.99</ele>
        <time>2015-03-07T14:44:24Z</time>
      </trkpt>
      <trkpt lat="45.46418" lon="5.92567">
        <ele>1899.22</ele>
        <time>2015-03-07T14:44:28Z</time>
      </trkpt>
      <trkpt lat="45.46407" lon="5.92574">
        <ele>1896.82</ele>
        <time>2015-03-07T14:44:32Z</time>
      </trkpt>
      <trkpt lat="45.46393" lon="5.92579">
        <ele>1893.93</ele>
        <time>2015-03-07T14:44:38Z</time>
      </trkpt>
      <trkpt lat="45.46388" lon="5.92578">
        <ele>1892.49</ele>
        <time>2015-03-07T14:44:39Z</time>
      </trkpt>
      <trkpt lat="45.46369" lon="5.92567">
        <ele>1889.61</ele>
        <time>2015-03-07T14:44:42Z</time>
      </trkpt>
      <trkpt lat="45.46346" lon="5.9255">
        <ele>1885.76</ele>
        <time>2015-03-07T14:44:45Z</time>
      </trkpt>
      <trkpt lat="45.46329" lon="5.92537">
        <ele>1882.4</ele>
        <time>2015-03-07T14:44:47Z</time>
      </trkpt>
      <trkpt lat="45.46312" lon="5.92523">
        <ele>1879.03</ele>
        <time>2015-03-07T14:44:49Z</time>
      </trkpt>
      <trkpt lat="45.46305" lon="5.92518">
        <ele>1878.07</ele>
        <time>2015-03-07T14:44:50Z</time>
      </trkpt>
      <trkpt lat="45.46289" lon="5.9251">
        <ele>1877.11</ele>
        <time>2015-03-07T14:44:52Z</time>
      </trkpt>
      <trkpt lat="45.46274" lon="5.92502">
        <ele>1875.67</ele>
        <time>2015-03-07T14:44:54Z</time>
      </trkpt>
      <trkpt lat="45.46247" lon="5.9248">
        <ele>1875.19</ele>
        <time>2015-03-07T14:44:59Z</time>
      </trkpt>
      <trkpt lat="45.46207" lon="5.92485">
        <ele>1873.75</ele>
        <time>2015-03-07T14:45:07Z</time>
      </trkpt>
      <trkpt lat="45.46194" lon="5.92481">
        <ele>1874.71</ele>
        <time>2015-03-07T14:45:15Z</time>
      </trkpt>
      <trkpt lat="45.4618" lon="5.92473">
        <ele>1876.15</ele>
        <time>2015-03-07T14:45:45Z</time>
      </trkpt>
      <trkpt lat="45.46172" lon="5.92471">
        <ele>1876.63</ele>
        <time>2015-03-07T14:45:57Z</time>
      </trkpt>
      <trkpt lat="45.46168" lon="5.92468">
        <ele>1878.07</ele>
        <time>2015-03-07T14:46:07Z</time>
      </trkpt>
      <trkpt lat="45.46161" lon="5.92467">
        <ele>1880.48</ele>
        <time>2015-03-07T14:46:21Z</time>
      </trkpt>
      <trkpt lat="45.46156" lon="5.92464">
        <ele>1880.48</ele>
        <time>2015-03-07T14:46:34Z</time>
      </trkpt>
      <trkpt lat="45.46145" lon="5.92464">
        <ele>1880.96</ele>
        <time>2015-03-07T14:46:43Z</time>
      </trkpt>
      <trkpt lat="45.46112" lon="5.92458">
        <ele>1877.59</ele>
        <time>2015-03-07T14:46:50Z</time>
      </trkpt>
      <trkpt lat="45.46099" lon="5.92456">
        <ele>1877.11</ele>
        <time>2015-03-07T14:46:58Z</time>
      </trkpt>
      <trkpt lat="45.46093" lon="5.92457">
        <ele>1879.51</ele>
        <time>2015-03-07T14:47:30Z</time>
      </trkpt>
      <trkpt lat="45.46092" lon="5.92456">
        <ele>1881.92</ele>
        <time>2015-03-07T14:47:37Z</time>
      </trkpt>
      <trkpt lat="45.4609" lon="5.92453">
        <ele>1881.44</ele>
        <time>2015-03-07T14:47:39Z</time>
      </trkpt>
      <trkpt lat="45.46074" lon="5.92451">
        <ele>1880</ele>
        <time>2015-03-07T14:47:44Z</time>
      </trkpt>
      <trkpt lat="45.46069" lon="5.92451">
        <ele>1880</ele>
        <time>2015-03-07T14:47:48Z</time>
      </trkpt>
      <trkpt lat="45.46067" lon="5.92452">
        <ele>1880</ele>
        <time>2015-03-07T14:47:53Z</time>
      </trkpt>
      <trkpt lat="45.46065" lon="5.92452">
        <ele>1879.03</ele>
        <time>2015-03-07T14:47:56Z</time>
      </trkpt>
      <trkpt lat="45.46061" lon="5.92451">
        <ele>1881.92</ele>
        <time>2015-03-07T14:48:06Z</time>
      </trkpt>
      <trkpt lat="45.4606" lon="5.92451">
        <ele>1881.92</ele>
        <time>2015-03-07T14:48:07Z</time>
      </trkpt>
      <trkpt lat="45.46056" lon="5.92452">
        <ele>1883.36</ele>
        <time>2015-03-07T14:48:13Z</time>
      </trkpt>
      <trkpt lat="45.46026" lon="5.9246">
        <ele>1881.44</ele>
        <time>2015-03-07T14:48:22Z</time>
      </trkpt>
      <trkpt lat="45.45996" lon="5.92475">
        <ele>1878.55</ele>
        <time>2015-03-07T14:48:29Z</time>
      </trkpt>
      <trkpt lat="45.4597" lon="5.92475">
        <ele>1875.67</ele>
        <time>2015-03-07T14:48:35Z</time>
      </trkpt>
      <trkpt lat="45.45965" lon="5.92476">
        <ele>1876.15</ele>
        <time>2015-03-07T14:48:53Z</time>
      </trkpt>
      <trkpt lat="45.45965" lon="5.92475">
        <ele>1877.11</ele>
        <time>2015-03-07T14:49:11Z</time>
      </trkpt>
      <trkpt lat="45.4597" lon="5.92471">
        <ele>1879.03</ele>
        <time>2015-03-07T14:49:15Z</time>
      </trkpt>
      <trkpt lat="45.45978" lon="5.92463">
        <ele>1875.67</ele>
        <time>2015-03-07T14:49:24Z</time>
      </trkpt>
      <trkpt lat="45.45981" lon="5.92464">
        <ele>1877.11</ele>
        <time>2015-03-07T14:49:49Z</time>
      </trkpt>
      <trkpt lat="45.45983" lon="5.92465">
        <ele>1876.63</ele>
        <time>2015-03-07T14:50:05Z</time>
      </trkpt>
      <trkpt lat="45.45982" lon="5.92464">
        <ele>1876.15</ele>
        <time>2015-03-07T14:50:22Z</time>
      </trkpt>
      <trkpt lat="45.45983" lon="5.92464">
        <ele>1877.11</ele>
        <time>2015-03-07T14:51:06Z</time>
      </trkpt>
      <trkpt lat="45.45983" lon="5.92464">
        <ele>1877.11</ele>
        <time>2015-03-07T14:51:28Z</time>
      </trkpt>
      <trkpt lat="45.45983" lon="5.92451">
        <ele>1873.27</ele>
        <time>2015-03-07T14:51:33Z</time>
      </trkpt>
      <trkpt lat="45.45982" lon="5.92449">
        <ele>1871.82</ele>
        <time>2015-03-07T14:51:34Z</time>
      </trkpt>
      <trkpt lat="45.45964" lon="5.92448">
        <ele>1868.46</ele>
        <time>2015-03-07T14:51:37Z</time>
      </trkpt>
      <trkpt lat="45.45956" lon="5.92442">
        <ele>1866.06</ele>
        <time>2015-03-07T14:51:41Z</time>
      </trkpt>
      <trkpt lat="45.45951" lon="5.92436">
        <ele>1867.02</ele>
        <time>2015-03-07T14:51:54Z</time>
      </trkpt>
      <trkpt lat="45.45949" lon="5.9244">
        <ele>1867.98</ele>
        <time>2015-03-07T14:52:21Z</time>
      </trkpt>
      <trkpt lat="45.45946" lon="5.92438">
        <ele>1867.98</ele>
        <time>2015-03-07T14:52:28Z</time>
      </trkpt>
      <trkpt lat="45.45938" lon="5.92438">
        <ele>1867.98</ele>
        <time>2015-03-07T14:52:41Z</time>
      </trkpt>
      <trkpt lat="45.45939" lon="5.92438">
        <ele>1867.5</ele>
        <time>2015-03-07T14:52:59Z</time>
      </trkpt>
      <trkpt lat="45.45931" lon="5.92442">
        <ele>1865.09</ele>
        <time>2015-03-07T14:53:09Z</time>
      </trkpt>
      <trkpt lat="45.4593" lon="5.92443">
        <ele>1862.69</ele>
        <time>2015-03-07T14:53:14Z</time>
      </trkpt>
      <trkpt lat="45.45925" lon="5.92435">
        <ele>1859.81</ele>
        <time>2015-03-07T14:53:31Z</time>
      </trkpt>
      <trkpt lat="45.45919" lon="5.9244">
        <ele>1860.29</ele>
        <time>2015-03-07T14:54:30Z</time>
      </trkpt>
      <trkpt lat="45.45921" lon="5.92424">
        <ele>1859.81</ele>
        <time>2015-03-07T14:56:21Z</time>
      </trkpt>
      <trkpt lat="45.45928" lon="5.92428">
        <ele>1860.29</ele>
        <time>2015-03-07T14:57:26Z</time>
      </trkpt>
      <trkpt lat="45.45928" lon="5.92416">
        <ele>1857.4</ele>
        <time>2015-03-07T14:59:09Z</time>
      </trkpt>
      <trkpt lat="45.45925" lon="5.92415">
        <ele>1856.92</ele>
        <time>2015-03-07T14:59:39Z</time>
      </trkpt>
      <trkpt lat="45.45925" lon="5.92418">
        <ele>1855</ele>
        <time>2015-03-07T15:00:33Z</time>
      </trkpt>
      <trkpt lat="45.45927" lon="5.92411">
        <ele>1854.04</ele>
        <time>2015-03-07T15:00:55Z</time>
      </trkpt>
      <trkpt lat="45.45929" lon="5.92408">
        <ele>1853.56</ele>
        <time>2015-03-07T15:01:17Z</time>
      </trkpt>
      <trkpt lat="45.45929" lon="5.92415">
        <ele>1855</ele>
        <time>2015-03-07T15:02:02Z</time>
      </trkpt>
      <trkpt lat="45.45929" lon="5.92418">
        <ele>1855.48</ele>
        <time>2015-03-07T15:02:19Z</time>
      </trkpt>
      <trkpt lat="45.45931" lon="5.92421">
        <ele>1855</ele>
        <time>2015-03-07T15:02:36Z</time>
      </trkpt>
      <trkpt lat="45.45933" lon="5.92414">
        <ele>1851.64</ele>
        <time>2015-03-07T15:02:44Z</time>
      </trkpt>
      <trkpt lat="45.4593" lon="5.92408">
        <ele>1848.75</ele>
        <time>2015-03-07T15:02:48Z</time>
      </trkpt>
      <trkpt lat="45.45924" lon="5.92396">
        <ele>1846.35</ele>
        <time>2015-03-07T15:02:51Z</time>
      </trkpt>
      <trkpt lat="45.45932" lon="5.92396">
        <ele>1841.06</ele>
        <time>2015-03-07T15:02:54Z</time>
      </trkpt>
      <trkpt lat="45.45933" lon="5.92397">
        <ele>1840.1</ele>
        <time>2015-03-07T15:02:55Z</time>
      </trkpt>
      <trkpt lat="45.45934" lon="5.92388">
        <ele>1836.74</ele>
        <time>2015-03-07T15:03:00Z</time>
      </trkpt>
      <trkpt lat="45.45933" lon="5.92384">
        <ele>1833.37</ele>
        <time>2015-03-07T15:03:04Z</time>
      </trkpt>
      <trkpt lat="45.45934" lon="5.92382">
        <ele>1830.01</ele>
        <time>2015-03-07T15:03:16Z</time>
      </trkpt>
      <trkpt lat="45.45931" lon="5.92378">
        <ele>1828.56</ele>
        <time>2015-03-07T15:03:19Z</time>
      </trkpt>
      <trkpt lat="45.45935" lon="5.92366">
        <ele>1824.72</ele>
        <time>2015-03-07T15:03:24Z</time>
      </trkpt>
      <trkpt lat="45.45939" lon="5.92361">
        <ele>1821.35</ele>
        <time>2015-03-07T15:03:27Z</time>
      </trkpt>
      <trkpt lat="45.45941" lon="5.92356">
        <ele>1819.43</ele>
        <time>2015-03-07T15:03:29Z</time>
      </trkpt>
      <trkpt lat="45.45936" lon="5.92354">
        <ele>1817.51</ele>
        <time>2015-03-07T15:03:31Z</time>
      </trkpt>
      <trkpt lat="45.45935" lon="5.92348">
        <ele>1815.11</ele>
        <time>2015-03-07T15:03:34Z</time>
      </trkpt>
      <trkpt lat="45.45935" lon="5.92348">
        <ele>1814.15</ele>
        <time>2015-03-07T15:03:35Z</time>
      </trkpt>
      <trkpt lat="45.45919" lon="5.92336">
        <ele>1809.34</ele>
        <time>2015-03-07T15:03:40Z</time>
      </trkpt>
      <trkpt lat="45.45911" lon="5.92333">
        <ele>1807.42</ele>
        <time>2015-03-07T15:03:43Z</time>
      </trkpt>
      <trkpt lat="45.4589" lon="5.92331">
        <ele>1804.05</ele>
        <time>2015-03-07T15:03:52Z</time>
      </trkpt>
      <trkpt lat="45.45875" lon="5.92337">
        <ele>1800.69</ele>
        <time>2015-03-07T15:04:00Z</time>
      </trkpt>
      <trkpt lat="45.45875" lon="5.92337">
        <ele>1797.32</ele>
        <time>2015-03-07T15:04:05Z</time>
      </trkpt>
      <trkpt lat="45.45876" lon="5.92336">
        <ele>1794.44</ele>
        <time>2015-03-07T15:04:14Z</time>
      </trkpt>
      <trkpt lat="45.45877" lon="5.92335">
        <ele>1791.07</ele>
        <time>2015-03-07T15:04:21Z</time>
      </trkpt>
      <trkpt lat="45.45877" lon="5.92335">
        <ele>1787.71</ele>
        <time>2015-03-07T15:04:29Z</time>
      </trkpt>
      <trkpt lat="45.4588" lon="5.92328">
        <ele>1783.86</ele>
        <time>2015-03-07T15:04:33Z</time>
      </trkpt>
      <trkpt lat="45.4588" lon="5.92324">
        <ele>1781.94</ele>
        <time>2015-03-07T15:04:35Z</time>
      </trkpt>
      <trkpt lat="45.45885" lon="5.92312">
        <ele>1778.1</ele>
        <time>2015-03-07T15:04:40Z</time>
      </trkpt>
      <trkpt lat="45.45894" lon="5.92303">
        <ele>1774.25</ele>
        <time>2015-03-07T15:04:43Z</time>
      </trkpt>
      <trkpt lat="45.45884" lon="5.92298">
        <ele>1769.92</ele>
        <time>2015-03-07T15:04:46Z</time>
      </trkpt>
      <trkpt lat="45.45888" lon="5.92292">
        <ele>1767.04</ele>
        <time>2015-03-07T15:04:49Z</time>
      </trkpt>
      <trkpt lat="45.45888" lon="5.92287">
        <ele>1762.71</ele>
        <time>2015-03-07T15:04:52Z</time>
      </trkpt>
      <trkpt lat="45.4589" lon="5.92276">
        <ele>1758.87</ele>
        <time>2015-03-07T15:04:55Z</time>
      </trkpt>
      <trkpt lat="45.45887" lon="5.92264">
        <ele>1754.54</ele>
        <time>2015-03-07T15:04:59Z</time>
      </trkpt>
      <trkpt lat="45.45891" lon="5.92255">
        <ele>1750.22</ele>
        <time>2015-03-07T15:05:02Z</time>
      </trkpt>
      <trkpt lat="45.45889" lon="5.92243">
        <ele>1745.89</ele>
        <time>2015-03-07T15:05:05Z</time>
      </trkpt>
      <trkpt lat="45.45896" lon="5.92238">
        <ele>1742.05</ele>
        <time>2015-03-07T15:05:07Z</time>
      </trkpt>
      <trkpt lat="45.45896" lon="5.9223">
        <ele>1738.68</ele>
        <time>2015-03-07T15:05:09Z</time>
      </trkpt>
      <trkpt lat="45.45898" lon="5.92222">
        <ele>1735.32</ele>
        <time>2015-03-07T15:05:11Z</time>
      </trkpt>
      <trkpt lat="45.45899" lon="5.92219">
        <ele>1735.32</ele>
        <time>2015-03-07T15:05:12Z</time>
      </trkpt>
      <trkpt lat="45.45897" lon="5.92212">
        <ele>1730.99</ele>
        <time>2015-03-07T15:05:14Z</time>
      </trkpt>
      <trkpt lat="45.45903" lon="5.92208">
        <ele>1727.63</ele>
        <time>2015-03-07T15:05:16Z</time>
      </trkpt>
      <trkpt lat="45.45913" lon="5.92208">
        <ele>1723.3</ele>
        <time>2015-03-07T15:05:19Z</time>
      </trkpt>
      <trkpt lat="45.45942" lon="5.92207">
        <ele>1720.42</ele>
        <time>2015-03-07T15:05:27Z</time>
      </trkpt>
      <trkpt lat="45.45959" lon="5.92203">
        <ele>1717.05</ele>
        <time>2015-03-07T15:05:32Z</time>
      </trkpt>
      <trkpt lat="45.45971" lon="5.92203">
        <ele>1715.61</ele>
        <time>2015-03-07T15:05:35Z</time>
      </trkpt>
      <trkpt lat="45.45975" lon="5.92202">
        <ele>1715.13</ele>
        <time>2015-03-07T15:05:36Z</time>
      </trkpt>
      <trkpt lat="45.45978" lon="5.92193">
        <ele>1710.32</ele>
        <time>2015-03-07T15:05:40Z</time>
      </trkpt>
      <trkpt lat="45.45982" lon="5.92184">
        <ele>1706</ele>
        <time>2015-03-07T15:05:42Z</time>
      </trkpt>
      <trkpt lat="45.45975" lon="5.92172">
        <ele>1700.71</ele>
        <time>2015-03-07T15:05:44Z</time>
      </trkpt>
      <trkpt lat="45.45978" lon="5.92161">
        <ele>1695.42</ele>
        <time>2015-03-07T15:05:46Z</time>
      </trkpt>
      <trkpt lat="45.45974" lon="5.92146">
        <ele>1689.65</ele>
        <time>2015-03-07T15:05:49Z</time>
      </trkpt>
      <trkpt lat="45.45976" lon="5.92142">
        <ele>1686.77</ele>
        <time>2015-03-07T15:05:50Z</time>
      </trkpt>
      <trkpt lat="45.45975" lon="5.92131">
        <ele>1681.96</ele>
        <time>2015-03-07T15:05:52Z</time>
      </trkpt>
      <trkpt lat="45.4597" lon="5.92122">
        <ele>1676.68</ele>
        <time>2015-03-07T15:05:54Z</time>
      </trkpt>
      <trkpt lat="45.45974" lon="5.92107">
        <ele>1669.95</ele>
        <time>2015-03-07T15:05:57Z</time>
      </trkpt>
      <trkpt lat="45.45974" lon="5.92101">
        <ele>1666.1</ele>
        <time>2015-03-07T15:05:58Z</time>
      </trkpt>
      <trkpt lat="45.45975" lon="5.92095">
        <ele>1666.1</ele>
        <time>2015-03-07T15:05:59Z</time>
      </trkpt>
      <trkpt lat="45.45974" lon="5.92079">
        <ele>1661.3</ele>
        <time>2015-03-07T15:06:01Z</time>
      </trkpt>
      <trkpt lat="45.45974" lon="5.92072">
        <ele>1657.45</ele>
        <time>2015-03-07T15:06:02Z</time>
      </trkpt>
      <trkpt lat="45.45976" lon="5.92067">
        <ele>1653.6</ele>
        <time>2015-03-07T15:06:03Z</time>
      </trkpt>
      <trkpt lat="45.45975" lon="5.92053">
        <ele>1647.84</ele>
        <time>2015-03-07T15:06:05Z</time>
      </trkpt>
      <trkpt lat="45.45977" lon="5.92047">
        <ele>1644.47</ele>
        <time>2015-03-07T15:06:06Z</time>
      </trkpt>
      <trkpt lat="45.45989" lon="5.9204">
        <ele>1639.67</ele>
        <time>2015-03-07T15:06:08Z</time>
      </trkpt>
      <trkpt lat="45.46" lon="5.92033">
        <ele>1635.82</ele>
        <time>2015-03-07T15:06:11Z</time>
      </trkpt>
      <trkpt lat="45.45993" lon="5.92016">
        <ele>1630.05</ele>
        <time>2015-03-07T15:06:14Z</time>
      </trkpt>
      <trkpt lat="45.45993" lon="5.9201">
        <ele>1627.65</ele>
        <time>2015-03-07T15:06:15Z</time>
      </trkpt>
      <trkpt lat="45.45989" lon="5.91996">
        <ele>1619</ele>
        <time>2015-03-07T15:06:18Z</time>
      </trkpt>
      <trkpt lat="45.4599" lon="5.91991">
        <ele>1616.59</ele>
        <time>2015-03-07T15:06:19Z</time>
      </trkpt>
      <trkpt lat="45.45986" lon="5.91974">
        <ele>1610.83</ele>
        <time>2015-03-07T15:06:22Z</time>
      </trkpt>
      <trkpt lat="45.45986" lon="5.91965">
        <ele>1605.54</ele>
        <time>2015-03-07T15:06:24Z</time>
      </trkpt>
      <trkpt lat="45.45985" lon="5.91959">
        <ele>1600.25</ele>
        <time>2015-03-07T15:06:26Z</time>
      </trkpt>
      <trkpt lat="45.45983" lon="5.91949">
        <ele>1594.96</ele>
        <time>2015-03-07T15:06:28Z</time>
      </trkpt>
      <trkpt lat="45.45985" lon="5.91939">
        <ele>1591.12</ele>
        <time>2015-03-07T15:06:30Z</time>
      </trkpt>
      <trkpt lat="45.45986" lon="5.91927">
        <ele>1585.35</ele>
        <time>2015-03-07T15:06:32Z</time>
      </trkpt>
      <trkpt lat="45.45991" lon="5.91923">
        <ele>1585.35</ele>
        <time>2015-03-07T15:06:33Z</time>
      </trkpt>
      <trkpt lat="45.45997" lon="5.91918">
        <ele>1580.54</ele>
        <time>2015-03-07T15:06:35Z</time>
      </trkpt>
      <trkpt lat="45.45997" lon="5.91914">
        <ele>1578.14</ele>
        <time>2015-03-07T15:06:36Z</time>
      </trkpt>
      <trkpt lat="45.46003" lon="5.91896">
        <ele>1568.53</ele>
        <time>2015-03-07T15:06:40Z</time>
      </trkpt>
      <trkpt lat="45.4601" lon="5.91896">
        <ele>1564.68</ele>
        <time>2015-03-07T15:06:42Z</time>
      </trkpt>
      <trkpt lat="45.46009" lon="5.91896">
        <ele>1563.72</ele>
        <time>2015-03-07T15:06:44Z</time>
      </trkpt>
      <trkpt lat="45.46009" lon="5.91896">
        <ele>1563.24</ele>
        <time>2015-03-07T15:06:53Z</time>
      </trkpt>
      <trkpt lat="45.4602" lon="5.91892">
        <ele>1559.88</ele>
        <time>2015-03-07T15:07:01Z</time>
      </trkpt>
      <trkpt lat="45.46027" lon="5.91883">
        <ele>1557.47</ele>
        <time>2015-03-07T15:07:05Z</time>
      </trkpt>
      <trkpt lat="45.46027" lon="5.91873">
        <ele>1554.59</ele>
        <time>2015-03-07T15:07:08Z</time>
      </trkpt>
      <trkpt lat="45.46032" lon="5.91866">
        <ele>1551.22</ele>
        <time>2015-03-07T15:07:10Z</time>
      </trkpt>
      <trkpt lat="45.46038" lon="5.91862">
        <ele>1547.38</ele>
        <time>2015-03-07T15:07:12Z</time>
      </trkpt>
      <trkpt lat="45.46038" lon="5.91859">
        <ele>1545.94</ele>
        <time>2015-03-07T15:07:14Z</time>
      </trkpt>
      <trkpt lat="45.46032" lon="5.91851">
        <ele>1544.01</ele>
        <time>2015-03-07T15:07:18Z</time>
      </trkpt>
      <trkpt lat="45.46029" lon="5.91846">
        <ele>1542.57</ele>
        <time>2015-03-07T15:07:20Z</time>
      </trkpt>
      <trkpt lat="45.46031" lon="5.91839">
        <ele>1537.77</ele>
        <time>2015-03-07T15:07:24Z</time>
      </trkpt>
      <trkpt lat="45.46035" lon="5.91823">
        <ele>1533.92</ele>
        <time>2015-03-07T15:07:30Z</time>
      </trkpt>
      <trkpt lat="45.46041" lon="5.91815">
        <ele>1530.56</ele>
        <time>2015-03-07T15:07:33Z</time>
      </trkpt>
      <trkpt lat="45.46041" lon="5.91808">
        <ele>1527.19</ele>
        <time>2015-03-07T15:07:36Z</time>
      </trkpt>
      <trkpt lat="45.46042" lon="5.91802">
        <ele>1526.23</ele>
        <time>2015-03-07T15:07:38Z</time>
      </trkpt>
      <trkpt lat="45.46042" lon="5.91797">
        <ele>1522.39</ele>
        <time>2015-03-07T15:07:41Z</time>
      </trkpt>
      <trkpt lat="45.46046" lon="5.91794">
        <ele>1519.5</ele>
        <time>2015-03-07T15:07:46Z</time>
      </trkpt>
      <trkpt lat="45.46046" lon="5.91794">
        <ele>1519.02</ele>
        <time>2015-03-07T15:07:47Z</time>
      </trkpt>
      <trkpt lat="45.46045" lon="5.91786">
        <ele>1517.58</ele>
        <time>2015-03-07T15:08:04Z</time>
      </trkpt>
      <trkpt lat="45.46039" lon="5.91774">
        <ele>1512.29</ele>
        <time>2015-03-07T15:08:08Z</time>
      </trkpt>
      <trkpt lat="45.46039" lon="5.91766">
        <ele>1511.33</ele>
        <time>2015-03-07T15:08:10Z</time>
      </trkpt>
      <trkpt lat="45.46041" lon="5.91758">
        <ele>1507.97</ele>
        <time>2015-03-07T15:08:13Z</time>
      </trkpt>
      <trkpt lat="45.46041" lon="5.91758">
        <ele>1507</ele>
        <time>2015-03-07T15:08:14Z</time>
      </trkpt>
      <trkpt lat="45.46035" lon="5.91747">
        <ele>1503.16</ele>
        <time>2015-03-07T15:08:19Z</time>
      </trkpt>
      <trkpt lat="45.46035" lon="5.91743">
        <ele>1503.16</ele>
        <time>2015-03-07T15:08:20Z</time>
      </trkpt>
      <trkpt lat="45.46037" lon="5.91731">
        <ele>1499.31</ele>
        <time>2015-03-07T15:08:23Z</time>
      </trkpt>
      <trkpt lat="45.46035" lon="5.91723">
        <ele>1494.99</ele>
        <time>2015-03-07T15:08:26Z</time>
      </trkpt>
      <trkpt lat="45.46033" lon="5.91713">
        <ele>1490.66</ele>
        <time>2015-03-07T15:08:29Z</time>
      </trkpt>
      <trkpt lat="45.46033" lon="5.9171">
        <ele>1490.66</ele>
        <time>2015-03-07T15:08:30Z</time>
      </trkpt>
      <trkpt lat="45.4604" lon="5.91703">
        <ele>1488.74</ele>
        <time>2015-03-07T15:08:34Z</time>
      </trkpt>
      <trkpt lat="45.46035" lon="5.91702">
        <ele>1484.89</ele>
        <time>2015-03-07T15:08:40Z</time>
      </trkpt>
      <trkpt lat="45.46037" lon="5.91692">
        <ele>1483.45</ele>
        <time>2015-03-07T15:08:42Z</time>
      </trkpt>
      <trkpt lat="45.46038" lon="5.91679">
        <ele>1479.13</ele>
        <time>2015-03-07T15:08:47Z</time>
      </trkpt>
      <trkpt lat="45.46049" lon="5.91668">
        <ele>1475.76</ele>
        <time>2015-03-07T15:08:51Z</time>
      </trkpt>
      <trkpt lat="45.46052" lon="5.91663">
        <ele>1474.32</ele>
        <time>2015-03-07T15:08:52Z</time>
      </trkpt>
      <trkpt lat="45.46056" lon="5.91654">
        <ele>1471.44</ele>
        <time>2015-03-07T15:08:55Z</time>
      </trkpt>
      <trkpt lat="45.46054" lon="5.91649">
        <ele>1467.59</ele>
        <time>2015-03-07T15:08:57Z</time>
      </trkpt>
      <trkpt lat="45.46054" lon="5.91641">
        <ele>1464.23</ele>
        <time>2015-03-07T15:09:00Z</time>
      </trkpt>
      <trkpt lat="45.46056" lon="5.91641">
        <ele>1462.3</ele>
        <time>2015-03-07T15:09:03Z</time>
      </trkpt>
      <trkpt lat="45.46052" lon="5.91632">
        <ele>1459.9</ele>
        <time>2015-03-07T15:09:06Z</time>
      </trkpt>
      <trkpt lat="45.46053" lon="5.91616">
        <ele>1454.61</ele>
        <time>2015-03-07T15:09:10Z</time>
      </trkpt>
      <trkpt lat="45.46046" lon="5.91612">
        <ele>1451.73</ele>
        <time>2015-03-07T15:09:14Z</time>
      </trkpt>
      <trkpt lat="45.46039" lon="5.91605">
        <ele>1447.88</ele>
        <time>2015-03-07T15:09:17Z</time>
      </trkpt>
      <trkpt lat="45.46033" lon="5.916">
        <ele>1444.04</ele>
        <time>2015-03-07T15:09:20Z</time>
      </trkpt>
      <trkpt lat="45.46029" lon="5.91594">
        <ele>1440.67</ele>
        <time>2015-03-07T15:09:23Z</time>
      </trkpt>
      <trkpt lat="45.46032" lon="5.91588">
        <ele>1439.71</ele>
        <time>2015-03-07T15:09:25Z</time>
      </trkpt>
      <trkpt lat="45.46017" lon="5.91573">
        <ele>1437.79</ele>
        <time>2015-03-07T15:09:40Z</time>
      </trkpt>
      <trkpt lat="45.46008" lon="5.91545">
        <ele>1433.94</ele>
        <time>2015-03-07T15:09:54Z</time>
      </trkpt>
      <trkpt lat="45.46007" lon="5.9154">
        <ele>1432.5</ele>
        <time>2015-03-07T15:09:56Z</time>
      </trkpt>
      <trkpt lat="45.46003" lon="5.91535">
        <ele>1429.62</ele>
        <time>2015-03-07T15:09:58Z</time>
      </trkpt>
      <trkpt lat="45.45995" lon="5.91529">
        <ele>1425.29</ele>
        <time>2015-03-07T15:10:01Z</time>
      </trkpt>
      <trkpt lat="45.45991" lon="5.91526">
        <ele>1423.85</ele>
        <time>2015-03-07T15:10:02Z</time>
      </trkpt>
      <trkpt lat="45.4598" lon="5.91523">
        <ele>1420</ele>
        <time>2015-03-07T15:10:07Z</time>
      </trkpt>
      <trkpt lat="45.45975" lon="5.91524">
        <ele>1420</ele>
        <time>2015-03-07T15:10:09Z</time>
      </trkpt>
      <trkpt lat="45.45961" lon="5.91496">
        <ele>1416.16</ele>
        <time>2015-03-07T15:10:14Z</time>
      </trkpt>
      <trkpt lat="45.45943" lon="5.91486">
        <ele>1413.28</ele>
        <time>2015-03-07T15:10:16Z</time>
      </trkpt>
      <trkpt lat="45.45934" lon="5.91476">
        <ele>1411.35</ele>
        <time>2015-03-07T15:10:18Z</time>
      </trkpt>
      <trkpt lat="45.45929" lon="5.9147">
        <ele>1409.43</ele>
        <time>2015-03-07T15:10:19Z</time>
      </trkpt>
      <trkpt lat="45.45921" lon="5.91454">
        <ele>1404.14</ele>
        <time>2015-03-07T15:10:22Z</time>
      </trkpt>
      <trkpt lat="45.45918" lon="5.91452">
        <ele>1402.22</ele>
        <time>2015-03-07T15:10:25Z</time>
      </trkpt>
      <trkpt lat="45.45917" lon="5.91451">
        <ele>1402.22</ele>
        <time>2015-03-07T15:10:28Z</time>
      </trkpt>
      <trkpt lat="45.45915" lon="5.91444">
        <ele>1401.74</ele>
        <time>2015-03-07T15:10:30Z</time>
      </trkpt>
      <trkpt lat="45.45911" lon="5.91414">
        <ele>1396.45</ele>
        <time>2015-03-07T15:10:34Z</time>
      </trkpt>
      <trkpt lat="45.45912" lon="5.91394">
        <ele>1391.17</ele>
        <time>2015-03-07T15:10:36Z</time>
      </trkpt>
      <trkpt lat="45.45917" lon="5.91364">
        <ele>1385.88</ele>
        <time>2015-03-07T15:10:39Z</time>
      </trkpt>
      <trkpt lat="45.4592" lon="5.91355">
        <ele>1382.51</ele>
        <time>2015-03-07T15:10:40Z</time>
      </trkpt>
      <trkpt lat="45.45921" lon="5.91347">
        <ele>1379.63</ele>
        <time>2015-03-07T15:10:41Z</time>
      </trkpt>
      <trkpt lat="45.45924" lon="5.91328">
        <ele>1372.9</ele>
        <time>2015-03-07T15:10:43Z</time>
      </trkpt>
      <trkpt lat="45.45926" lon="5.91318">
        <ele>1370.02</ele>
        <time>2015-03-07T15:10:44Z</time>
      </trkpt>
      <trkpt lat="45.45927" lon="5.91306">
        <ele>1366.65</ele>
        <time>2015-03-07T15:10:45Z</time>
      </trkpt>
      <trkpt lat="45.45931" lon="5.91295">
        <ele>1362.33</ele>
        <time>2015-03-07T15:10:46Z</time>
      </trkpt>
      <trkpt lat="45.45934" lon="5.91282">
        <ele>1358.96</ele>
        <time>2015-03-07T15:10:47Z</time>
      </trkpt>
      <trkpt lat="45.45934" lon="5.91268">
        <ele>1355.12</ele>
        <time>2015-03-07T15:10:48Z</time>
      </trkpt>
      <trkpt lat="45.45943" lon="5.91243">
        <ele>1348.87</ele>
        <time>2015-03-07T15:10:50Z</time>
      </trkpt>
      <trkpt lat="45.45946" lon="5.91233">
        <ele>1344.54</ele>
        <time>2015-03-07T15:10:51Z</time>
      </trkpt>
      <trkpt lat="45.45945" lon="5.9122">
        <ele>1340.22</ele>
        <time>2015-03-07T15:10:52Z</time>
      </trkpt>
      <trkpt lat="45.45946" lon="5.91207">
        <ele>1334.93</ele>
        <time>2015-03-07T15:10:53Z</time>
      </trkpt>
      <trkpt lat="45.45947" lon="5.91194">
        <ele>1330.12</ele>
        <time>2015-03-07T15:10:54Z</time>
      </trkpt>
      <trkpt lat="45.45954" lon="5.91172">
        <ele>1323.39</ele>
        <time>2015-03-07T15:10:56Z</time>
      </trkpt>
      <trkpt lat="45.45955" lon="5.91156">
        <ele>1317.14</ele>
        <time>2015-03-07T15:10:57Z</time>
      </trkpt>
      <trkpt lat="45.45961" lon="5.91141">
        <ele>1313.78</ele>
        <time>2015-03-07T15:10:58Z</time>
      </trkpt>
      <trkpt lat="45.45966" lon="5.91123">
        <ele>1310.41</ele>
        <time>2015-03-07T15:10:59Z</time>
      </trkpt>
      <trkpt lat="45.45974" lon="5.91061">
        <ele>1296.48</ele>
        <time>2015-03-07T15:11:02Z</time>
      </trkpt>
      <trkpt lat="45.45978" lon="5.91039">
        <ele>1293.11</ele>
        <time>2015-03-07T15:11:03Z</time>
      </trkpt>
      <trkpt lat="45.45978" lon="5.91018">
        <ele>1289.27</ele>
        <time>2015-03-07T15:11:04Z</time>
      </trkpt>
      <trkpt lat="45.45976" lon="5.90996">
        <ele>1282.54</ele>
        <time>2015-03-07T15:11:05Z</time>
      </trkpt>
      <trkpt lat="45.45975" lon="5.90936">
        <ele>1266.67</ele>
        <time>2015-03-07T15:11:08Z</time>
      </trkpt>
      <trkpt lat="45.4597" lon="5.90898">
        <ele>1253.22</ele>
        <time>2015-03-07T15:11:10Z</time>
      </trkpt>
      <trkpt lat="45.4597" lon="5.90881">
        <ele>1253.22</ele>
        <time>2015-03-07T15:11:11Z</time>
      </trkpt>
      <trkpt lat="45.45966" lon="5.9085">
        <ele>1248.41</ele>
        <time>2015-03-07T15:11:13Z</time>
      </trkpt>
      <trkpt lat="45.45963" lon="5.90819">
        <ele>1238.8</ele>
        <time>2015-03-07T15:11:15Z</time>
      </trkpt>
      <trkpt lat="45.45957" lon="5.90795">
        <ele>1232.07</ele>
        <time>2015-03-07T15:11:17Z</time>
      </trkpt>
      <trkpt lat="45.45958" lon="5.90781">
        <ele>1227.74</ele>
        <time>2015-03-07T15:11:18Z</time>
      </trkpt>
      <trkpt lat="45.45961" lon="5.90745">
        <ele>1222.93</ele>
        <time>2015-03-07T15:11:20Z</time>
      </trkpt>
      <trkpt lat="45.4596" lon="5.90726">
        <ele>1216.69</ele>
        <time>2015-03-07T15:11:21Z</time>
      </trkpt>
      <trkpt lat="45.45963" lon="5.90708">
        <ele>1216.69</ele>
        <time>2015-03-07T15:11:22Z</time>
      </trkpt>
      <trkpt lat="45.45966" lon="5.90676">
        <ele>1208.03</ele>
        <time>2015-03-07T15:11:24Z</time>
      </trkpt>
      <trkpt lat="45.45964" lon="5.90647">
        <ele>1199.38</ele>
        <time>2015-03-07T15:11:26Z</time>
      </trkpt>
      <trkpt lat="45.45969" lon="5.90623">
        <ele>1195.54</ele>
        <time>2015-03-07T15:11:28Z</time>
      </trkpt>
      <trkpt lat="45.45972" lon="5.90608">
        <ele>1190.73</ele>
        <time>2015-03-07T15:11:29Z</time>
      </trkpt>
      <trkpt lat="45.45975" lon="5.90597">
        <ele>1184.96</ele>
        <time>2015-03-07T15:11:30Z</time>
      </trkpt>
      <trkpt lat="45.45988" lon="5.90567">
        <ele>1181.12</ele>
        <time>2015-03-07T15:11:33Z</time>
      </trkpt>
      <trkpt lat="45.4599" lon="5.90553">
        <ele>1177.75</ele>
        <time>2015-03-07T15:11:34Z</time>
      </trkpt>
      <trkpt lat="45.45994" lon="5.90539">
        <ele>1175.35</ele>
        <time>2015-03-07T15:11:35Z</time>
      </trkpt>
      <trkpt lat="45.46012" lon="5.90498">
        <ele>1167.18</ele>
        <time>2015-03-07T15:11:38Z</time>
      </trkpt>
      <trkpt lat="45.46016" lon="5.90479">
        <ele>1164.29</ele>
        <time>2015-03-07T15:11:39Z</time>
      </trkpt>
      <trkpt lat="45.46024" lon="5.9046">
        <ele>1159.97</ele>
        <time>2015-03-07T15:11:40Z</time>
      </trkpt>
      <trkpt lat="45.46031" lon="5.90446">
        <ele>1157.08</ele>
        <time>2015-03-07T15:11:41Z</time>
      </trkpt>
      <trkpt lat="45.46044" lon="5.90421">
        <ele>1149.39</ele>
        <time>2015-03-07T15:11:43Z</time>
      </trkpt>
      <trkpt lat="45.46048" lon="5.90411">
        <ele>1149.39</ele>
        <time>2015-03-07T15:11:44Z</time>
      </trkpt>
      <trkpt lat="45.46054" lon="5.904">
        <ele>1146.99</ele>
        <time>2015-03-07T15:11:45Z</time>
      </trkpt>
      <trkpt lat="45.46064" lon="5.90376">
        <ele>1140.74</ele>
        <time>2015-03-07T15:11:48Z</time>
      </trkpt>
      <trkpt lat="45.46075" lon="5.90356">
        <ele>1134.49</ele>
        <time>2015-03-07T15:11:50Z</time>
      </trkpt>
      <trkpt lat="45.46084" lon="5.90351">
        <ele>1131.13</ele>
        <time>2015-03-07T15:11:51Z</time>
      </trkpt>
      <trkpt lat="45.461" lon="5.90322">
        <ele>1124.4</ele>
        <time>2015-03-07T15:11:54Z</time>
      </trkpt>
      <trkpt lat="45.46105" lon="5.90305">
        <ele>1119.59</ele>
        <time>2015-03-07T15:11:55Z</time>
      </trkpt>
      <trkpt lat="45.46114" lon="5.90291">
        <ele>1113.82</ele>
        <time>2015-03-07T15:11:56Z</time>
      </trkpt>
      <trkpt lat="45.46127" lon="5.90282">
        <ele>1107.58</ele>
        <time>2015-03-07T15:11:57Z</time>
      </trkpt>
      <trkpt lat="45.46138" lon="5.9027">
        <ele>1102.29</ele>
        <time>2015-03-07T15:11:58Z</time>
      </trkpt>
      <trkpt lat="45.46147" lon="5.90255">
        <ele>1097.48</ele>
        <time>2015-03-07T15:11:59Z</time>
      </trkpt>
      <trkpt lat="45.46152" lon="5.90237">
        <ele>1091.23</ele>
        <time>2015-03-07T15:12:00Z</time>
      </trkpt>
      <trkpt lat="45.4616" lon="5.9022">
        <ele>1084.5</ele>
        <time>2015-03-07T15:12:01Z</time>
      </trkpt>
      <trkpt lat="45.46171" lon="5.90208">
        <ele>1079.22</ele>
        <time>2015-03-07T15:12:02Z</time>
      </trkpt>
      <trkpt lat="45.46183" lon="5.90197">
        <ele>1072.01</ele>
        <time>2015-03-07T15:12:03Z</time>
      </trkpt>
      <trkpt lat="45.46191" lon="5.90185">
        <ele>1066.24</ele>
        <time>2015-03-07T15:12:04Z</time>
      </trkpt>
      <trkpt lat="45.46201" lon="5.9017">
        <ele>1059.03</ele>
        <time>2015-03-07T15:12:05Z</time>
      </trkpt>
      <trkpt lat="45.46211" lon="5.90158">
        <ele>1059.03</ele>
        <time>2015-03-07T15:12:06Z</time>
      </trkpt>
      <trkpt lat="45.46226" lon="5.90132">
        <ele>1055.18</ele>
        <time>2015-03-07T15:12:08Z</time>
      </trkpt>
      <trkpt lat="45.46233" lon="5.90114">
        <ele>1050.38</ele>
        <time>2015-03-07T15:12:09Z</time>
      </trkpt>
      <trkpt lat="45.46243" lon="5.90099">
        <ele>1042.69</ele>
        <time>2015-03-07T15:12:10Z</time>
      </trkpt>
      <trkpt lat="45.46253" lon="5.90092">
        <ele>1039.32</ele>
        <time>2015-03-07T15:12:11Z</time>
      </trkpt>
      <trkpt lat="45.46262" lon="5.90087">
        <ele>1035</ele>
        <time>2015-03-07T15:12:12Z</time>
      </trkpt>
      <trkpt lat="45.46265" lon="5.90078">
        <ele>1030.67</ele>
        <time>2015-03-07T15:12:13Z</time>
      </trkpt>
      <trkpt lat="45.46267" lon="5.90064">
        <ele>1027.31</ele>
        <time>2015-03-07T15:12:14Z</time>
      </trkpt>
      <trkpt lat="45.4628" lon="5.90044">
        <ele>1022.02</ele>
        <time>2015-03-07T15:12:16Z</time>
      </trkpt>
      <trkpt lat="45.46285" lon="5.90041">
        <ele>1022.02</ele>
        <time>2015-03-07T15:12:17Z</time>
      </trkpt>
      <trkpt lat="45.46295" lon="5.9003">
        <ele>1015.29</ele>
        <time>2015-03-07T15:12:19Z</time>
      </trkpt>
      <trkpt lat="45.46297" lon="5.90021">
        <ele>1011.93</ele>
        <time>2015-03-07T15:12:22Z</time>
      </trkpt>
      <trkpt lat="45.46306" lon="5.90005">
        <ele>1009.04</ele>
        <time>2015-03-07T15:12:26Z</time>
      </trkpt>
      <trkpt lat="45.4632" lon="5.89994">
        <ele>1007.12</ele>
        <time>2015-03-07T15:12:29Z</time>
      </trkpt>
      <trkpt lat="45.46327" lon="5.89989">
        <ele>1005.2</ele>
        <time>2015-03-07T15:12:33Z</time>
      </trkpt>
      <trkpt lat="45.46337" lon="5.89985">
        <ele>1004.23</ele>
        <time>2015-03-07T15:12:42Z</time>
      </trkpt>
      <trkpt lat="45.4634" lon="5.89983">
        <ele>1002.79</ele>
        <time>2015-03-07T15:12:55Z</time>
      </trkpt>
      <trkpt lat="45.4634" lon="5.89983">
        <ele>1004.72</ele>
        <time>2015-03-07T15:14:18Z</time>
      </trkpt>
    </trkseg>
  </trk>
</gpx>